<?xml version="1.0" encoding="utf-8"?>
<gpx xmlns:xsi="http://www.w3.org/2001/XMLSchema-instance" xmlns:xsd="http://www.w3.org/2001/XMLSchema" version="1.1" creator="Shapelink.com" xmlns="http://www.topografix.com/GPX/1/1" xmlns:gpxtpx="http://www.garmin.com/xmlschemas/TrackPointExtension/v1">
  <metadata>
    <name>Ciclismo 21.73 km, 2020-02-14</name>
    <desc></desc>
    <author><name>Peter Littke</name></author> 
    <time>2020-02-14T07:46:54Z</time>
  </metadata>
  <trk>
    <name>Ciclismo 21.73 km, 2020-02-14</name>
    <trkseg>
      <trkpt lat="59.340442" lon="18.084931">
        <ele>71</ele>
        <time>2020-02-14T07:46:54Z</time>
      </trkpt>
      <trkpt lat="59.340462" lon="18.0849">
        <ele>65</ele>
        <time>2020-02-14T07:46:58Z</time>
      </trkpt>
      <trkpt lat="59.340447" lon="18.084801">
        <ele>61</ele>
        <time>2020-02-14T07:47:01Z</time>
      </trkpt>
      <trkpt lat="59.340435" lon="18.084756">
        <ele>58</ele>
        <time>2020-02-14T07:47:02Z</time>
      </trkpt>
      <trkpt lat="59.340414" lon="18.084702">
        <ele>57</ele>
        <time>2020-02-14T07:47:03Z</time>
      </trkpt>
      <trkpt lat="59.340411" lon="18.084653">
        <ele>57</ele>
        <time>2020-02-14T07:47:04Z</time>
      </trkpt>
      <trkpt lat="59.340412" lon="18.084605">
        <ele>56</ele>
        <time>2020-02-14T07:47:05Z</time>
      </trkpt>
      <trkpt lat="59.340419" lon="18.084548">
        <ele>55</ele>
        <time>2020-02-14T07:47:06Z</time>
      </trkpt>
      <trkpt lat="59.340445" lon="18.084461">
        <ele>54</ele>
        <time>2020-02-14T07:47:07Z</time>
      </trkpt>
      <trkpt lat="59.340504" lon="18.084325">
        <ele>53</ele>
        <time>2020-02-14T07:47:08Z</time>
      </trkpt>
      <trkpt lat="59.340529" lon="18.084247">
        <ele>53</ele>
        <time>2020-02-14T07:47:09Z</time>
      </trkpt>
      <trkpt lat="59.340554" lon="18.084153">
        <ele>52</ele>
        <time>2020-02-14T07:47:11Z</time>
      </trkpt>
      <trkpt lat="59.340573" lon="18.084079">
        <ele>51</ele>
        <time>2020-02-14T07:47:11Z</time>
      </trkpt>
      <trkpt lat="59.340597" lon="18.083993">
        <ele>51</ele>
        <time>2020-02-14T07:47:12Z</time>
      </trkpt>
      <trkpt lat="59.340616" lon="18.083919">
        <ele>51</ele>
        <time>2020-02-14T07:47:13Z</time>
      </trkpt>
      <trkpt lat="59.340625" lon="18.083864">
        <ele>50</ele>
        <time>2020-02-14T07:47:14Z</time>
      </trkpt>
      <trkpt lat="59.340615" lon="18.083827">
        <ele>49</ele>
        <time>2020-02-14T07:47:15Z</time>
      </trkpt>
      <trkpt lat="59.340604" lon="18.083776">
        <ele>47</ele>
        <time>2020-02-14T07:47:17Z</time>
      </trkpt>
      <trkpt lat="59.340586" lon="18.083728">
        <ele>45</ele>
        <time>2020-02-14T07:47:20Z</time>
      </trkpt>
      <trkpt lat="59.340574" lon="18.083692">
        <ele>43</ele>
        <time>2020-02-14T07:47:22Z</time>
      </trkpt>
      <trkpt lat="59.340559" lon="18.083662">
        <ele>41</ele>
        <time>2020-02-14T07:47:24Z</time>
      </trkpt>
      <trkpt lat="59.340529" lon="18.083633">
        <ele>39</ele>
        <time>2020-02-14T07:47:26Z</time>
      </trkpt>
      <trkpt lat="59.340505" lon="18.083613">
        <ele>38</ele>
        <time>2020-02-14T07:47:27Z</time>
      </trkpt>
      <trkpt lat="59.340471" lon="18.083594">
        <ele>37</ele>
        <time>2020-02-14T07:47:28Z</time>
      </trkpt>
      <trkpt lat="59.340432" lon="18.083574">
        <ele>37</ele>
        <time>2020-02-14T07:47:29Z</time>
      </trkpt>
      <trkpt lat="59.340394" lon="18.083549">
        <ele>36</ele>
        <time>2020-02-14T07:47:30Z</time>
      </trkpt>
      <trkpt lat="59.340354" lon="18.083518">
        <ele>35</ele>
        <time>2020-02-14T07:47:32Z</time>
      </trkpt>
      <trkpt lat="59.340309" lon="18.083492">
        <ele>35</ele>
        <time>2020-02-14T07:47:32Z</time>
      </trkpt>
      <trkpt lat="59.340266" lon="18.083457">
        <ele>34</ele>
        <time>2020-02-14T07:47:33Z</time>
      </trkpt>
      <trkpt lat="59.34022" lon="18.083423">
        <ele>34</ele>
        <time>2020-02-14T07:47:34Z</time>
      </trkpt>
      <trkpt lat="59.340173" lon="18.083388">
        <ele>34</ele>
        <time>2020-02-14T07:47:35Z</time>
      </trkpt>
      <trkpt lat="59.340122" lon="18.083356">
        <ele>33</ele>
        <time>2020-02-14T07:47:36Z</time>
      </trkpt>
      <trkpt lat="59.340069" lon="18.083326">
        <ele>33</ele>
        <time>2020-02-14T07:47:37Z</time>
      </trkpt>
      <trkpt lat="59.340017" lon="18.083292">
        <ele>33</ele>
        <time>2020-02-14T07:47:38Z</time>
      </trkpt>
      <trkpt lat="59.339965" lon="18.083252">
        <ele>33</ele>
        <time>2020-02-14T07:47:39Z</time>
      </trkpt>
      <trkpt lat="59.33992" lon="18.083198">
        <ele>32</ele>
        <time>2020-02-14T07:47:40Z</time>
      </trkpt>
      <trkpt lat="59.339876" lon="18.083145">
        <ele>32</ele>
        <time>2020-02-14T07:47:42Z</time>
      </trkpt>
      <trkpt lat="59.339834" lon="18.083092">
        <ele>31</ele>
        <time>2020-02-14T07:47:42Z</time>
      </trkpt>
      <trkpt lat="59.339784" lon="18.083054">
        <ele>31</ele>
        <time>2020-02-14T07:47:43Z</time>
      </trkpt>
      <trkpt lat="59.339734" lon="18.083015">
        <ele>30</ele>
        <time>2020-02-14T07:47:44Z</time>
      </trkpt>
      <trkpt lat="59.339683" lon="18.082977">
        <ele>30</ele>
        <time>2020-02-14T07:47:45Z</time>
      </trkpt>
      <trkpt lat="59.33963" lon="18.082944">
        <ele>30</ele>
        <time>2020-02-14T07:47:46Z</time>
      </trkpt>
      <trkpt lat="59.339578" lon="18.082912">
        <ele>29</ele>
        <time>2020-02-14T07:47:47Z</time>
      </trkpt>
      <trkpt lat="59.339526" lon="18.082878">
        <ele>29</ele>
        <time>2020-02-14T07:47:48Z</time>
      </trkpt>
      <trkpt lat="59.339474" lon="18.082848">
        <ele>29</ele>
        <time>2020-02-14T07:47:49Z</time>
      </trkpt>
      <trkpt lat="59.339423" lon="18.082813">
        <ele>29</ele>
        <time>2020-02-14T07:47:51Z</time>
      </trkpt>
      <trkpt lat="59.339373" lon="18.082774">
        <ele>28</ele>
        <time>2020-02-14T07:47:51Z</time>
      </trkpt>
      <trkpt lat="59.339325" lon="18.082733">
        <ele>29</ele>
        <time>2020-02-14T07:47:52Z</time>
      </trkpt>
      <trkpt lat="59.339284" lon="18.082671">
        <ele>28</ele>
        <time>2020-02-14T07:47:53Z</time>
      </trkpt>
      <trkpt lat="59.33925" lon="18.082614">
        <ele>28</ele>
        <time>2020-02-14T07:47:54Z</time>
      </trkpt>
      <trkpt lat="59.339227" lon="18.082556">
        <ele>28</ele>
        <time>2020-02-14T07:47:55Z</time>
      </trkpt>
      <trkpt lat="59.3392" lon="18.082516">
        <ele>27</ele>
        <time>2020-02-14T07:47:56Z</time>
      </trkpt>
      <trkpt lat="59.339171" lon="18.08249">
        <ele>27</ele>
        <time>2020-02-14T07:47:57Z</time>
      </trkpt>
      <trkpt lat="59.339148" lon="18.082463">
        <ele>26</ele>
        <time>2020-02-14T07:47:58Z</time>
      </trkpt>
      <trkpt lat="59.339136" lon="18.082435">
        <ele>26</ele>
        <time>2020-02-14T07:47:59Z</time>
      </trkpt>
      <trkpt lat="59.339104" lon="18.082417">
        <ele>25</ele>
        <time>2020-02-14T07:48:01Z</time>
      </trkpt>
      <trkpt lat="59.339068" lon="18.082403">
        <ele>24</ele>
        <time>2020-02-14T07:48:03Z</time>
      </trkpt>
      <trkpt lat="59.339042" lon="18.082392">
        <ele>24</ele>
        <time>2020-02-14T07:48:04Z</time>
      </trkpt>
      <trkpt lat="59.33901" lon="18.082373">
        <ele>24</ele>
        <time>2020-02-14T07:48:05Z</time>
      </trkpt>
      <trkpt lat="59.33897" lon="18.082353">
        <ele>24</ele>
        <time>2020-02-14T07:48:06Z</time>
      </trkpt>
      <trkpt lat="59.338928" lon="18.082329">
        <ele>23</ele>
        <time>2020-02-14T07:48:07Z</time>
      </trkpt>
      <trkpt lat="59.338882" lon="18.082299">
        <ele>23</ele>
        <time>2020-02-14T07:48:08Z</time>
      </trkpt>
      <trkpt lat="59.338838" lon="18.082265">
        <ele>23</ele>
        <time>2020-02-14T07:48:09Z</time>
      </trkpt>
      <trkpt lat="59.33879" lon="18.082233">
        <ele>23</ele>
        <time>2020-02-14T07:48:10Z</time>
      </trkpt>
      <trkpt lat="59.338738" lon="18.082205">
        <ele>23</ele>
        <time>2020-02-14T07:48:11Z</time>
      </trkpt>
      <trkpt lat="59.338686" lon="18.082177">
        <ele>23</ele>
        <time>2020-02-14T07:48:12Z</time>
      </trkpt>
      <trkpt lat="59.338634" lon="18.082145">
        <ele>23</ele>
        <time>2020-02-14T07:48:13Z</time>
      </trkpt>
      <trkpt lat="59.338579" lon="18.082113">
        <ele>23</ele>
        <time>2020-02-14T07:48:14Z</time>
      </trkpt>
      <trkpt lat="59.338527" lon="18.082069">
        <ele>24</ele>
        <time>2020-02-14T07:48:16Z</time>
      </trkpt>
      <trkpt lat="59.338474" lon="18.082022">
        <ele>24</ele>
        <time>2020-02-14T07:48:16Z</time>
      </trkpt>
      <trkpt lat="59.338423" lon="18.081975">
        <ele>24</ele>
        <time>2020-02-14T07:48:17Z</time>
      </trkpt>
      <trkpt lat="59.33837" lon="18.081931">
        <ele>24</ele>
        <time>2020-02-14T07:48:18Z</time>
      </trkpt>
      <trkpt lat="59.338318" lon="18.081888">
        <ele>24</ele>
        <time>2020-02-14T07:48:19Z</time>
      </trkpt>
      <trkpt lat="59.338268" lon="18.081849">
        <ele>24</ele>
        <time>2020-02-14T07:48:20Z</time>
      </trkpt>
      <trkpt lat="59.338228" lon="18.081801">
        <ele>24</ele>
        <time>2020-02-14T07:48:21Z</time>
      </trkpt>
      <trkpt lat="59.338186" lon="18.081761">
        <ele>24</ele>
        <time>2020-02-14T07:48:22Z</time>
      </trkpt>
      <trkpt lat="59.338146" lon="18.081715">
        <ele>24</ele>
        <time>2020-02-14T07:48:23Z</time>
      </trkpt>
      <trkpt lat="59.338098" lon="18.08168">
        <ele>24</ele>
        <time>2020-02-14T07:48:24Z</time>
      </trkpt>
      <trkpt lat="59.338046" lon="18.08165">
        <ele>24</ele>
        <time>2020-02-14T07:48:26Z</time>
      </trkpt>
      <trkpt lat="59.337992" lon="18.081614">
        <ele>23</ele>
        <time>2020-02-14T07:48:26Z</time>
      </trkpt>
      <trkpt lat="59.337936" lon="18.081578">
        <ele>23</ele>
        <time>2020-02-14T07:48:27Z</time>
      </trkpt>
      <trkpt lat="59.33788" lon="18.08154">
        <ele>23</ele>
        <time>2020-02-14T07:48:28Z</time>
      </trkpt>
      <trkpt lat="59.337825" lon="18.081503">
        <ele>23</ele>
        <time>2020-02-14T07:48:29Z</time>
      </trkpt>
      <trkpt lat="59.337771" lon="18.081465">
        <ele>23</ele>
        <time>2020-02-14T07:48:30Z</time>
      </trkpt>
      <trkpt lat="59.337718" lon="18.081427">
        <ele>23</ele>
        <time>2020-02-14T07:48:31Z</time>
      </trkpt>
      <trkpt lat="59.337665" lon="18.081391">
        <ele>23</ele>
        <time>2020-02-14T07:48:32Z</time>
      </trkpt>
      <trkpt lat="59.337612" lon="18.081348">
        <ele>23</ele>
        <time>2020-02-14T07:48:34Z</time>
      </trkpt>
      <trkpt lat="59.337556" lon="18.081307">
        <ele>23</ele>
        <time>2020-02-14T07:48:34Z</time>
      </trkpt>
      <trkpt lat="59.337498" lon="18.081263">
        <ele>23</ele>
        <time>2020-02-14T07:48:35Z</time>
      </trkpt>
      <trkpt lat="59.33744" lon="18.081217">
        <ele>24</ele>
        <time>2020-02-14T07:48:36Z</time>
      </trkpt>
      <trkpt lat="59.33738" lon="18.081161">
        <ele>23</ele>
        <time>2020-02-14T07:48:37Z</time>
      </trkpt>
      <trkpt lat="59.337322" lon="18.08111">
        <ele>23</ele>
        <time>2020-02-14T07:48:38Z</time>
      </trkpt>
      <trkpt lat="59.337262" lon="18.081055">
        <ele>23</ele>
        <time>2020-02-14T07:48:39Z</time>
      </trkpt>
      <trkpt lat="59.3372" lon="18.081004">
        <ele>23</ele>
        <time>2020-02-14T07:48:40Z</time>
      </trkpt>
      <trkpt lat="59.337143" lon="18.080954">
        <ele>23</ele>
        <time>2020-02-14T07:48:42Z</time>
      </trkpt>
      <trkpt lat="59.33709" lon="18.080904">
        <ele>23</ele>
        <time>2020-02-14T07:48:42Z</time>
      </trkpt>
      <trkpt lat="59.337028" lon="18.08086">
        <ele>23</ele>
        <time>2020-02-14T07:48:43Z</time>
      </trkpt>
      <trkpt lat="59.336974" lon="18.080809">
        <ele>23</ele>
        <time>2020-02-14T07:48:44Z</time>
      </trkpt>
      <trkpt lat="59.336918" lon="18.080758">
        <ele>23</ele>
        <time>2020-02-14T07:48:45Z</time>
      </trkpt>
      <trkpt lat="59.336866" lon="18.08071">
        <ele>23</ele>
        <time>2020-02-14T07:48:46Z</time>
      </trkpt>
      <trkpt lat="59.336814" lon="18.080662">
        <ele>23</ele>
        <time>2020-02-14T07:48:47Z</time>
      </trkpt>
      <trkpt lat="59.336763" lon="18.080621">
        <ele>23</ele>
        <time>2020-02-14T07:48:48Z</time>
      </trkpt>
      <trkpt lat="59.336714" lon="18.080576">
        <ele>23</ele>
        <time>2020-02-14T07:48:49Z</time>
      </trkpt>
      <trkpt lat="59.336664" lon="18.08053">
        <ele>23</ele>
        <time>2020-02-14T07:48:51Z</time>
      </trkpt>
      <trkpt lat="59.336614" lon="18.080484">
        <ele>23</ele>
        <time>2020-02-14T07:48:51Z</time>
      </trkpt>
      <trkpt lat="59.336562" lon="18.080442">
        <ele>23</ele>
        <time>2020-02-14T07:48:52Z</time>
      </trkpt>
      <trkpt lat="59.336512" lon="18.080395">
        <ele>23</ele>
        <time>2020-02-14T07:48:53Z</time>
      </trkpt>
      <trkpt lat="59.336456" lon="18.080355">
        <ele>24</ele>
        <time>2020-02-14T07:48:54Z</time>
      </trkpt>
      <trkpt lat="59.336401" lon="18.08031">
        <ele>24</ele>
        <time>2020-02-14T07:48:55Z</time>
      </trkpt>
      <trkpt lat="59.336348" lon="18.080269">
        <ele>24</ele>
        <time>2020-02-14T07:48:56Z</time>
      </trkpt>
      <trkpt lat="59.336294" lon="18.080229">
        <ele>24</ele>
        <time>2020-02-14T07:48:57Z</time>
      </trkpt>
      <trkpt lat="59.336242" lon="18.080194">
        <ele>25</ele>
        <time>2020-02-14T07:48:58Z</time>
      </trkpt>
      <trkpt lat="59.336189" lon="18.080156">
        <ele>25</ele>
        <time>2020-02-14T07:48:59Z</time>
      </trkpt>
      <trkpt lat="59.336135" lon="18.080116">
        <ele>25</ele>
        <time>2020-02-14T07:49:00Z</time>
      </trkpt>
      <trkpt lat="59.336085" lon="18.080066">
        <ele>26</ele>
        <time>2020-02-14T07:49:01Z</time>
      </trkpt>
      <trkpt lat="59.336038" lon="18.080001">
        <ele>26</ele>
        <time>2020-02-14T07:49:02Z</time>
      </trkpt>
      <trkpt lat="59.335989" lon="18.07994">
        <ele>26</ele>
        <time>2020-02-14T07:49:03Z</time>
      </trkpt>
      <trkpt lat="59.335937" lon="18.079888">
        <ele>26</ele>
        <time>2020-02-14T07:49:04Z</time>
      </trkpt>
      <trkpt lat="59.335886" lon="18.079844">
        <ele>26</ele>
        <time>2020-02-14T07:49:05Z</time>
      </trkpt>
      <trkpt lat="59.335835" lon="18.079807">
        <ele>26</ele>
        <time>2020-02-14T07:49:06Z</time>
      </trkpt>
      <trkpt lat="59.335783" lon="18.079775">
        <ele>26</ele>
        <time>2020-02-14T07:49:08Z</time>
      </trkpt>
      <trkpt lat="59.335723" lon="18.079745">
        <ele>26</ele>
        <time>2020-02-14T07:49:08Z</time>
      </trkpt>
      <trkpt lat="59.335665" lon="18.079719">
        <ele>26</ele>
        <time>2020-02-14T07:49:09Z</time>
      </trkpt>
      <trkpt lat="59.335612" lon="18.079685">
        <ele>25</ele>
        <time>2020-02-14T07:49:10Z</time>
      </trkpt>
      <trkpt lat="59.335568" lon="18.079643">
        <ele>25</ele>
        <time>2020-02-14T07:49:11Z</time>
      </trkpt>
      <trkpt lat="59.335521" lon="18.079605">
        <ele>25</ele>
        <time>2020-02-14T07:49:12Z</time>
      </trkpt>
      <trkpt lat="59.335473" lon="18.079564">
        <ele>24</ele>
        <time>2020-02-14T07:49:13Z</time>
      </trkpt>
      <trkpt lat="59.335423" lon="18.079522">
        <ele>24</ele>
        <time>2020-02-14T07:49:14Z</time>
      </trkpt>
      <trkpt lat="59.335366" lon="18.079486">
        <ele>24</ele>
        <time>2020-02-14T07:49:15Z</time>
      </trkpt>
      <trkpt lat="59.33531" lon="18.07944">
        <ele>23</ele>
        <time>2020-02-14T07:49:17Z</time>
      </trkpt>
      <trkpt lat="59.335251" lon="18.079396">
        <ele>23</ele>
        <time>2020-02-14T07:49:17Z</time>
      </trkpt>
      <trkpt lat="59.335196" lon="18.079343">
        <ele>23</ele>
        <time>2020-02-14T07:49:18Z</time>
      </trkpt>
      <trkpt lat="59.335135" lon="18.079293">
        <ele>23</ele>
        <time>2020-02-14T07:49:19Z</time>
      </trkpt>
      <trkpt lat="59.335066" lon="18.079245">
        <ele>22</ele>
        <time>2020-02-14T07:49:20Z</time>
      </trkpt>
      <trkpt lat="59.334997" lon="18.079193">
        <ele>22</ele>
        <time>2020-02-14T07:49:21Z</time>
      </trkpt>
      <trkpt lat="59.33493" lon="18.079145">
        <ele>22</ele>
        <time>2020-02-14T07:49:22Z</time>
      </trkpt>
      <trkpt lat="59.334865" lon="18.079094">
        <ele>21</ele>
        <time>2020-02-14T07:49:24Z</time>
      </trkpt>
      <trkpt lat="59.334804" lon="18.079043">
        <ele>21</ele>
        <time>2020-02-14T07:49:24Z</time>
      </trkpt>
      <trkpt lat="59.33474" lon="18.07899">
        <ele>21</ele>
        <time>2020-02-14T07:49:25Z</time>
      </trkpt>
      <trkpt lat="59.334674" lon="18.078938">
        <ele>21</ele>
        <time>2020-02-14T07:49:26Z</time>
      </trkpt>
      <trkpt lat="59.334606" lon="18.078891">
        <ele>21</ele>
        <time>2020-02-14T07:49:27Z</time>
      </trkpt>
      <trkpt lat="59.334536" lon="18.078847">
        <ele>21</ele>
        <time>2020-02-14T07:49:28Z</time>
      </trkpt>
      <trkpt lat="59.33446" lon="18.078818">
        <ele>21</ele>
        <time>2020-02-14T07:49:29Z</time>
      </trkpt>
      <trkpt lat="59.334315" lon="18.078745">
        <ele>21</ele>
        <time>2020-02-14T07:49:31Z</time>
      </trkpt>
      <trkpt lat="59.334176" lon="18.078659">
        <ele>21</ele>
        <time>2020-02-14T07:49:33Z</time>
      </trkpt>
      <trkpt lat="59.334043" lon="18.078567">
        <ele>21</ele>
        <time>2020-02-14T07:49:35Z</time>
      </trkpt>
      <trkpt lat="59.333924" lon="18.078452">
        <ele>20</ele>
        <time>2020-02-14T07:49:37Z</time>
      </trkpt>
      <trkpt lat="59.333801" lon="18.078326">
        <ele>20</ele>
        <time>2020-02-14T07:49:39Z</time>
      </trkpt>
      <trkpt lat="59.333678" lon="18.0782">
        <ele>20</ele>
        <time>2020-02-14T07:49:41Z</time>
      </trkpt>
      <trkpt lat="59.333556" lon="18.078082">
        <ele>20</ele>
        <time>2020-02-14T07:49:43Z</time>
      </trkpt>
      <trkpt lat="59.333463" lon="18.077961">
        <ele>20</ele>
        <time>2020-02-14T07:49:45Z</time>
      </trkpt>
      <trkpt lat="59.333423" lon="18.07775">
        <ele>20</ele>
        <time>2020-02-14T07:49:48Z</time>
      </trkpt>
      <trkpt lat="59.33346" lon="18.077567">
        <ele>20</ele>
        <time>2020-02-14T07:49:51Z</time>
      </trkpt>
      <trkpt lat="59.333514" lon="18.077339">
        <ele>21</ele>
        <time>2020-02-14T07:49:54Z</time>
      </trkpt>
      <trkpt lat="59.33356" lon="18.077142">
        <ele>21</ele>
        <time>2020-02-14T07:49:56Z</time>
      </trkpt>
      <trkpt lat="59.333576" lon="18.076915">
        <ele>21</ele>
        <time>2020-02-14T07:49:59Z</time>
      </trkpt>
      <trkpt lat="59.333481" lon="18.076828">
        <ele>21</ele>
        <time>2020-02-14T07:50:03Z</time>
      </trkpt>
      <trkpt lat="59.333368" lon="18.076738">
        <ele>20</ele>
        <time>2020-02-14T07:50:06Z</time>
      </trkpt>
      <trkpt lat="59.333251" lon="18.076642">
        <ele>20</ele>
        <time>2020-02-14T07:50:09Z</time>
      </trkpt>
      <trkpt lat="59.333202" lon="18.076606">
        <ele>21</ele>
        <time>2020-02-14T07:50:10Z</time>
      </trkpt>
      <trkpt lat="59.333156" lon="18.07656">
        <ele>21</ele>
        <time>2020-02-14T07:50:11Z</time>
      </trkpt>
      <trkpt lat="59.333113" lon="18.076518">
        <ele>21</ele>
        <time>2020-02-14T07:50:12Z</time>
      </trkpt>
      <trkpt lat="59.333064" lon="18.076396">
        <ele>21</ele>
        <time>2020-02-14T07:50:14Z</time>
      </trkpt>
      <trkpt lat="59.33305" lon="18.07634">
        <ele>21</ele>
        <time>2020-02-14T07:50:15Z</time>
      </trkpt>
      <trkpt lat="59.333078" lon="18.076206">
        <ele>21</ele>
        <time>2020-02-14T07:50:17Z</time>
      </trkpt>
      <trkpt lat="59.333077" lon="18.076166">
        <ele>21</ele>
        <time>2020-02-14T07:50:18Z</time>
      </trkpt>
      <trkpt lat="59.333079" lon="18.076126">
        <ele>20</ele>
        <time>2020-02-14T07:50:20Z</time>
      </trkpt>
      <trkpt lat="59.333093" lon="18.076104">
        <ele>0</ele>
        <time>2020-02-14T07:50:25Z</time>
      </trkpt>
      <trkpt lat="59.333017" lon="18.075987">
        <ele>16</ele>
        <time>2020-02-14T07:51:09Z</time>
      </trkpt>
      <trkpt lat="59.332991" lon="18.075956">
        <ele>15</ele>
        <time>2020-02-14T07:51:09Z</time>
      </trkpt>
      <trkpt lat="59.332961" lon="18.075922">
        <ele>15</ele>
        <time>2020-02-14T07:51:10Z</time>
      </trkpt>
      <trkpt lat="59.33293" lon="18.07589">
        <ele>14</ele>
        <time>2020-02-14T07:51:11Z</time>
      </trkpt>
      <trkpt lat="59.332895" lon="18.075861">
        <ele>14</ele>
        <time>2020-02-14T07:51:12Z</time>
      </trkpt>
      <trkpt lat="59.332859" lon="18.075835">
        <ele>14</ele>
        <time>2020-02-14T07:51:13Z</time>
      </trkpt>
      <trkpt lat="59.332818" lon="18.075812">
        <ele>14</ele>
        <time>2020-02-14T07:51:14Z</time>
      </trkpt>
      <trkpt lat="59.332779" lon="18.075787">
        <ele>14</ele>
        <time>2020-02-14T07:51:15Z</time>
      </trkpt>
      <trkpt lat="59.33274" lon="18.075762">
        <ele>14</ele>
        <time>2020-02-14T07:51:16Z</time>
      </trkpt>
      <trkpt lat="59.332702" lon="18.075734">
        <ele>14</ele>
        <time>2020-02-14T07:51:17Z</time>
      </trkpt>
      <trkpt lat="59.332661" lon="18.075706">
        <ele>14</ele>
        <time>2020-02-14T07:51:18Z</time>
      </trkpt>
      <trkpt lat="59.33262" lon="18.075675">
        <ele>14</ele>
        <time>2020-02-14T07:51:19Z</time>
      </trkpt>
      <trkpt lat="59.33258" lon="18.075641">
        <ele>14</ele>
        <time>2020-02-14T07:51:20Z</time>
      </trkpt>
      <trkpt lat="59.332535" lon="18.075611">
        <ele>14</ele>
        <time>2020-02-14T07:51:21Z</time>
      </trkpt>
      <trkpt lat="59.332487" lon="18.07558">
        <ele>14</ele>
        <time>2020-02-14T07:51:22Z</time>
      </trkpt>
      <trkpt lat="59.332438" lon="18.075544">
        <ele>14</ele>
        <time>2020-02-14T07:51:23Z</time>
      </trkpt>
      <trkpt lat="59.332391" lon="18.075507">
        <ele>14</ele>
        <time>2020-02-14T07:51:24Z</time>
      </trkpt>
      <trkpt lat="59.332342" lon="18.075476">
        <ele>14</ele>
        <time>2020-02-14T07:51:26Z</time>
      </trkpt>
      <trkpt lat="59.332293" lon="18.075444">
        <ele>13</ele>
        <time>2020-02-14T07:51:26Z</time>
      </trkpt>
      <trkpt lat="59.332248" lon="18.075405">
        <ele>13</ele>
        <time>2020-02-14T07:51:27Z</time>
      </trkpt>
      <trkpt lat="59.332197" lon="18.075377">
        <ele>13</ele>
        <time>2020-02-14T07:51:28Z</time>
      </trkpt>
      <trkpt lat="59.332144" lon="18.075348">
        <ele>13</ele>
        <time>2020-02-14T07:51:29Z</time>
      </trkpt>
      <trkpt lat="59.332093" lon="18.075309">
        <ele>13</ele>
        <time>2020-02-14T07:51:30Z</time>
      </trkpt>
      <trkpt lat="59.332042" lon="18.075265">
        <ele>13</ele>
        <time>2020-02-14T07:51:31Z</time>
      </trkpt>
      <trkpt lat="59.331992" lon="18.075222">
        <ele>13</ele>
        <time>2020-02-14T07:51:32Z</time>
      </trkpt>
      <trkpt lat="59.331939" lon="18.075183">
        <ele>12</ele>
        <time>2020-02-14T07:51:33Z</time>
      </trkpt>
      <trkpt lat="59.331883" lon="18.075147">
        <ele>12</ele>
        <time>2020-02-14T07:51:35Z</time>
      </trkpt>
      <trkpt lat="59.331828" lon="18.075107">
        <ele>12</ele>
        <time>2020-02-14T07:51:35Z</time>
      </trkpt>
      <trkpt lat="59.331772" lon="18.075071">
        <ele>12</ele>
        <time>2020-02-14T07:51:36Z</time>
      </trkpt>
      <trkpt lat="59.331717" lon="18.075036">
        <ele>12</ele>
        <time>2020-02-14T07:51:37Z</time>
      </trkpt>
      <trkpt lat="59.331663" lon="18.075004">
        <ele>11</ele>
        <time>2020-02-14T07:51:38Z</time>
      </trkpt>
      <trkpt lat="59.331606" lon="18.074965">
        <ele>11</ele>
        <time>2020-02-14T07:51:39Z</time>
      </trkpt>
      <trkpt lat="59.331549" lon="18.074925">
        <ele>11</ele>
        <time>2020-02-14T07:51:40Z</time>
      </trkpt>
      <trkpt lat="59.331497" lon="18.074893">
        <ele>11</ele>
        <time>2020-02-14T07:51:41Z</time>
      </trkpt>
      <trkpt lat="59.331448" lon="18.074852">
        <ele>11</ele>
        <time>2020-02-14T07:51:42Z</time>
      </trkpt>
      <trkpt lat="59.331393" lon="18.074807">
        <ele>11</ele>
        <time>2020-02-14T07:51:44Z</time>
      </trkpt>
      <trkpt lat="59.331341" lon="18.074757">
        <ele>11</ele>
        <time>2020-02-14T07:51:44Z</time>
      </trkpt>
      <trkpt lat="59.33124" lon="18.074673">
        <ele>11</ele>
        <time>2020-02-14T07:51:46Z</time>
      </trkpt>
      <trkpt lat="59.331137" lon="18.07456">
        <ele>11</ele>
        <time>2020-02-14T07:51:48Z</time>
      </trkpt>
      <trkpt lat="59.331031" lon="18.074457">
        <ele>12</ele>
        <time>2020-02-14T07:51:50Z</time>
      </trkpt>
      <trkpt lat="59.330936" lon="18.074374">
        <ele>12</ele>
        <time>2020-02-14T07:51:53Z</time>
      </trkpt>
      <trkpt lat="59.33087" lon="18.074234">
        <ele>12</ele>
        <time>2020-02-14T07:51:55Z</time>
      </trkpt>
      <trkpt lat="59.330823" lon="18.073976">
        <ele>12</ele>
        <time>2020-02-14T07:51:58Z</time>
      </trkpt>
      <trkpt lat="59.330769" lon="18.073813">
        <ele>12</ele>
        <time>2020-02-14T07:52:00Z</time>
      </trkpt>
      <trkpt lat="59.330683" lon="18.073684">
        <ele>12</ele>
        <time>2020-02-14T07:52:02Z</time>
      </trkpt>
      <trkpt lat="59.33064" lon="18.073471">
        <ele>12</ele>
        <time>2020-02-14T07:52:04Z</time>
      </trkpt>
      <trkpt lat="59.330616" lon="18.073239">
        <ele>11</ele>
        <time>2020-02-14T07:52:06Z</time>
      </trkpt>
      <trkpt lat="59.330586" lon="18.073017">
        <ele>10</ele>
        <time>2020-02-14T07:52:08Z</time>
      </trkpt>
      <trkpt lat="59.330566" lon="18.072921">
        <ele>10</ele>
        <time>2020-02-14T07:52:09Z</time>
      </trkpt>
      <trkpt lat="59.33055" lon="18.072838">
        <ele>10</ele>
        <time>2020-02-14T07:52:10Z</time>
      </trkpt>
      <trkpt lat="59.330525" lon="18.07278">
        <ele>11</ele>
        <time>2020-02-14T07:52:11Z</time>
      </trkpt>
      <trkpt lat="59.330496" lon="18.072753">
        <ele>11</ele>
        <time>2020-02-14T07:52:12Z</time>
      </trkpt>
      <trkpt lat="59.330458" lon="18.072767">
        <ele>11</ele>
        <time>2020-02-14T07:52:14Z</time>
      </trkpt>
      <trkpt lat="59.330425" lon="18.072801">
        <ele>11</ele>
        <time>2020-02-14T07:52:14Z</time>
      </trkpt>
      <trkpt lat="59.330388" lon="18.072832">
        <ele>11</ele>
        <time>2020-02-14T07:52:15Z</time>
      </trkpt>
      <trkpt lat="59.330353" lon="18.072861">
        <ele>11</ele>
        <time>2020-02-14T07:52:16Z</time>
      </trkpt>
      <trkpt lat="59.330318" lon="18.072891">
        <ele>11</ele>
        <time>2020-02-14T07:52:17Z</time>
      </trkpt>
      <trkpt lat="59.330278" lon="18.072925">
        <ele>11</ele>
        <time>2020-02-14T07:52:18Z</time>
      </trkpt>
      <trkpt lat="59.33024" lon="18.072951">
        <ele>11</ele>
        <time>2020-02-14T07:52:19Z</time>
      </trkpt>
      <trkpt lat="59.3302" lon="18.072985">
        <ele>11</ele>
        <time>2020-02-14T07:52:20Z</time>
      </trkpt>
      <trkpt lat="59.330164" lon="18.073015">
        <ele>11</ele>
        <time>2020-02-14T07:52:21Z</time>
      </trkpt>
      <trkpt lat="59.330123" lon="18.073052">
        <ele>11</ele>
        <time>2020-02-14T07:52:22Z</time>
      </trkpt>
      <trkpt lat="59.330079" lon="18.073084">
        <ele>11</ele>
        <time>2020-02-14T07:52:23Z</time>
      </trkpt>
      <trkpt lat="59.330035" lon="18.073112">
        <ele>11</ele>
        <time>2020-02-14T07:52:25Z</time>
      </trkpt>
      <trkpt lat="59.329996" lon="18.07314">
        <ele>11</ele>
        <time>2020-02-14T07:52:26Z</time>
      </trkpt>
      <trkpt lat="59.329957" lon="18.073169">
        <ele>11</ele>
        <time>2020-02-14T07:52:26Z</time>
      </trkpt>
      <trkpt lat="59.329905" lon="18.073196">
        <ele>11</ele>
        <time>2020-02-14T07:52:27Z</time>
      </trkpt>
      <trkpt lat="59.32986" lon="18.07321">
        <ele>11</ele>
        <time>2020-02-14T07:52:28Z</time>
      </trkpt>
      <trkpt lat="59.329826" lon="18.07322">
        <ele>11</ele>
        <time>2020-02-14T07:52:29Z</time>
      </trkpt>
      <trkpt lat="59.329801" lon="18.07323">
        <ele>11</ele>
        <time>2020-02-14T07:52:30Z</time>
      </trkpt>
      <trkpt lat="59.329789" lon="18.073235">
        <ele>0</ele>
        <time>2020-02-14T07:52:36Z</time>
      </trkpt>
      <trkpt lat="59.32974" lon="18.073216">
        <ele>11</ele>
        <time>2020-02-14T07:53:08Z</time>
      </trkpt>
      <trkpt lat="59.329695" lon="18.073207">
        <ele>11</ele>
        <time>2020-02-14T07:53:08Z</time>
      </trkpt>
      <trkpt lat="59.329646" lon="18.073198">
        <ele>11</ele>
        <time>2020-02-14T07:53:09Z</time>
      </trkpt>
      <trkpt lat="59.329593" lon="18.073191">
        <ele>11</ele>
        <time>2020-02-14T07:53:10Z</time>
      </trkpt>
      <trkpt lat="59.329539" lon="18.073188">
        <ele>11</ele>
        <time>2020-02-14T07:53:11Z</time>
      </trkpt>
      <trkpt lat="59.329485" lon="18.073186">
        <ele>11</ele>
        <time>2020-02-14T07:53:12Z</time>
      </trkpt>
      <trkpt lat="59.32943" lon="18.073184">
        <ele>11</ele>
        <time>2020-02-14T07:53:14Z</time>
      </trkpt>
      <trkpt lat="59.329373" lon="18.073175">
        <ele>10</ele>
        <time>2020-02-14T07:53:14Z</time>
      </trkpt>
      <trkpt lat="59.329317" lon="18.073158">
        <ele>10</ele>
        <time>2020-02-14T07:53:15Z</time>
      </trkpt>
      <trkpt lat="59.329261" lon="18.07314">
        <ele>10</ele>
        <time>2020-02-14T07:53:16Z</time>
      </trkpt>
      <trkpt lat="59.329205" lon="18.073122">
        <ele>10</ele>
        <time>2020-02-14T07:53:17Z</time>
      </trkpt>
      <trkpt lat="59.329151" lon="18.073106">
        <ele>10</ele>
        <time>2020-02-14T07:53:18Z</time>
      </trkpt>
      <trkpt lat="59.329096" lon="18.073091">
        <ele>9</ele>
        <time>2020-02-14T07:53:19Z</time>
      </trkpt>
      <trkpt lat="59.329041" lon="18.073077">
        <ele>9</ele>
        <time>2020-02-14T07:53:20Z</time>
      </trkpt>
      <trkpt lat="59.328985" lon="18.073063">
        <ele>9</ele>
        <time>2020-02-14T07:53:21Z</time>
      </trkpt>
      <trkpt lat="59.328931" lon="18.073048">
        <ele>8</ele>
        <time>2020-02-14T07:53:23Z</time>
      </trkpt>
      <trkpt lat="59.328876" lon="18.073034">
        <ele>8</ele>
        <time>2020-02-14T07:53:23Z</time>
      </trkpt>
      <trkpt lat="59.328824" lon="18.073021">
        <ele>8</ele>
        <time>2020-02-14T07:53:24Z</time>
      </trkpt>
      <trkpt lat="59.328774" lon="18.073009">
        <ele>7</ele>
        <time>2020-02-14T07:53:25Z</time>
      </trkpt>
      <trkpt lat="59.328725" lon="18.072996">
        <ele>7</ele>
        <time>2020-02-14T07:53:26Z</time>
      </trkpt>
      <trkpt lat="59.328678" lon="18.072984">
        <ele>7</ele>
        <time>2020-02-14T07:53:27Z</time>
      </trkpt>
      <trkpt lat="59.328632" lon="18.072974">
        <ele>6</ele>
        <time>2020-02-14T07:53:28Z</time>
      </trkpt>
      <trkpt lat="59.328587" lon="18.072962">
        <ele>6</ele>
        <time>2020-02-14T07:53:29Z</time>
      </trkpt>
      <trkpt lat="59.328544" lon="18.072951">
        <ele>6</ele>
        <time>2020-02-14T07:53:30Z</time>
      </trkpt>
      <trkpt lat="59.328503" lon="18.072942">
        <ele>6</ele>
        <time>2020-02-14T07:53:31Z</time>
      </trkpt>
      <trkpt lat="59.328464" lon="18.072934">
        <ele>6</ele>
        <time>2020-02-14T07:53:32Z</time>
      </trkpt>
      <trkpt lat="59.328427" lon="18.072922">
        <ele>6</ele>
        <time>2020-02-14T07:53:33Z</time>
      </trkpt>
      <trkpt lat="59.328392" lon="18.07291">
        <ele>6</ele>
        <time>2020-02-14T07:53:34Z</time>
      </trkpt>
      <trkpt lat="59.328355" lon="18.072901">
        <ele>6</ele>
        <time>2020-02-14T07:53:35Z</time>
      </trkpt>
      <trkpt lat="59.32832" lon="18.072892">
        <ele>6</ele>
        <time>2020-02-14T07:53:36Z</time>
      </trkpt>
      <trkpt lat="59.328286" lon="18.072885">
        <ele>6</ele>
        <time>2020-02-14T07:53:37Z</time>
      </trkpt>
      <trkpt lat="59.328256" lon="18.072878">
        <ele>6</ele>
        <time>2020-02-14T07:53:38Z</time>
      </trkpt>
      <trkpt lat="59.32823" lon="18.072871">
        <ele>6</ele>
        <time>2020-02-14T07:53:39Z</time>
      </trkpt>
      <trkpt lat="59.328211" lon="18.072865">
        <ele>6</ele>
        <time>2020-02-14T07:53:40Z</time>
      </trkpt>
      <trkpt lat="59.328182" lon="18.072855">
        <ele>6</ele>
        <time>2020-02-14T07:53:42Z</time>
      </trkpt>
      <trkpt lat="59.328167" lon="18.072848">
        <ele>0</ele>
        <time>2020-02-14T07:53:48Z</time>
      </trkpt>
      <trkpt lat="59.328135" lon="18.072845">
        <ele>6</ele>
        <time>2020-02-14T07:53:51Z</time>
      </trkpt>
      <trkpt lat="59.328108" lon="18.072841">
        <ele>6</ele>
        <time>2020-02-14T07:53:51Z</time>
      </trkpt>
      <trkpt lat="59.328073" lon="18.072836">
        <ele>6</ele>
        <time>2020-02-14T07:53:52Z</time>
      </trkpt>
      <trkpt lat="59.328035" lon="18.072833">
        <ele>6</ele>
        <time>2020-02-14T07:53:53Z</time>
      </trkpt>
      <trkpt lat="59.327994" lon="18.072836">
        <ele>6</ele>
        <time>2020-02-14T07:53:54Z</time>
      </trkpt>
      <trkpt lat="59.327951" lon="18.072845">
        <ele>6</ele>
        <time>2020-02-14T07:53:55Z</time>
      </trkpt>
      <trkpt lat="59.327908" lon="18.072861">
        <ele>6</ele>
        <time>2020-02-14T07:53:56Z</time>
      </trkpt>
      <trkpt lat="59.327864" lon="18.072888">
        <ele>6</ele>
        <time>2020-02-14T07:53:57Z</time>
      </trkpt>
      <trkpt lat="59.32782" lon="18.072925">
        <ele>6</ele>
        <time>2020-02-14T07:53:58Z</time>
      </trkpt>
      <trkpt lat="59.327777" lon="18.072968">
        <ele>6</ele>
        <time>2020-02-14T07:53:59Z</time>
      </trkpt>
      <trkpt lat="59.327734" lon="18.073014">
        <ele>6</ele>
        <time>2020-02-14T07:54:00Z</time>
      </trkpt>
      <trkpt lat="59.327692" lon="18.073061">
        <ele>6</ele>
        <time>2020-02-14T07:54:01Z</time>
      </trkpt>
      <trkpt lat="59.327651" lon="18.07311">
        <ele>6</ele>
        <time>2020-02-14T07:54:02Z</time>
      </trkpt>
      <trkpt lat="59.32761" lon="18.073158">
        <ele>6</ele>
        <time>2020-02-14T07:54:03Z</time>
      </trkpt>
      <trkpt lat="59.32757" lon="18.073206">
        <ele>6</ele>
        <time>2020-02-14T07:54:04Z</time>
      </trkpt>
      <trkpt lat="59.327531" lon="18.073253">
        <ele>6</ele>
        <time>2020-02-14T07:54:05Z</time>
      </trkpt>
      <trkpt lat="59.327492" lon="18.073299">
        <ele>6</ele>
        <time>2020-02-14T07:54:06Z</time>
      </trkpt>
      <trkpt lat="59.327452" lon="18.073346">
        <ele>6</ele>
        <time>2020-02-14T07:54:07Z</time>
      </trkpt>
      <trkpt lat="59.327413" lon="18.073393">
        <ele>5</ele>
        <time>2020-02-14T07:54:09Z</time>
      </trkpt>
      <trkpt lat="59.327373" lon="18.073441">
        <ele>5</ele>
        <time>2020-02-14T07:54:09Z</time>
      </trkpt>
      <trkpt lat="59.327334" lon="18.073488">
        <ele>5</ele>
        <time>2020-02-14T07:54:10Z</time>
      </trkpt>
      <trkpt lat="59.327295" lon="18.073536">
        <ele>5</ele>
        <time>2020-02-14T07:54:11Z</time>
      </trkpt>
      <trkpt lat="59.327256" lon="18.073583">
        <ele>5</ele>
        <time>2020-02-14T07:54:12Z</time>
      </trkpt>
      <trkpt lat="59.327217" lon="18.073628">
        <ele>5</ele>
        <time>2020-02-14T07:54:13Z</time>
      </trkpt>
      <trkpt lat="59.327178" lon="18.073674">
        <ele>5</ele>
        <time>2020-02-14T07:54:14Z</time>
      </trkpt>
      <trkpt lat="59.327141" lon="18.073721">
        <ele>5</ele>
        <time>2020-02-14T07:54:15Z</time>
      </trkpt>
      <trkpt lat="59.327105" lon="18.073767">
        <ele>5</ele>
        <time>2020-02-14T07:54:16Z</time>
      </trkpt>
      <trkpt lat="59.327068" lon="18.073811">
        <ele>5</ele>
        <time>2020-02-14T07:54:17Z</time>
      </trkpt>
      <trkpt lat="59.327031" lon="18.073856">
        <ele>5</ele>
        <time>2020-02-14T07:54:18Z</time>
      </trkpt>
      <trkpt lat="59.326994" lon="18.073903">
        <ele>5</ele>
        <time>2020-02-14T07:54:19Z</time>
      </trkpt>
      <trkpt lat="59.326957" lon="18.073951">
        <ele>5</ele>
        <time>2020-02-14T07:54:20Z</time>
      </trkpt>
      <trkpt lat="59.32692" lon="18.074001">
        <ele>5</ele>
        <time>2020-02-14T07:54:21Z</time>
      </trkpt>
      <trkpt lat="59.326882" lon="18.074051">
        <ele>5</ele>
        <time>2020-02-14T07:54:22Z</time>
      </trkpt>
      <trkpt lat="59.326844" lon="18.074098">
        <ele>5</ele>
        <time>2020-02-14T07:54:23Z</time>
      </trkpt>
      <trkpt lat="59.326805" lon="18.074143">
        <ele>5</ele>
        <time>2020-02-14T07:54:24Z</time>
      </trkpt>
      <trkpt lat="59.326772" lon="18.074192">
        <ele>6</ele>
        <time>2020-02-14T07:54:25Z</time>
      </trkpt>
      <trkpt lat="59.326733" lon="18.074238">
        <ele>6</ele>
        <time>2020-02-14T07:54:26Z</time>
      </trkpt>
      <trkpt lat="59.326691" lon="18.074283">
        <ele>6</ele>
        <time>2020-02-14T07:54:27Z</time>
      </trkpt>
      <trkpt lat="59.326651" lon="18.074331">
        <ele>5</ele>
        <time>2020-02-14T07:54:28Z</time>
      </trkpt>
      <trkpt lat="59.326608" lon="18.07438">
        <ele>5</ele>
        <time>2020-02-14T07:54:29Z</time>
      </trkpt>
      <trkpt lat="59.326566" lon="18.074432">
        <ele>5</ele>
        <time>2020-02-14T07:54:31Z</time>
      </trkpt>
      <trkpt lat="59.326521" lon="18.074487">
        <ele>5</ele>
        <time>2020-02-14T07:54:31Z</time>
      </trkpt>
      <trkpt lat="59.326477" lon="18.074545">
        <ele>5</ele>
        <time>2020-02-14T07:54:32Z</time>
      </trkpt>
      <trkpt lat="59.326434" lon="18.074604">
        <ele>5</ele>
        <time>2020-02-14T07:54:33Z</time>
      </trkpt>
      <trkpt lat="59.326391" lon="18.074664">
        <ele>5</ele>
        <time>2020-02-14T07:54:34Z</time>
      </trkpt>
      <trkpt lat="59.326346" lon="18.074725">
        <ele>5</ele>
        <time>2020-02-14T07:54:35Z</time>
      </trkpt>
      <trkpt lat="59.326299" lon="18.074786">
        <ele>5</ele>
        <time>2020-02-14T07:54:36Z</time>
      </trkpt>
      <trkpt lat="59.326251" lon="18.074844">
        <ele>5</ele>
        <time>2020-02-14T07:54:37Z</time>
      </trkpt>
      <trkpt lat="59.3262" lon="18.074898">
        <ele>5</ele>
        <time>2020-02-14T07:54:38Z</time>
      </trkpt>
      <trkpt lat="59.326149" lon="18.074951">
        <ele>5</ele>
        <time>2020-02-14T07:54:40Z</time>
      </trkpt>
      <trkpt lat="59.326098" lon="18.075003">
        <ele>6</ele>
        <time>2020-02-14T07:54:40Z</time>
      </trkpt>
      <trkpt lat="59.326045" lon="18.075056">
        <ele>6</ele>
        <time>2020-02-14T07:54:41Z</time>
      </trkpt>
      <trkpt lat="59.325992" lon="18.075109">
        <ele>6</ele>
        <time>2020-02-14T07:54:42Z</time>
      </trkpt>
      <trkpt lat="59.325939" lon="18.075161">
        <ele>6</ele>
        <time>2020-02-14T07:54:43Z</time>
      </trkpt>
      <trkpt lat="59.325885" lon="18.075214">
        <ele>6</ele>
        <time>2020-02-14T07:54:44Z</time>
      </trkpt>
      <trkpt lat="59.32583" lon="18.075267">
        <ele>6</ele>
        <time>2020-02-14T07:54:45Z</time>
      </trkpt>
      <trkpt lat="59.325776" lon="18.075318">
        <ele>6</ele>
        <time>2020-02-14T07:54:46Z</time>
      </trkpt>
      <trkpt lat="59.325722" lon="18.07537">
        <ele>6</ele>
        <time>2020-02-14T07:54:48Z</time>
      </trkpt>
      <trkpt lat="59.325667" lon="18.075421">
        <ele>6</ele>
        <time>2020-02-14T07:54:48Z</time>
      </trkpt>
      <trkpt lat="59.32561" lon="18.07547">
        <ele>5</ele>
        <time>2020-02-14T07:54:49Z</time>
      </trkpt>
      <trkpt lat="59.325548" lon="18.075507">
        <ele>5</ele>
        <time>2020-02-14T07:54:50Z</time>
      </trkpt>
      <trkpt lat="59.325485" lon="18.075535">
        <ele>5</ele>
        <time>2020-02-14T07:54:51Z</time>
      </trkpt>
      <trkpt lat="59.325421" lon="18.075551">
        <ele>5</ele>
        <time>2020-02-14T07:54:52Z</time>
      </trkpt>
      <trkpt lat="59.325359" lon="18.07556">
        <ele>5</ele>
        <time>2020-02-14T07:54:53Z</time>
      </trkpt>
      <trkpt lat="59.325299" lon="18.075571">
        <ele>5</ele>
        <time>2020-02-14T07:54:54Z</time>
      </trkpt>
      <trkpt lat="59.32524" lon="18.075584">
        <ele>5</ele>
        <time>2020-02-14T07:54:56Z</time>
      </trkpt>
      <trkpt lat="59.325182" lon="18.075597">
        <ele>5</ele>
        <time>2020-02-14T07:54:56Z</time>
      </trkpt>
      <trkpt lat="59.325124" lon="18.075606">
        <ele>5</ele>
        <time>2020-02-14T07:54:57Z</time>
      </trkpt>
      <trkpt lat="59.325066" lon="18.075617">
        <ele>5</ele>
        <time>2020-02-14T07:54:58Z</time>
      </trkpt>
      <trkpt lat="59.325005" lon="18.075621">
        <ele>5</ele>
        <time>2020-02-14T07:54:59Z</time>
      </trkpt>
      <trkpt lat="59.324943" lon="18.075623">
        <ele>5</ele>
        <time>2020-02-14T07:55:00Z</time>
      </trkpt>
      <trkpt lat="59.324883" lon="18.075623">
        <ele>5</ele>
        <time>2020-02-14T07:55:01Z</time>
      </trkpt>
      <trkpt lat="59.32482" lon="18.075616">
        <ele>5</ele>
        <time>2020-02-14T07:55:02Z</time>
      </trkpt>
      <trkpt lat="59.324758" lon="18.075604">
        <ele>5</ele>
        <time>2020-02-14T07:55:03Z</time>
      </trkpt>
      <trkpt lat="59.324699" lon="18.075587">
        <ele>5</ele>
        <time>2020-02-14T07:55:04Z</time>
      </trkpt>
      <trkpt lat="59.324639" lon="18.075562">
        <ele>5</ele>
        <time>2020-02-14T07:55:05Z</time>
      </trkpt>
      <trkpt lat="59.324577" lon="18.075539">
        <ele>5</ele>
        <time>2020-02-14T07:55:06Z</time>
      </trkpt>
      <trkpt lat="59.324516" lon="18.07552">
        <ele>5</ele>
        <time>2020-02-14T07:55:07Z</time>
      </trkpt>
      <trkpt lat="59.324454" lon="18.0755">
        <ele>5</ele>
        <time>2020-02-14T07:55:08Z</time>
      </trkpt>
      <trkpt lat="59.324393" lon="18.075481">
        <ele>6</ele>
        <time>2020-02-14T07:55:09Z</time>
      </trkpt>
      <trkpt lat="59.32433" lon="18.075472">
        <ele>6</ele>
        <time>2020-02-14T07:55:10Z</time>
      </trkpt>
      <trkpt lat="59.324268" lon="18.075458">
        <ele>6</ele>
        <time>2020-02-14T07:55:12Z</time>
      </trkpt>
      <trkpt lat="59.324206" lon="18.075442">
        <ele>6</ele>
        <time>2020-02-14T07:55:12Z</time>
      </trkpt>
      <trkpt lat="59.324142" lon="18.075428">
        <ele>6</ele>
        <time>2020-02-14T07:55:13Z</time>
      </trkpt>
      <trkpt lat="59.32408" lon="18.075409">
        <ele>6</ele>
        <time>2020-02-14T07:55:14Z</time>
      </trkpt>
      <trkpt lat="59.324018" lon="18.075387">
        <ele>7</ele>
        <time>2020-02-14T07:55:15Z</time>
      </trkpt>
      <trkpt lat="59.323956" lon="18.075365">
        <ele>7</ele>
        <time>2020-02-14T07:55:16Z</time>
      </trkpt>
      <trkpt lat="59.323894" lon="18.075342">
        <ele>7</ele>
        <time>2020-02-14T07:55:17Z</time>
      </trkpt>
      <trkpt lat="59.323832" lon="18.075321">
        <ele>7</ele>
        <time>2020-02-14T07:55:18Z</time>
      </trkpt>
      <trkpt lat="59.32377" lon="18.075298">
        <ele>7</ele>
        <time>2020-02-14T07:55:19Z</time>
      </trkpt>
      <trkpt lat="59.323708" lon="18.075273">
        <ele>7</ele>
        <time>2020-02-14T07:55:20Z</time>
      </trkpt>
      <trkpt lat="59.323648" lon="18.075246">
        <ele>7</ele>
        <time>2020-02-14T07:55:21Z</time>
      </trkpt>
      <trkpt lat="59.323587" lon="18.075224">
        <ele>7</ele>
        <time>2020-02-14T07:55:22Z</time>
      </trkpt>
      <trkpt lat="59.323526" lon="18.075201">
        <ele>7</ele>
        <time>2020-02-14T07:55:23Z</time>
      </trkpt>
      <trkpt lat="59.323465" lon="18.07518">
        <ele>7</ele>
        <time>2020-02-14T07:55:24Z</time>
      </trkpt>
      <trkpt lat="59.323406" lon="18.075157">
        <ele>7</ele>
        <time>2020-02-14T07:55:25Z</time>
      </trkpt>
      <trkpt lat="59.323346" lon="18.075135">
        <ele>8</ele>
        <time>2020-02-14T07:55:26Z</time>
      </trkpt>
      <trkpt lat="59.323286" lon="18.075112">
        <ele>7</ele>
        <time>2020-02-14T07:55:27Z</time>
      </trkpt>
      <trkpt lat="59.323224" lon="18.075084">
        <ele>8</ele>
        <time>2020-02-14T07:55:28Z</time>
      </trkpt>
      <trkpt lat="59.323163" lon="18.075062">
        <ele>8</ele>
        <time>2020-02-14T07:55:29Z</time>
      </trkpt>
      <trkpt lat="59.323102" lon="18.075037">
        <ele>8</ele>
        <time>2020-02-14T07:55:30Z</time>
      </trkpt>
      <trkpt lat="59.323041" lon="18.075013">
        <ele>8</ele>
        <time>2020-02-14T07:55:31Z</time>
      </trkpt>
      <trkpt lat="59.322977" lon="18.074978">
        <ele>8</ele>
        <time>2020-02-14T07:55:32Z</time>
      </trkpt>
      <trkpt lat="59.322862" lon="18.074879">
        <ele>7</ele>
        <time>2020-02-14T07:55:34Z</time>
      </trkpt>
      <trkpt lat="59.322803" lon="18.074821">
        <ele>7</ele>
        <time>2020-02-14T07:55:35Z</time>
      </trkpt>
      <trkpt lat="59.322688" lon="18.074705">
        <ele>7</ele>
        <time>2020-02-14T07:55:37Z</time>
      </trkpt>
      <trkpt lat="59.322634" lon="18.074638">
        <ele>7</ele>
        <time>2020-02-14T07:55:38Z</time>
      </trkpt>
      <trkpt lat="59.322524" lon="18.074513">
        <ele>6</ele>
        <time>2020-02-14T07:55:41Z</time>
      </trkpt>
      <trkpt lat="59.32247" lon="18.074459">
        <ele>6</ele>
        <time>2020-02-14T07:55:41Z</time>
      </trkpt>
      <trkpt lat="59.322416" lon="18.074398">
        <ele>6</ele>
        <time>2020-02-14T07:55:42Z</time>
      </trkpt>
      <trkpt lat="59.322362" lon="18.074342">
        <ele>5</ele>
        <time>2020-02-14T07:55:44Z</time>
      </trkpt>
      <trkpt lat="59.322309" lon="18.07429">
        <ele>5</ele>
        <time>2020-02-14T07:55:44Z</time>
      </trkpt>
      <trkpt lat="59.322258" lon="18.074237">
        <ele>5</ele>
        <time>2020-02-14T07:55:45Z</time>
      </trkpt>
      <trkpt lat="59.322208" lon="18.074184">
        <ele>5</ele>
        <time>2020-02-14T07:55:46Z</time>
      </trkpt>
      <trkpt lat="59.322162" lon="18.07413">
        <ele>5</ele>
        <time>2020-02-14T07:55:47Z</time>
      </trkpt>
      <trkpt lat="59.322115" lon="18.074081">
        <ele>5</ele>
        <time>2020-02-14T07:55:48Z</time>
      </trkpt>
      <trkpt lat="59.322073" lon="18.07403">
        <ele>5</ele>
        <time>2020-02-14T07:55:49Z</time>
      </trkpt>
      <trkpt lat="59.322031" lon="18.073987">
        <ele>5</ele>
        <time>2020-02-14T07:55:50Z</time>
      </trkpt>
      <trkpt lat="59.321993" lon="18.073948">
        <ele>5</ele>
        <time>2020-02-14T07:55:51Z</time>
      </trkpt>
      <trkpt lat="59.321961" lon="18.073915">
        <ele>5</ele>
        <time>2020-02-14T07:55:52Z</time>
      </trkpt>
      <trkpt lat="59.321933" lon="18.073887">
        <ele>5</ele>
        <time>2020-02-14T07:55:53Z</time>
      </trkpt>
      <trkpt lat="59.32191" lon="18.073843">
        <ele>5</ele>
        <time>2020-02-14T07:55:54Z</time>
      </trkpt>
      <trkpt lat="59.3219" lon="18.07379">
        <ele>5</ele>
        <time>2020-02-14T07:55:55Z</time>
      </trkpt>
      <trkpt lat="59.321902" lon="18.073722">
        <ele>5</ele>
        <time>2020-02-14T07:55:56Z</time>
      </trkpt>
      <trkpt lat="59.321914" lon="18.073652">
        <ele>5</ele>
        <time>2020-02-14T07:55:57Z</time>
      </trkpt>
      <trkpt lat="59.321923" lon="18.073589">
        <ele>5</ele>
        <time>2020-02-14T07:55:58Z</time>
      </trkpt>
      <trkpt lat="59.321936" lon="18.07352">
        <ele>5</ele>
        <time>2020-02-14T07:55:59Z</time>
      </trkpt>
      <trkpt lat="59.321949" lon="18.073451">
        <ele>5</ele>
        <time>2020-02-14T07:56:00Z</time>
      </trkpt>
      <trkpt lat="59.321963" lon="18.073388">
        <ele>5</ele>
        <time>2020-02-14T07:56:01Z</time>
      </trkpt>
      <trkpt lat="59.321977" lon="18.073327">
        <ele>4</ele>
        <time>2020-02-14T07:56:02Z</time>
      </trkpt>
      <trkpt lat="59.321989" lon="18.073266">
        <ele>4</ele>
        <time>2020-02-14T07:56:03Z</time>
      </trkpt>
      <trkpt lat="59.322002" lon="18.073206">
        <ele>4</ele>
        <time>2020-02-14T07:56:04Z</time>
      </trkpt>
      <trkpt lat="59.322016" lon="18.073143">
        <ele>4</ele>
        <time>2020-02-14T07:56:05Z</time>
      </trkpt>
      <trkpt lat="59.322029" lon="18.073078">
        <ele>4</ele>
        <time>2020-02-14T07:56:06Z</time>
      </trkpt>
      <trkpt lat="59.322039" lon="18.073011">
        <ele>4</ele>
        <time>2020-02-14T07:56:07Z</time>
      </trkpt>
      <trkpt lat="59.322042" lon="18.072943">
        <ele>4</ele>
        <time>2020-02-14T07:56:08Z</time>
      </trkpt>
      <trkpt lat="59.322035" lon="18.072878">
        <ele>5</ele>
        <time>2020-02-14T07:56:10Z</time>
      </trkpt>
      <trkpt lat="59.322032" lon="18.072799">
        <ele>5</ele>
        <time>2020-02-14T07:56:10Z</time>
      </trkpt>
      <trkpt lat="59.322034" lon="18.072711">
        <ele>5</ele>
        <time>2020-02-14T07:56:11Z</time>
      </trkpt>
      <trkpt lat="59.322033" lon="18.072627">
        <ele>5</ele>
        <time>2020-02-14T07:56:12Z</time>
      </trkpt>
      <trkpt lat="59.322032" lon="18.072543">
        <ele>5</ele>
        <time>2020-02-14T07:56:13Z</time>
      </trkpt>
      <trkpt lat="59.322028" lon="18.072463">
        <ele>5</ele>
        <time>2020-02-14T07:56:14Z</time>
      </trkpt>
      <trkpt lat="59.322018" lon="18.072391">
        <ele>5</ele>
        <time>2020-02-14T07:56:15Z</time>
      </trkpt>
      <trkpt lat="59.321997" lon="18.072341">
        <ele>5</ele>
        <time>2020-02-14T07:56:16Z</time>
      </trkpt>
      <trkpt lat="59.321971" lon="18.072304">
        <ele>5</ele>
        <time>2020-02-14T07:56:17Z</time>
      </trkpt>
      <trkpt lat="59.321937" lon="18.072283">
        <ele>5</ele>
        <time>2020-02-14T07:56:18Z</time>
      </trkpt>
      <trkpt lat="59.321906" lon="18.072273">
        <ele>5</ele>
        <time>2020-02-14T07:56:19Z</time>
      </trkpt>
      <trkpt lat="59.321876" lon="18.072259">
        <ele>5</ele>
        <time>2020-02-14T07:56:20Z</time>
      </trkpt>
      <trkpt lat="59.321848" lon="18.072237">
        <ele>5</ele>
        <time>2020-02-14T07:56:21Z</time>
      </trkpt>
      <trkpt lat="59.32182" lon="18.07222">
        <ele>5</ele>
        <time>2020-02-14T07:56:22Z</time>
      </trkpt>
      <trkpt lat="59.32179" lon="18.072215">
        <ele>6</ele>
        <time>2020-02-14T07:56:24Z</time>
      </trkpt>
      <trkpt lat="59.32176" lon="18.072217">
        <ele>6</ele>
        <time>2020-02-14T07:56:24Z</time>
      </trkpt>
      <trkpt lat="59.32173" lon="18.07222">
        <ele>6</ele>
        <time>2020-02-14T07:56:25Z</time>
      </trkpt>
      <trkpt lat="59.321698" lon="18.072225">
        <ele>6</ele>
        <time>2020-02-14T07:56:26Z</time>
      </trkpt>
      <trkpt lat="59.321664" lon="18.072227">
        <ele>6</ele>
        <time>2020-02-14T07:56:27Z</time>
      </trkpt>
      <trkpt lat="59.32163" lon="18.072218">
        <ele>6</ele>
        <time>2020-02-14T07:56:28Z</time>
      </trkpt>
      <trkpt lat="59.321597" lon="18.072198">
        <ele>6</ele>
        <time>2020-02-14T07:56:29Z</time>
      </trkpt>
      <trkpt lat="59.321563" lon="18.072176">
        <ele>6</ele>
        <time>2020-02-14T07:56:30Z</time>
      </trkpt>
      <trkpt lat="59.321529" lon="18.072156">
        <ele>6</ele>
        <time>2020-02-14T07:56:31Z</time>
      </trkpt>
      <trkpt lat="59.321492" lon="18.072136">
        <ele>6</ele>
        <time>2020-02-14T07:56:32Z</time>
      </trkpt>
      <trkpt lat="59.321453" lon="18.072113">
        <ele>6</ele>
        <time>2020-02-14T07:56:33Z</time>
      </trkpt>
      <trkpt lat="59.321411" lon="18.072087">
        <ele>6</ele>
        <time>2020-02-14T07:56:34Z</time>
      </trkpt>
      <trkpt lat="59.321368" lon="18.072057">
        <ele>6</ele>
        <time>2020-02-14T07:56:35Z</time>
      </trkpt>
      <trkpt lat="59.321325" lon="18.072026">
        <ele>6</ele>
        <time>2020-02-14T07:56:36Z</time>
      </trkpt>
      <trkpt lat="59.321282" lon="18.071994">
        <ele>7</ele>
        <time>2020-02-14T07:56:37Z</time>
      </trkpt>
      <trkpt lat="59.321239" lon="18.071956">
        <ele>7</ele>
        <time>2020-02-14T07:56:38Z</time>
      </trkpt>
      <trkpt lat="59.321199" lon="18.071909">
        <ele>7</ele>
        <time>2020-02-14T07:56:39Z</time>
      </trkpt>
      <trkpt lat="59.321164" lon="18.071851">
        <ele>7</ele>
        <time>2020-02-14T07:56:40Z</time>
      </trkpt>
      <trkpt lat="59.321134" lon="18.071784">
        <ele>7</ele>
        <time>2020-02-14T07:56:41Z</time>
      </trkpt>
      <trkpt lat="59.32111" lon="18.071708">
        <ele>7</ele>
        <time>2020-02-14T07:56:42Z</time>
      </trkpt>
      <trkpt lat="59.321093" lon="18.071627">
        <ele>7</ele>
        <time>2020-02-14T07:56:43Z</time>
      </trkpt>
      <trkpt lat="59.321082" lon="18.071545">
        <ele>7</ele>
        <time>2020-02-14T07:56:44Z</time>
      </trkpt>
      <trkpt lat="59.321071" lon="18.071468">
        <ele>8</ele>
        <time>2020-02-14T07:56:45Z</time>
      </trkpt>
      <trkpt lat="59.321061" lon="18.071397">
        <ele>8</ele>
        <time>2020-02-14T07:56:46Z</time>
      </trkpt>
      <trkpt lat="59.321052" lon="18.071326">
        <ele>8</ele>
        <time>2020-02-14T07:56:47Z</time>
      </trkpt>
      <trkpt lat="59.321044" lon="18.071257">
        <ele>8</ele>
        <time>2020-02-14T07:56:48Z</time>
      </trkpt>
      <trkpt lat="59.321036" lon="18.071188">
        <ele>8</ele>
        <time>2020-02-14T07:56:49Z</time>
      </trkpt>
      <trkpt lat="59.321021" lon="18.071127">
        <ele>8</ele>
        <time>2020-02-14T07:56:50Z</time>
      </trkpt>
      <trkpt lat="59.320999" lon="18.071075">
        <ele>9</ele>
        <time>2020-02-14T07:56:51Z</time>
      </trkpt>
      <trkpt lat="59.320969" lon="18.071038">
        <ele>9</ele>
        <time>2020-02-14T07:56:52Z</time>
      </trkpt>
      <trkpt lat="59.320934" lon="18.071013">
        <ele>9</ele>
        <time>2020-02-14T07:56:53Z</time>
      </trkpt>
      <trkpt lat="59.320899" lon="18.070989">
        <ele>9</ele>
        <time>2020-02-14T07:56:54Z</time>
      </trkpt>
      <trkpt lat="59.320864" lon="18.070967">
        <ele>9</ele>
        <time>2020-02-14T07:56:55Z</time>
      </trkpt>
      <trkpt lat="59.320829" lon="18.070943">
        <ele>10</ele>
        <time>2020-02-14T07:56:56Z</time>
      </trkpt>
      <trkpt lat="59.320794" lon="18.070919">
        <ele>10</ele>
        <time>2020-02-14T07:56:57Z</time>
      </trkpt>
      <trkpt lat="59.32076" lon="18.070897">
        <ele>10</ele>
        <time>2020-02-14T07:56:58Z</time>
      </trkpt>
      <trkpt lat="59.320725" lon="18.070876">
        <ele>10</ele>
        <time>2020-02-14T07:56:59Z</time>
      </trkpt>
      <trkpt lat="59.32069" lon="18.07086">
        <ele>10</ele>
        <time>2020-02-14T07:57:00Z</time>
      </trkpt>
      <trkpt lat="59.320655" lon="18.070847">
        <ele>10</ele>
        <time>2020-02-14T07:57:01Z</time>
      </trkpt>
      <trkpt lat="59.320621" lon="18.070837">
        <ele>10</ele>
        <time>2020-02-14T07:57:02Z</time>
      </trkpt>
      <trkpt lat="59.320588" lon="18.07082">
        <ele>10</ele>
        <time>2020-02-14T07:57:03Z</time>
      </trkpt>
      <trkpt lat="59.320561" lon="18.070783">
        <ele>11</ele>
        <time>2020-02-14T07:57:04Z</time>
      </trkpt>
      <trkpt lat="59.320543" lon="18.070726">
        <ele>11</ele>
        <time>2020-02-14T07:57:05Z</time>
      </trkpt>
      <trkpt lat="59.32053" lon="18.070655">
        <ele>11</ele>
        <time>2020-02-14T07:57:06Z</time>
      </trkpt>
      <trkpt lat="59.320513" lon="18.070582">
        <ele>11</ele>
        <time>2020-02-14T07:57:07Z</time>
      </trkpt>
      <trkpt lat="59.320496" lon="18.070508">
        <ele>11</ele>
        <time>2020-02-14T07:57:08Z</time>
      </trkpt>
      <trkpt lat="59.32048" lon="18.070433">
        <ele>11</ele>
        <time>2020-02-14T07:57:09Z</time>
      </trkpt>
      <trkpt lat="59.320459" lon="18.070365">
        <ele>11</ele>
        <time>2020-02-14T07:57:10Z</time>
      </trkpt>
      <trkpt lat="59.320433" lon="18.070314">
        <ele>11</ele>
        <time>2020-02-14T07:57:11Z</time>
      </trkpt>
      <trkpt lat="59.320399" lon="18.070292">
        <ele>12</ele>
        <time>2020-02-14T07:57:12Z</time>
      </trkpt>
      <trkpt lat="59.320361" lon="18.07029">
        <ele>12</ele>
        <time>2020-02-14T07:57:13Z</time>
      </trkpt>
      <trkpt lat="59.320323" lon="18.070297">
        <ele>12</ele>
        <time>2020-02-14T07:57:14Z</time>
      </trkpt>
      <trkpt lat="59.320283" lon="18.070311">
        <ele>12</ele>
        <time>2020-02-14T07:57:16Z</time>
      </trkpt>
      <trkpt lat="59.320242" lon="18.070327">
        <ele>12</ele>
        <time>2020-02-14T07:57:16Z</time>
      </trkpt>
      <trkpt lat="59.320201" lon="18.070346">
        <ele>12</ele>
        <time>2020-02-14T07:57:17Z</time>
      </trkpt>
      <trkpt lat="59.32016" lon="18.070362">
        <ele>12</ele>
        <time>2020-02-14T07:57:18Z</time>
      </trkpt>
      <trkpt lat="59.320125" lon="18.070368">
        <ele>12</ele>
        <time>2020-02-14T07:57:20Z</time>
      </trkpt>
      <trkpt lat="59.320097" lon="18.070375">
        <ele>12</ele>
        <time>2020-02-14T07:57:20Z</time>
      </trkpt>
      <trkpt lat="59.320075" lon="18.070383">
        <ele>12</ele>
        <time>2020-02-14T07:57:21Z</time>
      </trkpt>
      <trkpt lat="59.320044" lon="18.070392">
        <ele>12</ele>
        <time>2020-02-14T07:57:23Z</time>
      </trkpt>
      <trkpt lat="59.320026" lon="18.070399">
        <ele>13</ele>
        <time>2020-02-14T07:57:26Z</time>
      </trkpt>
      <trkpt lat="59.320011" lon="18.070401">
        <ele>0</ele>
        <time>2020-02-14T07:57:30Z</time>
      </trkpt>
      <trkpt lat="59.319933" lon="18.070403">
        <ele>15</ele>
        <time>2020-02-14T07:58:08Z</time>
      </trkpt>
      <trkpt lat="59.3199" lon="18.070412">
        <ele>15</ele>
        <time>2020-02-14T07:58:08Z</time>
      </trkpt>
      <trkpt lat="59.319865" lon="18.070421">
        <ele>15</ele>
        <time>2020-02-14T07:58:09Z</time>
      </trkpt>
      <trkpt lat="59.319828" lon="18.070429">
        <ele>15</ele>
        <time>2020-02-14T07:58:10Z</time>
      </trkpt>
      <trkpt lat="59.31979" lon="18.070452">
        <ele>16</ele>
        <time>2020-02-14T07:58:11Z</time>
      </trkpt>
      <trkpt lat="59.319751" lon="18.070481">
        <ele>16</ele>
        <time>2020-02-14T07:58:12Z</time>
      </trkpt>
      <trkpt lat="59.319709" lon="18.070517">
        <ele>16</ele>
        <time>2020-02-14T07:58:13Z</time>
      </trkpt>
      <trkpt lat="59.319668" lon="18.070552">
        <ele>16</ele>
        <time>2020-02-14T07:58:14Z</time>
      </trkpt>
      <trkpt lat="59.319627" lon="18.070586">
        <ele>17</ele>
        <time>2020-02-14T07:58:15Z</time>
      </trkpt>
      <trkpt lat="59.319583" lon="18.070615">
        <ele>17</ele>
        <time>2020-02-14T07:58:16Z</time>
      </trkpt>
      <trkpt lat="59.319534" lon="18.070632">
        <ele>17</ele>
        <time>2020-02-14T07:58:17Z</time>
      </trkpt>
      <trkpt lat="59.31949" lon="18.070641">
        <ele>17</ele>
        <time>2020-02-14T07:58:18Z</time>
      </trkpt>
      <trkpt lat="59.319445" lon="18.070658">
        <ele>17</ele>
        <time>2020-02-14T07:58:19Z</time>
      </trkpt>
      <trkpt lat="59.319404" lon="18.070669">
        <ele>17</ele>
        <time>2020-02-14T07:58:20Z</time>
      </trkpt>
      <trkpt lat="59.319356" lon="18.070689">
        <ele>17</ele>
        <time>2020-02-14T07:58:21Z</time>
      </trkpt>
      <trkpt lat="59.319308" lon="18.070709">
        <ele>17</ele>
        <time>2020-02-14T07:58:22Z</time>
      </trkpt>
      <trkpt lat="59.319257" lon="18.070733">
        <ele>17</ele>
        <time>2020-02-14T07:58:23Z</time>
      </trkpt>
      <trkpt lat="59.319209" lon="18.070763">
        <ele>18</ele>
        <time>2020-02-14T07:58:25Z</time>
      </trkpt>
      <trkpt lat="59.319155" lon="18.070803">
        <ele>18</ele>
        <time>2020-02-14T07:58:25Z</time>
      </trkpt>
      <trkpt lat="59.319108" lon="18.070825">
        <ele>18</ele>
        <time>2020-02-14T07:58:26Z</time>
      </trkpt>
      <trkpt lat="59.319064" lon="18.070845">
        <ele>18</ele>
        <time>2020-02-14T07:58:27Z</time>
      </trkpt>
      <trkpt lat="59.319016" lon="18.070868">
        <ele>18</ele>
        <time>2020-02-14T07:58:28Z</time>
      </trkpt>
      <trkpt lat="59.318968" lon="18.070905">
        <ele>18</ele>
        <time>2020-02-14T07:58:29Z</time>
      </trkpt>
      <trkpt lat="59.318925" lon="18.070937">
        <ele>19</ele>
        <time>2020-02-14T07:58:30Z</time>
      </trkpt>
      <trkpt lat="59.318885" lon="18.070969">
        <ele>19</ele>
        <time>2020-02-14T07:58:31Z</time>
      </trkpt>
      <trkpt lat="59.318844" lon="18.070995">
        <ele>19</ele>
        <time>2020-02-14T07:58:32Z</time>
      </trkpt>
      <trkpt lat="59.318801" lon="18.071026">
        <ele>20</ele>
        <time>2020-02-14T07:58:33Z</time>
      </trkpt>
      <trkpt lat="59.31876" lon="18.071051">
        <ele>20</ele>
        <time>2020-02-14T07:58:34Z</time>
      </trkpt>
      <trkpt lat="59.318723" lon="18.071072">
        <ele>20</ele>
        <time>2020-02-14T07:58:35Z</time>
      </trkpt>
      <trkpt lat="59.318688" lon="18.071091">
        <ele>20</ele>
        <time>2020-02-14T07:58:36Z</time>
      </trkpt>
      <trkpt lat="59.318652" lon="18.071106">
        <ele>21</ele>
        <time>2020-02-14T07:58:37Z</time>
      </trkpt>
      <trkpt lat="59.318619" lon="18.071117">
        <ele>21</ele>
        <time>2020-02-14T07:58:38Z</time>
      </trkpt>
      <trkpt lat="59.318597" lon="18.071119">
        <ele>22</ele>
        <time>2020-02-14T07:58:39Z</time>
      </trkpt>
      <trkpt lat="59.318578" lon="18.07113">
        <ele>22</ele>
        <time>2020-02-14T07:58:40Z</time>
      </trkpt>
      <trkpt lat="59.318557" lon="18.071153">
        <ele>22</ele>
        <time>2020-02-14T07:58:41Z</time>
      </trkpt>
      <trkpt lat="59.318536" lon="18.071164">
        <ele>22</ele>
        <time>2020-02-14T07:58:42Z</time>
      </trkpt>
      <trkpt lat="59.318507" lon="18.071171">
        <ele>23</ele>
        <time>2020-02-14T07:58:43Z</time>
      </trkpt>
      <trkpt lat="59.318412" lon="18.071213">
        <ele>23</ele>
        <time>2020-02-14T07:58:46Z</time>
      </trkpt>
      <trkpt lat="59.318373" lon="18.071236">
        <ele>23</ele>
        <time>2020-02-14T07:58:47Z</time>
      </trkpt>
      <trkpt lat="59.318291" lon="18.071296">
        <ele>24</ele>
        <time>2020-02-14T07:58:49Z</time>
      </trkpt>
      <trkpt lat="59.318255" lon="18.071311">
        <ele>24</ele>
        <time>2020-02-14T07:58:50Z</time>
      </trkpt>
      <trkpt lat="59.31819" lon="18.071345">
        <ele>25</ele>
        <time>2020-02-14T07:58:52Z</time>
      </trkpt>
      <trkpt lat="59.318152" lon="18.071365">
        <ele>26</ele>
        <time>2020-02-14T07:58:53Z</time>
      </trkpt>
      <trkpt lat="59.318119" lon="18.071388">
        <ele>26</ele>
        <time>2020-02-14T07:58:54Z</time>
      </trkpt>
      <trkpt lat="59.318082" lon="18.071401">
        <ele>26</ele>
        <time>2020-02-14T07:58:55Z</time>
      </trkpt>
      <trkpt lat="59.318048" lon="18.071416">
        <ele>26</ele>
        <time>2020-02-14T07:58:56Z</time>
      </trkpt>
      <trkpt lat="59.318014" lon="18.071437">
        <ele>27</ele>
        <time>2020-02-14T07:58:57Z</time>
      </trkpt>
      <trkpt lat="59.317983" lon="18.071457">
        <ele>27</ele>
        <time>2020-02-14T07:58:58Z</time>
      </trkpt>
      <trkpt lat="59.317952" lon="18.071485">
        <ele>27</ele>
        <time>2020-02-14T07:58:59Z</time>
      </trkpt>
      <trkpt lat="59.317919" lon="18.071506">
        <ele>27</ele>
        <time>2020-02-14T07:59:00Z</time>
      </trkpt>
      <trkpt lat="59.317888" lon="18.071512">
        <ele>28</ele>
        <time>2020-02-14T07:59:01Z</time>
      </trkpt>
      <trkpt lat="59.317862" lon="18.071525">
        <ele>28</ele>
        <time>2020-02-14T07:59:02Z</time>
      </trkpt>
      <trkpt lat="59.317834" lon="18.071538">
        <ele>28</ele>
        <time>2020-02-14T07:59:03Z</time>
      </trkpt>
      <trkpt lat="59.317804" lon="18.071559">
        <ele>28</ele>
        <time>2020-02-14T07:59:04Z</time>
      </trkpt>
      <trkpt lat="59.317768" lon="18.07158">
        <ele>29</ele>
        <time>2020-02-14T07:59:05Z</time>
      </trkpt>
      <trkpt lat="59.317726" lon="18.071605">
        <ele>29</ele>
        <time>2020-02-14T07:59:06Z</time>
      </trkpt>
      <trkpt lat="59.317676" lon="18.071619">
        <ele>29</ele>
        <time>2020-02-14T07:59:07Z</time>
      </trkpt>
      <trkpt lat="59.31763" lon="18.071633">
        <ele>29</ele>
        <time>2020-02-14T07:59:08Z</time>
      </trkpt>
      <trkpt lat="59.317593" lon="18.071645">
        <ele>29</ele>
        <time>2020-02-14T07:59:09Z</time>
      </trkpt>
      <trkpt lat="59.31756" lon="18.071665">
        <ele>30</ele>
        <time>2020-02-14T07:59:10Z</time>
      </trkpt>
      <trkpt lat="59.317524" lon="18.071686">
        <ele>30</ele>
        <time>2020-02-14T07:59:11Z</time>
      </trkpt>
      <trkpt lat="59.317488" lon="18.071713">
        <ele>31</ele>
        <time>2020-02-14T07:59:12Z</time>
      </trkpt>
      <trkpt lat="59.317446" lon="18.071739">
        <ele>31</ele>
        <time>2020-02-14T07:59:13Z</time>
      </trkpt>
      <trkpt lat="59.317404" lon="18.071761">
        <ele>31</ele>
        <time>2020-02-14T07:59:14Z</time>
      </trkpt>
      <trkpt lat="59.317356" lon="18.071781">
        <ele>31</ele>
        <time>2020-02-14T07:59:15Z</time>
      </trkpt>
      <trkpt lat="59.31731" lon="18.071799">
        <ele>32</ele>
        <time>2020-02-14T07:59:16Z</time>
      </trkpt>
      <trkpt lat="59.317266" lon="18.071818">
        <ele>32</ele>
        <time>2020-02-14T07:59:17Z</time>
      </trkpt>
      <trkpt lat="59.317225" lon="18.071835">
        <ele>32</ele>
        <time>2020-02-14T07:59:18Z</time>
      </trkpt>
      <trkpt lat="59.317188" lon="18.071847">
        <ele>32</ele>
        <time>2020-02-14T07:59:19Z</time>
      </trkpt>
      <trkpt lat="59.31715" lon="18.071862">
        <ele>32</ele>
        <time>2020-02-14T07:59:20Z</time>
      </trkpt>
      <trkpt lat="59.317106" lon="18.071876">
        <ele>32</ele>
        <time>2020-02-14T07:59:21Z</time>
      </trkpt>
      <trkpt lat="59.31706" lon="18.071901">
        <ele>32</ele>
        <time>2020-02-14T07:59:22Z</time>
      </trkpt>
      <trkpt lat="59.317018" lon="18.07193">
        <ele>32</ele>
        <time>2020-02-14T07:59:23Z</time>
      </trkpt>
      <trkpt lat="59.316974" lon="18.071958">
        <ele>32</ele>
        <time>2020-02-14T07:59:24Z</time>
      </trkpt>
      <trkpt lat="59.316926" lon="18.07198">
        <ele>33</ele>
        <time>2020-02-14T07:59:25Z</time>
      </trkpt>
      <trkpt lat="59.316878" lon="18.072">
        <ele>33</ele>
        <time>2020-02-14T07:59:26Z</time>
      </trkpt>
      <trkpt lat="59.316831" lon="18.072018">
        <ele>33</ele>
        <time>2020-02-14T07:59:27Z</time>
      </trkpt>
      <trkpt lat="59.316786" lon="18.072045">
        <ele>33</ele>
        <time>2020-02-14T07:59:29Z</time>
      </trkpt>
      <trkpt lat="59.316744" lon="18.072066">
        <ele>34</ele>
        <time>2020-02-14T07:59:29Z</time>
      </trkpt>
      <trkpt lat="59.316702" lon="18.072085">
        <ele>34</ele>
        <time>2020-02-14T07:59:30Z</time>
      </trkpt>
      <trkpt lat="59.316652" lon="18.072107">
        <ele>34</ele>
        <time>2020-02-14T07:59:31Z</time>
      </trkpt>
      <trkpt lat="59.316604" lon="18.07214">
        <ele>35</ele>
        <time>2020-02-14T07:59:32Z</time>
      </trkpt>
      <trkpt lat="59.316561" lon="18.072161">
        <ele>35</ele>
        <time>2020-02-14T07:59:33Z</time>
      </trkpt>
      <trkpt lat="59.31652" lon="18.072193">
        <ele>35</ele>
        <time>2020-02-14T07:59:34Z</time>
      </trkpt>
      <trkpt lat="59.31648" lon="18.072223">
        <ele>35</ele>
        <time>2020-02-14T07:59:35Z</time>
      </trkpt>
      <trkpt lat="59.316436" lon="18.072247">
        <ele>36</ele>
        <time>2020-02-14T07:59:36Z</time>
      </trkpt>
      <trkpt lat="59.316394" lon="18.072276">
        <ele>36</ele>
        <time>2020-02-14T07:59:37Z</time>
      </trkpt>
      <trkpt lat="59.31635" lon="18.072318">
        <ele>36</ele>
        <time>2020-02-14T07:59:38Z</time>
      </trkpt>
      <trkpt lat="59.3163" lon="18.072348">
        <ele>36</ele>
        <time>2020-02-14T07:59:39Z</time>
      </trkpt>
      <trkpt lat="59.316196" lon="18.072403">
        <ele>36</ele>
        <time>2020-02-14T07:59:41Z</time>
      </trkpt>
      <trkpt lat="59.316121" lon="18.072421">
        <ele>36</ele>
        <time>2020-02-14T07:59:42Z</time>
      </trkpt>
      <trkpt lat="59.316054" lon="18.072437">
        <ele>36</ele>
        <time>2020-02-14T07:59:43Z</time>
      </trkpt>
      <trkpt lat="59.315988" lon="18.072457">
        <ele>36</ele>
        <time>2020-02-14T07:59:44Z</time>
      </trkpt>
      <trkpt lat="59.315922" lon="18.072481">
        <ele>36</ele>
        <time>2020-02-14T07:59:45Z</time>
      </trkpt>
      <trkpt lat="59.315856" lon="18.072509">
        <ele>36</ele>
        <time>2020-02-14T07:59:47Z</time>
      </trkpt>
      <trkpt lat="59.315789" lon="18.072532">
        <ele>36</ele>
        <time>2020-02-14T07:59:47Z</time>
      </trkpt>
      <trkpt lat="59.315726" lon="18.072555">
        <ele>36</ele>
        <time>2020-02-14T07:59:48Z</time>
      </trkpt>
      <trkpt lat="59.315665" lon="18.072585">
        <ele>36</ele>
        <time>2020-02-14T07:59:49Z</time>
      </trkpt>
      <trkpt lat="59.315605" lon="18.072627">
        <ele>36</ele>
        <time>2020-02-14T07:59:50Z</time>
      </trkpt>
      <trkpt lat="59.315546" lon="18.072661">
        <ele>36</ele>
        <time>2020-02-14T07:59:51Z</time>
      </trkpt>
      <trkpt lat="59.315488" lon="18.072691">
        <ele>35</ele>
        <time>2020-02-14T07:59:52Z</time>
      </trkpt>
      <trkpt lat="59.315434" lon="18.072722">
        <ele>35</ele>
        <time>2020-02-14T07:59:53Z</time>
      </trkpt>
      <trkpt lat="59.315378" lon="18.072751">
        <ele>35</ele>
        <time>2020-02-14T07:59:55Z</time>
      </trkpt>
      <trkpt lat="59.315316" lon="18.072783">
        <ele>35</ele>
        <time>2020-02-14T07:59:55Z</time>
      </trkpt>
      <trkpt lat="59.315258" lon="18.072811">
        <ele>35</ele>
        <time>2020-02-14T07:59:56Z</time>
      </trkpt>
      <trkpt lat="59.315203" lon="18.072834">
        <ele>34</ele>
        <time>2020-02-14T07:59:57Z</time>
      </trkpt>
      <trkpt lat="59.31515" lon="18.072857">
        <ele>34</ele>
        <time>2020-02-14T07:59:58Z</time>
      </trkpt>
      <trkpt lat="59.3151" lon="18.072886">
        <ele>34</ele>
        <time>2020-02-14T07:59:59Z</time>
      </trkpt>
      <trkpt lat="59.315046" lon="18.072916">
        <ele>34</ele>
        <time>2020-02-14T08:00:00Z</time>
      </trkpt>
      <trkpt lat="59.314991" lon="18.072947">
        <ele>33</ele>
        <time>2020-02-14T08:00:01Z</time>
      </trkpt>
      <trkpt lat="59.314936" lon="18.07298">
        <ele>33</ele>
        <time>2020-02-14T08:00:02Z</time>
      </trkpt>
      <trkpt lat="59.31488" lon="18.073015">
        <ele>33</ele>
        <time>2020-02-14T08:00:04Z</time>
      </trkpt>
      <trkpt lat="59.314824" lon="18.073053">
        <ele>33</ele>
        <time>2020-02-14T08:00:04Z</time>
      </trkpt>
      <trkpt lat="59.314767" lon="18.073089">
        <ele>33</ele>
        <time>2020-02-14T08:00:05Z</time>
      </trkpt>
      <trkpt lat="59.314709" lon="18.073116">
        <ele>33</ele>
        <time>2020-02-14T08:00:06Z</time>
      </trkpt>
      <trkpt lat="59.314648" lon="18.073139">
        <ele>33</ele>
        <time>2020-02-14T08:00:07Z</time>
      </trkpt>
      <trkpt lat="59.314587" lon="18.073161">
        <ele>33</ele>
        <time>2020-02-14T08:00:08Z</time>
      </trkpt>
      <trkpt lat="59.314526" lon="18.073187">
        <ele>33</ele>
        <time>2020-02-14T08:00:09Z</time>
      </trkpt>
      <trkpt lat="59.314464" lon="18.073223">
        <ele>34</ele>
        <time>2020-02-14T08:00:10Z</time>
      </trkpt>
      <trkpt lat="59.314408" lon="18.073255">
        <ele>34</ele>
        <time>2020-02-14T08:00:12Z</time>
      </trkpt>
      <trkpt lat="59.314345" lon="18.07328">
        <ele>34</ele>
        <time>2020-02-14T08:00:12Z</time>
      </trkpt>
      <trkpt lat="59.314282" lon="18.073311">
        <ele>33</ele>
        <time>2020-02-14T08:00:13Z</time>
      </trkpt>
      <trkpt lat="59.314218" lon="18.07335">
        <ele>34</ele>
        <time>2020-02-14T08:00:14Z</time>
      </trkpt>
      <trkpt lat="59.314153" lon="18.073378">
        <ele>34</ele>
        <time>2020-02-14T08:00:15Z</time>
      </trkpt>
      <trkpt lat="59.314088" lon="18.073404">
        <ele>34</ele>
        <time>2020-02-14T08:00:16Z</time>
      </trkpt>
      <trkpt lat="59.314022" lon="18.073437">
        <ele>34</ele>
        <time>2020-02-14T08:00:17Z</time>
      </trkpt>
      <trkpt lat="59.313962" lon="18.073463">
        <ele>34</ele>
        <time>2020-02-14T08:00:18Z</time>
      </trkpt>
      <trkpt lat="59.313904" lon="18.073488">
        <ele>35</ele>
        <time>2020-02-14T08:00:20Z</time>
      </trkpt>
      <trkpt lat="59.313844" lon="18.073513">
        <ele>35</ele>
        <time>2020-02-14T08:00:20Z</time>
      </trkpt>
      <trkpt lat="59.313784" lon="18.073544">
        <ele>35</ele>
        <time>2020-02-14T08:00:21Z</time>
      </trkpt>
      <trkpt lat="59.313727" lon="18.073572">
        <ele>35</ele>
        <time>2020-02-14T08:00:22Z</time>
      </trkpt>
      <trkpt lat="59.313671" lon="18.073601">
        <ele>35</ele>
        <time>2020-02-14T08:00:23Z</time>
      </trkpt>
      <trkpt lat="59.313616" lon="18.073632">
        <ele>35</ele>
        <time>2020-02-14T08:00:24Z</time>
      </trkpt>
      <trkpt lat="59.313561" lon="18.073671">
        <ele>35</ele>
        <time>2020-02-14T08:00:25Z</time>
      </trkpt>
      <trkpt lat="59.313508" lon="18.073705">
        <ele>35</ele>
        <time>2020-02-14T08:00:26Z</time>
      </trkpt>
      <trkpt lat="59.31346" lon="18.073727">
        <ele>35</ele>
        <time>2020-02-14T08:00:27Z</time>
      </trkpt>
      <trkpt lat="59.313412" lon="18.073755">
        <ele>35</ele>
        <time>2020-02-14T08:00:29Z</time>
      </trkpt>
      <trkpt lat="59.313365" lon="18.073785">
        <ele>35</ele>
        <time>2020-02-14T08:00:29Z</time>
      </trkpt>
      <trkpt lat="59.313318" lon="18.073813">
        <ele>36</ele>
        <time>2020-02-14T08:00:30Z</time>
      </trkpt>
      <trkpt lat="59.313276" lon="18.073832">
        <ele>36</ele>
        <time>2020-02-14T08:00:31Z</time>
      </trkpt>
      <trkpt lat="59.313238" lon="18.073851">
        <ele>36</ele>
        <time>2020-02-14T08:00:32Z</time>
      </trkpt>
      <trkpt lat="59.313194" lon="18.073884">
        <ele>36</ele>
        <time>2020-02-14T08:00:33Z</time>
      </trkpt>
      <trkpt lat="59.313155" lon="18.073912">
        <ele>36</ele>
        <time>2020-02-14T08:00:34Z</time>
      </trkpt>
      <trkpt lat="59.31312" lon="18.073937">
        <ele>36</ele>
        <time>2020-02-14T08:00:35Z</time>
      </trkpt>
      <trkpt lat="59.313093" lon="18.073951">
        <ele>36</ele>
        <time>2020-02-14T08:00:36Z</time>
      </trkpt>
      <trkpt lat="59.313072" lon="18.073957">
        <ele>36</ele>
        <time>2020-02-14T08:00:37Z</time>
      </trkpt>
      <trkpt lat="59.313053" lon="18.073982">
        <ele>36</ele>
        <time>2020-02-14T08:00:38Z</time>
      </trkpt>
      <trkpt lat="59.313027" lon="18.073994">
        <ele>36</ele>
        <time>2020-02-14T08:00:40Z</time>
      </trkpt>
      <trkpt lat="59.313011" lon="18.074012">
        <ele>36</ele>
        <time>2020-02-14T08:00:41Z</time>
      </trkpt>
      <trkpt lat="59.312992" lon="18.074028">
        <ele>37</ele>
        <time>2020-02-14T08:00:43Z</time>
      </trkpt>
      <trkpt lat="59.312983" lon="18.074032">
        <ele>0</ele>
        <time>2020-02-14T08:00:46Z</time>
      </trkpt>
      <trkpt lat="59.312939" lon="18.074032">
        <ele>40</ele>
        <time>2020-02-14T08:00:51Z</time>
      </trkpt>
      <trkpt lat="59.312917" lon="18.074041">
        <ele>40</ele>
        <time>2020-02-14T08:00:52Z</time>
      </trkpt>
      <trkpt lat="59.312877" lon="18.074022">
        <ele>40</ele>
        <time>2020-02-14T08:00:54Z</time>
      </trkpt>
      <trkpt lat="59.312844" lon="18.074013">
        <ele>40</ele>
        <time>2020-02-14T08:00:55Z</time>
      </trkpt>
      <trkpt lat="59.312791" lon="18.074023">
        <ele>41</ele>
        <time>2020-02-14T08:00:56Z</time>
      </trkpt>
      <trkpt lat="59.312735" lon="18.074028">
        <ele>41</ele>
        <time>2020-02-14T08:00:57Z</time>
      </trkpt>
      <trkpt lat="59.312679" lon="18.074033">
        <ele>41</ele>
        <time>2020-02-14T08:00:58Z</time>
      </trkpt>
      <trkpt lat="59.31263" lon="18.074042">
        <ele>42</ele>
        <time>2020-02-14T08:00:59Z</time>
      </trkpt>
      <trkpt lat="59.312586" lon="18.074049">
        <ele>42</ele>
        <time>2020-02-14T08:01:00Z</time>
      </trkpt>
      <trkpt lat="59.312532" lon="18.074066">
        <ele>42</ele>
        <time>2020-02-14T08:01:01Z</time>
      </trkpt>
      <trkpt lat="59.312471" lon="18.074084">
        <ele>42</ele>
        <time>2020-02-14T08:01:02Z</time>
      </trkpt>
      <trkpt lat="59.312401" lon="18.074111">
        <ele>42</ele>
        <time>2020-02-14T08:01:04Z</time>
      </trkpt>
      <trkpt lat="59.312335" lon="18.074149">
        <ele>42</ele>
        <time>2020-02-14T08:01:04Z</time>
      </trkpt>
      <trkpt lat="59.312263" lon="18.074186">
        <ele>41</ele>
        <time>2020-02-14T08:01:05Z</time>
      </trkpt>
      <trkpt lat="59.312194" lon="18.074228">
        <ele>41</ele>
        <time>2020-02-14T08:01:06Z</time>
      </trkpt>
      <trkpt lat="59.312126" lon="18.074268">
        <ele>41</ele>
        <time>2020-02-14T08:01:07Z</time>
      </trkpt>
      <trkpt lat="59.312059" lon="18.074298">
        <ele>41</ele>
        <time>2020-02-14T08:01:08Z</time>
      </trkpt>
      <trkpt lat="59.311993" lon="18.074327">
        <ele>41</ele>
        <time>2020-02-14T08:01:09Z</time>
      </trkpt>
      <trkpt lat="59.311932" lon="18.074349">
        <ele>41</ele>
        <time>2020-02-14T08:01:10Z</time>
      </trkpt>
      <trkpt lat="59.311873" lon="18.074364">
        <ele>41</ele>
        <time>2020-02-14T08:01:12Z</time>
      </trkpt>
      <trkpt lat="59.31181" lon="18.074383">
        <ele>41</ele>
        <time>2020-02-14T08:01:12Z</time>
      </trkpt>
      <trkpt lat="59.311743" lon="18.074418">
        <ele>41</ele>
        <time>2020-02-14T08:01:13Z</time>
      </trkpt>
      <trkpt lat="59.311674" lon="18.074474">
        <ele>41</ele>
        <time>2020-02-14T08:01:14Z</time>
      </trkpt>
      <trkpt lat="59.311614" lon="18.074513">
        <ele>41</ele>
        <time>2020-02-14T08:01:15Z</time>
      </trkpt>
      <trkpt lat="59.31155" lon="18.074551">
        <ele>41</ele>
        <time>2020-02-14T08:01:16Z</time>
      </trkpt>
      <trkpt lat="59.311482" lon="18.07459">
        <ele>41</ele>
        <time>2020-02-14T08:01:17Z</time>
      </trkpt>
      <trkpt lat="59.311418" lon="18.074627">
        <ele>41</ele>
        <time>2020-02-14T08:01:19Z</time>
      </trkpt>
      <trkpt lat="59.311353" lon="18.074662">
        <ele>41</ele>
        <time>2020-02-14T08:01:19Z</time>
      </trkpt>
      <trkpt lat="59.311291" lon="18.074693">
        <ele>41</ele>
        <time>2020-02-14T08:01:20Z</time>
      </trkpt>
      <trkpt lat="59.311226" lon="18.074725">
        <ele>41</ele>
        <time>2020-02-14T08:01:21Z</time>
      </trkpt>
      <trkpt lat="59.311166" lon="18.074752">
        <ele>41</ele>
        <time>2020-02-14T08:01:22Z</time>
      </trkpt>
      <trkpt lat="59.311107" lon="18.074782">
        <ele>41</ele>
        <time>2020-02-14T08:01:23Z</time>
      </trkpt>
      <trkpt lat="59.31105" lon="18.074813">
        <ele>41</ele>
        <time>2020-02-14T08:01:24Z</time>
      </trkpt>
      <trkpt lat="59.310991" lon="18.074849">
        <ele>42</ele>
        <time>2020-02-14T08:01:25Z</time>
      </trkpt>
      <trkpt lat="59.310933" lon="18.074889">
        <ele>42</ele>
        <time>2020-02-14T08:01:27Z</time>
      </trkpt>
      <trkpt lat="59.310885" lon="18.074913">
        <ele>42</ele>
        <time>2020-02-14T08:01:27Z</time>
      </trkpt>
      <trkpt lat="59.310838" lon="18.074934">
        <ele>42</ele>
        <time>2020-02-14T08:01:28Z</time>
      </trkpt>
      <trkpt lat="59.310793" lon="18.07496">
        <ele>43</ele>
        <time>2020-02-14T08:01:29Z</time>
      </trkpt>
      <trkpt lat="59.310754" lon="18.07498">
        <ele>43</ele>
        <time>2020-02-14T08:01:30Z</time>
      </trkpt>
      <trkpt lat="59.310717" lon="18.075012">
        <ele>43</ele>
        <time>2020-02-14T08:01:31Z</time>
      </trkpt>
      <trkpt lat="59.310693" lon="18.07502">
        <ele>43</ele>
        <time>2020-02-14T08:01:32Z</time>
      </trkpt>
      <trkpt lat="59.310675" lon="18.075025">
        <ele>44</ele>
        <time>2020-02-14T08:01:33Z</time>
      </trkpt>
      <trkpt lat="59.310642" lon="18.07504">
        <ele>44</ele>
        <time>2020-02-14T08:01:35Z</time>
      </trkpt>
      <trkpt lat="59.310615" lon="18.075057">
        <ele>44</ele>
        <time>2020-02-14T08:01:37Z</time>
      </trkpt>
      <trkpt lat="59.310592" lon="18.075074">
        <ele>45</ele>
        <time>2020-02-14T08:01:40Z</time>
      </trkpt>
      <trkpt lat="59.310575" lon="18.075089">
        <ele>45</ele>
        <time>2020-02-14T08:01:42Z</time>
      </trkpt>
      <trkpt lat="59.310538" lon="18.075108">
        <ele>45</ele>
        <time>2020-02-14T08:01:44Z</time>
      </trkpt>
      <trkpt lat="59.310511" lon="18.075121">
        <ele>45</ele>
        <time>2020-02-14T08:01:45Z</time>
      </trkpt>
      <trkpt lat="59.310479" lon="18.075132">
        <ele>45</ele>
        <time>2020-02-14T08:01:46Z</time>
      </trkpt>
      <trkpt lat="59.310442" lon="18.075149">
        <ele>45</ele>
        <time>2020-02-14T08:01:48Z</time>
      </trkpt>
      <trkpt lat="59.310399" lon="18.075173">
        <ele>45</ele>
        <time>2020-02-14T08:01:48Z</time>
      </trkpt>
      <trkpt lat="59.310354" lon="18.075194">
        <ele>45</ele>
        <time>2020-02-14T08:01:49Z</time>
      </trkpt>
      <trkpt lat="59.310303" lon="18.075213">
        <ele>45</ele>
        <time>2020-02-14T08:01:50Z</time>
      </trkpt>
      <trkpt lat="59.31025" lon="18.075237">
        <ele>45</ele>
        <time>2020-02-14T08:01:51Z</time>
      </trkpt>
      <trkpt lat="59.310193" lon="18.075265">
        <ele>45</ele>
        <time>2020-02-14T08:01:52Z</time>
      </trkpt>
      <trkpt lat="59.310135" lon="18.075294">
        <ele>46</ele>
        <time>2020-02-14T08:01:53Z</time>
      </trkpt>
      <trkpt lat="59.310081" lon="18.075318">
        <ele>46</ele>
        <time>2020-02-14T08:01:54Z</time>
      </trkpt>
      <trkpt lat="59.310027" lon="18.075339">
        <ele>46</ele>
        <time>2020-02-14T08:01:55Z</time>
      </trkpt>
      <trkpt lat="59.309974" lon="18.07536">
        <ele>46</ele>
        <time>2020-02-14T08:01:57Z</time>
      </trkpt>
      <trkpt lat="59.309915" lon="18.075393">
        <ele>46</ele>
        <time>2020-02-14T08:01:57Z</time>
      </trkpt>
      <trkpt lat="59.30986" lon="18.075407">
        <ele>46</ele>
        <time>2020-02-14T08:01:58Z</time>
      </trkpt>
      <trkpt lat="59.3098" lon="18.07544">
        <ele>46</ele>
        <time>2020-02-14T08:01:59Z</time>
      </trkpt>
      <trkpt lat="59.309738" lon="18.075485">
        <ele>47</ele>
        <time>2020-02-14T08:02:00Z</time>
      </trkpt>
      <trkpt lat="59.309684" lon="18.075501">
        <ele>46</ele>
        <time>2020-02-14T08:02:01Z</time>
      </trkpt>
      <trkpt lat="59.309625" lon="18.075527">
        <ele>46</ele>
        <time>2020-02-14T08:02:02Z</time>
      </trkpt>
      <trkpt lat="59.309562" lon="18.075565">
        <ele>46</ele>
        <time>2020-02-14T08:02:03Z</time>
      </trkpt>
      <trkpt lat="59.309497" lon="18.075609">
        <ele>46</ele>
        <time>2020-02-14T08:02:04Z</time>
      </trkpt>
      <trkpt lat="59.309434" lon="18.075644">
        <ele>46</ele>
        <time>2020-02-14T08:02:05Z</time>
      </trkpt>
      <trkpt lat="59.309372" lon="18.075677">
        <ele>46</ele>
        <time>2020-02-14T08:02:06Z</time>
      </trkpt>
      <trkpt lat="59.309311" lon="18.075707">
        <ele>46</ele>
        <time>2020-02-14T08:02:07Z</time>
      </trkpt>
      <trkpt lat="59.309251" lon="18.075729">
        <ele>46</ele>
        <time>2020-02-14T08:02:08Z</time>
      </trkpt>
      <trkpt lat="59.309188" lon="18.075762">
        <ele>46</ele>
        <time>2020-02-14T08:02:09Z</time>
      </trkpt>
      <trkpt lat="59.309121" lon="18.075808">
        <ele>46</ele>
        <time>2020-02-14T08:02:10Z</time>
      </trkpt>
      <trkpt lat="59.309052" lon="18.075854">
        <ele>46</ele>
        <time>2020-02-14T08:02:11Z</time>
      </trkpt>
      <trkpt lat="59.308994" lon="18.075878">
        <ele>47</ele>
        <time>2020-02-14T08:02:12Z</time>
      </trkpt>
      <trkpt lat="59.308931" lon="18.075903">
        <ele>47</ele>
        <time>2020-02-14T08:02:13Z</time>
      </trkpt>
      <trkpt lat="59.308865" lon="18.075934">
        <ele>47</ele>
        <time>2020-02-14T08:02:14Z</time>
      </trkpt>
      <trkpt lat="59.308801" lon="18.075963">
        <ele>48</ele>
        <time>2020-02-14T08:02:15Z</time>
      </trkpt>
      <trkpt lat="59.308738" lon="18.075993">
        <ele>48</ele>
        <time>2020-02-14T08:02:16Z</time>
      </trkpt>
      <trkpt lat="59.308676" lon="18.076028">
        <ele>48</ele>
        <time>2020-02-14T08:02:17Z</time>
      </trkpt>
      <trkpt lat="59.308611" lon="18.076076">
        <ele>47</ele>
        <time>2020-02-14T08:02:18Z</time>
      </trkpt>
      <trkpt lat="59.308545" lon="18.076121">
        <ele>47</ele>
        <time>2020-02-14T08:02:19Z</time>
      </trkpt>
      <trkpt lat="59.308483" lon="18.076158">
        <ele>47</ele>
        <time>2020-02-14T08:02:20Z</time>
      </trkpt>
      <trkpt lat="59.308428" lon="18.076191">
        <ele>47</ele>
        <time>2020-02-14T08:02:21Z</time>
      </trkpt>
      <trkpt lat="59.308376" lon="18.076224">
        <ele>47</ele>
        <time>2020-02-14T08:02:22Z</time>
      </trkpt>
      <trkpt lat="59.308322" lon="18.076261">
        <ele>47</ele>
        <time>2020-02-14T08:02:23Z</time>
      </trkpt>
      <trkpt lat="59.308277" lon="18.076296">
        <ele>47</ele>
        <time>2020-02-14T08:02:24Z</time>
      </trkpt>
      <trkpt lat="59.308238" lon="18.07632">
        <ele>48</ele>
        <time>2020-02-14T08:02:25Z</time>
      </trkpt>
      <trkpt lat="59.308197" lon="18.076344">
        <ele>48</ele>
        <time>2020-02-14T08:02:26Z</time>
      </trkpt>
      <trkpt lat="59.308158" lon="18.076356">
        <ele>49</ele>
        <time>2020-02-14T08:02:27Z</time>
      </trkpt>
      <trkpt lat="59.308119" lon="18.07637">
        <ele>49</ele>
        <time>2020-02-14T08:02:28Z</time>
      </trkpt>
      <trkpt lat="59.308082" lon="18.076383">
        <ele>49</ele>
        <time>2020-02-14T08:02:29Z</time>
      </trkpt>
      <trkpt lat="59.308047" lon="18.076392">
        <ele>50</ele>
        <time>2020-02-14T08:02:30Z</time>
      </trkpt>
      <trkpt lat="59.308011" lon="18.076401">
        <ele>50</ele>
        <time>2020-02-14T08:02:31Z</time>
      </trkpt>
      <trkpt lat="59.307983" lon="18.076407">
        <ele>50</ele>
        <time>2020-02-14T08:02:32Z</time>
      </trkpt>
      <trkpt lat="59.307957" lon="18.076419">
        <ele>50</ele>
        <time>2020-02-14T08:02:33Z</time>
      </trkpt>
      <trkpt lat="59.307931" lon="18.076443">
        <ele>50</ele>
        <time>2020-02-14T08:02:34Z</time>
      </trkpt>
      <trkpt lat="59.307907" lon="18.076467">
        <ele>49</ele>
        <time>2020-02-14T08:02:35Z</time>
      </trkpt>
      <trkpt lat="59.30789" lon="18.076486">
        <ele>48</ele>
        <time>2020-02-14T08:02:36Z</time>
      </trkpt>
      <trkpt lat="59.307887" lon="18.076489">
        <ele>0</ele>
        <time>2020-02-14T08:02:41Z</time>
      </trkpt>
      <trkpt lat="59.307817" lon="18.076483">
        <ele>44</ele>
        <time>2020-02-14T08:03:12Z</time>
      </trkpt>
      <trkpt lat="59.307799" lon="18.076491">
        <ele>45</ele>
        <time>2020-02-14T08:03:13Z</time>
      </trkpt>
      <trkpt lat="59.307774" lon="18.076515">
        <ele>45</ele>
        <time>2020-02-14T08:03:14Z</time>
      </trkpt>
      <trkpt lat="59.30775" lon="18.076537">
        <ele>45</ele>
        <time>2020-02-14T08:03:15Z</time>
      </trkpt>
      <trkpt lat="59.307708" lon="18.076555">
        <ele>45</ele>
        <time>2020-02-14T08:03:16Z</time>
      </trkpt>
      <trkpt lat="59.307658" lon="18.076571">
        <ele>44</ele>
        <time>2020-02-14T08:03:17Z</time>
      </trkpt>
      <trkpt lat="59.307605" lon="18.076593">
        <ele>44</ele>
        <time>2020-02-14T08:03:18Z</time>
      </trkpt>
      <trkpt lat="59.307543" lon="18.076625">
        <ele>44</ele>
        <time>2020-02-14T08:03:19Z</time>
      </trkpt>
      <trkpt lat="59.30748" lon="18.076654">
        <ele>44</ele>
        <time>2020-02-14T08:03:21Z</time>
      </trkpt>
      <trkpt lat="59.30742" lon="18.076682">
        <ele>44</ele>
        <time>2020-02-14T08:03:21Z</time>
      </trkpt>
      <trkpt lat="59.307355" lon="18.076716">
        <ele>44</ele>
        <time>2020-02-14T08:03:22Z</time>
      </trkpt>
      <trkpt lat="59.307292" lon="18.076745">
        <ele>44</ele>
        <time>2020-02-14T08:03:23Z</time>
      </trkpt>
      <trkpt lat="59.307229" lon="18.076774">
        <ele>44</ele>
        <time>2020-02-14T08:03:24Z</time>
      </trkpt>
      <trkpt lat="59.307165" lon="18.076806">
        <ele>44</ele>
        <time>2020-02-14T08:03:25Z</time>
      </trkpt>
      <trkpt lat="59.307101" lon="18.07684">
        <ele>44</ele>
        <time>2020-02-14T08:03:26Z</time>
      </trkpt>
      <trkpt lat="59.307039" lon="18.076869">
        <ele>44</ele>
        <time>2020-02-14T08:03:27Z</time>
      </trkpt>
      <trkpt lat="59.306973" lon="18.076913">
        <ele>44</ele>
        <time>2020-02-14T08:03:28Z</time>
      </trkpt>
      <trkpt lat="59.306911" lon="18.076955">
        <ele>45</ele>
        <time>2020-02-14T08:03:29Z</time>
      </trkpt>
      <trkpt lat="59.306842" lon="18.077002">
        <ele>45</ele>
        <time>2020-02-14T08:03:30Z</time>
      </trkpt>
      <trkpt lat="59.306774" lon="18.07704">
        <ele>45</ele>
        <time>2020-02-14T08:03:31Z</time>
      </trkpt>
      <trkpt lat="59.306712" lon="18.077075">
        <ele>45</ele>
        <time>2020-02-14T08:03:32Z</time>
      </trkpt>
      <trkpt lat="59.306651" lon="18.077106">
        <ele>45</ele>
        <time>2020-02-14T08:03:33Z</time>
      </trkpt>
      <trkpt lat="59.306587" lon="18.077147">
        <ele>44</ele>
        <time>2020-02-14T08:03:34Z</time>
      </trkpt>
      <trkpt lat="59.306522" lon="18.07719">
        <ele>44</ele>
        <time>2020-02-14T08:03:36Z</time>
      </trkpt>
      <trkpt lat="59.306449" lon="18.077264">
        <ele>44</ele>
        <time>2020-02-14T08:03:36Z</time>
      </trkpt>
      <trkpt lat="59.306386" lon="18.077293">
        <ele>44</ele>
        <time>2020-02-14T08:03:37Z</time>
      </trkpt>
      <trkpt lat="59.306331" lon="18.077314">
        <ele>44</ele>
        <time>2020-02-14T08:03:38Z</time>
      </trkpt>
      <trkpt lat="59.306283" lon="18.077322">
        <ele>44</ele>
        <time>2020-02-14T08:03:39Z</time>
      </trkpt>
      <trkpt lat="59.306234" lon="18.077338">
        <ele>43</ele>
        <time>2020-02-14T08:03:40Z</time>
      </trkpt>
      <trkpt lat="59.30618" lon="18.077359">
        <ele>43</ele>
        <time>2020-02-14T08:03:41Z</time>
      </trkpt>
      <trkpt lat="59.306125" lon="18.077382">
        <ele>42</ele>
        <time>2020-02-14T08:03:42Z</time>
      </trkpt>
      <trkpt lat="59.306069" lon="18.077407">
        <ele>42</ele>
        <time>2020-02-14T08:03:43Z</time>
      </trkpt>
      <trkpt lat="59.306013" lon="18.077436">
        <ele>41</ele>
        <time>2020-02-14T08:03:45Z</time>
      </trkpt>
      <trkpt lat="59.305958" lon="18.077469">
        <ele>41</ele>
        <time>2020-02-14T08:03:45Z</time>
      </trkpt>
      <trkpt lat="59.305905" lon="18.077501">
        <ele>40</ele>
        <time>2020-02-14T08:03:46Z</time>
      </trkpt>
      <trkpt lat="59.305852" lon="18.077532">
        <ele>40</ele>
        <time>2020-02-14T08:03:47Z</time>
      </trkpt>
      <trkpt lat="59.3058" lon="18.077562">
        <ele>39</ele>
        <time>2020-02-14T08:03:48Z</time>
      </trkpt>
      <trkpt lat="59.305748" lon="18.077593">
        <ele>39</ele>
        <time>2020-02-14T08:03:49Z</time>
      </trkpt>
      <trkpt lat="59.305696" lon="18.077624">
        <ele>39</ele>
        <time>2020-02-14T08:03:50Z</time>
      </trkpt>
      <trkpt lat="59.305645" lon="18.077654">
        <ele>38</ele>
        <time>2020-02-14T08:03:51Z</time>
      </trkpt>
      <trkpt lat="59.305595" lon="18.077685">
        <ele>38</ele>
        <time>2020-02-14T08:03:52Z</time>
      </trkpt>
      <trkpt lat="59.305544" lon="18.077716">
        <ele>38</ele>
        <time>2020-02-14T08:03:53Z</time>
      </trkpt>
      <trkpt lat="59.305494" lon="18.077747">
        <ele>37</ele>
        <time>2020-02-14T08:03:54Z</time>
      </trkpt>
      <trkpt lat="59.305444" lon="18.077777">
        <ele>37</ele>
        <time>2020-02-14T08:03:55Z</time>
      </trkpt>
      <trkpt lat="59.305393" lon="18.077806">
        <ele>37</ele>
        <time>2020-02-14T08:03:56Z</time>
      </trkpt>
      <trkpt lat="59.305341" lon="18.077834">
        <ele>36</ele>
        <time>2020-02-14T08:03:57Z</time>
      </trkpt>
      <trkpt lat="59.30529" lon="18.077862">
        <ele>36</ele>
        <time>2020-02-14T08:03:58Z</time>
      </trkpt>
      <trkpt lat="59.30524" lon="18.07789">
        <ele>35</ele>
        <time>2020-02-14T08:03:59Z</time>
      </trkpt>
      <trkpt lat="59.305191" lon="18.077919">
        <ele>35</ele>
        <time>2020-02-14T08:04:00Z</time>
      </trkpt>
      <trkpt lat="59.305144" lon="18.077948">
        <ele>35</ele>
        <time>2020-02-14T08:04:01Z</time>
      </trkpt>
      <trkpt lat="59.305096" lon="18.077977">
        <ele>35</ele>
        <time>2020-02-14T08:04:03Z</time>
      </trkpt>
      <trkpt lat="59.305049" lon="18.078006">
        <ele>35</ele>
        <time>2020-02-14T08:04:03Z</time>
      </trkpt>
      <trkpt lat="59.305003" lon="18.078035">
        <ele>35</ele>
        <time>2020-02-14T08:04:04Z</time>
      </trkpt>
      <trkpt lat="59.304957" lon="18.078063">
        <ele>35</ele>
        <time>2020-02-14T08:04:05Z</time>
      </trkpt>
      <trkpt lat="59.304912" lon="18.078091">
        <ele>35</ele>
        <time>2020-02-14T08:04:06Z</time>
      </trkpt>
      <trkpt lat="59.304866" lon="18.078118">
        <ele>35</ele>
        <time>2020-02-14T08:04:07Z</time>
      </trkpt>
      <trkpt lat="59.304823" lon="18.078145">
        <ele>35</ele>
        <time>2020-02-14T08:04:08Z</time>
      </trkpt>
      <trkpt lat="59.304779" lon="18.07817">
        <ele>35</ele>
        <time>2020-02-14T08:04:09Z</time>
      </trkpt>
      <trkpt lat="59.304735" lon="18.078197">
        <ele>35</ele>
        <time>2020-02-14T08:04:10Z</time>
      </trkpt>
      <trkpt lat="59.304691" lon="18.078225">
        <ele>35</ele>
        <time>2020-02-14T08:04:11Z</time>
      </trkpt>
      <trkpt lat="59.304647" lon="18.078253">
        <ele>34</ele>
        <time>2020-02-14T08:04:12Z</time>
      </trkpt>
      <trkpt lat="59.304603" lon="18.078281">
        <ele>34</ele>
        <time>2020-02-14T08:04:13Z</time>
      </trkpt>
      <trkpt lat="59.30456" lon="18.078308">
        <ele>34</ele>
        <time>2020-02-14T08:04:14Z</time>
      </trkpt>
      <trkpt lat="59.304518" lon="18.078335">
        <ele>34</ele>
        <time>2020-02-14T08:04:15Z</time>
      </trkpt>
      <trkpt lat="59.304475" lon="18.078361">
        <ele>34</ele>
        <time>2020-02-14T08:04:16Z</time>
      </trkpt>
      <trkpt lat="59.304433" lon="18.078387">
        <ele>34</ele>
        <time>2020-02-14T08:04:17Z</time>
      </trkpt>
      <trkpt lat="59.304391" lon="18.078414">
        <ele>34</ele>
        <time>2020-02-14T08:04:18Z</time>
      </trkpt>
      <trkpt lat="59.304349" lon="18.078442">
        <ele>34</ele>
        <time>2020-02-14T08:04:19Z</time>
      </trkpt>
      <trkpt lat="59.304307" lon="18.078467">
        <ele>34</ele>
        <time>2020-02-14T08:04:20Z</time>
      </trkpt>
      <trkpt lat="59.304264" lon="18.078492">
        <ele>34</ele>
        <time>2020-02-14T08:04:21Z</time>
      </trkpt>
      <trkpt lat="59.304223" lon="18.078517">
        <ele>34</ele>
        <time>2020-02-14T08:04:22Z</time>
      </trkpt>
      <trkpt lat="59.304181" lon="18.078544">
        <ele>34</ele>
        <time>2020-02-14T08:04:23Z</time>
      </trkpt>
      <trkpt lat="59.304139" lon="18.078569">
        <ele>34</ele>
        <time>2020-02-14T08:04:24Z</time>
      </trkpt>
      <trkpt lat="59.304097" lon="18.078594">
        <ele>34</ele>
        <time>2020-02-14T08:04:25Z</time>
      </trkpt>
      <trkpt lat="59.304057" lon="18.078621">
        <ele>34</ele>
        <time>2020-02-14T08:04:26Z</time>
      </trkpt>
      <trkpt lat="59.304017" lon="18.078647">
        <ele>34</ele>
        <time>2020-02-14T08:04:27Z</time>
      </trkpt>
      <trkpt lat="59.303976" lon="18.078673">
        <ele>34</ele>
        <time>2020-02-14T08:04:28Z</time>
      </trkpt>
      <trkpt lat="59.303937" lon="18.078697">
        <ele>34</ele>
        <time>2020-02-14T08:04:29Z</time>
      </trkpt>
      <trkpt lat="59.303897" lon="18.078719">
        <ele>34</ele>
        <time>2020-02-14T08:04:30Z</time>
      </trkpt>
      <trkpt lat="59.303859" lon="18.078743">
        <ele>34</ele>
        <time>2020-02-14T08:04:31Z</time>
      </trkpt>
      <trkpt lat="59.303821" lon="18.078767">
        <ele>34</ele>
        <time>2020-02-14T08:04:32Z</time>
      </trkpt>
      <trkpt lat="59.303784" lon="18.078791">
        <ele>34</ele>
        <time>2020-02-14T08:04:33Z</time>
      </trkpt>
      <trkpt lat="59.303747" lon="18.078816">
        <ele>34</ele>
        <time>2020-02-14T08:04:34Z</time>
      </trkpt>
      <trkpt lat="59.30371" lon="18.078842">
        <ele>34</ele>
        <time>2020-02-14T08:04:35Z</time>
      </trkpt>
      <trkpt lat="59.303672" lon="18.078866">
        <ele>34</ele>
        <time>2020-02-14T08:04:36Z</time>
      </trkpt>
      <trkpt lat="59.303635" lon="18.078887">
        <ele>35</ele>
        <time>2020-02-14T08:04:37Z</time>
      </trkpt>
      <trkpt lat="59.303598" lon="18.07891">
        <ele>35</ele>
        <time>2020-02-14T08:04:38Z</time>
      </trkpt>
      <trkpt lat="59.303561" lon="18.078934">
        <ele>35</ele>
        <time>2020-02-14T08:04:39Z</time>
      </trkpt>
      <trkpt lat="59.303524" lon="18.078956">
        <ele>35</ele>
        <time>2020-02-14T08:04:40Z</time>
      </trkpt>
      <trkpt lat="59.303487" lon="18.078979">
        <ele>35</ele>
        <time>2020-02-14T08:04:41Z</time>
      </trkpt>
      <trkpt lat="59.303449" lon="18.079002">
        <ele>35</ele>
        <time>2020-02-14T08:04:42Z</time>
      </trkpt>
      <trkpt lat="59.303412" lon="18.079027">
        <ele>35</ele>
        <time>2020-02-14T08:04:43Z</time>
      </trkpt>
      <trkpt lat="59.303374" lon="18.079051">
        <ele>35</ele>
        <time>2020-02-14T08:04:44Z</time>
      </trkpt>
      <trkpt lat="59.303336" lon="18.079075">
        <ele>35</ele>
        <time>2020-02-14T08:04:45Z</time>
      </trkpt>
      <trkpt lat="59.303298" lon="18.079099">
        <ele>35</ele>
        <time>2020-02-14T08:04:46Z</time>
      </trkpt>
      <trkpt lat="59.303259" lon="18.079124">
        <ele>35</ele>
        <time>2020-02-14T08:04:47Z</time>
      </trkpt>
      <trkpt lat="59.30322" lon="18.079149">
        <ele>35</ele>
        <time>2020-02-14T08:04:48Z</time>
      </trkpt>
      <trkpt lat="59.303181" lon="18.079174">
        <ele>35</ele>
        <time>2020-02-14T08:04:49Z</time>
      </trkpt>
      <trkpt lat="59.303141" lon="18.079199">
        <ele>35</ele>
        <time>2020-02-14T08:04:50Z</time>
      </trkpt>
      <trkpt lat="59.3031" lon="18.079224">
        <ele>35</ele>
        <time>2020-02-14T08:04:51Z</time>
      </trkpt>
      <trkpt lat="59.303059" lon="18.07925">
        <ele>35</ele>
        <time>2020-02-14T08:04:52Z</time>
      </trkpt>
      <trkpt lat="59.303018" lon="18.079276">
        <ele>35</ele>
        <time>2020-02-14T08:04:53Z</time>
      </trkpt>
      <trkpt lat="59.302976" lon="18.079302">
        <ele>35</ele>
        <time>2020-02-14T08:04:54Z</time>
      </trkpt>
      <trkpt lat="59.302934" lon="18.079331">
        <ele>35</ele>
        <time>2020-02-14T08:04:55Z</time>
      </trkpt>
      <trkpt lat="59.302891" lon="18.07936">
        <ele>35</ele>
        <time>2020-02-14T08:04:56Z</time>
      </trkpt>
      <trkpt lat="59.302847" lon="18.079387">
        <ele>36</ele>
        <time>2020-02-14T08:04:57Z</time>
      </trkpt>
      <trkpt lat="59.302803" lon="18.079416">
        <ele>36</ele>
        <time>2020-02-14T08:04:58Z</time>
      </trkpt>
      <trkpt lat="59.302759" lon="18.079445">
        <ele>36</ele>
        <time>2020-02-14T08:04:59Z</time>
      </trkpt>
      <trkpt lat="59.302714" lon="18.079473">
        <ele>36</ele>
        <time>2020-02-14T08:05:00Z</time>
      </trkpt>
      <trkpt lat="59.30267" lon="18.079501">
        <ele>36</ele>
        <time>2020-02-14T08:05:01Z</time>
      </trkpt>
      <trkpt lat="59.302625" lon="18.079529">
        <ele>36</ele>
        <time>2020-02-14T08:05:02Z</time>
      </trkpt>
      <trkpt lat="59.30258" lon="18.079558">
        <ele>36</ele>
        <time>2020-02-14T08:05:03Z</time>
      </trkpt>
      <trkpt lat="59.302536" lon="18.079586">
        <ele>36</ele>
        <time>2020-02-14T08:05:04Z</time>
      </trkpt>
      <trkpt lat="59.302491" lon="18.079615">
        <ele>36</ele>
        <time>2020-02-14T08:05:05Z</time>
      </trkpt>
      <trkpt lat="59.302446" lon="18.079643">
        <ele>36</ele>
        <time>2020-02-14T08:05:06Z</time>
      </trkpt>
      <trkpt lat="59.302401" lon="18.079672">
        <ele>36</ele>
        <time>2020-02-14T08:05:07Z</time>
      </trkpt>
      <trkpt lat="59.302355" lon="18.079701">
        <ele>36</ele>
        <time>2020-02-14T08:05:08Z</time>
      </trkpt>
      <trkpt lat="59.30231" lon="18.079731">
        <ele>36</ele>
        <time>2020-02-14T08:05:09Z</time>
      </trkpt>
      <trkpt lat="59.302264" lon="18.07976">
        <ele>36</ele>
        <time>2020-02-14T08:05:10Z</time>
      </trkpt>
      <trkpt lat="59.302218" lon="18.079788">
        <ele>36</ele>
        <time>2020-02-14T08:05:11Z</time>
      </trkpt>
      <trkpt lat="59.302172" lon="18.079816">
        <ele>36</ele>
        <time>2020-02-14T08:05:12Z</time>
      </trkpt>
      <trkpt lat="59.302126" lon="18.079845">
        <ele>36</ele>
        <time>2020-02-14T08:05:13Z</time>
      </trkpt>
      <trkpt lat="59.30208" lon="18.079874">
        <ele>36</ele>
        <time>2020-02-14T08:05:14Z</time>
      </trkpt>
      <trkpt lat="59.302033" lon="18.079903">
        <ele>36</ele>
        <time>2020-02-14T08:05:15Z</time>
      </trkpt>
      <trkpt lat="59.301986" lon="18.079931">
        <ele>36</ele>
        <time>2020-02-14T08:05:16Z</time>
      </trkpt>
      <trkpt lat="59.301939" lon="18.079959">
        <ele>36</ele>
        <time>2020-02-14T08:05:17Z</time>
      </trkpt>
      <trkpt lat="59.301892" lon="18.079987">
        <ele>36</ele>
        <time>2020-02-14T08:05:18Z</time>
      </trkpt>
      <trkpt lat="59.301845" lon="18.080015">
        <ele>36</ele>
        <time>2020-02-14T08:05:19Z</time>
      </trkpt>
      <trkpt lat="59.301798" lon="18.080042">
        <ele>36</ele>
        <time>2020-02-14T08:05:20Z</time>
      </trkpt>
      <trkpt lat="59.301751" lon="18.08007">
        <ele>37</ele>
        <time>2020-02-14T08:05:21Z</time>
      </trkpt>
      <trkpt lat="59.301704" lon="18.080096">
        <ele>37</ele>
        <time>2020-02-14T08:05:22Z</time>
      </trkpt>
      <trkpt lat="59.301657" lon="18.080124">
        <ele>37</ele>
        <time>2020-02-14T08:05:23Z</time>
      </trkpt>
      <trkpt lat="59.301611" lon="18.080153">
        <ele>37</ele>
        <time>2020-02-14T08:05:24Z</time>
      </trkpt>
      <trkpt lat="59.301565" lon="18.080182">
        <ele>37</ele>
        <time>2020-02-14T08:05:25Z</time>
      </trkpt>
      <trkpt lat="59.30152" lon="18.080211">
        <ele>36</ele>
        <time>2020-02-14T08:05:26Z</time>
      </trkpt>
      <trkpt lat="59.301477" lon="18.080235">
        <ele>36</ele>
        <time>2020-02-14T08:05:27Z</time>
      </trkpt>
      <trkpt lat="59.301434" lon="18.080263">
        <ele>36</ele>
        <time>2020-02-14T08:05:28Z</time>
      </trkpt>
      <trkpt lat="59.301392" lon="18.080292">
        <ele>36</ele>
        <time>2020-02-14T08:05:29Z</time>
      </trkpt>
      <trkpt lat="59.301352" lon="18.080318">
        <ele>36</ele>
        <time>2020-02-14T08:05:30Z</time>
      </trkpt>
      <trkpt lat="59.301316" lon="18.080341">
        <ele>36</ele>
        <time>2020-02-14T08:05:31Z</time>
      </trkpt>
      <trkpt lat="59.301277" lon="18.080358">
        <ele>36</ele>
        <time>2020-02-14T08:05:32Z</time>
      </trkpt>
      <trkpt lat="59.301237" lon="18.080366">
        <ele>36</ele>
        <time>2020-02-14T08:05:33Z</time>
      </trkpt>
      <trkpt lat="59.301197" lon="18.080367">
        <ele>36</ele>
        <time>2020-02-14T08:05:34Z</time>
      </trkpt>
      <trkpt lat="59.301161" lon="18.080353">
        <ele>36</ele>
        <time>2020-02-14T08:05:35Z</time>
      </trkpt>
      <trkpt lat="59.301128" lon="18.080342">
        <ele>36</ele>
        <time>2020-02-14T08:05:36Z</time>
      </trkpt>
      <trkpt lat="59.301092" lon="18.080336">
        <ele>36</ele>
        <time>2020-02-14T08:05:37Z</time>
      </trkpt>
      <trkpt lat="59.301056" lon="18.080336">
        <ele>36</ele>
        <time>2020-02-14T08:05:38Z</time>
      </trkpt>
      <trkpt lat="59.301015" lon="18.080335">
        <ele>36</ele>
        <time>2020-02-14T08:05:39Z</time>
      </trkpt>
      <trkpt lat="59.300975" lon="18.080334">
        <ele>36</ele>
        <time>2020-02-14T08:05:40Z</time>
      </trkpt>
      <trkpt lat="59.300932" lon="18.080345">
        <ele>36</ele>
        <time>2020-02-14T08:05:41Z</time>
      </trkpt>
      <trkpt lat="59.300889" lon="18.08036">
        <ele>36</ele>
        <time>2020-02-14T08:05:42Z</time>
      </trkpt>
      <trkpt lat="59.300846" lon="18.080379">
        <ele>36</ele>
        <time>2020-02-14T08:05:43Z</time>
      </trkpt>
      <trkpt lat="59.300801" lon="18.080398">
        <ele>36</ele>
        <time>2020-02-14T08:05:45Z</time>
      </trkpt>
      <trkpt lat="59.300753" lon="18.080417">
        <ele>36</ele>
        <time>2020-02-14T08:05:45Z</time>
      </trkpt>
      <trkpt lat="59.300704" lon="18.080441">
        <ele>36</ele>
        <time>2020-02-14T08:05:46Z</time>
      </trkpt>
      <trkpt lat="59.300653" lon="18.080472">
        <ele>37</ele>
        <time>2020-02-14T08:05:47Z</time>
      </trkpt>
      <trkpt lat="59.300602" lon="18.080503">
        <ele>37</ele>
        <time>2020-02-14T08:05:48Z</time>
      </trkpt>
      <trkpt lat="59.30055" lon="18.080532">
        <ele>37</ele>
        <time>2020-02-14T08:05:49Z</time>
      </trkpt>
      <trkpt lat="59.300498" lon="18.080565">
        <ele>37</ele>
        <time>2020-02-14T08:05:50Z</time>
      </trkpt>
      <trkpt lat="59.300447" lon="18.080598">
        <ele>37</ele>
        <time>2020-02-14T08:05:51Z</time>
      </trkpt>
      <trkpt lat="59.300396" lon="18.080633">
        <ele>37</ele>
        <time>2020-02-14T08:05:52Z</time>
      </trkpt>
      <trkpt lat="59.300345" lon="18.080669">
        <ele>37</ele>
        <time>2020-02-14T08:05:53Z</time>
      </trkpt>
      <trkpt lat="59.300294" lon="18.080704">
        <ele>37</ele>
        <time>2020-02-14T08:05:54Z</time>
      </trkpt>
      <trkpt lat="59.300242" lon="18.080738">
        <ele>37</ele>
        <time>2020-02-14T08:05:55Z</time>
      </trkpt>
      <trkpt lat="59.300188" lon="18.080772">
        <ele>37</ele>
        <time>2020-02-14T08:05:56Z</time>
      </trkpt>
      <trkpt lat="59.300135" lon="18.080805">
        <ele>37</ele>
        <time>2020-02-14T08:05:57Z</time>
      </trkpt>
      <trkpt lat="59.300081" lon="18.080838">
        <ele>37</ele>
        <time>2020-02-14T08:05:58Z</time>
      </trkpt>
      <trkpt lat="59.300027" lon="18.080871">
        <ele>38</ele>
        <time>2020-02-14T08:05:59Z</time>
      </trkpt>
      <trkpt lat="59.299974" lon="18.080902">
        <ele>38</ele>
        <time>2020-02-14T08:06:00Z</time>
      </trkpt>
      <trkpt lat="59.299919" lon="18.08093">
        <ele>38</ele>
        <time>2020-02-14T08:06:01Z</time>
      </trkpt>
      <trkpt lat="59.299864" lon="18.08096">
        <ele>38</ele>
        <time>2020-02-14T08:06:02Z</time>
      </trkpt>
      <trkpt lat="59.29981" lon="18.080994">
        <ele>38</ele>
        <time>2020-02-14T08:06:04Z</time>
      </trkpt>
      <trkpt lat="59.299755" lon="18.08103">
        <ele>39</ele>
        <time>2020-02-14T08:06:04Z</time>
      </trkpt>
      <trkpt lat="59.299701" lon="18.081067">
        <ele>39</ele>
        <time>2020-02-14T08:06:05Z</time>
      </trkpt>
      <trkpt lat="59.299646" lon="18.081105">
        <ele>39</ele>
        <time>2020-02-14T08:06:06Z</time>
      </trkpt>
      <trkpt lat="59.29959" lon="18.081141">
        <ele>39</ele>
        <time>2020-02-14T08:06:07Z</time>
      </trkpt>
      <trkpt lat="59.299535" lon="18.081178">
        <ele>39</ele>
        <time>2020-02-14T08:06:08Z</time>
      </trkpt>
      <trkpt lat="59.299483" lon="18.081208">
        <ele>39</ele>
        <time>2020-02-14T08:06:09Z</time>
      </trkpt>
      <trkpt lat="59.299432" lon="18.081242">
        <ele>39</ele>
        <time>2020-02-14T08:06:10Z</time>
      </trkpt>
      <trkpt lat="59.29938" lon="18.081274">
        <ele>39</ele>
        <time>2020-02-14T08:06:11Z</time>
      </trkpt>
      <trkpt lat="59.299332" lon="18.0813">
        <ele>39</ele>
        <time>2020-02-14T08:06:12Z</time>
      </trkpt>
      <trkpt lat="59.299242" lon="18.081357">
        <ele>39</ele>
        <time>2020-02-14T08:06:14Z</time>
      </trkpt>
      <trkpt lat="59.299129" lon="18.081411">
        <ele>39</ele>
        <time>2020-02-14T08:06:16Z</time>
      </trkpt>
      <trkpt lat="59.299036" lon="18.081489">
        <ele>39</ele>
        <time>2020-02-14T08:06:18Z</time>
      </trkpt>
      <trkpt lat="59.298922" lon="18.081556">
        <ele>38</ele>
        <time>2020-02-14T08:06:20Z</time>
      </trkpt>
      <trkpt lat="59.298843" lon="18.081561">
        <ele>38</ele>
        <time>2020-02-14T08:06:21Z</time>
      </trkpt>
      <trkpt lat="59.298796" lon="18.081596">
        <ele>38</ele>
        <time>2020-02-14T08:06:22Z</time>
      </trkpt>
      <trkpt lat="59.298749" lon="18.081632">
        <ele>38</ele>
        <time>2020-02-14T08:06:23Z</time>
      </trkpt>
      <trkpt lat="59.2987" lon="18.081664">
        <ele>38</ele>
        <time>2020-02-14T08:06:24Z</time>
      </trkpt>
      <trkpt lat="59.298649" lon="18.081693">
        <ele>38</ele>
        <time>2020-02-14T08:06:25Z</time>
      </trkpt>
      <trkpt lat="59.298602" lon="18.081723">
        <ele>38</ele>
        <time>2020-02-14T08:06:26Z</time>
      </trkpt>
      <trkpt lat="59.298555" lon="18.081748">
        <ele>38</ele>
        <time>2020-02-14T08:06:27Z</time>
      </trkpt>
      <trkpt lat="59.298508" lon="18.081781">
        <ele>38</ele>
        <time>2020-02-14T08:06:28Z</time>
      </trkpt>
      <trkpt lat="59.298462" lon="18.081816">
        <ele>38</ele>
        <time>2020-02-14T08:06:29Z</time>
      </trkpt>
      <trkpt lat="59.298416" lon="18.081854">
        <ele>38</ele>
        <time>2020-02-14T08:06:30Z</time>
      </trkpt>
      <trkpt lat="59.298372" lon="18.081896">
        <ele>37</ele>
        <time>2020-02-14T08:06:31Z</time>
      </trkpt>
      <trkpt lat="59.298329" lon="18.081939">
        <ele>37</ele>
        <time>2020-02-14T08:06:32Z</time>
      </trkpt>
      <trkpt lat="59.298287" lon="18.08199">
        <ele>37</ele>
        <time>2020-02-14T08:06:33Z</time>
      </trkpt>
      <trkpt lat="59.298244" lon="18.082037">
        <ele>37</ele>
        <time>2020-02-14T08:06:34Z</time>
      </trkpt>
      <trkpt lat="59.298201" lon="18.082084">
        <ele>37</ele>
        <time>2020-02-14T08:06:35Z</time>
      </trkpt>
      <trkpt lat="59.298157" lon="18.082133">
        <ele>38</ele>
        <time>2020-02-14T08:06:36Z</time>
      </trkpt>
      <trkpt lat="59.298113" lon="18.082175">
        <ele>38</ele>
        <time>2020-02-14T08:06:37Z</time>
      </trkpt>
      <trkpt lat="59.298067" lon="18.082214">
        <ele>38</ele>
        <time>2020-02-14T08:06:38Z</time>
      </trkpt>
      <trkpt lat="59.298023" lon="18.08225">
        <ele>38</ele>
        <time>2020-02-14T08:06:39Z</time>
      </trkpt>
      <trkpt lat="59.297979" lon="18.082289">
        <ele>38</ele>
        <time>2020-02-14T08:06:40Z</time>
      </trkpt>
      <trkpt lat="59.297934" lon="18.082327">
        <ele>38</ele>
        <time>2020-02-14T08:06:42Z</time>
      </trkpt>
      <trkpt lat="59.297888" lon="18.082361">
        <ele>38</ele>
        <time>2020-02-14T08:06:42Z</time>
      </trkpt>
      <trkpt lat="59.297842" lon="18.082393">
        <ele>38</ele>
        <time>2020-02-14T08:06:43Z</time>
      </trkpt>
      <trkpt lat="59.297797" lon="18.082425">
        <ele>38</ele>
        <time>2020-02-14T08:06:44Z</time>
      </trkpt>
      <trkpt lat="59.297752" lon="18.082455">
        <ele>38</ele>
        <time>2020-02-14T08:06:45Z</time>
      </trkpt>
      <trkpt lat="59.297705" lon="18.082484">
        <ele>38</ele>
        <time>2020-02-14T08:06:46Z</time>
      </trkpt>
      <trkpt lat="59.29766" lon="18.082516">
        <ele>38</ele>
        <time>2020-02-14T08:06:47Z</time>
      </trkpt>
      <trkpt lat="59.297615" lon="18.08255">
        <ele>39</ele>
        <time>2020-02-14T08:06:48Z</time>
      </trkpt>
      <trkpt lat="59.29757" lon="18.082583">
        <ele>39</ele>
        <time>2020-02-14T08:06:49Z</time>
      </trkpt>
      <trkpt lat="59.297525" lon="18.082615">
        <ele>39</ele>
        <time>2020-02-14T08:06:50Z</time>
      </trkpt>
      <trkpt lat="59.29748" lon="18.082643">
        <ele>39</ele>
        <time>2020-02-14T08:06:51Z</time>
      </trkpt>
      <trkpt lat="59.297435" lon="18.082672">
        <ele>39</ele>
        <time>2020-02-14T08:06:52Z</time>
      </trkpt>
      <trkpt lat="59.29739" lon="18.082697">
        <ele>39</ele>
        <time>2020-02-14T08:06:53Z</time>
      </trkpt>
      <trkpt lat="59.297345" lon="18.08272">
        <ele>39</ele>
        <time>2020-02-14T08:06:54Z</time>
      </trkpt>
      <trkpt lat="59.297299" lon="18.08274">
        <ele>40</ele>
        <time>2020-02-14T08:06:55Z</time>
      </trkpt>
      <trkpt lat="59.297252" lon="18.082756">
        <ele>40</ele>
        <time>2020-02-14T08:06:56Z</time>
      </trkpt>
      <trkpt lat="59.297205" lon="18.082769">
        <ele>40</ele>
        <time>2020-02-14T08:06:57Z</time>
      </trkpt>
      <trkpt lat="59.297159" lon="18.082779">
        <ele>40</ele>
        <time>2020-02-14T08:06:58Z</time>
      </trkpt>
      <trkpt lat="59.297114" lon="18.082795">
        <ele>40</ele>
        <time>2020-02-14T08:06:59Z</time>
      </trkpt>
      <trkpt lat="59.29707" lon="18.082817">
        <ele>40</ele>
        <time>2020-02-14T08:07:00Z</time>
      </trkpt>
      <trkpt lat="59.297027" lon="18.082838">
        <ele>40</ele>
        <time>2020-02-14T08:07:01Z</time>
      </trkpt>
      <trkpt lat="59.296982" lon="18.082856">
        <ele>40</ele>
        <time>2020-02-14T08:07:03Z</time>
      </trkpt>
      <trkpt lat="59.296936" lon="18.082879">
        <ele>40</ele>
        <time>2020-02-14T08:07:03Z</time>
      </trkpt>
      <trkpt lat="59.296892" lon="18.082916">
        <ele>40</ele>
        <time>2020-02-14T08:07:04Z</time>
      </trkpt>
      <trkpt lat="59.296849" lon="18.08296">
        <ele>40</ele>
        <time>2020-02-14T08:07:05Z</time>
      </trkpt>
      <trkpt lat="59.296809" lon="18.083004">
        <ele>40</ele>
        <time>2020-02-14T08:07:06Z</time>
      </trkpt>
      <trkpt lat="59.296769" lon="18.083045">
        <ele>40</ele>
        <time>2020-02-14T08:07:07Z</time>
      </trkpt>
      <trkpt lat="59.296728" lon="18.083086">
        <ele>40</ele>
        <time>2020-02-14T08:07:08Z</time>
      </trkpt>
      <trkpt lat="59.296687" lon="18.083127">
        <ele>41</ele>
        <time>2020-02-14T08:07:09Z</time>
      </trkpt>
      <trkpt lat="59.296647" lon="18.083168">
        <ele>40</ele>
        <time>2020-02-14T08:07:10Z</time>
      </trkpt>
      <trkpt lat="59.296607" lon="18.083212">
        <ele>41</ele>
        <time>2020-02-14T08:07:11Z</time>
      </trkpt>
      <trkpt lat="59.296566" lon="18.083257">
        <ele>41</ele>
        <time>2020-02-14T08:07:13Z</time>
      </trkpt>
      <trkpt lat="59.296524" lon="18.083294">
        <ele>41</ele>
        <time>2020-02-14T08:07:13Z</time>
      </trkpt>
      <trkpt lat="59.296481" lon="18.083327">
        <ele>41</ele>
        <time>2020-02-14T08:07:14Z</time>
      </trkpt>
      <trkpt lat="59.296438" lon="18.083356">
        <ele>41</ele>
        <time>2020-02-14T08:07:15Z</time>
      </trkpt>
      <trkpt lat="59.296393" lon="18.083386">
        <ele>41</ele>
        <time>2020-02-14T08:07:16Z</time>
      </trkpt>
      <trkpt lat="59.296349" lon="18.083415">
        <ele>42</ele>
        <time>2020-02-14T08:07:17Z</time>
      </trkpt>
      <trkpt lat="59.296305" lon="18.083444">
        <ele>42</ele>
        <time>2020-02-14T08:07:18Z</time>
      </trkpt>
      <trkpt lat="59.296259" lon="18.083473">
        <ele>42</ele>
        <time>2020-02-14T08:07:19Z</time>
      </trkpt>
      <trkpt lat="59.296212" lon="18.083503">
        <ele>42</ele>
        <time>2020-02-14T08:07:20Z</time>
      </trkpt>
      <trkpt lat="59.296166" lon="18.083534">
        <ele>43</ele>
        <time>2020-02-14T08:07:21Z</time>
      </trkpt>
      <trkpt lat="59.296119" lon="18.083565">
        <ele>43</ele>
        <time>2020-02-14T08:07:22Z</time>
      </trkpt>
      <trkpt lat="59.296072" lon="18.083597">
        <ele>43</ele>
        <time>2020-02-14T08:07:23Z</time>
      </trkpt>
      <trkpt lat="59.296027" lon="18.083629">
        <ele>43</ele>
        <time>2020-02-14T08:07:24Z</time>
      </trkpt>
      <trkpt lat="59.295981" lon="18.08366">
        <ele>44</ele>
        <time>2020-02-14T08:07:25Z</time>
      </trkpt>
      <trkpt lat="59.295935" lon="18.08369">
        <ele>44</ele>
        <time>2020-02-14T08:07:26Z</time>
      </trkpt>
      <trkpt lat="59.295888" lon="18.083718">
        <ele>44</ele>
        <time>2020-02-14T08:07:27Z</time>
      </trkpt>
      <trkpt lat="59.295842" lon="18.083748">
        <ele>44</ele>
        <time>2020-02-14T08:07:28Z</time>
      </trkpt>
      <trkpt lat="59.295793" lon="18.083777">
        <ele>44</ele>
        <time>2020-02-14T08:07:29Z</time>
      </trkpt>
      <trkpt lat="59.295744" lon="18.083805">
        <ele>44</ele>
        <time>2020-02-14T08:07:30Z</time>
      </trkpt>
      <trkpt lat="59.295695" lon="18.083836">
        <ele>44</ele>
        <time>2020-02-14T08:07:31Z</time>
      </trkpt>
      <trkpt lat="59.295645" lon="18.08387">
        <ele>44</ele>
        <time>2020-02-14T08:07:32Z</time>
      </trkpt>
      <trkpt lat="59.295594" lon="18.083903">
        <ele>44</ele>
        <time>2020-02-14T08:07:33Z</time>
      </trkpt>
      <trkpt lat="59.295542" lon="18.083932">
        <ele>44</ele>
        <time>2020-02-14T08:07:34Z</time>
      </trkpt>
      <trkpt lat="59.295489" lon="18.083962">
        <ele>44</ele>
        <time>2020-02-14T08:07:35Z</time>
      </trkpt>
      <trkpt lat="59.295436" lon="18.083992">
        <ele>44</ele>
        <time>2020-02-14T08:07:36Z</time>
      </trkpt>
      <trkpt lat="59.295383" lon="18.084025">
        <ele>44</ele>
        <time>2020-02-14T08:07:37Z</time>
      </trkpt>
      <trkpt lat="59.29533" lon="18.084058">
        <ele>44</ele>
        <time>2020-02-14T08:07:38Z</time>
      </trkpt>
      <trkpt lat="59.295277" lon="18.084089">
        <ele>44</ele>
        <time>2020-02-14T08:07:39Z</time>
      </trkpt>
      <trkpt lat="59.295221" lon="18.084119">
        <ele>44</ele>
        <time>2020-02-14T08:07:40Z</time>
      </trkpt>
      <trkpt lat="59.295165" lon="18.084151">
        <ele>44</ele>
        <time>2020-02-14T08:07:41Z</time>
      </trkpt>
      <trkpt lat="59.295109" lon="18.084185">
        <ele>45</ele>
        <time>2020-02-14T08:07:43Z</time>
      </trkpt>
      <trkpt lat="59.295052" lon="18.08422">
        <ele>45</ele>
        <time>2020-02-14T08:07:43Z</time>
      </trkpt>
      <trkpt lat="59.294994" lon="18.084253">
        <ele>45</ele>
        <time>2020-02-14T08:07:44Z</time>
      </trkpt>
      <trkpt lat="59.294936" lon="18.084288">
        <ele>45</ele>
        <time>2020-02-14T08:07:45Z</time>
      </trkpt>
      <trkpt lat="59.294876" lon="18.084323">
        <ele>45</ele>
        <time>2020-02-14T08:07:46Z</time>
      </trkpt>
      <trkpt lat="59.294816" lon="18.084354">
        <ele>45</ele>
        <time>2020-02-14T08:07:47Z</time>
      </trkpt>
      <trkpt lat="59.294755" lon="18.084385">
        <ele>45</ele>
        <time>2020-02-14T08:07:48Z</time>
      </trkpt>
      <trkpt lat="59.294693" lon="18.084415">
        <ele>45</ele>
        <time>2020-02-14T08:07:49Z</time>
      </trkpt>
      <trkpt lat="59.294632" lon="18.084444">
        <ele>45</ele>
        <time>2020-02-14T08:07:51Z</time>
      </trkpt>
      <trkpt lat="59.294571" lon="18.084474">
        <ele>45</ele>
        <time>2020-02-14T08:07:51Z</time>
      </trkpt>
      <trkpt lat="59.294511" lon="18.084502">
        <ele>45</ele>
        <time>2020-02-14T08:07:52Z</time>
      </trkpt>
      <trkpt lat="59.294453" lon="18.084529">
        <ele>45</ele>
        <time>2020-02-14T08:07:53Z</time>
      </trkpt>
      <trkpt lat="59.294396" lon="18.084555">
        <ele>45</ele>
        <time>2020-02-14T08:07:54Z</time>
      </trkpt>
      <trkpt lat="59.294339" lon="18.084586">
        <ele>45</ele>
        <time>2020-02-14T08:07:55Z</time>
      </trkpt>
      <trkpt lat="59.294288" lon="18.08462">
        <ele>44</ele>
        <time>2020-02-14T08:07:56Z</time>
      </trkpt>
      <trkpt lat="59.294233" lon="18.084666">
        <ele>45</ele>
        <time>2020-02-14T08:07:57Z</time>
      </trkpt>
      <trkpt lat="59.294171" lon="18.084714">
        <ele>45</ele>
        <time>2020-02-14T08:07:58Z</time>
      </trkpt>
      <trkpt lat="59.294095" lon="18.084763">
        <ele>45</ele>
        <time>2020-02-14T08:07:59Z</time>
      </trkpt>
      <trkpt lat="59.29401" lon="18.084812">
        <ele>45</ele>
        <time>2020-02-14T08:08:00Z</time>
      </trkpt>
      <trkpt lat="59.293933" lon="18.084852">
        <ele>45</ele>
        <time>2020-02-14T08:08:01Z</time>
      </trkpt>
      <trkpt lat="59.293863" lon="18.084886">
        <ele>45</ele>
        <time>2020-02-14T08:08:02Z</time>
      </trkpt>
      <trkpt lat="59.293793" lon="18.084914">
        <ele>46</ele>
        <time>2020-02-14T08:08:03Z</time>
      </trkpt>
      <trkpt lat="59.293728" lon="18.08494">
        <ele>45</ele>
        <time>2020-02-14T08:08:04Z</time>
      </trkpt>
      <trkpt lat="59.293656" lon="18.084968">
        <ele>45</ele>
        <time>2020-02-14T08:08:06Z</time>
      </trkpt>
      <trkpt lat="59.293585" lon="18.084996">
        <ele>46</ele>
        <time>2020-02-14T08:08:06Z</time>
      </trkpt>
      <trkpt lat="59.293513" lon="18.085028">
        <ele>46</ele>
        <time>2020-02-14T08:08:07Z</time>
      </trkpt>
      <trkpt lat="59.293444" lon="18.085056">
        <ele>46</ele>
        <time>2020-02-14T08:08:08Z</time>
      </trkpt>
      <trkpt lat="59.293377" lon="18.085081">
        <ele>46</ele>
        <time>2020-02-14T08:08:09Z</time>
      </trkpt>
      <trkpt lat="59.293314" lon="18.085102">
        <ele>47</ele>
        <time>2020-02-14T08:08:10Z</time>
      </trkpt>
      <trkpt lat="59.293252" lon="18.085132">
        <ele>47</ele>
        <time>2020-02-14T08:08:11Z</time>
      </trkpt>
      <trkpt lat="59.293193" lon="18.085154">
        <ele>47</ele>
        <time>2020-02-14T08:08:13Z</time>
      </trkpt>
      <trkpt lat="59.293134" lon="18.085176">
        <ele>47</ele>
        <time>2020-02-14T08:08:13Z</time>
      </trkpt>
      <trkpt lat="59.293077" lon="18.085194">
        <ele>48</ele>
        <time>2020-02-14T08:08:14Z</time>
      </trkpt>
      <trkpt lat="59.293024" lon="18.085212">
        <ele>48</ele>
        <time>2020-02-14T08:08:15Z</time>
      </trkpt>
      <trkpt lat="59.292973" lon="18.085226">
        <ele>48</ele>
        <time>2020-02-14T08:08:16Z</time>
      </trkpt>
      <trkpt lat="59.292922" lon="18.08523">
        <ele>48</ele>
        <time>2020-02-14T08:08:17Z</time>
      </trkpt>
      <trkpt lat="59.292872" lon="18.08523">
        <ele>48</ele>
        <time>2020-02-14T08:08:18Z</time>
      </trkpt>
      <trkpt lat="59.292821" lon="18.08523">
        <ele>48</ele>
        <time>2020-02-14T08:08:19Z</time>
      </trkpt>
      <trkpt lat="59.292774" lon="18.085212">
        <ele>48</ele>
        <time>2020-02-14T08:08:20Z</time>
      </trkpt>
      <trkpt lat="59.292729" lon="18.085176">
        <ele>48</ele>
        <time>2020-02-14T08:08:21Z</time>
      </trkpt>
      <trkpt lat="59.292686" lon="18.08513">
        <ele>48</ele>
        <time>2020-02-14T08:08:22Z</time>
      </trkpt>
      <trkpt lat="59.29264" lon="18.085086">
        <ele>48</ele>
        <time>2020-02-14T08:08:23Z</time>
      </trkpt>
      <trkpt lat="59.29259" lon="18.085062">
        <ele>48</ele>
        <time>2020-02-14T08:08:24Z</time>
      </trkpt>
      <trkpt lat="59.29254" lon="18.085064">
        <ele>48</ele>
        <time>2020-02-14T08:08:25Z</time>
      </trkpt>
      <trkpt lat="59.292487" lon="18.08508">
        <ele>48</ele>
        <time>2020-02-14T08:08:26Z</time>
      </trkpt>
      <trkpt lat="59.292431" lon="18.08512">
        <ele>48</ele>
        <time>2020-02-14T08:08:27Z</time>
      </trkpt>
      <trkpt lat="59.292373" lon="18.085164">
        <ele>48</ele>
        <time>2020-02-14T08:08:28Z</time>
      </trkpt>
      <trkpt lat="59.292315" lon="18.085204">
        <ele>48</ele>
        <time>2020-02-14T08:08:29Z</time>
      </trkpt>
      <trkpt lat="59.292257" lon="18.085246">
        <ele>48</ele>
        <time>2020-02-14T08:08:31Z</time>
      </trkpt>
      <trkpt lat="59.292199" lon="18.08529">
        <ele>48</ele>
        <time>2020-02-14T08:08:31Z</time>
      </trkpt>
      <trkpt lat="59.292139" lon="18.085332">
        <ele>48</ele>
        <time>2020-02-14T08:08:32Z</time>
      </trkpt>
      <trkpt lat="59.292078" lon="18.085372">
        <ele>48</ele>
        <time>2020-02-14T08:08:33Z</time>
      </trkpt>
      <trkpt lat="59.292016" lon="18.085416">
        <ele>48</ele>
        <time>2020-02-14T08:08:34Z</time>
      </trkpt>
      <trkpt lat="59.291958" lon="18.085484">
        <ele>48</ele>
        <time>2020-02-14T08:08:35Z</time>
      </trkpt>
      <trkpt lat="59.291897" lon="18.085546">
        <ele>48</ele>
        <time>2020-02-14T08:08:36Z</time>
      </trkpt>
      <trkpt lat="59.291822" lon="18.085612">
        <ele>48</ele>
        <time>2020-02-14T08:08:37Z</time>
      </trkpt>
      <trkpt lat="59.291755" lon="18.08568">
        <ele>48</ele>
        <time>2020-02-14T08:08:39Z</time>
      </trkpt>
      <trkpt lat="59.291689" lon="18.085744">
        <ele>48</ele>
        <time>2020-02-14T08:08:39Z</time>
      </trkpt>
      <trkpt lat="59.291621" lon="18.085798">
        <ele>48</ele>
        <time>2020-02-14T08:08:40Z</time>
      </trkpt>
      <trkpt lat="59.29155" lon="18.085832">
        <ele>48</ele>
        <time>2020-02-14T08:08:41Z</time>
      </trkpt>
      <trkpt lat="59.291482" lon="18.085872">
        <ele>48</ele>
        <time>2020-02-14T08:08:42Z</time>
      </trkpt>
      <trkpt lat="59.291414" lon="18.085916">
        <ele>48</ele>
        <time>2020-02-14T08:08:43Z</time>
      </trkpt>
      <trkpt lat="59.291346" lon="18.085954">
        <ele>48</ele>
        <time>2020-02-14T08:08:44Z</time>
      </trkpt>
      <trkpt lat="59.29128" lon="18.085994">
        <ele>48</ele>
        <time>2020-02-14T08:08:46Z</time>
      </trkpt>
      <trkpt lat="59.291214" lon="18.08603">
        <ele>49</ele>
        <time>2020-02-14T08:08:46Z</time>
      </trkpt>
      <trkpt lat="59.291147" lon="18.086066">
        <ele>49</ele>
        <time>2020-02-14T08:08:47Z</time>
      </trkpt>
      <trkpt lat="59.29108" lon="18.086106">
        <ele>49</ele>
        <time>2020-02-14T08:08:48Z</time>
      </trkpt>
      <trkpt lat="59.291014" lon="18.086146">
        <ele>49</ele>
        <time>2020-02-14T08:08:49Z</time>
      </trkpt>
      <trkpt lat="59.290949" lon="18.086188">
        <ele>49</ele>
        <time>2020-02-14T08:08:50Z</time>
      </trkpt>
      <trkpt lat="59.290885" lon="18.086232">
        <ele>48</ele>
        <time>2020-02-14T08:08:51Z</time>
      </trkpt>
      <trkpt lat="59.290818" lon="18.086266">
        <ele>48</ele>
        <time>2020-02-14T08:08:52Z</time>
      </trkpt>
      <trkpt lat="59.290751" lon="18.086296">
        <ele>49</ele>
        <time>2020-02-14T08:08:53Z</time>
      </trkpt>
      <trkpt lat="59.290688" lon="18.086334">
        <ele>49</ele>
        <time>2020-02-14T08:08:54Z</time>
      </trkpt>
      <trkpt lat="59.290621" lon="18.086356">
        <ele>49</ele>
        <time>2020-02-14T08:08:55Z</time>
      </trkpt>
      <trkpt lat="59.290556" lon="18.086384">
        <ele>49</ele>
        <time>2020-02-14T08:08:56Z</time>
      </trkpt>
      <trkpt lat="59.290488" lon="18.0864">
        <ele>48</ele>
        <time>2020-02-14T08:08:57Z</time>
      </trkpt>
      <trkpt lat="59.290421" lon="18.086416">
        <ele>48</ele>
        <time>2020-02-14T08:08:58Z</time>
      </trkpt>
      <trkpt lat="59.290355" lon="18.086436">
        <ele>48</ele>
        <time>2020-02-14T08:09:00Z</time>
      </trkpt>
      <trkpt lat="59.290289" lon="18.086458">
        <ele>48</ele>
        <time>2020-02-14T08:09:00Z</time>
      </trkpt>
      <trkpt lat="59.290221" lon="18.086481">
        <ele>47</ele>
        <time>2020-02-14T08:09:01Z</time>
      </trkpt>
      <trkpt lat="59.290151" lon="18.086504">
        <ele>47</ele>
        <time>2020-02-14T08:09:02Z</time>
      </trkpt>
      <trkpt lat="59.290078" lon="18.086528">
        <ele>47</ele>
        <time>2020-02-14T08:09:03Z</time>
      </trkpt>
      <trkpt lat="59.290003" lon="18.086557">
        <ele>46</ele>
        <time>2020-02-14T08:09:04Z</time>
      </trkpt>
      <trkpt lat="59.289925" lon="18.086584">
        <ele>45</ele>
        <time>2020-02-14T08:09:05Z</time>
      </trkpt>
      <trkpt lat="59.289844" lon="18.086612">
        <ele>45</ele>
        <time>2020-02-14T08:09:07Z</time>
      </trkpt>
      <trkpt lat="59.289763" lon="18.086652">
        <ele>44</ele>
        <time>2020-02-14T08:09:07Z</time>
      </trkpt>
      <trkpt lat="59.289679" lon="18.086685">
        <ele>43</ele>
        <time>2020-02-14T08:09:08Z</time>
      </trkpt>
      <trkpt lat="59.28959" lon="18.08671">
        <ele>42</ele>
        <time>2020-02-14T08:09:09Z</time>
      </trkpt>
      <trkpt lat="59.289498" lon="18.086773">
        <ele>43</ele>
        <time>2020-02-14T08:09:10Z</time>
      </trkpt>
      <trkpt lat="59.289412" lon="18.086836">
        <ele>42</ele>
        <time>2020-02-14T08:09:12Z</time>
      </trkpt>
      <trkpt lat="59.289323" lon="18.086899">
        <ele>42</ele>
        <time>2020-02-14T08:09:12Z</time>
      </trkpt>
      <trkpt lat="59.289232" lon="18.086959">
        <ele>41</ele>
        <time>2020-02-14T08:09:13Z</time>
      </trkpt>
      <trkpt lat="59.289139" lon="18.087018">
        <ele>41</ele>
        <time>2020-02-14T08:09:14Z</time>
      </trkpt>
      <trkpt lat="59.289046" lon="18.087075">
        <ele>40</ele>
        <time>2020-02-14T08:09:15Z</time>
      </trkpt>
      <trkpt lat="59.288952" lon="18.087126">
        <ele>39</ele>
        <time>2020-02-14T08:09:17Z</time>
      </trkpt>
      <trkpt lat="59.288855" lon="18.087175">
        <ele>39</ele>
        <time>2020-02-14T08:09:17Z</time>
      </trkpt>
      <trkpt lat="59.288761" lon="18.087204">
        <ele>39</ele>
        <time>2020-02-14T08:09:18Z</time>
      </trkpt>
      <trkpt lat="59.288667" lon="18.087221">
        <ele>39</ele>
        <time>2020-02-14T08:09:19Z</time>
      </trkpt>
      <trkpt lat="59.288572" lon="18.087245">
        <ele>39</ele>
        <time>2020-02-14T08:09:20Z</time>
      </trkpt>
      <trkpt lat="59.288476" lon="18.087265">
        <ele>39</ele>
        <time>2020-02-14T08:09:21Z</time>
      </trkpt>
      <trkpt lat="59.288382" lon="18.087285">
        <ele>39</ele>
        <time>2020-02-14T08:09:22Z</time>
      </trkpt>
      <trkpt lat="59.288284" lon="18.087324">
        <ele>39</ele>
        <time>2020-02-14T08:09:23Z</time>
      </trkpt>
      <trkpt lat="59.288121" lon="18.087415">
        <ele>39</ele>
        <time>2020-02-14T08:09:25Z</time>
      </trkpt>
      <trkpt lat="59.287966" lon="18.087488">
        <ele>38</ele>
        <time>2020-02-14T08:09:27Z</time>
      </trkpt>
      <trkpt lat="59.287896" lon="18.087521">
        <ele>38</ele>
        <time>2020-02-14T08:09:29Z</time>
      </trkpt>
      <trkpt lat="59.287824" lon="18.087571">
        <ele>38</ele>
        <time>2020-02-14T08:09:29Z</time>
      </trkpt>
      <trkpt lat="59.287757" lon="18.08762">
        <ele>37</ele>
        <time>2020-02-14T08:09:30Z</time>
      </trkpt>
      <trkpt lat="59.287699" lon="18.087664">
        <ele>37</ele>
        <time>2020-02-14T08:09:31Z</time>
      </trkpt>
      <trkpt lat="59.287641" lon="18.087711">
        <ele>37</ele>
        <time>2020-02-14T08:09:32Z</time>
      </trkpt>
      <trkpt lat="59.287584" lon="18.087754">
        <ele>37</ele>
        <time>2020-02-14T08:09:33Z</time>
      </trkpt>
      <trkpt lat="59.287528" lon="18.087798">
        <ele>37</ele>
        <time>2020-02-14T08:09:34Z</time>
      </trkpt>
      <trkpt lat="59.287475" lon="18.087842">
        <ele>37</ele>
        <time>2020-02-14T08:09:35Z</time>
      </trkpt>
      <trkpt lat="59.287424" lon="18.087888">
        <ele>37</ele>
        <time>2020-02-14T08:09:36Z</time>
      </trkpt>
      <trkpt lat="59.287374" lon="18.087932">
        <ele>37</ele>
        <time>2020-02-14T08:09:37Z</time>
      </trkpt>
      <trkpt lat="59.287323" lon="18.087973">
        <ele>37</ele>
        <time>2020-02-14T08:09:38Z</time>
      </trkpt>
      <trkpt lat="59.287271" lon="18.088011">
        <ele>37</ele>
        <time>2020-02-14T08:09:39Z</time>
      </trkpt>
      <trkpt lat="59.287218" lon="18.088047">
        <ele>37</ele>
        <time>2020-02-14T08:09:40Z</time>
      </trkpt>
      <trkpt lat="59.287162" lon="18.088082">
        <ele>36</ele>
        <time>2020-02-14T08:09:41Z</time>
      </trkpt>
      <trkpt lat="59.287105" lon="18.088111">
        <ele>36</ele>
        <time>2020-02-14T08:09:42Z</time>
      </trkpt>
      <trkpt lat="59.287047" lon="18.088147">
        <ele>36</ele>
        <time>2020-02-14T08:09:43Z</time>
      </trkpt>
      <trkpt lat="59.286989" lon="18.088183">
        <ele>36</ele>
        <time>2020-02-14T08:09:45Z</time>
      </trkpt>
      <trkpt lat="59.28693" lon="18.088219">
        <ele>36</ele>
        <time>2020-02-14T08:09:45Z</time>
      </trkpt>
      <trkpt lat="59.28687" lon="18.088253">
        <ele>36</ele>
        <time>2020-02-14T08:09:46Z</time>
      </trkpt>
      <trkpt lat="59.286809" lon="18.088288">
        <ele>36</ele>
        <time>2020-02-14T08:09:47Z</time>
      </trkpt>
      <trkpt lat="59.286747" lon="18.088321">
        <ele>36</ele>
        <time>2020-02-14T08:09:48Z</time>
      </trkpt>
      <trkpt lat="59.286687" lon="18.088351">
        <ele>36</ele>
        <time>2020-02-14T08:09:49Z</time>
      </trkpt>
      <trkpt lat="59.286626" lon="18.088373">
        <ele>36</ele>
        <time>2020-02-14T08:09:50Z</time>
      </trkpt>
      <trkpt lat="59.286564" lon="18.0884">
        <ele>36</ele>
        <time>2020-02-14T08:09:51Z</time>
      </trkpt>
      <trkpt lat="59.286503" lon="18.088432">
        <ele>36</ele>
        <time>2020-02-14T08:09:52Z</time>
      </trkpt>
      <trkpt lat="59.286442" lon="18.088462">
        <ele>36</ele>
        <time>2020-02-14T08:09:53Z</time>
      </trkpt>
      <trkpt lat="59.286382" lon="18.088491">
        <ele>36</ele>
        <time>2020-02-14T08:09:54Z</time>
      </trkpt>
      <trkpt lat="59.286323" lon="18.088522">
        <ele>36</ele>
        <time>2020-02-14T08:09:55Z</time>
      </trkpt>
      <trkpt lat="59.286264" lon="18.088552">
        <ele>36</ele>
        <time>2020-02-14T08:09:56Z</time>
      </trkpt>
      <trkpt lat="59.286206" lon="18.088584">
        <ele>36</ele>
        <time>2020-02-14T08:09:57Z</time>
      </trkpt>
      <trkpt lat="59.286148" lon="18.088616">
        <ele>36</ele>
        <time>2020-02-14T08:09:58Z</time>
      </trkpt>
      <trkpt lat="59.286089" lon="18.088645">
        <ele>36</ele>
        <time>2020-02-14T08:09:59Z</time>
      </trkpt>
      <trkpt lat="59.28603" lon="18.088672">
        <ele>36</ele>
        <time>2020-02-14T08:10:00Z</time>
      </trkpt>
      <trkpt lat="59.285971" lon="18.0887">
        <ele>36</ele>
        <time>2020-02-14T08:10:01Z</time>
      </trkpt>
      <trkpt lat="59.285911" lon="18.088731">
        <ele>36</ele>
        <time>2020-02-14T08:10:02Z</time>
      </trkpt>
      <trkpt lat="59.285852" lon="18.088766">
        <ele>36</ele>
        <time>2020-02-14T08:10:03Z</time>
      </trkpt>
      <trkpt lat="59.285792" lon="18.088796">
        <ele>36</ele>
        <time>2020-02-14T08:10:04Z</time>
      </trkpt>
      <trkpt lat="59.285731" lon="18.088824">
        <ele>36</ele>
        <time>2020-02-14T08:10:05Z</time>
      </trkpt>
      <trkpt lat="59.285672" lon="18.088853">
        <ele>36</ele>
        <time>2020-02-14T08:10:06Z</time>
      </trkpt>
      <trkpt lat="59.285613" lon="18.088891">
        <ele>37</ele>
        <time>2020-02-14T08:10:07Z</time>
      </trkpt>
      <trkpt lat="59.285554" lon="18.088921">
        <ele>37</ele>
        <time>2020-02-14T08:10:08Z</time>
      </trkpt>
      <trkpt lat="59.285495" lon="18.088951">
        <ele>37</ele>
        <time>2020-02-14T08:10:09Z</time>
      </trkpt>
      <trkpt lat="59.285435" lon="18.08898">
        <ele>37</ele>
        <time>2020-02-14T08:10:10Z</time>
      </trkpt>
      <trkpt lat="59.285376" lon="18.089009">
        <ele>37</ele>
        <time>2020-02-14T08:10:11Z</time>
      </trkpt>
      <trkpt lat="59.285316" lon="18.089038">
        <ele>37</ele>
        <time>2020-02-14T08:10:12Z</time>
      </trkpt>
      <trkpt lat="59.285257" lon="18.089069">
        <ele>37</ele>
        <time>2020-02-14T08:10:13Z</time>
      </trkpt>
      <trkpt lat="59.285199" lon="18.089097">
        <ele>37</ele>
        <time>2020-02-14T08:10:14Z</time>
      </trkpt>
      <trkpt lat="59.28514" lon="18.089126">
        <ele>37</ele>
        <time>2020-02-14T08:10:15Z</time>
      </trkpt>
      <trkpt lat="59.285081" lon="18.089155">
        <ele>37</ele>
        <time>2020-02-14T08:10:16Z</time>
      </trkpt>
      <trkpt lat="59.285023" lon="18.089184">
        <ele>37</ele>
        <time>2020-02-14T08:10:18Z</time>
      </trkpt>
      <trkpt lat="59.284963" lon="18.089212">
        <ele>37</ele>
        <time>2020-02-14T08:10:18Z</time>
      </trkpt>
      <trkpt lat="59.284905" lon="18.089239">
        <ele>37</ele>
        <time>2020-02-14T08:10:19Z</time>
      </trkpt>
      <trkpt lat="59.284848" lon="18.089264">
        <ele>37</ele>
        <time>2020-02-14T08:10:20Z</time>
      </trkpt>
      <trkpt lat="59.284791" lon="18.089298">
        <ele>37</ele>
        <time>2020-02-14T08:10:21Z</time>
      </trkpt>
      <trkpt lat="59.284734" lon="18.089339">
        <ele>37</ele>
        <time>2020-02-14T08:10:22Z</time>
      </trkpt>
      <trkpt lat="59.284677" lon="18.089377">
        <ele>37</ele>
        <time>2020-02-14T08:10:23Z</time>
      </trkpt>
      <trkpt lat="59.28462" lon="18.089409">
        <ele>37</ele>
        <time>2020-02-14T08:10:24Z</time>
      </trkpt>
      <trkpt lat="59.284562" lon="18.089429">
        <ele>37</ele>
        <time>2020-02-14T08:10:25Z</time>
      </trkpt>
      <trkpt lat="59.284502" lon="18.089447">
        <ele>37</ele>
        <time>2020-02-14T08:10:26Z</time>
      </trkpt>
      <trkpt lat="59.284443" lon="18.089472">
        <ele>37</ele>
        <time>2020-02-14T08:10:27Z</time>
      </trkpt>
      <trkpt lat="59.284385" lon="18.089506">
        <ele>37</ele>
        <time>2020-02-14T08:10:28Z</time>
      </trkpt>
      <trkpt lat="59.284328" lon="18.089539">
        <ele>37</ele>
        <time>2020-02-14T08:10:29Z</time>
      </trkpt>
      <trkpt lat="59.284269" lon="18.089567">
        <ele>37</ele>
        <time>2020-02-14T08:10:30Z</time>
      </trkpt>
      <trkpt lat="59.284211" lon="18.089592">
        <ele>37</ele>
        <time>2020-02-14T08:10:31Z</time>
      </trkpt>
      <trkpt lat="59.284152" lon="18.089621">
        <ele>36</ele>
        <time>2020-02-14T08:10:32Z</time>
      </trkpt>
      <trkpt lat="59.284092" lon="18.089645">
        <ele>36</ele>
        <time>2020-02-14T08:10:33Z</time>
      </trkpt>
      <trkpt lat="59.284034" lon="18.089669">
        <ele>36</ele>
        <time>2020-02-14T08:10:34Z</time>
      </trkpt>
      <trkpt lat="59.283975" lon="18.089698">
        <ele>36</ele>
        <time>2020-02-14T08:10:35Z</time>
      </trkpt>
      <trkpt lat="59.283917" lon="18.089724">
        <ele>36</ele>
        <time>2020-02-14T08:10:36Z</time>
      </trkpt>
      <trkpt lat="59.283859" lon="18.089754">
        <ele>36</ele>
        <time>2020-02-14T08:10:37Z</time>
      </trkpt>
      <trkpt lat="59.283803" lon="18.089783">
        <ele>37</ele>
        <time>2020-02-14T08:10:38Z</time>
      </trkpt>
      <trkpt lat="59.283747" lon="18.089811">
        <ele>36</ele>
        <time>2020-02-14T08:10:39Z</time>
      </trkpt>
      <trkpt lat="59.283689" lon="18.089836">
        <ele>37</ele>
        <time>2020-02-14T08:10:40Z</time>
      </trkpt>
      <trkpt lat="59.283632" lon="18.089863">
        <ele>37</ele>
        <time>2020-02-14T08:10:41Z</time>
      </trkpt>
      <trkpt lat="59.283574" lon="18.089892">
        <ele>37</ele>
        <time>2020-02-14T08:10:43Z</time>
      </trkpt>
      <trkpt lat="59.283517" lon="18.08991">
        <ele>37</ele>
        <time>2020-02-14T08:10:43Z</time>
      </trkpt>
      <trkpt lat="59.283458" lon="18.089924">
        <ele>37</ele>
        <time>2020-02-14T08:10:44Z</time>
      </trkpt>
      <trkpt lat="59.283398" lon="18.089945">
        <ele>37</ele>
        <time>2020-02-14T08:10:45Z</time>
      </trkpt>
      <trkpt lat="59.283337" lon="18.089971">
        <ele>37</ele>
        <time>2020-02-14T08:10:46Z</time>
      </trkpt>
      <trkpt lat="59.283276" lon="18.089996">
        <ele>37</ele>
        <time>2020-02-14T08:10:47Z</time>
      </trkpt>
      <trkpt lat="59.283214" lon="18.090017">
        <ele>36</ele>
        <time>2020-02-14T08:10:48Z</time>
      </trkpt>
      <trkpt lat="59.283151" lon="18.090039">
        <ele>36</ele>
        <time>2020-02-14T08:10:49Z</time>
      </trkpt>
      <trkpt lat="59.283088" lon="18.090061">
        <ele>36</ele>
        <time>2020-02-14T08:10:50Z</time>
      </trkpt>
      <trkpt lat="59.283026" lon="18.090081">
        <ele>36</ele>
        <time>2020-02-14T08:10:51Z</time>
      </trkpt>
      <trkpt lat="59.282963" lon="18.090106">
        <ele>36</ele>
        <time>2020-02-14T08:10:52Z</time>
      </trkpt>
      <trkpt lat="59.282899" lon="18.090132">
        <ele>36</ele>
        <time>2020-02-14T08:10:53Z</time>
      </trkpt>
      <trkpt lat="59.282834" lon="18.090158">
        <ele>36</ele>
        <time>2020-02-14T08:10:54Z</time>
      </trkpt>
      <trkpt lat="59.282771" lon="18.090182">
        <ele>36</ele>
        <time>2020-02-14T08:10:55Z</time>
      </trkpt>
      <trkpt lat="59.282706" lon="18.090207">
        <ele>36</ele>
        <time>2020-02-14T08:10:56Z</time>
      </trkpt>
      <trkpt lat="59.282643" lon="18.090233">
        <ele>36</ele>
        <time>2020-02-14T08:10:57Z</time>
      </trkpt>
      <trkpt lat="59.28258" lon="18.090258">
        <ele>36</ele>
        <time>2020-02-14T08:10:59Z</time>
      </trkpt>
      <trkpt lat="59.282517" lon="18.090282">
        <ele>36</ele>
        <time>2020-02-14T08:10:59Z</time>
      </trkpt>
      <trkpt lat="59.282453" lon="18.09031">
        <ele>36</ele>
        <time>2020-02-14T08:11:00Z</time>
      </trkpt>
      <trkpt lat="59.282389" lon="18.090333">
        <ele>36</ele>
        <time>2020-02-14T08:11:01Z</time>
      </trkpt>
      <trkpt lat="59.282325" lon="18.090355">
        <ele>36</ele>
        <time>2020-02-14T08:11:02Z</time>
      </trkpt>
      <trkpt lat="59.282262" lon="18.090376">
        <ele>36</ele>
        <time>2020-02-14T08:11:03Z</time>
      </trkpt>
      <trkpt lat="59.282199" lon="18.090398">
        <ele>37</ele>
        <time>2020-02-14T08:11:04Z</time>
      </trkpt>
      <trkpt lat="59.28214" lon="18.090432">
        <ele>37</ele>
        <time>2020-02-14T08:11:06Z</time>
      </trkpt>
      <trkpt lat="59.282081" lon="18.090453">
        <ele>37</ele>
        <time>2020-02-14T08:11:06Z</time>
      </trkpt>
      <trkpt lat="59.282021" lon="18.090471">
        <ele>37</ele>
        <time>2020-02-14T08:11:07Z</time>
      </trkpt>
      <trkpt lat="59.281962" lon="18.090493">
        <ele>37</ele>
        <time>2020-02-14T08:11:08Z</time>
      </trkpt>
      <trkpt lat="59.281905" lon="18.090515">
        <ele>37</ele>
        <time>2020-02-14T08:11:09Z</time>
      </trkpt>
      <trkpt lat="59.281847" lon="18.090538">
        <ele>37</ele>
        <time>2020-02-14T08:11:10Z</time>
      </trkpt>
      <trkpt lat="59.281791" lon="18.090561">
        <ele>37</ele>
        <time>2020-02-14T08:11:11Z</time>
      </trkpt>
      <trkpt lat="59.281735" lon="18.090585">
        <ele>37</ele>
        <time>2020-02-14T08:11:12Z</time>
      </trkpt>
      <trkpt lat="59.281679" lon="18.090606">
        <ele>37</ele>
        <time>2020-02-14T08:11:13Z</time>
      </trkpt>
      <trkpt lat="59.281623" lon="18.090626">
        <ele>37</ele>
        <time>2020-02-14T08:11:15Z</time>
      </trkpt>
      <trkpt lat="59.281567" lon="18.090648">
        <ele>37</ele>
        <time>2020-02-14T08:11:15Z</time>
      </trkpt>
      <trkpt lat="59.281512" lon="18.090672">
        <ele>37</ele>
        <time>2020-02-14T08:11:16Z</time>
      </trkpt>
      <trkpt lat="59.281457" lon="18.090694">
        <ele>37</ele>
        <time>2020-02-14T08:11:17Z</time>
      </trkpt>
      <trkpt lat="59.281402" lon="18.090715">
        <ele>37</ele>
        <time>2020-02-14T08:11:18Z</time>
      </trkpt>
      <trkpt lat="59.281349" lon="18.090737">
        <ele>37</ele>
        <time>2020-02-14T08:11:19Z</time>
      </trkpt>
      <trkpt lat="59.281295" lon="18.090758">
        <ele>37</ele>
        <time>2020-02-14T08:11:20Z</time>
      </trkpt>
      <trkpt lat="59.28124" lon="18.090777">
        <ele>37</ele>
        <time>2020-02-14T08:11:21Z</time>
      </trkpt>
      <trkpt lat="59.281185" lon="18.090793">
        <ele>37</ele>
        <time>2020-02-14T08:11:22Z</time>
      </trkpt>
      <trkpt lat="59.281131" lon="18.090811">
        <ele>37</ele>
        <time>2020-02-14T08:11:23Z</time>
      </trkpt>
      <trkpt lat="59.281078" lon="18.09083">
        <ele>37</ele>
        <time>2020-02-14T08:11:24Z</time>
      </trkpt>
      <trkpt lat="59.281025" lon="18.090849">
        <ele>37</ele>
        <time>2020-02-14T08:11:25Z</time>
      </trkpt>
      <trkpt lat="59.280971" lon="18.090869">
        <ele>37</ele>
        <time>2020-02-14T08:11:26Z</time>
      </trkpt>
      <trkpt lat="59.280918" lon="18.090887">
        <ele>37</ele>
        <time>2020-02-14T08:11:27Z</time>
      </trkpt>
      <trkpt lat="59.280865" lon="18.090906">
        <ele>37</ele>
        <time>2020-02-14T08:11:28Z</time>
      </trkpt>
      <trkpt lat="59.280812" lon="18.09093">
        <ele>37</ele>
        <time>2020-02-14T08:11:29Z</time>
      </trkpt>
      <trkpt lat="59.280761" lon="18.090948">
        <ele>37</ele>
        <time>2020-02-14T08:11:30Z</time>
      </trkpt>
      <trkpt lat="59.280708" lon="18.090963">
        <ele>37</ele>
        <time>2020-02-14T08:11:31Z</time>
      </trkpt>
      <trkpt lat="59.280656" lon="18.090983">
        <ele>37</ele>
        <time>2020-02-14T08:11:33Z</time>
      </trkpt>
      <trkpt lat="59.280604" lon="18.091004">
        <ele>37</ele>
        <time>2020-02-14T08:11:33Z</time>
      </trkpt>
      <trkpt lat="59.280552" lon="18.091022">
        <ele>37</ele>
        <time>2020-02-14T08:11:34Z</time>
      </trkpt>
      <trkpt lat="59.2805" lon="18.09104">
        <ele>37</ele>
        <time>2020-02-14T08:11:35Z</time>
      </trkpt>
      <trkpt lat="59.280447" lon="18.091057">
        <ele>37</ele>
        <time>2020-02-14T08:11:36Z</time>
      </trkpt>
      <trkpt lat="59.280394" lon="18.091076">
        <ele>37</ele>
        <time>2020-02-14T08:11:37Z</time>
      </trkpt>
      <trkpt lat="59.280341" lon="18.091095">
        <ele>37</ele>
        <time>2020-02-14T08:11:38Z</time>
      </trkpt>
      <trkpt lat="59.280288" lon="18.091115">
        <ele>37</ele>
        <time>2020-02-14T08:11:39Z</time>
      </trkpt>
      <trkpt lat="59.280234" lon="18.091134">
        <ele>37</ele>
        <time>2020-02-14T08:11:40Z</time>
      </trkpt>
      <trkpt lat="59.280181" lon="18.091153">
        <ele>37</ele>
        <time>2020-02-14T08:11:41Z</time>
      </trkpt>
      <trkpt lat="59.280128" lon="18.091171">
        <ele>37</ele>
        <time>2020-02-14T08:11:42Z</time>
      </trkpt>
      <trkpt lat="59.280077" lon="18.09119">
        <ele>37</ele>
        <time>2020-02-14T08:11:43Z</time>
      </trkpt>
      <trkpt lat="59.280025" lon="18.091211">
        <ele>37</ele>
        <time>2020-02-14T08:11:44Z</time>
      </trkpt>
      <trkpt lat="59.279973" lon="18.091233">
        <ele>37</ele>
        <time>2020-02-14T08:11:45Z</time>
      </trkpt>
      <trkpt lat="59.279921" lon="18.091251">
        <ele>37</ele>
        <time>2020-02-14T08:11:46Z</time>
      </trkpt>
      <trkpt lat="59.27987" lon="18.091269">
        <ele>37</ele>
        <time>2020-02-14T08:11:47Z</time>
      </trkpt>
      <trkpt lat="59.279819" lon="18.091286">
        <ele>37</ele>
        <time>2020-02-14T08:11:48Z</time>
      </trkpt>
      <trkpt lat="59.279769" lon="18.091303">
        <ele>37</ele>
        <time>2020-02-14T08:11:49Z</time>
      </trkpt>
      <trkpt lat="59.279719" lon="18.091317">
        <ele>37</ele>
        <time>2020-02-14T08:11:50Z</time>
      </trkpt>
      <trkpt lat="59.27967" lon="18.091319">
        <ele>37</ele>
        <time>2020-02-14T08:11:52Z</time>
      </trkpt>
      <trkpt lat="59.279622" lon="18.091322">
        <ele>37</ele>
        <time>2020-02-14T08:11:52Z</time>
      </trkpt>
      <trkpt lat="59.279575" lon="18.091327">
        <ele>37</ele>
        <time>2020-02-14T08:11:53Z</time>
      </trkpt>
      <trkpt lat="59.279531" lon="18.091335">
        <ele>36</ele>
        <time>2020-02-14T08:11:54Z</time>
      </trkpt>
      <trkpt lat="59.279492" lon="18.091339">
        <ele>36</ele>
        <time>2020-02-14T08:11:55Z</time>
      </trkpt>
      <trkpt lat="59.279464" lon="18.091337">
        <ele>36</ele>
        <time>2020-02-14T08:11:56Z</time>
      </trkpt>
      <trkpt lat="59.279443" lon="18.091331">
        <ele>36</ele>
        <time>2020-02-14T08:11:57Z</time>
      </trkpt>
      <trkpt lat="59.279414" lon="18.091324">
        <ele>36</ele>
        <time>2020-02-14T08:11:59Z</time>
      </trkpt>
      <trkpt lat="59.279398" lon="18.091324">
        <ele>36</ele>
        <time>2020-02-14T08:12:06Z</time>
      </trkpt>
      <trkpt lat="59.279367" lon="18.091336">
        <ele>37</ele>
        <time>2020-02-14T08:12:15Z</time>
      </trkpt>
      <trkpt lat="59.279349" lon="18.091341">
        <ele>36</ele>
        <time>2020-02-14T08:12:15Z</time>
      </trkpt>
      <trkpt lat="59.27932" lon="18.091347">
        <ele>36</ele>
        <time>2020-02-14T08:12:17Z</time>
      </trkpt>
      <trkpt lat="59.2793" lon="18.091351">
        <ele>36</ele>
        <time>2020-02-14T08:12:19Z</time>
      </trkpt>
      <trkpt lat="59.279297" lon="18.091351">
        <ele>0</ele>
        <time>2020-02-14T08:12:23Z</time>
      </trkpt>
      <trkpt lat="59.27927" lon="18.091371">
        <ele>36</ele>
        <time>2020-02-14T08:12:47Z</time>
      </trkpt>
      <trkpt lat="59.279262" lon="18.091371">
        <ele>36</ele>
        <time>2020-02-14T08:12:47Z</time>
      </trkpt>
      <trkpt lat="59.279239" lon="18.091363">
        <ele>37</ele>
        <time>2020-02-14T08:12:49Z</time>
      </trkpt>
      <trkpt lat="59.279219" lon="18.091369">
        <ele>37</ele>
        <time>2020-02-14T08:12:50Z</time>
      </trkpt>
      <trkpt lat="59.279194" lon="18.091383">
        <ele>37</ele>
        <time>2020-02-14T08:12:51Z</time>
      </trkpt>
      <trkpt lat="59.279167" lon="18.091414">
        <ele>37</ele>
        <time>2020-02-14T08:12:52Z</time>
      </trkpt>
      <trkpt lat="59.279139" lon="18.091456">
        <ele>37</ele>
        <time>2020-02-14T08:12:53Z</time>
      </trkpt>
      <trkpt lat="59.279109" lon="18.091495">
        <ele>37</ele>
        <time>2020-02-14T08:12:54Z</time>
      </trkpt>
      <trkpt lat="59.279072" lon="18.091528">
        <ele>37</ele>
        <time>2020-02-14T08:12:55Z</time>
      </trkpt>
      <trkpt lat="59.279031" lon="18.091555">
        <ele>37</ele>
        <time>2020-02-14T08:12:56Z</time>
      </trkpt>
      <trkpt lat="59.278989" lon="18.091579">
        <ele>37</ele>
        <time>2020-02-14T08:12:57Z</time>
      </trkpt>
      <trkpt lat="59.278945" lon="18.0916">
        <ele>37</ele>
        <time>2020-02-14T08:12:58Z</time>
      </trkpt>
      <trkpt lat="59.278901" lon="18.091618">
        <ele>37</ele>
        <time>2020-02-14T08:12:59Z</time>
      </trkpt>
      <trkpt lat="59.278855" lon="18.091639">
        <ele>37</ele>
        <time>2020-02-14T08:13:00Z</time>
      </trkpt>
      <trkpt lat="59.278806" lon="18.091659">
        <ele>37</ele>
        <time>2020-02-14T08:13:01Z</time>
      </trkpt>
      <trkpt lat="59.278757" lon="18.091679">
        <ele>38</ele>
        <time>2020-02-14T08:13:02Z</time>
      </trkpt>
      <trkpt lat="59.278708" lon="18.091697">
        <ele>38</ele>
        <time>2020-02-14T08:13:03Z</time>
      </trkpt>
      <trkpt lat="59.278659" lon="18.091711">
        <ele>38</ele>
        <time>2020-02-14T08:13:04Z</time>
      </trkpt>
      <trkpt lat="59.278612" lon="18.091722">
        <ele>38</ele>
        <time>2020-02-14T08:13:06Z</time>
      </trkpt>
      <trkpt lat="59.278563" lon="18.091731">
        <ele>38</ele>
        <time>2020-02-14T08:13:06Z</time>
      </trkpt>
      <trkpt lat="59.278516" lon="18.091733">
        <ele>38</ele>
        <time>2020-02-14T08:13:07Z</time>
      </trkpt>
      <trkpt lat="59.278468" lon="18.091729">
        <ele>38</ele>
        <time>2020-02-14T08:13:08Z</time>
      </trkpt>
      <trkpt lat="59.278423" lon="18.09172">
        <ele>38</ele>
        <time>2020-02-14T08:13:09Z</time>
      </trkpt>
      <trkpt lat="59.278379" lon="18.09171">
        <ele>38</ele>
        <time>2020-02-14T08:13:10Z</time>
      </trkpt>
      <trkpt lat="59.278336" lon="18.091713">
        <ele>38</ele>
        <time>2020-02-14T08:13:11Z</time>
      </trkpt>
      <trkpt lat="59.278293" lon="18.091741">
        <ele>37</ele>
        <time>2020-02-14T08:13:12Z</time>
      </trkpt>
      <trkpt lat="59.278251" lon="18.091781">
        <ele>37</ele>
        <time>2020-02-14T08:13:13Z</time>
      </trkpt>
      <trkpt lat="59.278204" lon="18.09181">
        <ele>37</ele>
        <time>2020-02-14T08:13:14Z</time>
      </trkpt>
      <trkpt lat="59.278155" lon="18.09182">
        <ele>37</ele>
        <time>2020-02-14T08:13:15Z</time>
      </trkpt>
      <trkpt lat="59.278106" lon="18.091823">
        <ele>36</ele>
        <time>2020-02-14T08:13:17Z</time>
      </trkpt>
      <trkpt lat="59.278057" lon="18.091829">
        <ele>36</ele>
        <time>2020-02-14T08:13:17Z</time>
      </trkpt>
      <trkpt lat="59.278009" lon="18.091831">
        <ele>36</ele>
        <time>2020-02-14T08:13:18Z</time>
      </trkpt>
      <trkpt lat="59.277962" lon="18.091831">
        <ele>36</ele>
        <time>2020-02-14T08:13:19Z</time>
      </trkpt>
      <trkpt lat="59.277915" lon="18.091833">
        <ele>36</ele>
        <time>2020-02-14T08:13:20Z</time>
      </trkpt>
      <trkpt lat="59.277869" lon="18.091836">
        <ele>36</ele>
        <time>2020-02-14T08:13:21Z</time>
      </trkpt>
      <trkpt lat="59.277824" lon="18.09184">
        <ele>36</ele>
        <time>2020-02-14T08:13:22Z</time>
      </trkpt>
      <trkpt lat="59.277778" lon="18.091844">
        <ele>36</ele>
        <time>2020-02-14T08:13:23Z</time>
      </trkpt>
      <trkpt lat="59.277733" lon="18.091851">
        <ele>36</ele>
        <time>2020-02-14T08:13:24Z</time>
      </trkpt>
      <trkpt lat="59.277688" lon="18.091859">
        <ele>36</ele>
        <time>2020-02-14T08:13:25Z</time>
      </trkpt>
      <trkpt lat="59.277643" lon="18.091867">
        <ele>36</ele>
        <time>2020-02-14T08:13:26Z</time>
      </trkpt>
      <trkpt lat="59.277599" lon="18.091878">
        <ele>36</ele>
        <time>2020-02-14T08:13:27Z</time>
      </trkpt>
      <trkpt lat="59.277554" lon="18.09189">
        <ele>36</ele>
        <time>2020-02-14T08:13:28Z</time>
      </trkpt>
      <trkpt lat="59.277508" lon="18.091903">
        <ele>36</ele>
        <time>2020-02-14T08:13:29Z</time>
      </trkpt>
      <trkpt lat="59.277462" lon="18.091916">
        <ele>36</ele>
        <time>2020-02-14T08:13:30Z</time>
      </trkpt>
      <trkpt lat="59.277417" lon="18.091928">
        <ele>36</ele>
        <time>2020-02-14T08:13:31Z</time>
      </trkpt>
      <trkpt lat="59.277371" lon="18.091939">
        <ele>37</ele>
        <time>2020-02-14T08:13:32Z</time>
      </trkpt>
      <trkpt lat="59.277326" lon="18.091949">
        <ele>37</ele>
        <time>2020-02-14T08:13:33Z</time>
      </trkpt>
      <trkpt lat="59.277281" lon="18.091959">
        <ele>37</ele>
        <time>2020-02-14T08:13:34Z</time>
      </trkpt>
      <trkpt lat="59.277235" lon="18.091969">
        <ele>37</ele>
        <time>2020-02-14T08:13:35Z</time>
      </trkpt>
      <trkpt lat="59.27719" lon="18.09198">
        <ele>37</ele>
        <time>2020-02-14T08:13:36Z</time>
      </trkpt>
      <trkpt lat="59.277145" lon="18.091992">
        <ele>37</ele>
        <time>2020-02-14T08:13:37Z</time>
      </trkpt>
      <trkpt lat="59.277099" lon="18.092004">
        <ele>37</ele>
        <time>2020-02-14T08:13:38Z</time>
      </trkpt>
      <trkpt lat="59.277054" lon="18.092018">
        <ele>37</ele>
        <time>2020-02-14T08:13:39Z</time>
      </trkpt>
      <trkpt lat="59.277008" lon="18.092032">
        <ele>37</ele>
        <time>2020-02-14T08:13:40Z</time>
      </trkpt>
      <trkpt lat="59.276962" lon="18.092047">
        <ele>37</ele>
        <time>2020-02-14T08:13:41Z</time>
      </trkpt>
      <trkpt lat="59.276917" lon="18.092064">
        <ele>37</ele>
        <time>2020-02-14T08:13:42Z</time>
      </trkpt>
      <trkpt lat="59.276871" lon="18.092079">
        <ele>37</ele>
        <time>2020-02-14T08:13:43Z</time>
      </trkpt>
      <trkpt lat="59.276826" lon="18.092095">
        <ele>37</ele>
        <time>2020-02-14T08:13:44Z</time>
      </trkpt>
      <trkpt lat="59.276779" lon="18.092113">
        <ele>37</ele>
        <time>2020-02-14T08:13:45Z</time>
      </trkpt>
      <trkpt lat="59.276733" lon="18.092134">
        <ele>37</ele>
        <time>2020-02-14T08:13:46Z</time>
      </trkpt>
      <trkpt lat="59.276686" lon="18.092153">
        <ele>37</ele>
        <time>2020-02-14T08:13:47Z</time>
      </trkpt>
      <trkpt lat="59.276639" lon="18.09217">
        <ele>37</ele>
        <time>2020-02-14T08:13:49Z</time>
      </trkpt>
      <trkpt lat="59.276592" lon="18.092188">
        <ele>37</ele>
        <time>2020-02-14T08:13:49Z</time>
      </trkpt>
      <trkpt lat="59.276544" lon="18.092205">
        <ele>37</ele>
        <time>2020-02-14T08:13:50Z</time>
      </trkpt>
      <trkpt lat="59.276495" lon="18.092223">
        <ele>37</ele>
        <time>2020-02-14T08:13:51Z</time>
      </trkpt>
      <trkpt lat="59.276446" lon="18.09224">
        <ele>38</ele>
        <time>2020-02-14T08:13:52Z</time>
      </trkpt>
      <trkpt lat="59.276397" lon="18.092258">
        <ele>38</ele>
        <time>2020-02-14T08:13:53Z</time>
      </trkpt>
      <trkpt lat="59.276347" lon="18.092278">
        <ele>38</ele>
        <time>2020-02-14T08:13:54Z</time>
      </trkpt>
      <trkpt lat="59.276296" lon="18.092297">
        <ele>38</ele>
        <time>2020-02-14T08:13:55Z</time>
      </trkpt>
      <trkpt lat="59.276246" lon="18.092314">
        <ele>38</ele>
        <time>2020-02-14T08:13:56Z</time>
      </trkpt>
      <trkpt lat="59.276195" lon="18.092332">
        <ele>38</ele>
        <time>2020-02-14T08:13:57Z</time>
      </trkpt>
      <trkpt lat="59.276144" lon="18.092349">
        <ele>38</ele>
        <time>2020-02-14T08:13:59Z</time>
      </trkpt>
      <trkpt lat="59.276093" lon="18.092366">
        <ele>38</ele>
        <time>2020-02-14T08:13:59Z</time>
      </trkpt>
      <trkpt lat="59.276042" lon="18.092381">
        <ele>38</ele>
        <time>2020-02-14T08:14:00Z</time>
      </trkpt>
      <trkpt lat="59.275992" lon="18.092396">
        <ele>38</ele>
        <time>2020-02-14T08:14:01Z</time>
      </trkpt>
      <trkpt lat="59.27594" lon="18.092414">
        <ele>39</ele>
        <time>2020-02-14T08:14:02Z</time>
      </trkpt>
      <trkpt lat="59.275888" lon="18.09243">
        <ele>39</ele>
        <time>2020-02-14T08:14:03Z</time>
      </trkpt>
      <trkpt lat="59.275837" lon="18.092441">
        <ele>39</ele>
        <time>2020-02-14T08:14:04Z</time>
      </trkpt>
      <trkpt lat="59.275785" lon="18.092454">
        <ele>39</ele>
        <time>2020-02-14T08:14:05Z</time>
      </trkpt>
      <trkpt lat="59.275733" lon="18.092468">
        <ele>38</ele>
        <time>2020-02-14T08:14:06Z</time>
      </trkpt>
      <trkpt lat="59.275681" lon="18.092482">
        <ele>38</ele>
        <time>2020-02-14T08:14:07Z</time>
      </trkpt>
      <trkpt lat="59.275627" lon="18.092495">
        <ele>38</ele>
        <time>2020-02-14T08:14:09Z</time>
      </trkpt>
      <trkpt lat="59.275574" lon="18.092505">
        <ele>38</ele>
        <time>2020-02-14T08:14:09Z</time>
      </trkpt>
      <trkpt lat="59.275522" lon="18.092512">
        <ele>38</ele>
        <time>2020-02-14T08:14:10Z</time>
      </trkpt>
      <trkpt lat="59.27547" lon="18.092518">
        <ele>38</ele>
        <time>2020-02-14T08:14:11Z</time>
      </trkpt>
      <trkpt lat="59.275418" lon="18.092524">
        <ele>38</ele>
        <time>2020-02-14T08:14:12Z</time>
      </trkpt>
      <trkpt lat="59.275366" lon="18.092531">
        <ele>38</ele>
        <time>2020-02-14T08:14:13Z</time>
      </trkpt>
      <trkpt lat="59.275314" lon="18.092538">
        <ele>38</ele>
        <time>2020-02-14T08:14:14Z</time>
      </trkpt>
      <trkpt lat="59.275262" lon="18.092544">
        <ele>38</ele>
        <time>2020-02-14T08:14:15Z</time>
      </trkpt>
      <trkpt lat="59.275211" lon="18.092551">
        <ele>38</ele>
        <time>2020-02-14T08:14:16Z</time>
      </trkpt>
      <trkpt lat="59.275158" lon="18.092556">
        <ele>38</ele>
        <time>2020-02-14T08:14:17Z</time>
      </trkpt>
      <trkpt lat="59.275108" lon="18.092561">
        <ele>38</ele>
        <time>2020-02-14T08:14:18Z</time>
      </trkpt>
      <trkpt lat="59.275055" lon="18.092564">
        <ele>38</ele>
        <time>2020-02-14T08:14:19Z</time>
      </trkpt>
      <trkpt lat="59.275004" lon="18.092564">
        <ele>38</ele>
        <time>2020-02-14T08:14:20Z</time>
      </trkpt>
      <trkpt lat="59.274954" lon="18.092558">
        <ele>38</ele>
        <time>2020-02-14T08:14:21Z</time>
      </trkpt>
      <trkpt lat="59.274904" lon="18.092541">
        <ele>38</ele>
        <time>2020-02-14T08:14:22Z</time>
      </trkpt>
      <trkpt lat="59.274856" lon="18.09251">
        <ele>38</ele>
        <time>2020-02-14T08:14:23Z</time>
      </trkpt>
      <trkpt lat="59.274812" lon="18.092466">
        <ele>38</ele>
        <time>2020-02-14T08:14:24Z</time>
      </trkpt>
      <trkpt lat="59.27477" lon="18.092411">
        <ele>38</ele>
        <time>2020-02-14T08:14:25Z</time>
      </trkpt>
      <trkpt lat="59.274728" lon="18.09235">
        <ele>37</ele>
        <time>2020-02-14T08:14:26Z</time>
      </trkpt>
      <trkpt lat="59.274688" lon="18.092288">
        <ele>37</ele>
        <time>2020-02-14T08:14:27Z</time>
      </trkpt>
      <trkpt lat="59.274646" lon="18.092227">
        <ele>37</ele>
        <time>2020-02-14T08:14:28Z</time>
      </trkpt>
      <trkpt lat="59.274605" lon="18.092167">
        <ele>37</ele>
        <time>2020-02-14T08:14:29Z</time>
      </trkpt>
      <trkpt lat="59.274564" lon="18.092112">
        <ele>37</ele>
        <time>2020-02-14T08:14:30Z</time>
      </trkpt>
      <trkpt lat="59.27452" lon="18.092071">
        <ele>37</ele>
        <time>2020-02-14T08:14:31Z</time>
      </trkpt>
      <trkpt lat="59.274476" lon="18.092039">
        <ele>37</ele>
        <time>2020-02-14T08:14:32Z</time>
      </trkpt>
      <trkpt lat="59.274432" lon="18.092011">
        <ele>37</ele>
        <time>2020-02-14T08:14:33Z</time>
      </trkpt>
      <trkpt lat="59.274388" lon="18.09199">
        <ele>37</ele>
        <time>2020-02-14T08:14:34Z</time>
      </trkpt>
      <trkpt lat="59.274344" lon="18.09197">
        <ele>37</ele>
        <time>2020-02-14T08:14:35Z</time>
      </trkpt>
      <trkpt lat="59.2743" lon="18.091946">
        <ele>37</ele>
        <time>2020-02-14T08:14:36Z</time>
      </trkpt>
      <trkpt lat="59.274252" lon="18.091913">
        <ele>37</ele>
        <time>2020-02-14T08:14:37Z</time>
      </trkpt>
      <trkpt lat="59.274208" lon="18.091864">
        <ele>38</ele>
        <time>2020-02-14T08:14:39Z</time>
      </trkpt>
      <trkpt lat="59.27417" lon="18.091802">
        <ele>38</ele>
        <time>2020-02-14T08:14:39Z</time>
      </trkpt>
      <trkpt lat="59.274134" lon="18.091734">
        <ele>38</ele>
        <time>2020-02-14T08:14:40Z</time>
      </trkpt>
      <trkpt lat="59.274104" lon="18.091663">
        <ele>38</ele>
        <time>2020-02-14T08:14:41Z</time>
      </trkpt>
      <trkpt lat="59.274076" lon="18.091593">
        <ele>38</ele>
        <time>2020-02-14T08:14:42Z</time>
      </trkpt>
      <trkpt lat="59.274049" lon="18.091527">
        <ele>38</ele>
        <time>2020-02-14T08:14:43Z</time>
      </trkpt>
      <trkpt lat="59.274022" lon="18.091462">
        <ele>38</ele>
        <time>2020-02-14T08:14:44Z</time>
      </trkpt>
      <trkpt lat="59.273998" lon="18.091398">
        <ele>38</ele>
        <time>2020-02-14T08:14:45Z</time>
      </trkpt>
      <trkpt lat="59.273972" lon="18.091334">
        <ele>38</ele>
        <time>2020-02-14T08:14:46Z</time>
      </trkpt>
      <trkpt lat="59.273948" lon="18.091271">
        <ele>38</ele>
        <time>2020-02-14T08:14:47Z</time>
      </trkpt>
      <trkpt lat="59.273924" lon="18.09121">
        <ele>39</ele>
        <time>2020-02-14T08:14:48Z</time>
      </trkpt>
      <trkpt lat="59.273898" lon="18.091151">
        <ele>39</ele>
        <time>2020-02-14T08:14:49Z</time>
      </trkpt>
      <trkpt lat="59.273876" lon="18.091092">
        <ele>39</ele>
        <time>2020-02-14T08:14:50Z</time>
      </trkpt>
      <trkpt lat="59.273852" lon="18.091032">
        <ele>39</ele>
        <time>2020-02-14T08:14:51Z</time>
      </trkpt>
      <trkpt lat="59.273829" lon="18.090973">
        <ele>39</ele>
        <time>2020-02-14T08:14:52Z</time>
      </trkpt>
      <trkpt lat="59.273803" lon="18.090922">
        <ele>39</ele>
        <time>2020-02-14T08:14:53Z</time>
      </trkpt>
      <trkpt lat="59.273772" lon="18.090885">
        <ele>39</ele>
        <time>2020-02-14T08:14:54Z</time>
      </trkpt>
      <trkpt lat="59.273736" lon="18.090867">
        <ele>39</ele>
        <time>2020-02-14T08:14:55Z</time>
      </trkpt>
      <trkpt lat="59.273697" lon="18.090871">
        <ele>39</ele>
        <time>2020-02-14T08:14:56Z</time>
      </trkpt>
      <trkpt lat="59.273658" lon="18.090889">
        <ele>39</ele>
        <time>2020-02-14T08:14:57Z</time>
      </trkpt>
      <trkpt lat="59.273616" lon="18.090911">
        <ele>39</ele>
        <time>2020-02-14T08:14:58Z</time>
      </trkpt>
      <trkpt lat="59.273575" lon="18.090931">
        <ele>40</ele>
        <time>2020-02-14T08:14:59Z</time>
      </trkpt>
      <trkpt lat="59.273536" lon="18.090953">
        <ele>40</ele>
        <time>2020-02-14T08:15:00Z</time>
      </trkpt>
      <trkpt lat="59.273497" lon="18.090978">
        <ele>40</ele>
        <time>2020-02-14T08:15:01Z</time>
      </trkpt>
      <trkpt lat="59.273458" lon="18.090997">
        <ele>40</ele>
        <time>2020-02-14T08:15:02Z</time>
      </trkpt>
      <trkpt lat="59.273418" lon="18.091018">
        <ele>40</ele>
        <time>2020-02-14T08:15:03Z</time>
      </trkpt>
      <trkpt lat="59.273378" lon="18.091042">
        <ele>40</ele>
        <time>2020-02-14T08:15:04Z</time>
      </trkpt>
      <trkpt lat="59.273338" lon="18.091069">
        <ele>40</ele>
        <time>2020-02-14T08:15:05Z</time>
      </trkpt>
      <trkpt lat="59.273302" lon="18.091097">
        <ele>40</ele>
        <time>2020-02-14T08:15:06Z</time>
      </trkpt>
      <trkpt lat="59.273262" lon="18.091131">
        <ele>40</ele>
        <time>2020-02-14T08:15:07Z</time>
      </trkpt>
      <trkpt lat="59.273222" lon="18.09116">
        <ele>40</ele>
        <time>2020-02-14T08:15:08Z</time>
      </trkpt>
      <trkpt lat="59.273186" lon="18.091182">
        <ele>40</ele>
        <time>2020-02-14T08:15:09Z</time>
      </trkpt>
      <trkpt lat="59.273145" lon="18.091204">
        <ele>41</ele>
        <time>2020-02-14T08:15:10Z</time>
      </trkpt>
      <trkpt lat="59.273094" lon="18.091237">
        <ele>41</ele>
        <time>2020-02-14T08:15:11Z</time>
      </trkpt>
      <trkpt lat="59.273044" lon="18.091258">
        <ele>41</ele>
        <time>2020-02-14T08:15:12Z</time>
      </trkpt>
      <trkpt lat="59.272992" lon="18.091279">
        <ele>41</ele>
        <time>2020-02-14T08:15:13Z</time>
      </trkpt>
      <trkpt lat="59.272944" lon="18.0913">
        <ele>41</ele>
        <time>2020-02-14T08:15:14Z</time>
      </trkpt>
      <trkpt lat="59.272893" lon="18.091333">
        <ele>41</ele>
        <time>2020-02-14T08:15:15Z</time>
      </trkpt>
      <trkpt lat="59.272846" lon="18.091381">
        <ele>41</ele>
        <time>2020-02-14T08:15:16Z</time>
      </trkpt>
      <trkpt lat="59.272804" lon="18.09144">
        <ele>41</ele>
        <time>2020-02-14T08:15:17Z</time>
      </trkpt>
      <trkpt lat="59.272767" lon="18.091514">
        <ele>41</ele>
        <time>2020-02-14T08:15:18Z</time>
      </trkpt>
      <trkpt lat="59.272741" lon="18.091598">
        <ele>41</ele>
        <time>2020-02-14T08:15:19Z</time>
      </trkpt>
      <trkpt lat="59.272722" lon="18.091692">
        <ele>41</ele>
        <time>2020-02-14T08:15:20Z</time>
      </trkpt>
      <trkpt lat="59.27271" lon="18.091788">
        <ele>41</ele>
        <time>2020-02-14T08:15:21Z</time>
      </trkpt>
      <trkpt lat="59.272702" lon="18.091892">
        <ele>41</ele>
        <time>2020-02-14T08:15:22Z</time>
      </trkpt>
      <trkpt lat="59.272692" lon="18.091998">
        <ele>41</ele>
        <time>2020-02-14T08:15:24Z</time>
      </trkpt>
      <trkpt lat="59.272682" lon="18.092103">
        <ele>41</ele>
        <time>2020-02-14T08:15:24Z</time>
      </trkpt>
      <trkpt lat="59.272672" lon="18.092205">
        <ele>41</ele>
        <time>2020-02-14T08:15:25Z</time>
      </trkpt>
      <trkpt lat="59.272662" lon="18.092305">
        <ele>41</ele>
        <time>2020-02-14T08:15:26Z</time>
      </trkpt>
      <trkpt lat="59.27265" lon="18.092405">
        <ele>41</ele>
        <time>2020-02-14T08:15:27Z</time>
      </trkpt>
      <trkpt lat="59.272638" lon="18.092509">
        <ele>41</ele>
        <time>2020-02-14T08:15:28Z</time>
      </trkpt>
      <trkpt lat="59.272626" lon="18.092616">
        <ele>41</ele>
        <time>2020-02-14T08:15:29Z</time>
      </trkpt>
      <trkpt lat="59.272609" lon="18.092722">
        <ele>41</ele>
        <time>2020-02-14T08:15:30Z</time>
      </trkpt>
      <trkpt lat="59.272592" lon="18.092826">
        <ele>41</ele>
        <time>2020-02-14T08:15:31Z</time>
      </trkpt>
      <trkpt lat="59.272574" lon="18.092933">
        <ele>41</ele>
        <time>2020-02-14T08:15:33Z</time>
      </trkpt>
      <trkpt lat="59.272556" lon="18.093036">
        <ele>41</ele>
        <time>2020-02-14T08:15:33Z</time>
      </trkpt>
      <trkpt lat="59.272538" lon="18.093129">
        <ele>41</ele>
        <time>2020-02-14T08:15:34Z</time>
      </trkpt>
      <trkpt lat="59.272518" lon="18.093227">
        <ele>41</ele>
        <time>2020-02-14T08:15:35Z</time>
      </trkpt>
      <trkpt lat="59.272498" lon="18.093326">
        <ele>41</ele>
        <time>2020-02-14T08:15:36Z</time>
      </trkpt>
      <trkpt lat="59.27247" lon="18.093406">
        <ele>41</ele>
        <time>2020-02-14T08:15:37Z</time>
      </trkpt>
      <trkpt lat="59.27243" lon="18.093476">
        <ele>41</ele>
        <time>2020-02-14T08:15:38Z</time>
      </trkpt>
      <trkpt lat="59.27238" lon="18.093514">
        <ele>41</ele>
        <time>2020-02-14T08:15:39Z</time>
      </trkpt>
      <trkpt lat="59.272328" lon="18.093531">
        <ele>41</ele>
        <time>2020-02-14T08:15:40Z</time>
      </trkpt>
      <trkpt lat="59.272274" lon="18.093543">
        <ele>41</ele>
        <time>2020-02-14T08:15:41Z</time>
      </trkpt>
      <trkpt lat="59.27222" lon="18.093553">
        <ele>41</ele>
        <time>2020-02-14T08:15:42Z</time>
      </trkpt>
      <trkpt lat="59.272166" lon="18.093564">
        <ele>40</ele>
        <time>2020-02-14T08:15:43Z</time>
      </trkpt>
      <trkpt lat="59.272112" lon="18.09358">
        <ele>40</ele>
        <time>2020-02-14T08:15:44Z</time>
      </trkpt>
      <trkpt lat="59.272058" lon="18.093599">
        <ele>40</ele>
        <time>2020-02-14T08:15:45Z</time>
      </trkpt>
      <trkpt lat="59.272006" lon="18.093622">
        <ele>40</ele>
        <time>2020-02-14T08:15:46Z</time>
      </trkpt>
      <trkpt lat="59.271952" lon="18.093649">
        <ele>40</ele>
        <time>2020-02-14T08:15:47Z</time>
      </trkpt>
      <trkpt lat="59.271896" lon="18.093677">
        <ele>40</ele>
        <time>2020-02-14T08:15:48Z</time>
      </trkpt>
      <trkpt lat="59.271838" lon="18.093708">
        <ele>40</ele>
        <time>2020-02-14T08:15:49Z</time>
      </trkpt>
      <trkpt lat="59.27178" lon="18.093738">
        <ele>41</ele>
        <time>2020-02-14T08:15:51Z</time>
      </trkpt>
      <trkpt lat="59.27172" lon="18.09377">
        <ele>40</ele>
        <time>2020-02-14T08:15:51Z</time>
      </trkpt>
      <trkpt lat="59.27166" lon="18.093803">
        <ele>40</ele>
        <time>2020-02-14T08:15:52Z</time>
      </trkpt>
      <trkpt lat="59.2716" lon="18.093836">
        <ele>40</ele>
        <time>2020-02-14T08:15:53Z</time>
      </trkpt>
      <trkpt lat="59.271538" lon="18.093866">
        <ele>40</ele>
        <time>2020-02-14T08:15:54Z</time>
      </trkpt>
      <trkpt lat="59.271474" lon="18.09389">
        <ele>40</ele>
        <time>2020-02-14T08:15:55Z</time>
      </trkpt>
      <trkpt lat="59.271409" lon="18.093912">
        <ele>40</ele>
        <time>2020-02-14T08:15:56Z</time>
      </trkpt>
      <trkpt lat="59.271342" lon="18.093931">
        <ele>40</ele>
        <time>2020-02-14T08:15:57Z</time>
      </trkpt>
      <trkpt lat="59.271277" lon="18.093951">
        <ele>40</ele>
        <time>2020-02-14T08:15:59Z</time>
      </trkpt>
      <trkpt lat="59.271212" lon="18.093974">
        <ele>40</ele>
        <time>2020-02-14T08:15:59Z</time>
      </trkpt>
      <trkpt lat="59.271148" lon="18.094">
        <ele>39</ele>
        <time>2020-02-14T08:16:00Z</time>
      </trkpt>
      <trkpt lat="59.271083" lon="18.094028">
        <ele>39</ele>
        <time>2020-02-14T08:16:01Z</time>
      </trkpt>
      <trkpt lat="59.27102" lon="18.094059">
        <ele>39</ele>
        <time>2020-02-14T08:16:02Z</time>
      </trkpt>
      <trkpt lat="59.270958" lon="18.094094">
        <ele>39</ele>
        <time>2020-02-14T08:16:03Z</time>
      </trkpt>
      <trkpt lat="59.270895" lon="18.094126">
        <ele>39</ele>
        <time>2020-02-14T08:16:04Z</time>
      </trkpt>
      <trkpt lat="59.270829" lon="18.094156">
        <ele>39</ele>
        <time>2020-02-14T08:16:06Z</time>
      </trkpt>
      <trkpt lat="59.270764" lon="18.094188">
        <ele>39</ele>
        <time>2020-02-14T08:16:06Z</time>
      </trkpt>
      <trkpt lat="59.270701" lon="18.094218">
        <ele>38</ele>
        <time>2020-02-14T08:16:07Z</time>
      </trkpt>
      <trkpt lat="59.270636" lon="18.094241">
        <ele>38</ele>
        <time>2020-02-14T08:16:08Z</time>
      </trkpt>
      <trkpt lat="59.270571" lon="18.094264">
        <ele>38</ele>
        <time>2020-02-14T08:16:09Z</time>
      </trkpt>
      <trkpt lat="59.270508" lon="18.094289">
        <ele>38</ele>
        <time>2020-02-14T08:16:10Z</time>
      </trkpt>
      <trkpt lat="59.270445" lon="18.094316">
        <ele>38</ele>
        <time>2020-02-14T08:16:11Z</time>
      </trkpt>
      <trkpt lat="59.270382" lon="18.094342">
        <ele>38</ele>
        <time>2020-02-14T08:16:12Z</time>
      </trkpt>
      <trkpt lat="59.270317" lon="18.094367">
        <ele>38</ele>
        <time>2020-02-14T08:16:13Z</time>
      </trkpt>
      <trkpt lat="59.270253" lon="18.094391">
        <ele>38</ele>
        <time>2020-02-14T08:16:14Z</time>
      </trkpt>
      <trkpt lat="59.27019" lon="18.094414">
        <ele>38</ele>
        <time>2020-02-14T08:16:15Z</time>
      </trkpt>
      <trkpt lat="59.270128" lon="18.094439">
        <ele>38</ele>
        <time>2020-02-14T08:16:16Z</time>
      </trkpt>
      <trkpt lat="59.270066" lon="18.094465">
        <ele>38</ele>
        <time>2020-02-14T08:16:17Z</time>
      </trkpt>
      <trkpt lat="59.270008" lon="18.094496">
        <ele>38</ele>
        <time>2020-02-14T08:16:18Z</time>
      </trkpt>
      <trkpt lat="59.269952" lon="18.09453">
        <ele>38</ele>
        <time>2020-02-14T08:16:19Z</time>
      </trkpt>
      <trkpt lat="59.269896" lon="18.094568">
        <ele>37</ele>
        <time>2020-02-14T08:16:20Z</time>
      </trkpt>
      <trkpt lat="59.269843" lon="18.094608">
        <ele>37</ele>
        <time>2020-02-14T08:16:22Z</time>
      </trkpt>
      <trkpt lat="59.269789" lon="18.094649">
        <ele>37</ele>
        <time>2020-02-14T08:16:22Z</time>
      </trkpt>
      <trkpt lat="59.269732" lon="18.094693">
        <ele>37</ele>
        <time>2020-02-14T08:16:23Z</time>
      </trkpt>
      <trkpt lat="59.269676" lon="18.094736">
        <ele>37</ele>
        <time>2020-02-14T08:16:24Z</time>
      </trkpt>
      <trkpt lat="59.26962" lon="18.094776">
        <ele>37</ele>
        <time>2020-02-14T08:16:25Z</time>
      </trkpt>
      <trkpt lat="59.269563" lon="18.094808">
        <ele>37</ele>
        <time>2020-02-14T08:16:26Z</time>
      </trkpt>
      <trkpt lat="59.269504" lon="18.094833">
        <ele>37</ele>
        <time>2020-02-14T08:16:27Z</time>
      </trkpt>
      <trkpt lat="59.269446" lon="18.094853">
        <ele>37</ele>
        <time>2020-02-14T08:16:28Z</time>
      </trkpt>
      <trkpt lat="59.269389" lon="18.094874">
        <ele>37</ele>
        <time>2020-02-14T08:16:29Z</time>
      </trkpt>
      <trkpt lat="59.26933" lon="18.094897">
        <ele>38</ele>
        <time>2020-02-14T08:16:30Z</time>
      </trkpt>
      <trkpt lat="59.269275" lon="18.094928">
        <ele>38</ele>
        <time>2020-02-14T08:16:31Z</time>
      </trkpt>
      <trkpt lat="59.269221" lon="18.094961">
        <ele>38</ele>
        <time>2020-02-14T08:16:32Z</time>
      </trkpt>
      <trkpt lat="59.269171" lon="18.094993">
        <ele>38</ele>
        <time>2020-02-14T08:16:33Z</time>
      </trkpt>
      <trkpt lat="59.269118" lon="18.095021">
        <ele>38</ele>
        <time>2020-02-14T08:16:34Z</time>
      </trkpt>
      <trkpt lat="59.269064" lon="18.095047">
        <ele>38</ele>
        <time>2020-02-14T08:16:35Z</time>
      </trkpt>
      <trkpt lat="59.269014" lon="18.095072">
        <ele>38</ele>
        <time>2020-02-14T08:16:36Z</time>
      </trkpt>
      <trkpt lat="59.268958" lon="18.095101">
        <ele>38</ele>
        <time>2020-02-14T08:16:37Z</time>
      </trkpt>
      <trkpt lat="59.268902" lon="18.09513">
        <ele>38</ele>
        <time>2020-02-14T08:16:39Z</time>
      </trkpt>
      <trkpt lat="59.268848" lon="18.095158">
        <ele>38</ele>
        <time>2020-02-14T08:16:39Z</time>
      </trkpt>
      <trkpt lat="59.268794" lon="18.095187">
        <ele>38</ele>
        <time>2020-02-14T08:16:40Z</time>
      </trkpt>
      <trkpt lat="59.26874" lon="18.095215">
        <ele>38</ele>
        <time>2020-02-14T08:16:41Z</time>
      </trkpt>
      <trkpt lat="59.268687" lon="18.095248">
        <ele>38</ele>
        <time>2020-02-14T08:16:42Z</time>
      </trkpt>
      <trkpt lat="59.268634" lon="18.095284">
        <ele>38</ele>
        <time>2020-02-14T08:16:43Z</time>
      </trkpt>
      <trkpt lat="59.268581" lon="18.095321">
        <ele>38</ele>
        <time>2020-02-14T08:16:44Z</time>
      </trkpt>
      <trkpt lat="59.26853" lon="18.095355">
        <ele>38</ele>
        <time>2020-02-14T08:16:45Z</time>
      </trkpt>
      <trkpt lat="59.268479" lon="18.095391">
        <ele>38</ele>
        <time>2020-02-14T08:16:46Z</time>
      </trkpt>
      <trkpt lat="59.268429" lon="18.095422">
        <ele>38</ele>
        <time>2020-02-14T08:16:47Z</time>
      </trkpt>
      <trkpt lat="59.26838" lon="18.095456">
        <ele>38</ele>
        <time>2020-02-14T08:16:49Z</time>
      </trkpt>
      <trkpt lat="59.268327" lon="18.095493">
        <ele>38</ele>
        <time>2020-02-14T08:16:49Z</time>
      </trkpt>
      <trkpt lat="59.268275" lon="18.095526">
        <ele>38</ele>
        <time>2020-02-14T08:16:50Z</time>
      </trkpt>
      <trkpt lat="59.268227" lon="18.095562">
        <ele>38</ele>
        <time>2020-02-14T08:16:51Z</time>
      </trkpt>
      <trkpt lat="59.268183" lon="18.095602">
        <ele>38</ele>
        <time>2020-02-14T08:16:52Z</time>
      </trkpt>
      <trkpt lat="59.268078" lon="18.095664">
        <ele>38</ele>
        <time>2020-02-14T08:16:54Z</time>
      </trkpt>
      <trkpt lat="59.267966" lon="18.095735">
        <ele>38</ele>
        <time>2020-02-14T08:16:56Z</time>
      </trkpt>
      <trkpt lat="59.267856" lon="18.095792">
        <ele>38</ele>
        <time>2020-02-14T08:16:58Z</time>
      </trkpt>
      <trkpt lat="59.267736" lon="18.095832">
        <ele>38</ele>
        <time>2020-02-14T08:17:00Z</time>
      </trkpt>
      <trkpt lat="59.267679" lon="18.095845">
        <ele>38</ele>
        <time>2020-02-14T08:17:01Z</time>
      </trkpt>
      <trkpt lat="59.26762" lon="18.095855">
        <ele>38</ele>
        <time>2020-02-14T08:17:02Z</time>
      </trkpt>
      <trkpt lat="59.267558" lon="18.095864">
        <ele>38</ele>
        <time>2020-02-14T08:17:03Z</time>
      </trkpt>
      <trkpt lat="59.267499" lon="18.09588">
        <ele>38</ele>
        <time>2020-02-14T08:17:04Z</time>
      </trkpt>
      <trkpt lat="59.267446" lon="18.095897">
        <ele>38</ele>
        <time>2020-02-14T08:17:06Z</time>
      </trkpt>
      <trkpt lat="59.267392" lon="18.095904">
        <ele>38</ele>
        <time>2020-02-14T08:17:06Z</time>
      </trkpt>
      <trkpt lat="59.267335" lon="18.095914">
        <ele>37</ele>
        <time>2020-02-14T08:17:07Z</time>
      </trkpt>
      <trkpt lat="59.267284" lon="18.095937">
        <ele>37</ele>
        <time>2020-02-14T08:17:08Z</time>
      </trkpt>
      <trkpt lat="59.267238" lon="18.095959">
        <ele>37</ele>
        <time>2020-02-14T08:17:09Z</time>
      </trkpt>
      <trkpt lat="59.267185" lon="18.095976">
        <ele>37</ele>
        <time>2020-02-14T08:17:10Z</time>
      </trkpt>
      <trkpt lat="59.26713" lon="18.095988">
        <ele>37</ele>
        <time>2020-02-14T08:17:11Z</time>
      </trkpt>
      <trkpt lat="59.267075" lon="18.096004">
        <ele>37</ele>
        <time>2020-02-14T08:17:12Z</time>
      </trkpt>
      <trkpt lat="59.267019" lon="18.09602">
        <ele>37</ele>
        <time>2020-02-14T08:17:13Z</time>
      </trkpt>
      <trkpt lat="59.266966" lon="18.096043">
        <ele>37</ele>
        <time>2020-02-14T08:17:15Z</time>
      </trkpt>
      <trkpt lat="59.266911" lon="18.096069">
        <ele>37</ele>
        <time>2020-02-14T08:17:15Z</time>
      </trkpt>
      <trkpt lat="59.266858" lon="18.09611">
        <ele>37</ele>
        <time>2020-02-14T08:17:16Z</time>
      </trkpt>
      <trkpt lat="59.266812" lon="18.096163">
        <ele>37</ele>
        <time>2020-02-14T08:17:17Z</time>
      </trkpt>
      <trkpt lat="59.266767" lon="18.096223">
        <ele>37</ele>
        <time>2020-02-14T08:17:18Z</time>
      </trkpt>
      <trkpt lat="59.266725" lon="18.096284">
        <ele>37</ele>
        <time>2020-02-14T08:17:19Z</time>
      </trkpt>
      <trkpt lat="59.26668" lon="18.096345">
        <ele>37</ele>
        <time>2020-02-14T08:17:20Z</time>
      </trkpt>
      <trkpt lat="59.266632" lon="18.096409">
        <ele>37</ele>
        <time>2020-02-14T08:17:21Z</time>
      </trkpt>
      <trkpt lat="59.266583" lon="18.096474">
        <ele>37</ele>
        <time>2020-02-14T08:17:22Z</time>
      </trkpt>
      <trkpt lat="59.266534" lon="18.096538">
        <ele>37</ele>
        <time>2020-02-14T08:17:24Z</time>
      </trkpt>
      <trkpt lat="59.266486" lon="18.096599">
        <ele>37</ele>
        <time>2020-02-14T08:17:24Z</time>
      </trkpt>
      <trkpt lat="59.266439" lon="18.096662">
        <ele>36</ele>
        <time>2020-02-14T08:17:25Z</time>
      </trkpt>
      <trkpt lat="59.266393" lon="18.096727">
        <ele>36</ele>
        <time>2020-02-14T08:17:26Z</time>
      </trkpt>
      <trkpt lat="59.266346" lon="18.096791">
        <ele>36</ele>
        <time>2020-02-14T08:17:27Z</time>
      </trkpt>
      <trkpt lat="59.266298" lon="18.09685">
        <ele>36</ele>
        <time>2020-02-14T08:17:28Z</time>
      </trkpt>
      <trkpt lat="59.266248" lon="18.096898">
        <ele>37</ele>
        <time>2020-02-14T08:17:29Z</time>
      </trkpt>
      <trkpt lat="59.266195" lon="18.096939">
        <ele>37</ele>
        <time>2020-02-14T08:17:30Z</time>
      </trkpt>
      <trkpt lat="59.26614" lon="18.096976">
        <ele>37</ele>
        <time>2020-02-14T08:17:31Z</time>
      </trkpt>
      <trkpt lat="59.266085" lon="18.09701">
        <ele>37</ele>
        <time>2020-02-14T08:17:32Z</time>
      </trkpt>
      <trkpt lat="59.266032" lon="18.097045">
        <ele>37</ele>
        <time>2020-02-14T08:17:33Z</time>
      </trkpt>
      <trkpt lat="59.265978" lon="18.097082">
        <ele>37</ele>
        <time>2020-02-14T08:17:34Z</time>
      </trkpt>
      <trkpt lat="59.265924" lon="18.097116">
        <ele>37</ele>
        <time>2020-02-14T08:17:35Z</time>
      </trkpt>
      <trkpt lat="59.265872" lon="18.09714">
        <ele>37</ele>
        <time>2020-02-14T08:17:36Z</time>
      </trkpt>
      <trkpt lat="59.265815" lon="18.09717">
        <ele>37</ele>
        <time>2020-02-14T08:17:37Z</time>
      </trkpt>
      <trkpt lat="59.265757" lon="18.097199">
        <ele>37</ele>
        <time>2020-02-14T08:17:38Z</time>
      </trkpt>
      <trkpt lat="59.265697" lon="18.097228">
        <ele>37</ele>
        <time>2020-02-14T08:17:39Z</time>
      </trkpt>
      <trkpt lat="59.265634" lon="18.09725">
        <ele>37</ele>
        <time>2020-02-14T08:17:41Z</time>
      </trkpt>
      <trkpt lat="59.265567" lon="18.097275">
        <ele>37</ele>
        <time>2020-02-14T08:17:41Z</time>
      </trkpt>
      <trkpt lat="59.265497" lon="18.097305">
        <ele>36</ele>
        <time>2020-02-14T08:17:42Z</time>
      </trkpt>
      <trkpt lat="59.265424" lon="18.09733">
        <ele>36</ele>
        <time>2020-02-14T08:17:43Z</time>
      </trkpt>
      <trkpt lat="59.265352" lon="18.097351">
        <ele>36</ele>
        <time>2020-02-14T08:17:44Z</time>
      </trkpt>
      <trkpt lat="59.265283" lon="18.097367">
        <ele>36</ele>
        <time>2020-02-14T08:17:45Z</time>
      </trkpt>
      <trkpt lat="59.265215" lon="18.097385">
        <ele>36</ele>
        <time>2020-02-14T08:17:46Z</time>
      </trkpt>
      <trkpt lat="59.26515" lon="18.097409">
        <ele>36</ele>
        <time>2020-02-14T08:17:47Z</time>
      </trkpt>
      <trkpt lat="59.265091" lon="18.097437">
        <ele>36</ele>
        <time>2020-02-14T08:17:49Z</time>
      </trkpt>
      <trkpt lat="59.265035" lon="18.097463">
        <ele>36</ele>
        <time>2020-02-14T08:17:49Z</time>
      </trkpt>
      <trkpt lat="59.26498" lon="18.097485">
        <ele>36</ele>
        <time>2020-02-14T08:17:50Z</time>
      </trkpt>
      <trkpt lat="59.264929" lon="18.097506">
        <ele>36</ele>
        <time>2020-02-14T08:17:51Z</time>
      </trkpt>
      <trkpt lat="59.264881" lon="18.097528">
        <ele>36</ele>
        <time>2020-02-14T08:17:52Z</time>
      </trkpt>
      <trkpt lat="59.264833" lon="18.09755">
        <ele>36</ele>
        <time>2020-02-14T08:17:53Z</time>
      </trkpt>
      <trkpt lat="59.264785" lon="18.09757">
        <ele>36</ele>
        <time>2020-02-14T08:17:54Z</time>
      </trkpt>
      <trkpt lat="59.264739" lon="18.097588">
        <ele>36</ele>
        <time>2020-02-14T08:17:55Z</time>
      </trkpt>
      <trkpt lat="59.264693" lon="18.097608">
        <ele>36</ele>
        <time>2020-02-14T08:17:56Z</time>
      </trkpt>
      <trkpt lat="59.264646" lon="18.097627">
        <ele>36</ele>
        <time>2020-02-14T08:17:57Z</time>
      </trkpt>
      <trkpt lat="59.264601" lon="18.097647">
        <ele>36</ele>
        <time>2020-02-14T08:17:59Z</time>
      </trkpt>
      <trkpt lat="59.264556" lon="18.097665">
        <ele>36</ele>
        <time>2020-02-14T08:17:59Z</time>
      </trkpt>
      <trkpt lat="59.264513" lon="18.097685">
        <ele>36</ele>
        <time>2020-02-14T08:18:00Z</time>
      </trkpt>
      <trkpt lat="59.26447" lon="18.097705">
        <ele>36</ele>
        <time>2020-02-14T08:18:01Z</time>
      </trkpt>
      <trkpt lat="59.264427" lon="18.097723">
        <ele>37</ele>
        <time>2020-02-14T08:18:02Z</time>
      </trkpt>
      <trkpt lat="59.264384" lon="18.097738">
        <ele>37</ele>
        <time>2020-02-14T08:18:03Z</time>
      </trkpt>
      <trkpt lat="59.264339" lon="18.097757">
        <ele>37</ele>
        <time>2020-02-14T08:18:04Z</time>
      </trkpt>
      <trkpt lat="59.264294" lon="18.097779">
        <ele>37</ele>
        <time>2020-02-14T08:18:05Z</time>
      </trkpt>
      <trkpt lat="59.264246" lon="18.097799">
        <ele>37</ele>
        <time>2020-02-14T08:18:06Z</time>
      </trkpt>
      <trkpt lat="59.264198" lon="18.097815">
        <ele>37</ele>
        <time>2020-02-14T08:18:07Z</time>
      </trkpt>
      <trkpt lat="59.264147" lon="18.09783">
        <ele>37</ele>
        <time>2020-02-14T08:18:09Z</time>
      </trkpt>
      <trkpt lat="59.264096" lon="18.097845">
        <ele>37</ele>
        <time>2020-02-14T08:18:09Z</time>
      </trkpt>
      <trkpt lat="59.264045" lon="18.09786">
        <ele>37</ele>
        <time>2020-02-14T08:18:10Z</time>
      </trkpt>
      <trkpt lat="59.263993" lon="18.097877">
        <ele>37</ele>
        <time>2020-02-14T08:18:11Z</time>
      </trkpt>
      <trkpt lat="59.263939" lon="18.097894">
        <ele>37</ele>
        <time>2020-02-14T08:18:12Z</time>
      </trkpt>
      <trkpt lat="59.263882" lon="18.097911">
        <ele>37</ele>
        <time>2020-02-14T08:18:13Z</time>
      </trkpt>
      <trkpt lat="59.263825" lon="18.097932">
        <ele>37</ele>
        <time>2020-02-14T08:18:14Z</time>
      </trkpt>
      <trkpt lat="59.263765" lon="18.097953">
        <ele>37</ele>
        <time>2020-02-14T08:18:15Z</time>
      </trkpt>
      <trkpt lat="59.263702" lon="18.097972">
        <ele>37</ele>
        <time>2020-02-14T08:18:16Z</time>
      </trkpt>
      <trkpt lat="59.263638" lon="18.097987">
        <ele>37</ele>
        <time>2020-02-14T08:18:18Z</time>
      </trkpt>
      <trkpt lat="59.263572" lon="18.098007">
        <ele>37</ele>
        <time>2020-02-14T08:18:18Z</time>
      </trkpt>
      <trkpt lat="59.263503" lon="18.098026">
        <ele>37</ele>
        <time>2020-02-14T08:18:19Z</time>
      </trkpt>
      <trkpt lat="59.263435" lon="18.098048">
        <ele>37</ele>
        <time>2020-02-14T08:18:20Z</time>
      </trkpt>
      <trkpt lat="59.263366" lon="18.098071">
        <ele>37</ele>
        <time>2020-02-14T08:18:21Z</time>
      </trkpt>
      <trkpt lat="59.263298" lon="18.098091">
        <ele>37</ele>
        <time>2020-02-14T08:18:22Z</time>
      </trkpt>
      <trkpt lat="59.263232" lon="18.098109">
        <ele>37</ele>
        <time>2020-02-14T08:18:23Z</time>
      </trkpt>
      <trkpt lat="59.263168" lon="18.098122">
        <ele>37</ele>
        <time>2020-02-14T08:18:25Z</time>
      </trkpt>
      <trkpt lat="59.263103" lon="18.098127">
        <ele>37</ele>
        <time>2020-02-14T08:18:25Z</time>
      </trkpt>
      <trkpt lat="59.263032" lon="18.098131">
        <ele>37</ele>
        <time>2020-02-14T08:18:26Z</time>
      </trkpt>
      <trkpt lat="59.262961" lon="18.098135">
        <ele>37</ele>
        <time>2020-02-14T08:18:27Z</time>
      </trkpt>
      <trkpt lat="59.262892" lon="18.098136">
        <ele>37</ele>
        <time>2020-02-14T08:18:28Z</time>
      </trkpt>
      <trkpt lat="59.262823" lon="18.098135">
        <ele>37</ele>
        <time>2020-02-14T08:18:29Z</time>
      </trkpt>
      <trkpt lat="59.262751" lon="18.098132">
        <ele>37</ele>
        <time>2020-02-14T08:18:30Z</time>
      </trkpt>
      <trkpt lat="59.262681" lon="18.098132">
        <ele>37</ele>
        <time>2020-02-14T08:18:32Z</time>
      </trkpt>
      <trkpt lat="59.262608" lon="18.098131">
        <ele>36</ele>
        <time>2020-02-14T08:18:32Z</time>
      </trkpt>
      <trkpt lat="59.262535" lon="18.098125">
        <ele>36</ele>
        <time>2020-02-14T08:18:33Z</time>
      </trkpt>
      <trkpt lat="59.262461" lon="18.098113">
        <ele>36</ele>
        <time>2020-02-14T08:18:34Z</time>
      </trkpt>
      <trkpt lat="59.262385" lon="18.098089">
        <ele>35</ele>
        <time>2020-02-14T08:18:35Z</time>
      </trkpt>
      <trkpt lat="59.262312" lon="18.098049">
        <ele>35</ele>
        <time>2020-02-14T08:18:36Z</time>
      </trkpt>
      <trkpt lat="59.262246" lon="18.097989">
        <ele>35</ele>
        <time>2020-02-14T08:18:37Z</time>
      </trkpt>
      <trkpt lat="59.262186" lon="18.097913">
        <ele>34</ele>
        <time>2020-02-14T08:18:39Z</time>
      </trkpt>
      <trkpt lat="59.262128" lon="18.097832">
        <ele>34</ele>
        <time>2020-02-14T08:18:39Z</time>
      </trkpt>
      <trkpt lat="59.262072" lon="18.097749">
        <ele>34</ele>
        <time>2020-02-14T08:18:40Z</time>
      </trkpt>
      <trkpt lat="59.262016" lon="18.097666">
        <ele>34</ele>
        <time>2020-02-14T08:18:41Z</time>
      </trkpt>
      <trkpt lat="59.261962" lon="18.097584">
        <ele>34</ele>
        <time>2020-02-14T08:18:42Z</time>
      </trkpt>
      <trkpt lat="59.261909" lon="18.097501">
        <ele>33</ele>
        <time>2020-02-14T08:18:43Z</time>
      </trkpt>
      <trkpt lat="59.261857" lon="18.097419">
        <ele>33</ele>
        <time>2020-02-14T08:18:44Z</time>
      </trkpt>
      <trkpt lat="59.261806" lon="18.097336">
        <ele>33</ele>
        <time>2020-02-14T08:18:45Z</time>
      </trkpt>
      <trkpt lat="59.261756" lon="18.097254">
        <ele>33</ele>
        <time>2020-02-14T08:18:47Z</time>
      </trkpt>
      <trkpt lat="59.261705" lon="18.097174">
        <ele>33</ele>
        <time>2020-02-14T08:18:47Z</time>
      </trkpt>
      <trkpt lat="59.261656" lon="18.097093">
        <ele>33</ele>
        <time>2020-02-14T08:18:48Z</time>
      </trkpt>
      <trkpt lat="59.261608" lon="18.097013">
        <ele>33</ele>
        <time>2020-02-14T08:18:49Z</time>
      </trkpt>
      <trkpt lat="59.26156" lon="18.096934">
        <ele>32</ele>
        <time>2020-02-14T08:18:50Z</time>
      </trkpt>
      <trkpt lat="59.261512" lon="18.096858">
        <ele>32</ele>
        <time>2020-02-14T08:18:51Z</time>
      </trkpt>
      <trkpt lat="59.261463" lon="18.096788">
        <ele>32</ele>
        <time>2020-02-14T08:18:52Z</time>
      </trkpt>
      <trkpt lat="59.261412" lon="18.096725">
        <ele>32</ele>
        <time>2020-02-14T08:18:54Z</time>
      </trkpt>
      <trkpt lat="59.261359" lon="18.09667">
        <ele>32</ele>
        <time>2020-02-14T08:18:54Z</time>
      </trkpt>
      <trkpt lat="59.261305" lon="18.096616">
        <ele>32</ele>
        <time>2020-02-14T08:18:55Z</time>
      </trkpt>
      <trkpt lat="59.261249" lon="18.096568">
        <ele>32</ele>
        <time>2020-02-14T08:18:56Z</time>
      </trkpt>
      <trkpt lat="59.261191" lon="18.096527">
        <ele>32</ele>
        <time>2020-02-14T08:18:57Z</time>
      </trkpt>
      <trkpt lat="59.261133" lon="18.09649">
        <ele>32</ele>
        <time>2020-02-14T08:18:58Z</time>
      </trkpt>
      <trkpt lat="59.261074" lon="18.09646">
        <ele>31</ele>
        <time>2020-02-14T08:18:59Z</time>
      </trkpt>
      <trkpt lat="59.261014" lon="18.096439">
        <ele>31</ele>
        <time>2020-02-14T08:19:00Z</time>
      </trkpt>
      <trkpt lat="59.260953" lon="18.09643">
        <ele>31</ele>
        <time>2020-02-14T08:19:01Z</time>
      </trkpt>
      <trkpt lat="59.26089" lon="18.09643">
        <ele>31</ele>
        <time>2020-02-14T08:19:03Z</time>
      </trkpt>
      <trkpt lat="59.260822" lon="18.096438">
        <ele>31</ele>
        <time>2020-02-14T08:19:03Z</time>
      </trkpt>
      <trkpt lat="59.260754" lon="18.096452">
        <ele>30</ele>
        <time>2020-02-14T08:19:04Z</time>
      </trkpt>
      <trkpt lat="59.260684" lon="18.096468">
        <ele>30</ele>
        <time>2020-02-14T08:19:05Z</time>
      </trkpt>
      <trkpt lat="59.260612" lon="18.096486">
        <ele>30</ele>
        <time>2020-02-14T08:19:06Z</time>
      </trkpt>
      <trkpt lat="59.260538" lon="18.096505">
        <ele>29</ele>
        <time>2020-02-14T08:19:07Z</time>
      </trkpt>
      <trkpt lat="59.260463" lon="18.096533">
        <ele>29</ele>
        <time>2020-02-14T08:19:08Z</time>
      </trkpt>
      <trkpt lat="59.260392" lon="18.096568">
        <ele>29</ele>
        <time>2020-02-14T08:19:09Z</time>
      </trkpt>
      <trkpt lat="59.260098" lon="18.096731">
        <ele>29</ele>
        <time>2020-02-14T08:19:13Z</time>
      </trkpt>
      <trkpt lat="59.26004" lon="18.096786">
        <ele>28</ele>
        <time>2020-02-14T08:19:14Z</time>
      </trkpt>
      <trkpt lat="59.259987" lon="18.096837">
        <ele>28</ele>
        <time>2020-02-14T08:19:15Z</time>
      </trkpt>
      <trkpt lat="59.259938" lon="18.096896">
        <ele>28</ele>
        <time>2020-02-14T08:19:17Z</time>
      </trkpt>
      <trkpt lat="59.25989" lon="18.096952">
        <ele>28</ele>
        <time>2020-02-14T08:19:17Z</time>
      </trkpt>
      <trkpt lat="59.25985" lon="18.097011">
        <ele>28</ele>
        <time>2020-02-14T08:19:18Z</time>
      </trkpt>
      <trkpt lat="59.259814" lon="18.097076">
        <ele>28</ele>
        <time>2020-02-14T08:19:19Z</time>
      </trkpt>
      <trkpt lat="59.259781" lon="18.097147">
        <ele>28</ele>
        <time>2020-02-14T08:19:20Z</time>
      </trkpt>
      <trkpt lat="59.259752" lon="18.097225">
        <ele>28</ele>
        <time>2020-02-14T08:19:21Z</time>
      </trkpt>
      <trkpt lat="59.259727" lon="18.09731">
        <ele>28</ele>
        <time>2020-02-14T08:19:22Z</time>
      </trkpt>
      <trkpt lat="59.259707" lon="18.097398">
        <ele>27</ele>
        <time>2020-02-14T08:19:23Z</time>
      </trkpt>
      <trkpt lat="59.259692" lon="18.097491">
        <ele>27</ele>
        <time>2020-02-14T08:19:24Z</time>
      </trkpt>
      <trkpt lat="59.259682" lon="18.097592">
        <ele>27</ele>
        <time>2020-02-14T08:19:25Z</time>
      </trkpt>
      <trkpt lat="59.259672" lon="18.0977">
        <ele>26</ele>
        <time>2020-02-14T08:19:27Z</time>
      </trkpt>
      <trkpt lat="59.259662" lon="18.097811">
        <ele>26</ele>
        <time>2020-02-14T08:19:27Z</time>
      </trkpt>
      <trkpt lat="59.259654" lon="18.097923">
        <ele>26</ele>
        <time>2020-02-14T08:19:28Z</time>
      </trkpt>
      <trkpt lat="59.259644" lon="18.098039">
        <ele>26</ele>
        <time>2020-02-14T08:19:29Z</time>
      </trkpt>
      <trkpt lat="59.259636" lon="18.098154">
        <ele>26</ele>
        <time>2020-02-14T08:19:30Z</time>
      </trkpt>
      <trkpt lat="59.259627" lon="18.09827">
        <ele>26</ele>
        <time>2020-02-14T08:19:31Z</time>
      </trkpt>
      <trkpt lat="59.259618" lon="18.098386">
        <ele>26</ele>
        <time>2020-02-14T08:19:32Z</time>
      </trkpt>
      <trkpt lat="59.259608" lon="18.098504">
        <ele>26</ele>
        <time>2020-02-14T08:19:33Z</time>
      </trkpt>
      <trkpt lat="59.259595" lon="18.09862">
        <ele>26</ele>
        <time>2020-02-14T08:19:34Z</time>
      </trkpt>
      <trkpt lat="59.259576" lon="18.098729">
        <ele>26</ele>
        <time>2020-02-14T08:19:35Z</time>
      </trkpt>
      <trkpt lat="59.259548" lon="18.098833">
        <ele>26</ele>
        <time>2020-02-14T08:19:36Z</time>
      </trkpt>
      <trkpt lat="59.259514" lon="18.098929">
        <ele>25</ele>
        <time>2020-02-14T08:19:37Z</time>
      </trkpt>
      <trkpt lat="59.259469" lon="18.099014">
        <ele>25</ele>
        <time>2020-02-14T08:19:38Z</time>
      </trkpt>
      <trkpt lat="59.25942" lon="18.099085">
        <ele>25</ele>
        <time>2020-02-14T08:19:39Z</time>
      </trkpt>
      <trkpt lat="59.25937" lon="18.099144">
        <ele>25</ele>
        <time>2020-02-14T08:19:40Z</time>
      </trkpt>
      <trkpt lat="59.259318" lon="18.099193">
        <ele>25</ele>
        <time>2020-02-14T08:19:41Z</time>
      </trkpt>
      <trkpt lat="59.259263" lon="18.099228">
        <ele>25</ele>
        <time>2020-02-14T08:19:43Z</time>
      </trkpt>
      <trkpt lat="59.259206" lon="18.099247">
        <ele>25</ele>
        <time>2020-02-14T08:19:43Z</time>
      </trkpt>
      <trkpt lat="59.25915" lon="18.099256">
        <ele>25</ele>
        <time>2020-02-14T08:19:44Z</time>
      </trkpt>
      <trkpt lat="59.259096" lon="18.099259">
        <ele>26</ele>
        <time>2020-02-14T08:19:45Z</time>
      </trkpt>
      <trkpt lat="59.259046" lon="18.099262">
        <ele>26</ele>
        <time>2020-02-14T08:19:46Z</time>
      </trkpt>
      <trkpt lat="59.258996" lon="18.099262">
        <ele>26</ele>
        <time>2020-02-14T08:19:47Z</time>
      </trkpt>
      <trkpt lat="59.258946" lon="18.099263">
        <ele>26</ele>
        <time>2020-02-14T08:19:48Z</time>
      </trkpt>
      <trkpt lat="59.258897" lon="18.099264">
        <ele>26</ele>
        <time>2020-02-14T08:19:49Z</time>
      </trkpt>
      <trkpt lat="59.258844" lon="18.099265">
        <ele>26</ele>
        <time>2020-02-14T08:19:50Z</time>
      </trkpt>
      <trkpt lat="59.25879" lon="18.099265">
        <ele>26</ele>
        <time>2020-02-14T08:19:51Z</time>
      </trkpt>
      <trkpt lat="59.258735" lon="18.099265">
        <ele>26</ele>
        <time>2020-02-14T08:19:53Z</time>
      </trkpt>
      <trkpt lat="59.25868" lon="18.099269">
        <ele>26</ele>
        <time>2020-02-14T08:19:53Z</time>
      </trkpt>
      <trkpt lat="59.258624" lon="18.099274">
        <ele>27</ele>
        <time>2020-02-14T08:19:54Z</time>
      </trkpt>
      <trkpt lat="59.258567" lon="18.099275">
        <ele>27</ele>
        <time>2020-02-14T08:19:55Z</time>
      </trkpt>
      <trkpt lat="59.258512" lon="18.099273">
        <ele>27</ele>
        <time>2020-02-14T08:19:56Z</time>
      </trkpt>
      <trkpt lat="59.258456" lon="18.099269">
        <ele>27</ele>
        <time>2020-02-14T08:19:57Z</time>
      </trkpt>
      <trkpt lat="59.258401" lon="18.099264">
        <ele>28</ele>
        <time>2020-02-14T08:19:58Z</time>
      </trkpt>
      <trkpt lat="59.258344" lon="18.09926">
        <ele>28</ele>
        <time>2020-02-14T08:19:59Z</time>
      </trkpt>
      <trkpt lat="59.258286" lon="18.099256">
        <ele>28</ele>
        <time>2020-02-14T08:20:00Z</time>
      </trkpt>
      <trkpt lat="59.258229" lon="18.099256">
        <ele>29</ele>
        <time>2020-02-14T08:20:02Z</time>
      </trkpt>
      <trkpt lat="59.25817" lon="18.09926">
        <ele>29</ele>
        <time>2020-02-14T08:20:02Z</time>
      </trkpt>
      <trkpt lat="59.258111" lon="18.099266">
        <ele>29</ele>
        <time>2020-02-14T08:20:03Z</time>
      </trkpt>
      <trkpt lat="59.258055" lon="18.099267">
        <ele>29</ele>
        <time>2020-02-14T08:20:04Z</time>
      </trkpt>
      <trkpt lat="59.258003" lon="18.099262">
        <ele>29</ele>
        <time>2020-02-14T08:20:05Z</time>
      </trkpt>
      <trkpt lat="59.257952" lon="18.099251">
        <ele>29</ele>
        <time>2020-02-14T08:20:06Z</time>
      </trkpt>
      <trkpt lat="59.257895" lon="18.09923">
        <ele>29</ele>
        <time>2020-02-14T08:20:07Z</time>
      </trkpt>
      <trkpt lat="59.257831" lon="18.099216">
        <ele>29</ele>
        <time>2020-02-14T08:20:08Z</time>
      </trkpt>
      <trkpt lat="59.25776" lon="18.099215">
        <ele>29</ele>
        <time>2020-02-14T08:20:10Z</time>
      </trkpt>
      <trkpt lat="59.257689" lon="18.099236">
        <ele>29</ele>
        <time>2020-02-14T08:20:10Z</time>
      </trkpt>
      <trkpt lat="59.257623" lon="18.099275">
        <ele>29</ele>
        <time>2020-02-14T08:20:11Z</time>
      </trkpt>
      <trkpt lat="59.25756" lon="18.099327">
        <ele>28</ele>
        <time>2020-02-14T08:20:12Z</time>
      </trkpt>
      <trkpt lat="59.2575" lon="18.099395">
        <ele>28</ele>
        <time>2020-02-14T08:20:13Z</time>
      </trkpt>
      <trkpt lat="59.257445" lon="18.099486">
        <ele>28</ele>
        <time>2020-02-14T08:20:14Z</time>
      </trkpt>
      <trkpt lat="59.257395" lon="18.099593">
        <ele>28</ele>
        <time>2020-02-14T08:20:15Z</time>
      </trkpt>
      <trkpt lat="59.25735" lon="18.099707">
        <ele>27</ele>
        <time>2020-02-14T08:20:17Z</time>
      </trkpt>
      <trkpt lat="59.25731" lon="18.099825">
        <ele>27</ele>
        <time>2020-02-14T08:20:17Z</time>
      </trkpt>
      <trkpt lat="59.257273" lon="18.099945">
        <ele>27</ele>
        <time>2020-02-14T08:20:18Z</time>
      </trkpt>
      <trkpt lat="59.257243" lon="18.100063">
        <ele>27</ele>
        <time>2020-02-14T08:20:19Z</time>
      </trkpt>
      <trkpt lat="59.257213" lon="18.100178">
        <ele>27</ele>
        <time>2020-02-14T08:20:20Z</time>
      </trkpt>
      <trkpt lat="59.257186" lon="18.100292">
        <ele>27</ele>
        <time>2020-02-14T08:20:21Z</time>
      </trkpt>
      <trkpt lat="59.257103" lon="18.100823">
        <ele>27</ele>
        <time>2020-02-14T08:20:25Z</time>
      </trkpt>
      <trkpt lat="59.257017" lon="18.101017">
        <ele>27</ele>
        <time>2020-02-14T08:20:27Z</time>
      </trkpt>
      <trkpt lat="59.256953" lon="18.101124">
        <ele>27</ele>
        <time>2020-02-14T08:20:29Z</time>
      </trkpt>
      <trkpt lat="59.256907" lon="18.10114">
        <ele>27</ele>
        <time>2020-02-14T08:20:30Z</time>
      </trkpt>
      <trkpt lat="59.256863" lon="18.101128">
        <ele>27</ele>
        <time>2020-02-14T08:20:31Z</time>
      </trkpt>
      <trkpt lat="59.256814" lon="18.101107">
        <ele>27</ele>
        <time>2020-02-14T08:20:32Z</time>
      </trkpt>
      <trkpt lat="59.256761" lon="18.101096">
        <ele>27</ele>
        <time>2020-02-14T08:20:34Z</time>
      </trkpt>
      <trkpt lat="59.256704" lon="18.10109">
        <ele>27</ele>
        <time>2020-02-14T08:20:34Z</time>
      </trkpt>
      <trkpt lat="59.256647" lon="18.101089">
        <ele>27</ele>
        <time>2020-02-14T08:20:35Z</time>
      </trkpt>
      <trkpt lat="59.25659" lon="18.101088">
        <ele>27</ele>
        <time>2020-02-14T08:20:36Z</time>
      </trkpt>
      <trkpt lat="59.256533" lon="18.101084">
        <ele>27</ele>
        <time>2020-02-14T08:20:37Z</time>
      </trkpt>
      <trkpt lat="59.256475" lon="18.101081">
        <ele>27</ele>
        <time>2020-02-14T08:20:38Z</time>
      </trkpt>
      <trkpt lat="59.256418" lon="18.101077">
        <ele>27</ele>
        <time>2020-02-14T08:20:39Z</time>
      </trkpt>
      <trkpt lat="59.256367" lon="18.101072">
        <ele>27</ele>
        <time>2020-02-14T08:20:40Z</time>
      </trkpt>
      <trkpt lat="59.256313" lon="18.101066">
        <ele>27</ele>
        <time>2020-02-14T08:20:41Z</time>
      </trkpt>
      <trkpt lat="59.256258" lon="18.101058">
        <ele>27</ele>
        <time>2020-02-14T08:20:42Z</time>
      </trkpt>
      <trkpt lat="59.256203" lon="18.101052">
        <ele>27</ele>
        <time>2020-02-14T08:20:43Z</time>
      </trkpt>
      <trkpt lat="59.256149" lon="18.101048">
        <ele>27</ele>
        <time>2020-02-14T08:20:44Z</time>
      </trkpt>
      <trkpt lat="59.256096" lon="18.101044">
        <ele>27</ele>
        <time>2020-02-14T08:20:45Z</time>
      </trkpt>
      <trkpt lat="59.256041" lon="18.101039">
        <ele>27</ele>
        <time>2020-02-14T08:20:46Z</time>
      </trkpt>
      <trkpt lat="59.25599" lon="18.101035">
        <ele>27</ele>
        <time>2020-02-14T08:20:47Z</time>
      </trkpt>
      <trkpt lat="59.255942" lon="18.101033">
        <ele>27</ele>
        <time>2020-02-14T08:20:48Z</time>
      </trkpt>
      <trkpt lat="59.255896" lon="18.10103">
        <ele>27</ele>
        <time>2020-02-14T08:20:49Z</time>
      </trkpt>
      <trkpt lat="59.255844" lon="18.101026">
        <ele>27</ele>
        <time>2020-02-14T08:20:50Z</time>
      </trkpt>
      <trkpt lat="59.255788" lon="18.101024">
        <ele>27</ele>
        <time>2020-02-14T08:20:52Z</time>
      </trkpt>
      <trkpt lat="59.255731" lon="18.101021">
        <ele>27</ele>
        <time>2020-02-14T08:20:52Z</time>
      </trkpt>
      <trkpt lat="59.255674" lon="18.101015">
        <ele>27</ele>
        <time>2020-02-14T08:20:53Z</time>
      </trkpt>
      <trkpt lat="59.255618" lon="18.101008">
        <ele>27</ele>
        <time>2020-02-14T08:20:54Z</time>
      </trkpt>
      <trkpt lat="59.255561" lon="18.100994">
        <ele>27</ele>
        <time>2020-02-14T08:20:55Z</time>
      </trkpt>
      <trkpt lat="59.255504" lon="18.100978">
        <ele>27</ele>
        <time>2020-02-14T08:20:56Z</time>
      </trkpt>
      <trkpt lat="59.255446" lon="18.100962">
        <ele>27</ele>
        <time>2020-02-14T08:20:57Z</time>
      </trkpt>
      <trkpt lat="59.255388" lon="18.100945">
        <ele>27</ele>
        <time>2020-02-14T08:20:58Z</time>
      </trkpt>
      <trkpt lat="59.255329" lon="18.10093">
        <ele>27</ele>
        <time>2020-02-14T08:20:59Z</time>
      </trkpt>
      <trkpt lat="59.255271" lon="18.100916">
        <ele>27</ele>
        <time>2020-02-14T08:21:01Z</time>
      </trkpt>
      <trkpt lat="59.255215" lon="18.100903">
        <ele>27</ele>
        <time>2020-02-14T08:21:01Z</time>
      </trkpt>
      <trkpt lat="59.255158" lon="18.100893">
        <ele>27</ele>
        <time>2020-02-14T08:21:02Z</time>
      </trkpt>
      <trkpt lat="59.255102" lon="18.100881">
        <ele>27</ele>
        <time>2020-02-14T08:21:03Z</time>
      </trkpt>
      <trkpt lat="59.255046" lon="18.100865">
        <ele>27</ele>
        <time>2020-02-14T08:21:04Z</time>
      </trkpt>
      <trkpt lat="59.254991" lon="18.100851">
        <ele>28</ele>
        <time>2020-02-14T08:21:05Z</time>
      </trkpt>
      <trkpt lat="59.254935" lon="18.100838">
        <ele>28</ele>
        <time>2020-02-14T08:21:06Z</time>
      </trkpt>
      <trkpt lat="59.25488" lon="18.100824">
        <ele>27</ele>
        <time>2020-02-14T08:21:07Z</time>
      </trkpt>
      <trkpt lat="59.254825" lon="18.100807">
        <ele>27</ele>
        <time>2020-02-14T08:21:08Z</time>
      </trkpt>
      <trkpt lat="59.254771" lon="18.10079">
        <ele>27</ele>
        <time>2020-02-14T08:21:10Z</time>
      </trkpt>
      <trkpt lat="59.254719" lon="18.100773">
        <ele>27</ele>
        <time>2020-02-14T08:21:10Z</time>
      </trkpt>
      <trkpt lat="59.254667" lon="18.100754">
        <ele>27</ele>
        <time>2020-02-14T08:21:11Z</time>
      </trkpt>
      <trkpt lat="59.254615" lon="18.100733">
        <ele>27</ele>
        <time>2020-02-14T08:21:12Z</time>
      </trkpt>
      <trkpt lat="59.254565" lon="18.100714">
        <ele>27</ele>
        <time>2020-02-14T08:21:13Z</time>
      </trkpt>
      <trkpt lat="59.254515" lon="18.100696">
        <ele>27</ele>
        <time>2020-02-14T08:21:14Z</time>
      </trkpt>
      <trkpt lat="59.254464" lon="18.100676">
        <ele>27</ele>
        <time>2020-02-14T08:21:15Z</time>
      </trkpt>
      <trkpt lat="59.254414" lon="18.10065">
        <ele>27</ele>
        <time>2020-02-14T08:21:16Z</time>
      </trkpt>
      <trkpt lat="59.254364" lon="18.100628">
        <ele>27</ele>
        <time>2020-02-14T08:21:17Z</time>
      </trkpt>
      <trkpt lat="59.254316" lon="18.100612">
        <ele>27</ele>
        <time>2020-02-14T08:21:19Z</time>
      </trkpt>
      <trkpt lat="59.25427" lon="18.1006">
        <ele>27</ele>
        <time>2020-02-14T08:21:19Z</time>
      </trkpt>
      <trkpt lat="59.254226" lon="18.1006">
        <ele>27</ele>
        <time>2020-02-14T08:21:20Z</time>
      </trkpt>
      <trkpt lat="59.254172" lon="18.100599">
        <ele>27</ele>
        <time>2020-02-14T08:21:21Z</time>
      </trkpt>
      <trkpt lat="59.254117" lon="18.100602">
        <ele>27</ele>
        <time>2020-02-14T08:21:22Z</time>
      </trkpt>
      <trkpt lat="59.254062" lon="18.100612">
        <ele>27</ele>
        <time>2020-02-14T08:21:23Z</time>
      </trkpt>
      <trkpt lat="59.254008" lon="18.100618">
        <ele>27</ele>
        <time>2020-02-14T08:21:24Z</time>
      </trkpt>
      <trkpt lat="59.253955" lon="18.100613">
        <ele>27</ele>
        <time>2020-02-14T08:21:25Z</time>
      </trkpt>
      <trkpt lat="59.253901" lon="18.100596">
        <ele>27</ele>
        <time>2020-02-14T08:21:26Z</time>
      </trkpt>
      <trkpt lat="59.25385" lon="18.100575">
        <ele>27</ele>
        <time>2020-02-14T08:21:27Z</time>
      </trkpt>
      <trkpt lat="59.253796" lon="18.100553">
        <ele>27</ele>
        <time>2020-02-14T08:21:29Z</time>
      </trkpt>
      <trkpt lat="59.25374" lon="18.10053">
        <ele>27</ele>
        <time>2020-02-14T08:21:29Z</time>
      </trkpt>
      <trkpt lat="59.253683" lon="18.100503">
        <ele>27</ele>
        <time>2020-02-14T08:21:30Z</time>
      </trkpt>
      <trkpt lat="59.253628" lon="18.100475">
        <ele>27</ele>
        <time>2020-02-14T08:21:31Z</time>
      </trkpt>
      <trkpt lat="59.253572" lon="18.100445">
        <ele>27</ele>
        <time>2020-02-14T08:21:32Z</time>
      </trkpt>
      <trkpt lat="59.253514" lon="18.100411">
        <ele>27</ele>
        <time>2020-02-14T08:21:33Z</time>
      </trkpt>
      <trkpt lat="59.253457" lon="18.100374">
        <ele>26</ele>
        <time>2020-02-14T08:21:34Z</time>
      </trkpt>
      <trkpt lat="59.253402" lon="18.100333">
        <ele>26</ele>
        <time>2020-02-14T08:21:35Z</time>
      </trkpt>
      <trkpt lat="59.253346" lon="18.10029">
        <ele>26</ele>
        <time>2020-02-14T08:21:37Z</time>
      </trkpt>
      <trkpt lat="59.253294" lon="18.100248">
        <ele>26</ele>
        <time>2020-02-14T08:21:37Z</time>
      </trkpt>
      <trkpt lat="59.25324" lon="18.100211">
        <ele>25</ele>
        <time>2020-02-14T08:21:38Z</time>
      </trkpt>
      <trkpt lat="59.253185" lon="18.100182">
        <ele>25</ele>
        <time>2020-02-14T08:21:39Z</time>
      </trkpt>
      <trkpt lat="59.253128" lon="18.100163">
        <ele>25</ele>
        <time>2020-02-14T08:21:40Z</time>
      </trkpt>
      <trkpt lat="59.25307" lon="18.100154">
        <ele>25</ele>
        <time>2020-02-14T08:21:41Z</time>
      </trkpt>
      <trkpt lat="59.25301" lon="18.100155">
        <ele>25</ele>
        <time>2020-02-14T08:21:42Z</time>
      </trkpt>
      <trkpt lat="59.252951" lon="18.100161">
        <ele>25</ele>
        <time>2020-02-14T08:21:43Z</time>
      </trkpt>
      <trkpt lat="59.252892" lon="18.10017">
        <ele>25</ele>
        <time>2020-02-14T08:21:44Z</time>
      </trkpt>
      <trkpt lat="59.252834" lon="18.100181">
        <ele>25</ele>
        <time>2020-02-14T08:21:46Z</time>
      </trkpt>
      <trkpt lat="59.252775" lon="18.100195">
        <ele>25</ele>
        <time>2020-02-14T08:21:46Z</time>
      </trkpt>
      <trkpt lat="59.252718" lon="18.100212">
        <ele>25</ele>
        <time>2020-02-14T08:21:47Z</time>
      </trkpt>
      <trkpt lat="59.252661" lon="18.100229">
        <ele>25</ele>
        <time>2020-02-14T08:21:48Z</time>
      </trkpt>
      <trkpt lat="59.252605" lon="18.100249">
        <ele>25</ele>
        <time>2020-02-14T08:21:49Z</time>
      </trkpt>
      <trkpt lat="59.25255" lon="18.100273">
        <ele>25</ele>
        <time>2020-02-14T08:21:50Z</time>
      </trkpt>
      <trkpt lat="59.252496" lon="18.100298">
        <ele>25</ele>
        <time>2020-02-14T08:21:51Z</time>
      </trkpt>
      <trkpt lat="59.252444" lon="18.100327">
        <ele>25</ele>
        <time>2020-02-14T08:21:52Z</time>
      </trkpt>
      <trkpt lat="59.252393" lon="18.100356">
        <ele>25</ele>
        <time>2020-02-14T08:21:53Z</time>
      </trkpt>
      <trkpt lat="59.252345" lon="18.100385">
        <ele>25</ele>
        <time>2020-02-14T08:21:55Z</time>
      </trkpt>
      <trkpt lat="59.252298" lon="18.100411">
        <ele>25</ele>
        <time>2020-02-14T08:21:55Z</time>
      </trkpt>
      <trkpt lat="59.252253" lon="18.100437">
        <ele>25</ele>
        <time>2020-02-14T08:21:56Z</time>
      </trkpt>
      <trkpt lat="59.252209" lon="18.100465">
        <ele>25</ele>
        <time>2020-02-14T08:21:57Z</time>
      </trkpt>
      <trkpt lat="59.252168" lon="18.100492">
        <ele>25</ele>
        <time>2020-02-14T08:21:58Z</time>
      </trkpt>
      <trkpt lat="59.252128" lon="18.100518">
        <ele>25</ele>
        <time>2020-02-14T08:21:59Z</time>
      </trkpt>
      <trkpt lat="59.252088" lon="18.100544">
        <ele>26</ele>
        <time>2020-02-14T08:22:00Z</time>
      </trkpt>
      <trkpt lat="59.252049" lon="18.100568">
        <ele>25</ele>
        <time>2020-02-14T08:22:01Z</time>
      </trkpt>
      <trkpt lat="59.25201" lon="18.100592">
        <ele>25</ele>
        <time>2020-02-14T08:22:02Z</time>
      </trkpt>
      <trkpt lat="59.251972" lon="18.100615">
        <ele>26</ele>
        <time>2020-02-14T08:22:03Z</time>
      </trkpt>
      <trkpt lat="59.251934" lon="18.100639">
        <ele>26</ele>
        <time>2020-02-14T08:22:04Z</time>
      </trkpt>
      <trkpt lat="59.251898" lon="18.100662">
        <ele>26</ele>
        <time>2020-02-14T08:22:05Z</time>
      </trkpt>
      <trkpt lat="59.251863" lon="18.100685">
        <ele>26</ele>
        <time>2020-02-14T08:22:07Z</time>
      </trkpt>
      <trkpt lat="59.251828" lon="18.10071">
        <ele>26</ele>
        <time>2020-02-14T08:22:07Z</time>
      </trkpt>
      <trkpt lat="59.251793" lon="18.100733">
        <ele>26</ele>
        <time>2020-02-14T08:22:08Z</time>
      </trkpt>
      <trkpt lat="59.251758" lon="18.100755">
        <ele>26</ele>
        <time>2020-02-14T08:22:09Z</time>
      </trkpt>
      <trkpt lat="59.251723" lon="18.10078">
        <ele>26</ele>
        <time>2020-02-14T08:22:10Z</time>
      </trkpt>
      <trkpt lat="59.251687" lon="18.100804">
        <ele>26</ele>
        <time>2020-02-14T08:22:11Z</time>
      </trkpt>
      <trkpt lat="59.25165" lon="18.100826">
        <ele>27</ele>
        <time>2020-02-14T08:22:12Z</time>
      </trkpt>
      <trkpt lat="59.251611" lon="18.100847">
        <ele>27</ele>
        <time>2020-02-14T08:22:13Z</time>
      </trkpt>
      <trkpt lat="59.251574" lon="18.100869">
        <ele>27</ele>
        <time>2020-02-14T08:22:14Z</time>
      </trkpt>
      <trkpt lat="59.251536" lon="18.100891">
        <ele>27</ele>
        <time>2020-02-14T08:22:15Z</time>
      </trkpt>
      <trkpt lat="59.251499" lon="18.100913">
        <ele>27</ele>
        <time>2020-02-14T08:22:16Z</time>
      </trkpt>
      <trkpt lat="59.251462" lon="18.100934">
        <ele>27</ele>
        <time>2020-02-14T08:22:17Z</time>
      </trkpt>
      <trkpt lat="59.251424" lon="18.10095">
        <ele>27</ele>
        <time>2020-02-14T08:22:18Z</time>
      </trkpt>
      <trkpt lat="59.251385" lon="18.100957">
        <ele>27</ele>
        <time>2020-02-14T08:22:19Z</time>
      </trkpt>
      <trkpt lat="59.251345" lon="18.100956">
        <ele>27</ele>
        <time>2020-02-14T08:22:20Z</time>
      </trkpt>
      <trkpt lat="59.251308" lon="18.100945">
        <ele>28</ele>
        <time>2020-02-14T08:22:21Z</time>
      </trkpt>
      <trkpt lat="59.251272" lon="18.100926">
        <ele>28</ele>
        <time>2020-02-14T08:22:22Z</time>
      </trkpt>
      <trkpt lat="59.251235" lon="18.100901">
        <ele>28</ele>
        <time>2020-02-14T08:22:23Z</time>
      </trkpt>
      <trkpt lat="59.251198" lon="18.100875">
        <ele>28</ele>
        <time>2020-02-14T08:22:24Z</time>
      </trkpt>
      <trkpt lat="59.251162" lon="18.100849">
        <ele>29</ele>
        <time>2020-02-14T08:22:25Z</time>
      </trkpt>
      <trkpt lat="59.251125" lon="18.100823">
        <ele>29</ele>
        <time>2020-02-14T08:22:26Z</time>
      </trkpt>
      <trkpt lat="59.25109" lon="18.100795">
        <ele>29</ele>
        <time>2020-02-14T08:22:27Z</time>
      </trkpt>
      <trkpt lat="59.251057" lon="18.100765">
        <ele>29</ele>
        <time>2020-02-14T08:22:28Z</time>
      </trkpt>
      <trkpt lat="59.251024" lon="18.100731">
        <ele>29</ele>
        <time>2020-02-14T08:22:29Z</time>
      </trkpt>
      <trkpt lat="59.250992" lon="18.100696">
        <ele>30</ele>
        <time>2020-02-14T08:22:30Z</time>
      </trkpt>
      <trkpt lat="59.250961" lon="18.100661">
        <ele>30</ele>
        <time>2020-02-14T08:22:31Z</time>
      </trkpt>
      <trkpt lat="59.250931" lon="18.100624">
        <ele>30</ele>
        <time>2020-02-14T08:22:33Z</time>
      </trkpt>
      <trkpt lat="59.250902" lon="18.100582">
        <ele>30</ele>
        <time>2020-02-14T08:22:33Z</time>
      </trkpt>
      <trkpt lat="59.250875" lon="18.100536">
        <ele>30</ele>
        <time>2020-02-14T08:22:34Z</time>
      </trkpt>
      <trkpt lat="59.25085" lon="18.100487">
        <ele>30</ele>
        <time>2020-02-14T08:22:35Z</time>
      </trkpt>
      <trkpt lat="59.250826" lon="18.100436">
        <ele>30</ele>
        <time>2020-02-14T08:22:36Z</time>
      </trkpt>
      <trkpt lat="59.250802" lon="18.100383">
        <ele>30</ele>
        <time>2020-02-14T08:22:37Z</time>
      </trkpt>
      <trkpt lat="59.250781" lon="18.100329">
        <ele>30</ele>
        <time>2020-02-14T08:22:38Z</time>
      </trkpt>
      <trkpt lat="59.250759" lon="18.100275">
        <ele>31</ele>
        <time>2020-02-14T08:22:39Z</time>
      </trkpt>
      <trkpt lat="59.250739" lon="18.100222">
        <ele>31</ele>
        <time>2020-02-14T08:22:40Z</time>
      </trkpt>
      <trkpt lat="59.250717" lon="18.100169">
        <ele>31</ele>
        <time>2020-02-14T08:22:41Z</time>
      </trkpt>
      <trkpt lat="59.25069" lon="18.100118">
        <ele>31</ele>
        <time>2020-02-14T08:22:42Z</time>
      </trkpt>
      <trkpt lat="59.250661" lon="18.100071">
        <ele>30</ele>
        <time>2020-02-14T08:22:43Z</time>
      </trkpt>
      <trkpt lat="59.250634" lon="18.100025">
        <ele>30</ele>
        <time>2020-02-14T08:22:44Z</time>
      </trkpt>
      <trkpt lat="59.250604" lon="18.099977">
        <ele>30</ele>
        <time>2020-02-14T08:22:45Z</time>
      </trkpt>
      <trkpt lat="59.250573" lon="18.099932">
        <ele>30</ele>
        <time>2020-02-14T08:22:47Z</time>
      </trkpt>
      <trkpt lat="59.250539" lon="18.09989">
        <ele>30</ele>
        <time>2020-02-14T08:22:47Z</time>
      </trkpt>
      <trkpt lat="59.250503" lon="18.099848">
        <ele>30</ele>
        <time>2020-02-14T08:22:48Z</time>
      </trkpt>
      <trkpt lat="59.250461" lon="18.09981">
        <ele>30</ele>
        <time>2020-02-14T08:22:49Z</time>
      </trkpt>
      <trkpt lat="59.250415" lon="18.099777">
        <ele>29</ele>
        <time>2020-02-14T08:22:50Z</time>
      </trkpt>
      <trkpt lat="59.250366" lon="18.099748">
        <ele>29</ele>
        <time>2020-02-14T08:22:51Z</time>
      </trkpt>
      <trkpt lat="59.250313" lon="18.099722">
        <ele>29</ele>
        <time>2020-02-14T08:22:52Z</time>
      </trkpt>
      <trkpt lat="59.250261" lon="18.099698">
        <ele>29</ele>
        <time>2020-02-14T08:22:53Z</time>
      </trkpt>
      <trkpt lat="59.250211" lon="18.09968">
        <ele>29</ele>
        <time>2020-02-14T08:22:54Z</time>
      </trkpt>
      <trkpt lat="59.250159" lon="18.099661">
        <ele>29</ele>
        <time>2020-02-14T08:22:55Z</time>
      </trkpt>
      <trkpt lat="59.250106" lon="18.099639">
        <ele>29</ele>
        <time>2020-02-14T08:22:57Z</time>
      </trkpt>
      <trkpt lat="59.250052" lon="18.099617">
        <ele>29</ele>
        <time>2020-02-14T08:22:57Z</time>
      </trkpt>
      <trkpt lat="59.249996" lon="18.099595">
        <ele>29</ele>
        <time>2020-02-14T08:22:58Z</time>
      </trkpt>
      <trkpt lat="59.249937" lon="18.099567">
        <ele>29</ele>
        <time>2020-02-14T08:22:59Z</time>
      </trkpt>
      <trkpt lat="59.249877" lon="18.09954">
        <ele>29</ele>
        <time>2020-02-14T08:23:00Z</time>
      </trkpt>
      <trkpt lat="59.249818" lon="18.099516">
        <ele>29</ele>
        <time>2020-02-14T08:23:01Z</time>
      </trkpt>
      <trkpt lat="59.249757" lon="18.099497">
        <ele>29</ele>
        <time>2020-02-14T08:23:02Z</time>
      </trkpt>
      <trkpt lat="59.249694" lon="18.099484">
        <ele>29</ele>
        <time>2020-02-14T08:23:03Z</time>
      </trkpt>
      <trkpt lat="59.249631" lon="18.099478">
        <ele>29</ele>
        <time>2020-02-14T08:23:05Z</time>
      </trkpt>
      <trkpt lat="59.249569" lon="18.099483">
        <ele>29</ele>
        <time>2020-02-14T08:23:05Z</time>
      </trkpt>
      <trkpt lat="59.249511" lon="18.099498">
        <ele>29</ele>
        <time>2020-02-14T08:23:06Z</time>
      </trkpt>
      <trkpt lat="59.249456" lon="18.099518">
        <ele>29</ele>
        <time>2020-02-14T08:23:07Z</time>
      </trkpt>
      <trkpt lat="59.249404" lon="18.09954">
        <ele>29</ele>
        <time>2020-02-14T08:23:08Z</time>
      </trkpt>
      <trkpt lat="59.249353" lon="18.099564">
        <ele>29</ele>
        <time>2020-02-14T08:23:09Z</time>
      </trkpt>
      <trkpt lat="59.249304" lon="18.099588">
        <ele>29</ele>
        <time>2020-02-14T08:23:10Z</time>
      </trkpt>
      <trkpt lat="59.249256" lon="18.099611">
        <ele>29</ele>
        <time>2020-02-14T08:23:11Z</time>
      </trkpt>
      <trkpt lat="59.249209" lon="18.099634">
        <ele>29</ele>
        <time>2020-02-14T08:23:12Z</time>
      </trkpt>
      <trkpt lat="59.249162" lon="18.099659">
        <ele>29</ele>
        <time>2020-02-14T08:23:13Z</time>
      </trkpt>
      <trkpt lat="59.249116" lon="18.099685">
        <ele>29</ele>
        <time>2020-02-14T08:23:15Z</time>
      </trkpt>
      <trkpt lat="59.24907" lon="18.099712">
        <ele>29</ele>
        <time>2020-02-14T08:23:15Z</time>
      </trkpt>
      <trkpt lat="59.249026" lon="18.099742">
        <ele>29</ele>
        <time>2020-02-14T08:23:16Z</time>
      </trkpt>
      <trkpt lat="59.248982" lon="18.099777">
        <ele>29</ele>
        <time>2020-02-14T08:23:17Z</time>
      </trkpt>
      <trkpt lat="59.24894" lon="18.099816">
        <ele>29</ele>
        <time>2020-02-14T08:23:18Z</time>
      </trkpt>
      <trkpt lat="59.248898" lon="18.099857">
        <ele>30</ele>
        <time>2020-02-14T08:23:19Z</time>
      </trkpt>
      <trkpt lat="59.248856" lon="18.099899">
        <ele>30</ele>
        <time>2020-02-14T08:23:20Z</time>
      </trkpt>
      <trkpt lat="59.248816" lon="18.099944">
        <ele>30</ele>
        <time>2020-02-14T08:23:21Z</time>
      </trkpt>
      <trkpt lat="59.248778" lon="18.099993">
        <ele>30</ele>
        <time>2020-02-14T08:23:22Z</time>
      </trkpt>
      <trkpt lat="59.248742" lon="18.100047">
        <ele>30</ele>
        <time>2020-02-14T08:23:23Z</time>
      </trkpt>
      <trkpt lat="59.248709" lon="18.100104">
        <ele>31</ele>
        <time>2020-02-14T08:23:25Z</time>
      </trkpt>
      <trkpt lat="59.248674" lon="18.100166">
        <ele>31</ele>
        <time>2020-02-14T08:23:25Z</time>
      </trkpt>
      <trkpt lat="59.248634" lon="18.100227">
        <ele>31</ele>
        <time>2020-02-14T08:23:26Z</time>
      </trkpt>
      <trkpt lat="59.248594" lon="18.100291">
        <ele>31</ele>
        <time>2020-02-14T08:23:27Z</time>
      </trkpt>
      <trkpt lat="59.248553" lon="18.100352">
        <ele>31</ele>
        <time>2020-02-14T08:23:28Z</time>
      </trkpt>
      <trkpt lat="59.248512" lon="18.100408">
        <ele>31</ele>
        <time>2020-02-14T08:23:29Z</time>
      </trkpt>
      <trkpt lat="59.248465" lon="18.100462">
        <ele>31</ele>
        <time>2020-02-14T08:23:30Z</time>
      </trkpt>
      <trkpt lat="59.248417" lon="18.10051">
        <ele>31</ele>
        <time>2020-02-14T08:23:31Z</time>
      </trkpt>
      <trkpt lat="59.24837" lon="18.100542">
        <ele>31</ele>
        <time>2020-02-14T08:23:32Z</time>
      </trkpt>
      <trkpt lat="59.248327" lon="18.100572">
        <ele>31</ele>
        <time>2020-02-14T08:23:33Z</time>
      </trkpt>
      <trkpt lat="59.248288" lon="18.1006">
        <ele>31</ele>
        <time>2020-02-14T08:23:34Z</time>
      </trkpt>
      <trkpt lat="59.248252" lon="18.100629">
        <ele>31</ele>
        <time>2020-02-14T08:23:35Z</time>
      </trkpt>
      <trkpt lat="59.248218" lon="18.100663">
        <ele>31</ele>
        <time>2020-02-14T08:23:36Z</time>
      </trkpt>
      <trkpt lat="59.248183" lon="18.100703">
        <ele>31</ele>
        <time>2020-02-14T08:23:37Z</time>
      </trkpt>
      <trkpt lat="59.248152" lon="18.100744">
        <ele>31</ele>
        <time>2020-02-14T08:23:38Z</time>
      </trkpt>
      <trkpt lat="59.248121" lon="18.10079">
        <ele>31</ele>
        <time>2020-02-14T08:23:39Z</time>
      </trkpt>
      <trkpt lat="59.248088" lon="18.10084">
        <ele>31</ele>
        <time>2020-02-14T08:23:40Z</time>
      </trkpt>
      <trkpt lat="59.248059" lon="18.100897">
        <ele>31</ele>
        <time>2020-02-14T08:23:41Z</time>
      </trkpt>
      <trkpt lat="59.24803" lon="18.100959">
        <ele>31</ele>
        <time>2020-02-14T08:23:42Z</time>
      </trkpt>
      <trkpt lat="59.248004" lon="18.101022">
        <ele>31</ele>
        <time>2020-02-14T08:23:43Z</time>
      </trkpt>
      <trkpt lat="59.247978" lon="18.101084">
        <ele>30</ele>
        <time>2020-02-14T08:23:44Z</time>
      </trkpt>
      <trkpt lat="59.247952" lon="18.101146">
        <ele>31</ele>
        <time>2020-02-14T08:23:45Z</time>
      </trkpt>
      <trkpt lat="59.24793" lon="18.101208">
        <ele>31</ele>
        <time>2020-02-14T08:23:46Z</time>
      </trkpt>
      <trkpt lat="59.247907" lon="18.101271">
        <ele>31</ele>
        <time>2020-02-14T08:23:47Z</time>
      </trkpt>
      <trkpt lat="59.247883" lon="18.101335">
        <ele>31</ele>
        <time>2020-02-14T08:23:48Z</time>
      </trkpt>
      <trkpt lat="59.247858" lon="18.101402">
        <ele>31</ele>
        <time>2020-02-14T08:23:49Z</time>
      </trkpt>
      <trkpt lat="59.247833" lon="18.101467">
        <ele>31</ele>
        <time>2020-02-14T08:23:50Z</time>
      </trkpt>
      <trkpt lat="59.24781" lon="18.101534">
        <ele>32</ele>
        <time>2020-02-14T08:23:51Z</time>
      </trkpt>
      <trkpt lat="59.247787" lon="18.101601">
        <ele>32</ele>
        <time>2020-02-14T08:23:52Z</time>
      </trkpt>
      <trkpt lat="59.247767" lon="18.101671">
        <ele>32</ele>
        <time>2020-02-14T08:23:53Z</time>
      </trkpt>
      <trkpt lat="59.247744" lon="18.101739">
        <ele>32</ele>
        <time>2020-02-14T08:23:54Z</time>
      </trkpt>
      <trkpt lat="59.247726" lon="18.101809">
        <ele>32</ele>
        <time>2020-02-14T08:23:55Z</time>
      </trkpt>
      <trkpt lat="59.247713" lon="18.101881">
        <ele>32</ele>
        <time>2020-02-14T08:23:56Z</time>
      </trkpt>
      <trkpt lat="59.247701" lon="18.101955">
        <ele>33</ele>
        <time>2020-02-14T08:23:57Z</time>
      </trkpt>
      <trkpt lat="59.247692" lon="18.10203">
        <ele>33</ele>
        <time>2020-02-14T08:23:58Z</time>
      </trkpt>
      <trkpt lat="59.247674" lon="18.102103">
        <ele>33</ele>
        <time>2020-02-14T08:23:59Z</time>
      </trkpt>
      <trkpt lat="59.247659" lon="18.102177">
        <ele>33</ele>
        <time>2020-02-14T08:24:01Z</time>
      </trkpt>
      <trkpt lat="59.247644" lon="18.102256">
        <ele>33</ele>
        <time>2020-02-14T08:24:01Z</time>
      </trkpt>
      <trkpt lat="59.247629" lon="18.102336">
        <ele>34</ele>
        <time>2020-02-14T08:24:02Z</time>
      </trkpt>
      <trkpt lat="59.247611" lon="18.102416">
        <ele>34</ele>
        <time>2020-02-14T08:24:03Z</time>
      </trkpt>
      <trkpt lat="59.247591" lon="18.102494">
        <ele>34</ele>
        <time>2020-02-14T08:24:04Z</time>
      </trkpt>
      <trkpt lat="59.247571" lon="18.102572">
        <ele>34</ele>
        <time>2020-02-14T08:24:05Z</time>
      </trkpt>
      <trkpt lat="59.247552" lon="18.102652">
        <ele>34</ele>
        <time>2020-02-14T08:24:06Z</time>
      </trkpt>
      <trkpt lat="59.247532" lon="18.102732">
        <ele>34</ele>
        <time>2020-02-14T08:24:07Z</time>
      </trkpt>
      <trkpt lat="59.24751" lon="18.102812">
        <ele>33</ele>
        <time>2020-02-14T08:24:08Z</time>
      </trkpt>
      <trkpt lat="59.247485" lon="18.102894">
        <ele>33</ele>
        <time>2020-02-14T08:24:09Z</time>
      </trkpt>
      <trkpt lat="59.247455" lon="18.102976">
        <ele>33</ele>
        <time>2020-02-14T08:24:11Z</time>
      </trkpt>
      <trkpt lat="59.24742" lon="18.103056">
        <ele>33</ele>
        <time>2020-02-14T08:24:11Z</time>
      </trkpt>
      <trkpt lat="59.247382" lon="18.103136">
        <ele>33</ele>
        <time>2020-02-14T08:24:12Z</time>
      </trkpt>
      <trkpt lat="59.247343" lon="18.103216">
        <ele>33</ele>
        <time>2020-02-14T08:24:13Z</time>
      </trkpt>
      <trkpt lat="59.247297" lon="18.103302">
        <ele>33</ele>
        <time>2020-02-14T08:24:14Z</time>
      </trkpt>
      <trkpt lat="59.247249" lon="18.10339">
        <ele>33</ele>
        <time>2020-02-14T08:24:15Z</time>
      </trkpt>
      <trkpt lat="59.247199" lon="18.103478">
        <ele>33</ele>
        <time>2020-02-14T08:24:16Z</time>
      </trkpt>
      <trkpt lat="59.247149" lon="18.103572">
        <ele>33</ele>
        <time>2020-02-14T08:24:17Z</time>
      </trkpt>
      <trkpt lat="59.247102" lon="18.103684">
        <ele>33</ele>
        <time>2020-02-14T08:24:19Z</time>
      </trkpt>
      <trkpt lat="59.247057" lon="18.10381">
        <ele>33</ele>
        <time>2020-02-14T08:24:19Z</time>
      </trkpt>
      <trkpt lat="59.247018" lon="18.103946">
        <ele>32</ele>
        <time>2020-02-14T08:24:20Z</time>
      </trkpt>
      <trkpt lat="59.246989" lon="18.104094">
        <ele>32</ele>
        <time>2020-02-14T08:24:21Z</time>
      </trkpt>
      <trkpt lat="59.246974" lon="18.104242">
        <ele>32</ele>
        <time>2020-02-14T08:24:22Z</time>
      </trkpt>
      <trkpt lat="59.246967" lon="18.104384">
        <ele>32</ele>
        <time>2020-02-14T08:24:23Z</time>
      </trkpt>
      <trkpt lat="59.246962" lon="18.104518">
        <ele>32</ele>
        <time>2020-02-14T08:24:24Z</time>
      </trkpt>
      <trkpt lat="59.246952" lon="18.104654">
        <ele>32</ele>
        <time>2020-02-14T08:24:26Z</time>
      </trkpt>
      <trkpt lat="59.246947" lon="18.104778">
        <ele>32</ele>
        <time>2020-02-14T08:24:26Z</time>
      </trkpt>
      <trkpt lat="59.246925" lon="18.104872">
        <ele>32</ele>
        <time>2020-02-14T08:24:27Z</time>
      </trkpt>
      <trkpt lat="59.246888" lon="18.104942">
        <ele>32</ele>
        <time>2020-02-14T08:24:28Z</time>
      </trkpt>
      <trkpt lat="59.246844" lon="18.105006">
        <ele>32</ele>
        <time>2020-02-14T08:24:29Z</time>
      </trkpt>
      <trkpt lat="59.2468" lon="18.105068">
        <ele>32</ele>
        <time>2020-02-14T08:24:30Z</time>
      </trkpt>
      <trkpt lat="59.24676" lon="18.105118">
        <ele>32</ele>
        <time>2020-02-14T08:24:31Z</time>
      </trkpt>
      <trkpt lat="59.246721" lon="18.105166">
        <ele>32</ele>
        <time>2020-02-14T08:24:32Z</time>
      </trkpt>
      <trkpt lat="59.246682" lon="18.105214">
        <ele>31</ele>
        <time>2020-02-14T08:24:33Z</time>
      </trkpt>
      <trkpt lat="59.246643" lon="18.10526">
        <ele>31</ele>
        <time>2020-02-14T08:24:34Z</time>
      </trkpt>
      <trkpt lat="59.246603" lon="18.105308">
        <ele>30</ele>
        <time>2020-02-14T08:24:35Z</time>
      </trkpt>
      <trkpt lat="59.246563" lon="18.105352">
        <ele>30</ele>
        <time>2020-02-14T08:24:36Z</time>
      </trkpt>
      <trkpt lat="59.246523" lon="18.10538">
        <ele>30</ele>
        <time>2020-02-14T08:24:37Z</time>
      </trkpt>
      <trkpt lat="59.246482" lon="18.105394">
        <ele>30</ele>
        <time>2020-02-14T08:24:38Z</time>
      </trkpt>
      <trkpt lat="59.246442" lon="18.105398">
        <ele>30</ele>
        <time>2020-02-14T08:24:39Z</time>
      </trkpt>
      <trkpt lat="59.246405" lon="18.105403">
        <ele>30</ele>
        <time>2020-02-14T08:24:40Z</time>
      </trkpt>
      <trkpt lat="59.246371" lon="18.105408">
        <ele>30</ele>
        <time>2020-02-14T08:24:41Z</time>
      </trkpt>
      <trkpt lat="59.246337" lon="18.105416">
        <ele>30</ele>
        <time>2020-02-14T08:24:42Z</time>
      </trkpt>
      <trkpt lat="59.246303" lon="18.105426">
        <ele>30</ele>
        <time>2020-02-14T08:24:43Z</time>
      </trkpt>
      <trkpt lat="59.246266" lon="18.10544">
        <ele>30</ele>
        <time>2020-02-14T08:24:44Z</time>
      </trkpt>
      <trkpt lat="59.246228" lon="18.105458">
        <ele>30</ele>
        <time>2020-02-14T08:24:45Z</time>
      </trkpt>
      <trkpt lat="59.246191" lon="18.10548">
        <ele>30</ele>
        <time>2020-02-14T08:24:46Z</time>
      </trkpt>
      <trkpt lat="59.246157" lon="18.105512">
        <ele>30</ele>
        <time>2020-02-14T08:24:48Z</time>
      </trkpt>
      <trkpt lat="59.246125" lon="18.10555">
        <ele>30</ele>
        <time>2020-02-14T08:24:48Z</time>
      </trkpt>
      <trkpt lat="59.246095" lon="18.105593">
        <ele>30</ele>
        <time>2020-02-14T08:24:49Z</time>
      </trkpt>
      <trkpt lat="59.246063" lon="18.105636">
        <ele>31</ele>
        <time>2020-02-14T08:24:50Z</time>
      </trkpt>
      <trkpt lat="59.246033" lon="18.10568">
        <ele>31</ele>
        <time>2020-02-14T08:24:51Z</time>
      </trkpt>
      <trkpt lat="59.246003" lon="18.105724">
        <ele>31</ele>
        <time>2020-02-14T08:24:52Z</time>
      </trkpt>
      <trkpt lat="59.245972" lon="18.10577">
        <ele>31</ele>
        <time>2020-02-14T08:24:53Z</time>
      </trkpt>
      <trkpt lat="59.245942" lon="18.105816">
        <ele>31</ele>
        <time>2020-02-14T08:24:54Z</time>
      </trkpt>
      <trkpt lat="59.245914" lon="18.105866">
        <ele>31</ele>
        <time>2020-02-14T08:24:55Z</time>
      </trkpt>
      <trkpt lat="59.245887" lon="18.105914">
        <ele>31</ele>
        <time>2020-02-14T08:24:56Z</time>
      </trkpt>
      <trkpt lat="59.245858" lon="18.105964">
        <ele>31</ele>
        <time>2020-02-14T08:24:57Z</time>
      </trkpt>
      <trkpt lat="59.245827" lon="18.106012">
        <ele>31</ele>
        <time>2020-02-14T08:24:58Z</time>
      </trkpt>
      <trkpt lat="59.245794" lon="18.106058">
        <ele>31</ele>
        <time>2020-02-14T08:24:59Z</time>
      </trkpt>
      <trkpt lat="59.24576" lon="18.106104">
        <ele>31</ele>
        <time>2020-02-14T08:25:00Z</time>
      </trkpt>
      <trkpt lat="59.245729" lon="18.106145">
        <ele>31</ele>
        <time>2020-02-14T08:25:01Z</time>
      </trkpt>
      <trkpt lat="59.2457" lon="18.106185">
        <ele>31</ele>
        <time>2020-02-14T08:25:02Z</time>
      </trkpt>
      <trkpt lat="59.245671" lon="18.106229">
        <ele>31</ele>
        <time>2020-02-14T08:25:03Z</time>
      </trkpt>
      <trkpt lat="59.245642" lon="18.106271">
        <ele>31</ele>
        <time>2020-02-14T08:25:04Z</time>
      </trkpt>
      <trkpt lat="59.245612" lon="18.106312">
        <ele>31</ele>
        <time>2020-02-14T08:25:05Z</time>
      </trkpt>
      <trkpt lat="59.245583" lon="18.106354">
        <ele>31</ele>
        <time>2020-02-14T08:25:06Z</time>
      </trkpt>
      <trkpt lat="59.245554" lon="18.106397">
        <ele>32</ele>
        <time>2020-02-14T08:25:07Z</time>
      </trkpt>
      <trkpt lat="59.245527" lon="18.106443">
        <ele>31</ele>
        <time>2020-02-14T08:25:08Z</time>
      </trkpt>
      <trkpt lat="59.245498" lon="18.106495">
        <ele>31</ele>
        <time>2020-02-14T08:25:09Z</time>
      </trkpt>
      <trkpt lat="59.245474" lon="18.106548">
        <ele>31</ele>
        <time>2020-02-14T08:25:10Z</time>
      </trkpt>
      <trkpt lat="59.245449" lon="18.106599">
        <ele>31</ele>
        <time>2020-02-14T08:25:11Z</time>
      </trkpt>
      <trkpt lat="59.245423" lon="18.106646">
        <ele>31</ele>
        <time>2020-02-14T08:25:12Z</time>
      </trkpt>
      <trkpt lat="59.245396" lon="18.106692">
        <ele>32</ele>
        <time>2020-02-14T08:25:13Z</time>
      </trkpt>
      <trkpt lat="59.245372" lon="18.106737">
        <ele>32</ele>
        <time>2020-02-14T08:25:14Z</time>
      </trkpt>
      <trkpt lat="59.245346" lon="18.106782">
        <ele>32</ele>
        <time>2020-02-14T08:25:15Z</time>
      </trkpt>
      <trkpt lat="59.245321" lon="18.106826">
        <ele>32</ele>
        <time>2020-02-14T08:25:16Z</time>
      </trkpt>
      <trkpt lat="59.245294" lon="18.10687">
        <ele>32</ele>
        <time>2020-02-14T08:25:17Z</time>
      </trkpt>
      <trkpt lat="59.245266" lon="18.106917">
        <ele>32</ele>
        <time>2020-02-14T08:25:18Z</time>
      </trkpt>
      <trkpt lat="59.24524" lon="18.106967">
        <ele>32</ele>
        <time>2020-02-14T08:25:19Z</time>
      </trkpt>
      <trkpt lat="59.245216" lon="18.107015">
        <ele>32</ele>
        <time>2020-02-14T08:25:20Z</time>
      </trkpt>
      <trkpt lat="59.24519" lon="18.107064">
        <ele>32</ele>
        <time>2020-02-14T08:25:21Z</time>
      </trkpt>
      <trkpt lat="59.245165" lon="18.107112">
        <ele>32</ele>
        <time>2020-02-14T08:25:22Z</time>
      </trkpt>
      <trkpt lat="59.245141" lon="18.107158">
        <ele>32</ele>
        <time>2020-02-14T08:25:23Z</time>
      </trkpt>
      <trkpt lat="59.245117" lon="18.107205">
        <ele>32</ele>
        <time>2020-02-14T08:25:24Z</time>
      </trkpt>
      <trkpt lat="59.245093" lon="18.107252">
        <ele>32</ele>
        <time>2020-02-14T08:25:25Z</time>
      </trkpt>
      <trkpt lat="59.245066" lon="18.107296">
        <ele>32</ele>
        <time>2020-02-14T08:25:26Z</time>
      </trkpt>
      <trkpt lat="59.245038" lon="18.10734">
        <ele>32</ele>
        <time>2020-02-14T08:25:27Z</time>
      </trkpt>
      <trkpt lat="59.245008" lon="18.107383">
        <ele>33</ele>
        <time>2020-02-14T08:25:28Z</time>
      </trkpt>
      <trkpt lat="59.244981" lon="18.107426">
        <ele>33</ele>
        <time>2020-02-14T08:25:29Z</time>
      </trkpt>
      <trkpt lat="59.244953" lon="18.107468">
        <ele>33</ele>
        <time>2020-02-14T08:25:30Z</time>
      </trkpt>
      <trkpt lat="59.244925" lon="18.107511">
        <ele>33</ele>
        <time>2020-02-14T08:25:31Z</time>
      </trkpt>
      <trkpt lat="59.244895" lon="18.107557">
        <ele>33</ele>
        <time>2020-02-14T08:25:32Z</time>
      </trkpt>
      <trkpt lat="59.244866" lon="18.107605">
        <ele>33</ele>
        <time>2020-02-14T08:25:33Z</time>
      </trkpt>
      <trkpt lat="59.244836" lon="18.107656">
        <ele>33</ele>
        <time>2020-02-14T08:25:34Z</time>
      </trkpt>
      <trkpt lat="59.244808" lon="18.10771">
        <ele>34</ele>
        <time>2020-02-14T08:25:35Z</time>
      </trkpt>
      <trkpt lat="59.244781" lon="18.107767">
        <ele>34</ele>
        <time>2020-02-14T08:25:36Z</time>
      </trkpt>
      <trkpt lat="59.244752" lon="18.107824">
        <ele>33</ele>
        <time>2020-02-14T08:25:37Z</time>
      </trkpt>
      <trkpt lat="59.244723" lon="18.107881">
        <ele>33</ele>
        <time>2020-02-14T08:25:38Z</time>
      </trkpt>
      <trkpt lat="59.244691" lon="18.107939">
        <ele>34</ele>
        <time>2020-02-14T08:25:39Z</time>
      </trkpt>
      <trkpt lat="59.244654" lon="18.107996">
        <ele>34</ele>
        <time>2020-02-14T08:25:40Z</time>
      </trkpt>
      <trkpt lat="59.244617" lon="18.108055">
        <ele>34</ele>
        <time>2020-02-14T08:25:42Z</time>
      </trkpt>
      <trkpt lat="59.244583" lon="18.108117">
        <ele>34</ele>
        <time>2020-02-14T08:25:42Z</time>
      </trkpt>
      <trkpt lat="59.244548" lon="18.108179">
        <ele>34</ele>
        <time>2020-02-14T08:25:43Z</time>
      </trkpt>
      <trkpt lat="59.244513" lon="18.108244">
        <ele>34</ele>
        <time>2020-02-14T08:25:44Z</time>
      </trkpt>
      <trkpt lat="59.244478" lon="18.108311">
        <ele>34</ele>
        <time>2020-02-14T08:25:45Z</time>
      </trkpt>
      <trkpt lat="59.244443" lon="18.10838">
        <ele>34</ele>
        <time>2020-02-14T08:25:46Z</time>
      </trkpt>
      <trkpt lat="59.244405" lon="18.108446">
        <ele>34</ele>
        <time>2020-02-14T08:25:47Z</time>
      </trkpt>
      <trkpt lat="59.244367" lon="18.108513">
        <ele>34</ele>
        <time>2020-02-14T08:25:48Z</time>
      </trkpt>
      <trkpt lat="59.244332" lon="18.108588">
        <ele>34</ele>
        <time>2020-02-14T08:25:49Z</time>
      </trkpt>
      <trkpt lat="59.244299" lon="18.108664">
        <ele>33</ele>
        <time>2020-02-14T08:25:50Z</time>
      </trkpt>
      <trkpt lat="59.244265" lon="18.108744">
        <ele>33</ele>
        <time>2020-02-14T08:25:52Z</time>
      </trkpt>
      <trkpt lat="59.244231" lon="18.108821">
        <ele>33</ele>
        <time>2020-02-14T08:25:52Z</time>
      </trkpt>
      <trkpt lat="59.244195" lon="18.108899">
        <ele>33</ele>
        <time>2020-02-14T08:25:53Z</time>
      </trkpt>
      <trkpt lat="59.244159" lon="18.108983">
        <ele>32</ele>
        <time>2020-02-14T08:25:54Z</time>
      </trkpt>
      <trkpt lat="59.244124" lon="18.109069">
        <ele>32</ele>
        <time>2020-02-14T08:25:55Z</time>
      </trkpt>
      <trkpt lat="59.244092" lon="18.109158">
        <ele>32</ele>
        <time>2020-02-14T08:25:56Z</time>
      </trkpt>
      <trkpt lat="59.24406" lon="18.10925">
        <ele>32</ele>
        <time>2020-02-14T08:25:57Z</time>
      </trkpt>
      <trkpt lat="59.244033" lon="18.109348">
        <ele>32</ele>
        <time>2020-02-14T08:25:58Z</time>
      </trkpt>
      <trkpt lat="59.244009" lon="18.109451">
        <ele>32</ele>
        <time>2020-02-14T08:25:59Z</time>
      </trkpt>
      <trkpt lat="59.243989" lon="18.109558">
        <ele>32</ele>
        <time>2020-02-14T08:26:01Z</time>
      </trkpt>
      <trkpt lat="59.243972" lon="18.109667">
        <ele>32</ele>
        <time>2020-02-14T08:26:01Z</time>
      </trkpt>
      <trkpt lat="59.243957" lon="18.109778">
        <ele>32</ele>
        <time>2020-02-14T08:26:02Z</time>
      </trkpt>
      <trkpt lat="59.243946" lon="18.109892">
        <ele>32</ele>
        <time>2020-02-14T08:26:03Z</time>
      </trkpt>
      <trkpt lat="59.243937" lon="18.110007">
        <ele>32</ele>
        <time>2020-02-14T08:26:04Z</time>
      </trkpt>
      <trkpt lat="59.243929" lon="18.110124">
        <ele>32</ele>
        <time>2020-02-14T08:26:05Z</time>
      </trkpt>
      <trkpt lat="59.243925" lon="18.110242">
        <ele>32</ele>
        <time>2020-02-14T08:26:06Z</time>
      </trkpt>
      <trkpt lat="59.243925" lon="18.110362">
        <ele>32</ele>
        <time>2020-02-14T08:26:07Z</time>
      </trkpt>
      <trkpt lat="59.243927" lon="18.110481">
        <ele>32</ele>
        <time>2020-02-14T08:26:09Z</time>
      </trkpt>
      <trkpt lat="59.243927" lon="18.110604">
        <ele>32</ele>
        <time>2020-02-14T08:26:09Z</time>
      </trkpt>
      <trkpt lat="59.243927" lon="18.110728">
        <ele>32</ele>
        <time>2020-02-14T08:26:10Z</time>
      </trkpt>
      <trkpt lat="59.243926" lon="18.110856">
        <ele>32</ele>
        <time>2020-02-14T08:26:11Z</time>
      </trkpt>
      <trkpt lat="59.243926" lon="18.110984">
        <ele>31</ele>
        <time>2020-02-14T08:26:12Z</time>
      </trkpt>
      <trkpt lat="59.243926" lon="18.111118">
        <ele>31</ele>
        <time>2020-02-14T08:26:13Z</time>
      </trkpt>
      <trkpt lat="59.243925" lon="18.111254">
        <ele>31</ele>
        <time>2020-02-14T08:26:14Z</time>
      </trkpt>
      <trkpt lat="59.243923" lon="18.111393">
        <ele>30</ele>
        <time>2020-02-14T08:26:16Z</time>
      </trkpt>
      <trkpt lat="59.24392" lon="18.111533">
        <ele>30</ele>
        <time>2020-02-14T08:26:16Z</time>
      </trkpt>
      <trkpt lat="59.243916" lon="18.111674">
        <ele>30</ele>
        <time>2020-02-14T08:26:17Z</time>
      </trkpt>
      <trkpt lat="59.243914" lon="18.111816">
        <ele>29</ele>
        <time>2020-02-14T08:26:18Z</time>
      </trkpt>
      <trkpt lat="59.243912" lon="18.111957">
        <ele>29</ele>
        <time>2020-02-14T08:26:19Z</time>
      </trkpt>
      <trkpt lat="59.243909" lon="18.1121">
        <ele>29</ele>
        <time>2020-02-14T08:26:20Z</time>
      </trkpt>
      <trkpt lat="59.243907" lon="18.112241">
        <ele>29</ele>
        <time>2020-02-14T08:26:21Z</time>
      </trkpt>
      <trkpt lat="59.243905" lon="18.11238">
        <ele>28</ele>
        <time>2020-02-14T08:26:23Z</time>
      </trkpt>
      <trkpt lat="59.243902" lon="18.112518">
        <ele>28</ele>
        <time>2020-02-14T08:26:23Z</time>
      </trkpt>
      <trkpt lat="59.243898" lon="18.112653">
        <ele>28</ele>
        <time>2020-02-14T08:26:24Z</time>
      </trkpt>
      <trkpt lat="59.243893" lon="18.112786">
        <ele>28</ele>
        <time>2020-02-14T08:26:25Z</time>
      </trkpt>
      <trkpt lat="59.243887" lon="18.112917">
        <ele>28</ele>
        <time>2020-02-14T08:26:26Z</time>
      </trkpt>
      <trkpt lat="59.24388" lon="18.113045">
        <ele>28</ele>
        <time>2020-02-14T08:26:27Z</time>
      </trkpt>
      <trkpt lat="59.243871" lon="18.113171">
        <ele>28</ele>
        <time>2020-02-14T08:26:28Z</time>
      </trkpt>
      <trkpt lat="59.24386" lon="18.113294">
        <ele>28</ele>
        <time>2020-02-14T08:26:29Z</time>
      </trkpt>
      <trkpt lat="59.243849" lon="18.113416">
        <ele>28</ele>
        <time>2020-02-14T08:26:31Z</time>
      </trkpt>
      <trkpt lat="59.243837" lon="18.113535">
        <ele>28</ele>
        <time>2020-02-14T08:26:31Z</time>
      </trkpt>
      <trkpt lat="59.243825" lon="18.113652">
        <ele>28</ele>
        <time>2020-02-14T08:26:32Z</time>
      </trkpt>
      <trkpt lat="59.243813" lon="18.113768">
        <ele>28</ele>
        <time>2020-02-14T08:26:33Z</time>
      </trkpt>
      <trkpt lat="59.243798" lon="18.113883">
        <ele>28</ele>
        <time>2020-02-14T08:26:34Z</time>
      </trkpt>
      <trkpt lat="59.243783" lon="18.113999">
        <ele>28</ele>
        <time>2020-02-14T08:26:35Z</time>
      </trkpt>
      <trkpt lat="59.243767" lon="18.114113">
        <ele>28</ele>
        <time>2020-02-14T08:26:36Z</time>
      </trkpt>
      <trkpt lat="59.243751" lon="18.114227">
        <ele>28</ele>
        <time>2020-02-14T08:26:37Z</time>
      </trkpt>
      <trkpt lat="59.243734" lon="18.114339">
        <ele>28</ele>
        <time>2020-02-14T08:26:39Z</time>
      </trkpt>
      <trkpt lat="59.243717" lon="18.114451">
        <ele>28</ele>
        <time>2020-02-14T08:26:39Z</time>
      </trkpt>
      <trkpt lat="59.243699" lon="18.114562">
        <ele>28</ele>
        <time>2020-02-14T08:26:40Z</time>
      </trkpt>
      <trkpt lat="59.24368" lon="18.114672">
        <ele>28</ele>
        <time>2020-02-14T08:26:41Z</time>
      </trkpt>
      <trkpt lat="59.243661" lon="18.114783">
        <ele>28</ele>
        <time>2020-02-14T08:26:42Z</time>
      </trkpt>
      <trkpt lat="59.243642" lon="18.114892">
        <ele>28</ele>
        <time>2020-02-14T08:26:43Z</time>
      </trkpt>
      <trkpt lat="59.243624" lon="18.115002">
        <ele>28</ele>
        <time>2020-02-14T08:26:44Z</time>
      </trkpt>
      <trkpt lat="59.243608" lon="18.115109">
        <ele>28</ele>
        <time>2020-02-14T08:26:45Z</time>
      </trkpt>
      <trkpt lat="59.243599" lon="18.115221">
        <ele>28</ele>
        <time>2020-02-14T08:26:47Z</time>
      </trkpt>
      <trkpt lat="59.24359" lon="18.11534">
        <ele>28</ele>
        <time>2020-02-14T08:26:47Z</time>
      </trkpt>
      <trkpt lat="59.24358" lon="18.11546">
        <ele>28</ele>
        <time>2020-02-14T08:26:48Z</time>
      </trkpt>
      <trkpt lat="59.243562" lon="18.115579">
        <ele>27</ele>
        <time>2020-02-14T08:26:49Z</time>
      </trkpt>
      <trkpt lat="59.243536" lon="18.115692">
        <ele>27</ele>
        <time>2020-02-14T08:26:50Z</time>
      </trkpt>
      <trkpt lat="59.243506" lon="18.115799">
        <ele>27</ele>
        <time>2020-02-14T08:26:51Z</time>
      </trkpt>
      <trkpt lat="59.243474" lon="18.115905">
        <ele>27</ele>
        <time>2020-02-14T08:26:52Z</time>
      </trkpt>
      <trkpt lat="59.243442" lon="18.11601">
        <ele>27</ele>
        <time>2020-02-14T08:26:53Z</time>
      </trkpt>
      <trkpt lat="59.24341" lon="18.116114">
        <ele>27</ele>
        <time>2020-02-14T08:26:54Z</time>
      </trkpt>
      <trkpt lat="59.243377" lon="18.116217">
        <ele>27</ele>
        <time>2020-02-14T08:26:55Z</time>
      </trkpt>
      <trkpt lat="59.243344" lon="18.116321">
        <ele>26</ele>
        <time>2020-02-14T08:26:56Z</time>
      </trkpt>
      <trkpt lat="59.243312" lon="18.116423">
        <ele>26</ele>
        <time>2020-02-14T08:26:57Z</time>
      </trkpt>
      <trkpt lat="59.24328" lon="18.116524">
        <ele>26</ele>
        <time>2020-02-14T08:26:58Z</time>
      </trkpt>
      <trkpt lat="59.243248" lon="18.116624">
        <ele>26</ele>
        <time>2020-02-14T08:26:59Z</time>
      </trkpt>
      <trkpt lat="59.243216" lon="18.116722">
        <ele>26</ele>
        <time>2020-02-14T08:27:00Z</time>
      </trkpt>
      <trkpt lat="59.243185" lon="18.116822">
        <ele>26</ele>
        <time>2020-02-14T08:27:01Z</time>
      </trkpt>
      <trkpt lat="59.243155" lon="18.116923">
        <ele>26</ele>
        <time>2020-02-14T08:27:02Z</time>
      </trkpt>
      <trkpt lat="59.243124" lon="18.117023">
        <ele>26</ele>
        <time>2020-02-14T08:27:04Z</time>
      </trkpt>
      <trkpt lat="59.243092" lon="18.117122">
        <ele>26</ele>
        <time>2020-02-14T08:27:04Z</time>
      </trkpt>
      <trkpt lat="59.24306" lon="18.11722">
        <ele>26</ele>
        <time>2020-02-14T08:27:05Z</time>
      </trkpt>
      <trkpt lat="59.243029" lon="18.117317">
        <ele>26</ele>
        <time>2020-02-14T08:27:06Z</time>
      </trkpt>
      <trkpt lat="59.242999" lon="18.117417">
        <ele>25</ele>
        <time>2020-02-14T08:27:07Z</time>
      </trkpt>
      <trkpt lat="59.242969" lon="18.117515">
        <ele>25</ele>
        <time>2020-02-14T08:27:08Z</time>
      </trkpt>
      <trkpt lat="59.242938" lon="18.117613">
        <ele>25</ele>
        <time>2020-02-14T08:27:09Z</time>
      </trkpt>
      <trkpt lat="59.242907" lon="18.11771">
        <ele>25</ele>
        <time>2020-02-14T08:27:10Z</time>
      </trkpt>
      <trkpt lat="59.242876" lon="18.117809">
        <ele>25</ele>
        <time>2020-02-14T08:27:12Z</time>
      </trkpt>
      <trkpt lat="59.242846" lon="18.117908">
        <ele>25</ele>
        <time>2020-02-14T08:27:12Z</time>
      </trkpt>
      <trkpt lat="59.242816" lon="18.118006">
        <ele>25</ele>
        <time>2020-02-14T08:27:13Z</time>
      </trkpt>
      <trkpt lat="59.242785" lon="18.118101">
        <ele>25</ele>
        <time>2020-02-14T08:27:14Z</time>
      </trkpt>
      <trkpt lat="59.242755" lon="18.118193">
        <ele>25</ele>
        <time>2020-02-14T08:27:15Z</time>
      </trkpt>
      <trkpt lat="59.242726" lon="18.118285">
        <ele>25</ele>
        <time>2020-02-14T08:27:16Z</time>
      </trkpt>
      <trkpt lat="59.242695" lon="18.118376">
        <ele>25</ele>
        <time>2020-02-14T08:27:17Z</time>
      </trkpt>
      <trkpt lat="59.242666" lon="18.11847">
        <ele>25</ele>
        <time>2020-02-14T08:27:18Z</time>
      </trkpt>
      <trkpt lat="59.242637" lon="18.118564">
        <ele>25</ele>
        <time>2020-02-14T08:27:19Z</time>
      </trkpt>
      <trkpt lat="59.242606" lon="18.118657">
        <ele>25</ele>
        <time>2020-02-14T08:27:21Z</time>
      </trkpt>
      <trkpt lat="59.242573" lon="18.118747">
        <ele>25</ele>
        <time>2020-02-14T08:27:21Z</time>
      </trkpt>
      <trkpt lat="59.242537" lon="18.118833">
        <ele>25</ele>
        <time>2020-02-14T08:27:22Z</time>
      </trkpt>
      <trkpt lat="59.242497" lon="18.11891">
        <ele>25</ele>
        <time>2020-02-14T08:27:23Z</time>
      </trkpt>
      <trkpt lat="59.242456" lon="18.11898">
        <ele>25</ele>
        <time>2020-02-14T08:27:24Z</time>
      </trkpt>
      <trkpt lat="59.242411" lon="18.11904">
        <ele>25</ele>
        <time>2020-02-14T08:27:25Z</time>
      </trkpt>
      <trkpt lat="59.242363" lon="18.119093">
        <ele>25</ele>
        <time>2020-02-14T08:27:26Z</time>
      </trkpt>
      <trkpt lat="59.242313" lon="18.11914">
        <ele>25</ele>
        <time>2020-02-14T08:27:27Z</time>
      </trkpt>
      <trkpt lat="59.242264" lon="18.11918">
        <ele>25</ele>
        <time>2020-02-14T08:27:28Z</time>
      </trkpt>
      <trkpt lat="59.242215" lon="18.119216">
        <ele>25</ele>
        <time>2020-02-14T08:27:30Z</time>
      </trkpt>
      <trkpt lat="59.242164" lon="18.119252">
        <ele>25</ele>
        <time>2020-02-14T08:27:30Z</time>
      </trkpt>
      <trkpt lat="59.242115" lon="18.119284">
        <ele>25</ele>
        <time>2020-02-14T08:27:31Z</time>
      </trkpt>
      <trkpt lat="59.242065" lon="18.119312">
        <ele>25</ele>
        <time>2020-02-14T08:27:32Z</time>
      </trkpt>
      <trkpt lat="59.242017" lon="18.119332">
        <ele>25</ele>
        <time>2020-02-14T08:27:33Z</time>
      </trkpt>
      <trkpt lat="59.24197" lon="18.119347">
        <ele>25</ele>
        <time>2020-02-14T08:27:34Z</time>
      </trkpt>
      <trkpt lat="59.241927" lon="18.119378">
        <ele>25</ele>
        <time>2020-02-14T08:27:35Z</time>
      </trkpt>
      <trkpt lat="59.241891" lon="18.119425">
        <ele>25</ele>
        <time>2020-02-14T08:27:36Z</time>
      </trkpt>
      <trkpt lat="59.241864" lon="18.119483">
        <ele>25</ele>
        <time>2020-02-14T08:27:37Z</time>
      </trkpt>
      <trkpt lat="59.241844" lon="18.119547">
        <ele>25</ele>
        <time>2020-02-14T08:27:38Z</time>
      </trkpt>
      <trkpt lat="59.241827" lon="18.119617">
        <ele>25</ele>
        <time>2020-02-14T08:27:39Z</time>
      </trkpt>
      <trkpt lat="59.241812" lon="18.11969">
        <ele>24</ele>
        <time>2020-02-14T08:27:40Z</time>
      </trkpt>
      <trkpt lat="59.241802" lon="18.119763">
        <ele>24</ele>
        <time>2020-02-14T08:27:41Z</time>
      </trkpt>
      <trkpt lat="59.241794" lon="18.119833">
        <ele>24</ele>
        <time>2020-02-14T08:27:42Z</time>
      </trkpt>
      <trkpt lat="59.241787" lon="18.119902">
        <ele>24</ele>
        <time>2020-02-14T08:27:43Z</time>
      </trkpt>
      <trkpt lat="59.241779" lon="18.119969">
        <ele>24</ele>
        <time>2020-02-14T08:27:44Z</time>
      </trkpt>
      <trkpt lat="59.241769" lon="18.120033">
        <ele>24</ele>
        <time>2020-02-14T08:27:45Z</time>
      </trkpt>
      <trkpt lat="59.241752" lon="18.120086">
        <ele>24</ele>
        <time>2020-02-14T08:27:46Z</time>
      </trkpt>
      <trkpt lat="59.241727" lon="18.12012">
        <ele>24</ele>
        <time>2020-02-14T08:27:47Z</time>
      </trkpt>
      <trkpt lat="59.241698" lon="18.120146">
        <ele>24</ele>
        <time>2020-02-14T08:27:48Z</time>
      </trkpt>
      <trkpt lat="59.241661" lon="18.120174">
        <ele>24</ele>
        <time>2020-02-14T08:27:49Z</time>
      </trkpt>
      <trkpt lat="59.241617" lon="18.120194">
        <ele>24</ele>
        <time>2020-02-14T08:27:50Z</time>
      </trkpt>
      <trkpt lat="59.241569" lon="18.120199">
        <ele>24</ele>
        <time>2020-02-14T08:27:51Z</time>
      </trkpt>
      <trkpt lat="59.241521" lon="18.120188">
        <ele>24</ele>
        <time>2020-02-14T08:27:52Z</time>
      </trkpt>
      <trkpt lat="59.241471" lon="18.120165">
        <ele>24</ele>
        <time>2020-02-14T08:27:54Z</time>
      </trkpt>
      <trkpt lat="59.24142" lon="18.120138">
        <ele>25</ele>
        <time>2020-02-14T08:27:54Z</time>
      </trkpt>
      <trkpt lat="59.24137" lon="18.120111">
        <ele>25</ele>
        <time>2020-02-14T08:27:55Z</time>
      </trkpt>
      <trkpt lat="59.241318" lon="18.120086">
        <ele>25</ele>
        <time>2020-02-14T08:27:56Z</time>
      </trkpt>
      <trkpt lat="59.241267" lon="18.120059">
        <ele>25</ele>
        <time>2020-02-14T08:27:57Z</time>
      </trkpt>
      <trkpt lat="59.241216" lon="18.120025">
        <ele>25</ele>
        <time>2020-02-14T08:27:58Z</time>
      </trkpt>
      <trkpt lat="59.241167" lon="18.119997">
        <ele>25</ele>
        <time>2020-02-14T08:27:59Z</time>
      </trkpt>
      <trkpt lat="59.241124" lon="18.119967">
        <ele>25</ele>
        <time>2020-02-14T08:28:00Z</time>
      </trkpt>
      <trkpt lat="59.241082" lon="18.119938">
        <ele>25</ele>
        <time>2020-02-14T08:28:01Z</time>
      </trkpt>
      <trkpt lat="59.24104" lon="18.119904">
        <ele>25</ele>
        <time>2020-02-14T08:28:02Z</time>
      </trkpt>
      <trkpt lat="59.240998" lon="18.119848">
        <ele>25</ele>
        <time>2020-02-14T08:28:04Z</time>
      </trkpt>
      <trkpt lat="59.240952" lon="18.119771">
        <ele>25</ele>
        <time>2020-02-14T08:28:04Z</time>
      </trkpt>
      <trkpt lat="59.240905" lon="18.119706">
        <ele>25</ele>
        <time>2020-02-14T08:28:05Z</time>
      </trkpt>
      <trkpt lat="59.240858" lon="18.11965">
        <ele>25</ele>
        <time>2020-02-14T08:28:06Z</time>
      </trkpt>
      <trkpt lat="59.240804" lon="18.119615">
        <ele>25</ele>
        <time>2020-02-14T08:28:07Z</time>
      </trkpt>
      <trkpt lat="59.240744" lon="18.119593">
        <ele>25</ele>
        <time>2020-02-14T08:28:08Z</time>
      </trkpt>
      <trkpt lat="59.240684" lon="18.11959">
        <ele>25</ele>
        <time>2020-02-14T08:28:09Z</time>
      </trkpt>
      <trkpt lat="59.240624" lon="18.119588">
        <ele>24</ele>
        <time>2020-02-14T08:28:10Z</time>
      </trkpt>
      <trkpt lat="59.24057" lon="18.119576">
        <ele>24</ele>
        <time>2020-02-14T08:28:11Z</time>
      </trkpt>
      <trkpt lat="59.240523" lon="18.119547">
        <ele>24</ele>
        <time>2020-02-14T08:28:13Z</time>
      </trkpt>
      <trkpt lat="59.240484" lon="18.119498">
        <ele>25</ele>
        <time>2020-02-14T08:28:13Z</time>
      </trkpt>
      <trkpt lat="59.240446" lon="18.119448">
        <ele>25</ele>
        <time>2020-02-14T08:28:14Z</time>
      </trkpt>
      <trkpt lat="59.240401" lon="18.119417">
        <ele>25</ele>
        <time>2020-02-14T08:28:15Z</time>
      </trkpt>
      <trkpt lat="59.240356" lon="18.11941">
        <ele>25</ele>
        <time>2020-02-14T08:28:16Z</time>
      </trkpt>
      <trkpt lat="59.240307" lon="18.119417">
        <ele>25</ele>
        <time>2020-02-14T08:28:17Z</time>
      </trkpt>
      <trkpt lat="59.240259" lon="18.119434">
        <ele>25</ele>
        <time>2020-02-14T08:28:18Z</time>
      </trkpt>
      <trkpt lat="59.24021" lon="18.119456">
        <ele>25</ele>
        <time>2020-02-14T08:28:19Z</time>
      </trkpt>
      <trkpt lat="59.24016" lon="18.119478">
        <ele>25</ele>
        <time>2020-02-14T08:28:20Z</time>
      </trkpt>
      <trkpt lat="59.240109" lon="18.119498">
        <ele>25</ele>
        <time>2020-02-14T08:28:21Z</time>
      </trkpt>
      <trkpt lat="59.24006" lon="18.11952">
        <ele>25</ele>
        <time>2020-02-14T08:28:23Z</time>
      </trkpt>
      <trkpt lat="59.240009" lon="18.11954">
        <ele>25</ele>
        <time>2020-02-14T08:28:23Z</time>
      </trkpt>
      <trkpt lat="59.239958" lon="18.119561">
        <ele>25</ele>
        <time>2020-02-14T08:28:24Z</time>
      </trkpt>
      <trkpt lat="59.239907" lon="18.119582">
        <ele>26</ele>
        <time>2020-02-14T08:28:25Z</time>
      </trkpt>
      <trkpt lat="59.239856" lon="18.119602">
        <ele>26</ele>
        <time>2020-02-14T08:28:26Z</time>
      </trkpt>
      <trkpt lat="59.239805" lon="18.119624">
        <ele>26</ele>
        <time>2020-02-14T08:28:27Z</time>
      </trkpt>
      <trkpt lat="59.239756" lon="18.119647">
        <ele>26</ele>
        <time>2020-02-14T08:28:28Z</time>
      </trkpt>
      <trkpt lat="59.239705" lon="18.119667">
        <ele>26</ele>
        <time>2020-02-14T08:28:29Z</time>
      </trkpt>
      <trkpt lat="59.239655" lon="18.119684">
        <ele>26</ele>
        <time>2020-02-14T08:28:30Z</time>
      </trkpt>
      <trkpt lat="59.239605" lon="18.119702">
        <ele>26</ele>
        <time>2020-02-14T08:28:31Z</time>
      </trkpt>
      <trkpt lat="59.239556" lon="18.119722">
        <ele>26</ele>
        <time>2020-02-14T08:28:32Z</time>
      </trkpt>
      <trkpt lat="59.239508" lon="18.119742">
        <ele>26</ele>
        <time>2020-02-14T08:28:33Z</time>
      </trkpt>
      <trkpt lat="59.239461" lon="18.119763">
        <ele>26</ele>
        <time>2020-02-14T08:28:34Z</time>
      </trkpt>
      <trkpt lat="59.239415" lon="18.119783">
        <ele>26</ele>
        <time>2020-02-14T08:28:35Z</time>
      </trkpt>
      <trkpt lat="59.239367" lon="18.119799">
        <ele>26</ele>
        <time>2020-02-14T08:28:36Z</time>
      </trkpt>
      <trkpt lat="59.239319" lon="18.119812">
        <ele>26</ele>
        <time>2020-02-14T08:28:37Z</time>
      </trkpt>
      <trkpt lat="59.239269" lon="18.119822">
        <ele>26</ele>
        <time>2020-02-14T08:28:38Z</time>
      </trkpt>
      <trkpt lat="59.23922" lon="18.11983">
        <ele>27</ele>
        <time>2020-02-14T08:28:39Z</time>
      </trkpt>
      <trkpt lat="59.239171" lon="18.119838">
        <ele>27</ele>
        <time>2020-02-14T08:28:40Z</time>
      </trkpt>
      <trkpt lat="59.239121" lon="18.119845">
        <ele>27</ele>
        <time>2020-02-14T08:28:41Z</time>
      </trkpt>
      <trkpt lat="59.239071" lon="18.119853">
        <ele>27</ele>
        <time>2020-02-14T08:28:42Z</time>
      </trkpt>
      <trkpt lat="59.239022" lon="18.11986">
        <ele>27</ele>
        <time>2020-02-14T08:28:43Z</time>
      </trkpt>
      <trkpt lat="59.238974" lon="18.119863">
        <ele>27</ele>
        <time>2020-02-14T08:28:44Z</time>
      </trkpt>
      <trkpt lat="59.238925" lon="18.119862">
        <ele>27</ele>
        <time>2020-02-14T08:28:45Z</time>
      </trkpt>
      <trkpt lat="59.238878" lon="18.11986">
        <ele>27</ele>
        <time>2020-02-14T08:28:46Z</time>
      </trkpt>
      <trkpt lat="59.238829" lon="18.119857">
        <ele>27</ele>
        <time>2020-02-14T08:28:47Z</time>
      </trkpt>
      <trkpt lat="59.23878" lon="18.119852">
        <ele>27</ele>
        <time>2020-02-14T08:28:48Z</time>
      </trkpt>
      <trkpt lat="59.238733" lon="18.119845">
        <ele>28</ele>
        <time>2020-02-14T08:28:49Z</time>
      </trkpt>
      <trkpt lat="59.238685" lon="18.119837">
        <ele>28</ele>
        <time>2020-02-14T08:28:50Z</time>
      </trkpt>
      <trkpt lat="59.238637" lon="18.119828">
        <ele>28</ele>
        <time>2020-02-14T08:28:51Z</time>
      </trkpt>
      <trkpt lat="59.23859" lon="18.119821">
        <ele>28</ele>
        <time>2020-02-14T08:28:52Z</time>
      </trkpt>
      <trkpt lat="59.238543" lon="18.119814">
        <ele>28</ele>
        <time>2020-02-14T08:28:53Z</time>
      </trkpt>
      <trkpt lat="59.238496" lon="18.119808">
        <ele>28</ele>
        <time>2020-02-14T08:28:54Z</time>
      </trkpt>
      <trkpt lat="59.23845" lon="18.119801">
        <ele>29</ele>
        <time>2020-02-14T08:28:55Z</time>
      </trkpt>
      <trkpt lat="59.238404" lon="18.119794">
        <ele>29</ele>
        <time>2020-02-14T08:28:56Z</time>
      </trkpt>
      <trkpt lat="59.238358" lon="18.119787">
        <ele>29</ele>
        <time>2020-02-14T08:28:57Z</time>
      </trkpt>
      <trkpt lat="59.238312" lon="18.11978">
        <ele>29</ele>
        <time>2020-02-14T08:28:58Z</time>
      </trkpt>
      <trkpt lat="59.238267" lon="18.119775">
        <ele>30</ele>
        <time>2020-02-14T08:28:59Z</time>
      </trkpt>
      <trkpt lat="59.238222" lon="18.119769">
        <ele>30</ele>
        <time>2020-02-14T08:29:00Z</time>
      </trkpt>
      <trkpt lat="59.238178" lon="18.119762">
        <ele>30</ele>
        <time>2020-02-14T08:29:01Z</time>
      </trkpt>
      <trkpt lat="59.238134" lon="18.119755">
        <ele>30</ele>
        <time>2020-02-14T08:29:02Z</time>
      </trkpt>
      <trkpt lat="59.23809" lon="18.119745">
        <ele>30</ele>
        <time>2020-02-14T08:29:04Z</time>
      </trkpt>
      <trkpt lat="59.238046" lon="18.119733">
        <ele>30</ele>
        <time>2020-02-14T08:29:04Z</time>
      </trkpt>
      <trkpt lat="59.238" lon="18.119719">
        <ele>31</ele>
        <time>2020-02-14T08:29:05Z</time>
      </trkpt>
      <trkpt lat="59.237951" lon="18.119708">
        <ele>31</ele>
        <time>2020-02-14T08:29:06Z</time>
      </trkpt>
      <trkpt lat="59.237906" lon="18.119703">
        <ele>31</ele>
        <time>2020-02-14T08:29:07Z</time>
      </trkpt>
      <trkpt lat="59.237858" lon="18.1197">
        <ele>30</ele>
        <time>2020-02-14T08:29:08Z</time>
      </trkpt>
      <trkpt lat="59.23781" lon="18.119692">
        <ele>30</ele>
        <time>2020-02-14T08:29:09Z</time>
      </trkpt>
      <trkpt lat="59.237762" lon="18.119682">
        <ele>30</ele>
        <time>2020-02-14T08:29:10Z</time>
      </trkpt>
      <trkpt lat="59.237714" lon="18.119675">
        <ele>31</ele>
        <time>2020-02-14T08:29:11Z</time>
      </trkpt>
      <trkpt lat="59.237666" lon="18.11967">
        <ele>31</ele>
        <time>2020-02-14T08:29:12Z</time>
      </trkpt>
      <trkpt lat="59.237619" lon="18.119665">
        <ele>31</ele>
        <time>2020-02-14T08:29:13Z</time>
      </trkpt>
      <trkpt lat="59.237574" lon="18.11966">
        <ele>31</ele>
        <time>2020-02-14T08:29:15Z</time>
      </trkpt>
      <trkpt lat="59.237526" lon="18.119655">
        <ele>31</ele>
        <time>2020-02-14T08:29:15Z</time>
      </trkpt>
      <trkpt lat="59.237478" lon="18.119649">
        <ele>31</ele>
        <time>2020-02-14T08:29:16Z</time>
      </trkpt>
      <trkpt lat="59.237428" lon="18.119642">
        <ele>31</ele>
        <time>2020-02-14T08:29:17Z</time>
      </trkpt>
      <trkpt lat="59.237376" lon="18.119634">
        <ele>31</ele>
        <time>2020-02-14T08:29:18Z</time>
      </trkpt>
      <trkpt lat="59.237324" lon="18.119624">
        <ele>31</ele>
        <time>2020-02-14T08:29:19Z</time>
      </trkpt>
      <trkpt lat="59.237274" lon="18.119615">
        <ele>31</ele>
        <time>2020-02-14T08:29:20Z</time>
      </trkpt>
      <trkpt lat="59.237224" lon="18.119607">
        <ele>31</ele>
        <time>2020-02-14T08:29:21Z</time>
      </trkpt>
      <trkpt lat="59.237174" lon="18.119599">
        <ele>32</ele>
        <time>2020-02-14T08:29:22Z</time>
      </trkpt>
      <trkpt lat="59.237123" lon="18.119593">
        <ele>32</ele>
        <time>2020-02-14T08:29:23Z</time>
      </trkpt>
      <trkpt lat="59.237072" lon="18.119587">
        <ele>32</ele>
        <time>2020-02-14T08:29:24Z</time>
      </trkpt>
      <trkpt lat="59.237022" lon="18.119581">
        <ele>32</ele>
        <time>2020-02-14T08:29:25Z</time>
      </trkpt>
      <trkpt lat="59.236971" lon="18.119575">
        <ele>32</ele>
        <time>2020-02-14T08:29:26Z</time>
      </trkpt>
      <trkpt lat="59.236921" lon="18.119571">
        <ele>32</ele>
        <time>2020-02-14T08:29:27Z</time>
      </trkpt>
      <trkpt lat="59.236872" lon="18.119568">
        <ele>32</ele>
        <time>2020-02-14T08:29:28Z</time>
      </trkpt>
      <trkpt lat="59.236821" lon="18.119565">
        <ele>32</ele>
        <time>2020-02-14T08:29:29Z</time>
      </trkpt>
      <trkpt lat="59.23677" lon="18.119562">
        <ele>32</ele>
        <time>2020-02-14T08:29:30Z</time>
      </trkpt>
      <trkpt lat="59.23672" lon="18.119562">
        <ele>32</ele>
        <time>2020-02-14T08:29:31Z</time>
      </trkpt>
      <trkpt lat="59.236669" lon="18.119562">
        <ele>32</ele>
        <time>2020-02-14T08:29:32Z</time>
      </trkpt>
      <trkpt lat="59.236619" lon="18.119564">
        <ele>32</ele>
        <time>2020-02-14T08:29:33Z</time>
      </trkpt>
      <trkpt lat="59.236567" lon="18.119566">
        <ele>32</ele>
        <time>2020-02-14T08:29:34Z</time>
      </trkpt>
      <trkpt lat="59.236516" lon="18.119568">
        <ele>32</ele>
        <time>2020-02-14T08:29:35Z</time>
      </trkpt>
      <trkpt lat="59.236464" lon="18.119572">
        <ele>32</ele>
        <time>2020-02-14T08:29:36Z</time>
      </trkpt>
      <trkpt lat="59.23641" lon="18.119577">
        <ele>32</ele>
        <time>2020-02-14T08:29:37Z</time>
      </trkpt>
      <trkpt lat="59.236358" lon="18.119584">
        <ele>32</ele>
        <time>2020-02-14T08:29:38Z</time>
      </trkpt>
      <trkpt lat="59.236304" lon="18.11959">
        <ele>32</ele>
        <time>2020-02-14T08:29:39Z</time>
      </trkpt>
      <trkpt lat="59.236252" lon="18.119597">
        <ele>32</ele>
        <time>2020-02-14T08:29:40Z</time>
      </trkpt>
      <trkpt lat="59.236198" lon="18.119606">
        <ele>32</ele>
        <time>2020-02-14T08:29:41Z</time>
      </trkpt>
      <trkpt lat="59.236146" lon="18.119616">
        <ele>32</ele>
        <time>2020-02-14T08:29:42Z</time>
      </trkpt>
      <trkpt lat="59.236094" lon="18.119628">
        <ele>31</ele>
        <time>2020-02-14T08:29:44Z</time>
      </trkpt>
      <trkpt lat="59.236042" lon="18.119643">
        <ele>32</ele>
        <time>2020-02-14T08:29:44Z</time>
      </trkpt>
      <trkpt lat="59.235992" lon="18.11966">
        <ele>32</ele>
        <time>2020-02-14T08:29:45Z</time>
      </trkpt>
      <trkpt lat="59.235939" lon="18.119677">
        <ele>32</ele>
        <time>2020-02-14T08:29:46Z</time>
      </trkpt>
      <trkpt lat="59.235888" lon="18.119696">
        <ele>32</ele>
        <time>2020-02-14T08:29:47Z</time>
      </trkpt>
      <trkpt lat="59.235836" lon="18.119716">
        <ele>32</ele>
        <time>2020-02-14T08:29:48Z</time>
      </trkpt>
      <trkpt lat="59.235784" lon="18.119735">
        <ele>32</ele>
        <time>2020-02-14T08:29:49Z</time>
      </trkpt>
      <trkpt lat="59.235735" lon="18.119757">
        <ele>31</ele>
        <time>2020-02-14T08:29:50Z</time>
      </trkpt>
      <trkpt lat="59.235685" lon="18.119788">
        <ele>32</ele>
        <time>2020-02-14T08:29:51Z</time>
      </trkpt>
      <trkpt lat="59.235635" lon="18.119824">
        <ele>32</ele>
        <time>2020-02-14T08:29:52Z</time>
      </trkpt>
      <trkpt lat="59.235586" lon="18.119858">
        <ele>32</ele>
        <time>2020-02-14T08:29:53Z</time>
      </trkpt>
      <trkpt lat="59.235538" lon="18.11989">
        <ele>32</ele>
        <time>2020-02-14T08:29:54Z</time>
      </trkpt>
      <trkpt lat="59.235486" lon="18.119921">
        <ele>32</ele>
        <time>2020-02-14T08:29:55Z</time>
      </trkpt>
      <trkpt lat="59.235434" lon="18.119951">
        <ele>32</ele>
        <time>2020-02-14T08:29:56Z</time>
      </trkpt>
      <trkpt lat="59.23538" lon="18.119979">
        <ele>32</ele>
        <time>2020-02-14T08:29:57Z</time>
      </trkpt>
      <trkpt lat="59.235328" lon="18.120006">
        <ele>32</ele>
        <time>2020-02-14T08:29:58Z</time>
      </trkpt>
      <trkpt lat="59.235276" lon="18.120032">
        <ele>31</ele>
        <time>2020-02-14T08:29:59Z</time>
      </trkpt>
      <trkpt lat="59.235224" lon="18.120051">
        <ele>31</ele>
        <time>2020-02-14T08:30:00Z</time>
      </trkpt>
      <trkpt lat="59.235171" lon="18.120065">
        <ele>31</ele>
        <time>2020-02-14T08:30:01Z</time>
      </trkpt>
      <trkpt lat="59.23512" lon="18.120077">
        <ele>31</ele>
        <time>2020-02-14T08:30:03Z</time>
      </trkpt>
      <trkpt lat="59.235071" lon="18.12009">
        <ele>31</ele>
        <time>2020-02-14T08:30:03Z</time>
      </trkpt>
      <trkpt lat="59.23502" lon="18.120106">
        <ele>31</ele>
        <time>2020-02-14T08:30:04Z</time>
      </trkpt>
      <trkpt lat="59.234972" lon="18.120127">
        <ele>31</ele>
        <time>2020-02-14T08:30:05Z</time>
      </trkpt>
      <trkpt lat="59.234924" lon="18.120152">
        <ele>31</ele>
        <time>2020-02-14T08:30:06Z</time>
      </trkpt>
      <trkpt lat="59.234878" lon="18.120181">
        <ele>31</ele>
        <time>2020-02-14T08:30:07Z</time>
      </trkpt>
      <trkpt lat="59.234832" lon="18.120211">
        <ele>31</ele>
        <time>2020-02-14T08:30:08Z</time>
      </trkpt>
      <trkpt lat="59.234788" lon="18.12024">
        <ele>31</ele>
        <time>2020-02-14T08:30:09Z</time>
      </trkpt>
      <trkpt lat="59.234745" lon="18.12027">
        <ele>31</ele>
        <time>2020-02-14T08:30:10Z</time>
      </trkpt>
      <trkpt lat="59.234705" lon="18.120299">
        <ele>31</ele>
        <time>2020-02-14T08:30:11Z</time>
      </trkpt>
      <trkpt lat="59.234664" lon="18.120328">
        <ele>31</ele>
        <time>2020-02-14T08:30:12Z</time>
      </trkpt>
      <trkpt lat="59.234624" lon="18.120355">
        <ele>31</ele>
        <time>2020-02-14T08:30:13Z</time>
      </trkpt>
      <trkpt lat="59.234584" lon="18.120381">
        <ele>31</ele>
        <time>2020-02-14T08:30:14Z</time>
      </trkpt>
      <trkpt lat="59.234545" lon="18.120407">
        <ele>31</ele>
        <time>2020-02-14T08:30:15Z</time>
      </trkpt>
      <trkpt lat="59.234506" lon="18.120433">
        <ele>31</ele>
        <time>2020-02-14T08:30:16Z</time>
      </trkpt>
      <trkpt lat="59.234471" lon="18.120458">
        <ele>31</ele>
        <time>2020-02-14T08:30:17Z</time>
      </trkpt>
      <trkpt lat="59.234435" lon="18.120482">
        <ele>31</ele>
        <time>2020-02-14T08:30:18Z</time>
      </trkpt>
      <trkpt lat="59.234398" lon="18.120506">
        <ele>31</ele>
        <time>2020-02-14T08:30:19Z</time>
      </trkpt>
      <trkpt lat="59.234362" lon="18.120531">
        <ele>31</ele>
        <time>2020-02-14T08:30:20Z</time>
      </trkpt>
      <trkpt lat="59.234326" lon="18.120556">
        <ele>31</ele>
        <time>2020-02-14T08:30:21Z</time>
      </trkpt>
      <trkpt lat="59.234292" lon="18.120581">
        <ele>32</ele>
        <time>2020-02-14T08:30:22Z</time>
      </trkpt>
      <trkpt lat="59.234256" lon="18.120606">
        <ele>32</ele>
        <time>2020-02-14T08:30:23Z</time>
      </trkpt>
      <trkpt lat="59.234222" lon="18.120632">
        <ele>32</ele>
        <time>2020-02-14T08:30:24Z</time>
      </trkpt>
      <trkpt lat="59.234186" lon="18.120656">
        <ele>32</ele>
        <time>2020-02-14T08:30:25Z</time>
      </trkpt>
      <trkpt lat="59.234152" lon="18.120681">
        <ele>32</ele>
        <time>2020-02-14T08:30:27Z</time>
      </trkpt>
      <trkpt lat="59.234117" lon="18.120703">
        <ele>32</ele>
        <time>2020-02-14T08:30:27Z</time>
      </trkpt>
      <trkpt lat="59.234084" lon="18.120724">
        <ele>32</ele>
        <time>2020-02-14T08:30:28Z</time>
      </trkpt>
      <trkpt lat="59.234052" lon="18.120743">
        <ele>32</ele>
        <time>2020-02-14T08:30:29Z</time>
      </trkpt>
      <trkpt lat="59.23402" lon="18.120763">
        <ele>32</ele>
        <time>2020-02-14T08:30:30Z</time>
      </trkpt>
      <trkpt lat="59.233991" lon="18.120785">
        <ele>33</ele>
        <time>2020-02-14T08:30:31Z</time>
      </trkpt>
      <trkpt lat="59.233964" lon="18.120806">
        <ele>33</ele>
        <time>2020-02-14T08:30:32Z</time>
      </trkpt>
      <trkpt lat="59.233938" lon="18.120826">
        <ele>33</ele>
        <time>2020-02-14T08:30:33Z</time>
      </trkpt>
      <trkpt lat="59.233912" lon="18.120847">
        <ele>33</ele>
        <time>2020-02-14T08:30:34Z</time>
      </trkpt>
      <trkpt lat="59.233884" lon="18.120866">
        <ele>33</ele>
        <time>2020-02-14T08:30:35Z</time>
      </trkpt>
      <trkpt lat="59.233859" lon="18.120883">
        <ele>33</ele>
        <time>2020-02-14T08:30:36Z</time>
      </trkpt>
      <trkpt lat="59.233836" lon="18.120898">
        <ele>33</ele>
        <time>2020-02-14T08:30:37Z</time>
      </trkpt>
      <trkpt lat="59.233814" lon="18.120912">
        <ele>34</ele>
        <time>2020-02-14T08:30:38Z</time>
      </trkpt>
      <trkpt lat="59.233794" lon="18.120928">
        <ele>34</ele>
        <time>2020-02-14T08:30:39Z</time>
      </trkpt>
      <trkpt lat="59.233769" lon="18.120948">
        <ele>34</ele>
        <time>2020-02-14T08:30:40Z</time>
      </trkpt>
      <trkpt lat="59.233743" lon="18.120969">
        <ele>34</ele>
        <time>2020-02-14T08:30:41Z</time>
      </trkpt>
      <trkpt lat="59.233718" lon="18.120986">
        <ele>34</ele>
        <time>2020-02-14T08:30:42Z</time>
      </trkpt>
      <trkpt lat="59.233692" lon="18.121005">
        <ele>34</ele>
        <time>2020-02-14T08:30:43Z</time>
      </trkpt>
      <trkpt lat="59.233664" lon="18.121024">
        <ele>35</ele>
        <time>2020-02-14T08:30:44Z</time>
      </trkpt>
      <trkpt lat="59.233636" lon="18.121047">
        <ele>35</ele>
        <time>2020-02-14T08:30:45Z</time>
      </trkpt>
      <trkpt lat="59.233608" lon="18.121069">
        <ele>35</ele>
        <time>2020-02-14T08:30:46Z</time>
      </trkpt>
      <trkpt lat="59.233578" lon="18.12109">
        <ele>35</ele>
        <time>2020-02-14T08:30:47Z</time>
      </trkpt>
      <trkpt lat="59.233549" lon="18.121111">
        <ele>35</ele>
        <time>2020-02-14T08:30:48Z</time>
      </trkpt>
      <trkpt lat="59.233518" lon="18.12113">
        <ele>35</ele>
        <time>2020-02-14T08:30:49Z</time>
      </trkpt>
      <trkpt lat="59.233482" lon="18.121148">
        <ele>35</ele>
        <time>2020-02-14T08:30:50Z</time>
      </trkpt>
      <trkpt lat="59.233454" lon="18.121166">
        <ele>35</ele>
        <time>2020-02-14T08:30:51Z</time>
      </trkpt>
      <trkpt lat="59.233423" lon="18.121185">
        <ele>36</ele>
        <time>2020-02-14T08:30:52Z</time>
      </trkpt>
      <trkpt lat="59.233392" lon="18.121204">
        <ele>36</ele>
        <time>2020-02-14T08:30:53Z</time>
      </trkpt>
      <trkpt lat="59.233362" lon="18.12122">
        <ele>36</ele>
        <time>2020-02-14T08:30:54Z</time>
      </trkpt>
      <trkpt lat="59.233334" lon="18.121235">
        <ele>36</ele>
        <time>2020-02-14T08:30:55Z</time>
      </trkpt>
      <trkpt lat="59.233309" lon="18.121252">
        <ele>36</ele>
        <time>2020-02-14T08:30:56Z</time>
      </trkpt>
      <trkpt lat="59.233287" lon="18.121266">
        <ele>36</ele>
        <time>2020-02-14T08:30:57Z</time>
      </trkpt>
      <trkpt lat="59.233264" lon="18.121282">
        <ele>36</ele>
        <time>2020-02-14T08:30:58Z</time>
      </trkpt>
      <trkpt lat="59.23324" lon="18.121297">
        <ele>36</ele>
        <time>2020-02-14T08:30:59Z</time>
      </trkpt>
      <trkpt lat="59.233218" lon="18.12131">
        <ele>37</ele>
        <time>2020-02-14T08:31:01Z</time>
      </trkpt>
      <trkpt lat="59.233192" lon="18.121328">
        <ele>37</ele>
        <time>2020-02-14T08:31:01Z</time>
      </trkpt>
      <trkpt lat="59.233167" lon="18.121345">
        <ele>37</ele>
        <time>2020-02-14T08:31:02Z</time>
      </trkpt>
      <trkpt lat="59.233141" lon="18.121362">
        <ele>37</ele>
        <time>2020-02-14T08:31:03Z</time>
      </trkpt>
      <trkpt lat="59.233116" lon="18.121377">
        <ele>37</ele>
        <time>2020-02-14T08:31:04Z</time>
      </trkpt>
      <trkpt lat="59.233093" lon="18.121387">
        <ele>37</ele>
        <time>2020-02-14T08:31:05Z</time>
      </trkpt>
      <trkpt lat="59.233071" lon="18.121395">
        <ele>38</ele>
        <time>2020-02-14T08:31:06Z</time>
      </trkpt>
      <trkpt lat="59.233048" lon="18.121401">
        <ele>38</ele>
        <time>2020-02-14T08:31:07Z</time>
      </trkpt>
      <trkpt lat="59.233022" lon="18.121402">
        <ele>38</ele>
        <time>2020-02-14T08:31:08Z</time>
      </trkpt>
      <trkpt lat="59.233" lon="18.121401">
        <ele>38</ele>
        <time>2020-02-14T08:31:09Z</time>
      </trkpt>
      <trkpt lat="59.232976" lon="18.121398">
        <ele>38</ele>
        <time>2020-02-14T08:31:10Z</time>
      </trkpt>
      <trkpt lat="59.232952" lon="18.121391">
        <ele>38</ele>
        <time>2020-02-14T08:31:11Z</time>
      </trkpt>
      <trkpt lat="59.232928" lon="18.121379">
        <ele>39</ele>
        <time>2020-02-14T08:31:12Z</time>
      </trkpt>
      <trkpt lat="59.232902" lon="18.12136">
        <ele>39</ele>
        <time>2020-02-14T08:31:13Z</time>
      </trkpt>
      <trkpt lat="59.232878" lon="18.121339">
        <ele>39</ele>
        <time>2020-02-14T08:31:14Z</time>
      </trkpt>
      <trkpt lat="59.232856" lon="18.121315">
        <ele>39</ele>
        <time>2020-02-14T08:31:15Z</time>
      </trkpt>
      <trkpt lat="59.232835" lon="18.121287">
        <ele>39</ele>
        <time>2020-02-14T08:31:16Z</time>
      </trkpt>
      <trkpt lat="59.232816" lon="18.121257">
        <ele>39</ele>
        <time>2020-02-14T08:31:17Z</time>
      </trkpt>
      <trkpt lat="59.232798" lon="18.121227">
        <ele>39</ele>
        <time>2020-02-14T08:31:18Z</time>
      </trkpt>
      <trkpt lat="59.232779" lon="18.121196">
        <ele>39</ele>
        <time>2020-02-14T08:31:19Z</time>
      </trkpt>
      <trkpt lat="59.232761" lon="18.121165">
        <ele>40</ele>
        <time>2020-02-14T08:31:21Z</time>
      </trkpt>
      <trkpt lat="59.232742" lon="18.121134">
        <ele>40</ele>
        <time>2020-02-14T08:31:21Z</time>
      </trkpt>
      <trkpt lat="59.23272" lon="18.121107">
        <ele>40</ele>
        <time>2020-02-14T08:31:22Z</time>
      </trkpt>
      <trkpt lat="59.232695" lon="18.121085">
        <ele>40</ele>
        <time>2020-02-14T08:31:23Z</time>
      </trkpt>
      <trkpt lat="59.232673" lon="18.121076">
        <ele>40</ele>
        <time>2020-02-14T08:31:24Z</time>
      </trkpt>
      <trkpt lat="59.232646" lon="18.121066">
        <ele>40</ele>
        <time>2020-02-14T08:31:26Z</time>
      </trkpt>
      <trkpt lat="59.232623" lon="18.121024">
        <ele>41</ele>
        <time>2020-02-14T08:31:28Z</time>
      </trkpt>
      <trkpt lat="59.232609" lon="18.12099">
        <ele>41</ele>
        <time>2020-02-14T08:31:29Z</time>
      </trkpt>
      <trkpt lat="59.232598" lon="18.120956">
        <ele>41</ele>
        <time>2020-02-14T08:31:30Z</time>
      </trkpt>
      <trkpt lat="59.232587" lon="18.12092">
        <ele>41</ele>
        <time>2020-02-14T08:31:31Z</time>
      </trkpt>
      <trkpt lat="59.232579" lon="18.120888">
        <ele>41</ele>
        <time>2020-02-14T08:31:32Z</time>
      </trkpt>
      <trkpt lat="59.232569" lon="18.120842">
        <ele>41</ele>
        <time>2020-02-14T08:31:34Z</time>
      </trkpt>
      <trkpt lat="59.232568" lon="18.12084">
        <ele>0</ele>
        <time>2020-02-14T08:31:37Z</time>
      </trkpt>
      <trkpt lat="59.232541" lon="18.120787">
        <ele>41</ele>
        <time>2020-02-14T08:31:57Z</time>
      </trkpt>
      <trkpt lat="59.232525" lon="18.120737">
        <ele>41</ele>
        <time>2020-02-14T08:31:57Z</time>
      </trkpt>
      <trkpt lat="59.232509" lon="18.120675">
        <ele>41</ele>
        <time>2020-02-14T08:31:58Z</time>
      </trkpt>
      <trkpt lat="59.232489" lon="18.120606">
        <ele>41</ele>
        <time>2020-02-14T08:31:59Z</time>
      </trkpt>
      <trkpt lat="59.232465" lon="18.120537">
        <ele>41</ele>
        <time>2020-02-14T08:32:00Z</time>
      </trkpt>
      <trkpt lat="59.23244" lon="18.120476">
        <ele>41</ele>
        <time>2020-02-14T08:32:01Z</time>
      </trkpt>
      <trkpt lat="59.232405" lon="18.120424">
        <ele>41</ele>
        <time>2020-02-14T08:32:02Z</time>
      </trkpt>
      <trkpt lat="59.232366" lon="18.120388">
        <ele>41</ele>
        <time>2020-02-14T08:32:03Z</time>
      </trkpt>
      <trkpt lat="59.232322" lon="18.120368">
        <ele>41</ele>
        <time>2020-02-14T08:32:04Z</time>
      </trkpt>
      <trkpt lat="59.232269" lon="18.120358">
        <ele>42</ele>
        <time>2020-02-14T08:32:05Z</time>
      </trkpt>
      <trkpt lat="59.232213" lon="18.12035">
        <ele>42</ele>
        <time>2020-02-14T08:32:06Z</time>
      </trkpt>
      <trkpt lat="59.232155" lon="18.120344">
        <ele>42</ele>
        <time>2020-02-14T08:32:07Z</time>
      </trkpt>
      <trkpt lat="59.232103" lon="18.12034">
        <ele>42</ele>
        <time>2020-02-14T08:32:08Z</time>
      </trkpt>
      <trkpt lat="59.232054" lon="18.12034">
        <ele>42</ele>
        <time>2020-02-14T08:32:09Z</time>
      </trkpt>
      <trkpt lat="59.232005" lon="18.12035">
        <ele>42</ele>
        <time>2020-02-14T08:32:10Z</time>
      </trkpt>
      <trkpt lat="59.231961" lon="18.120364">
        <ele>42</ele>
        <time>2020-02-14T08:32:11Z</time>
      </trkpt>
      <trkpt lat="59.23192" lon="18.120374">
        <ele>42</ele>
        <time>2020-02-14T08:32:12Z</time>
      </trkpt>
      <trkpt lat="59.23188" lon="18.120388">
        <ele>42</ele>
        <time>2020-02-14T08:32:14Z</time>
      </trkpt>
      <trkpt lat="59.23184" lon="18.120406">
        <ele>42</ele>
        <time>2020-02-14T08:32:14Z</time>
      </trkpt>
      <trkpt lat="59.231798" lon="18.120424">
        <ele>42</ele>
        <time>2020-02-14T08:32:15Z</time>
      </trkpt>
      <trkpt lat="59.231759" lon="18.120444">
        <ele>42</ele>
        <time>2020-02-14T08:32:16Z</time>
      </trkpt>
      <trkpt lat="59.23172" lon="18.120466">
        <ele>42</ele>
        <time>2020-02-14T08:32:17Z</time>
      </trkpt>
      <trkpt lat="59.231678" lon="18.12049">
        <ele>42</ele>
        <time>2020-02-14T08:32:18Z</time>
      </trkpt>
      <trkpt lat="59.231632" lon="18.120516">
        <ele>42</ele>
        <time>2020-02-14T08:32:19Z</time>
      </trkpt>
      <trkpt lat="59.231586" lon="18.120544">
        <ele>42</ele>
        <time>2020-02-14T08:32:20Z</time>
      </trkpt>
      <trkpt lat="59.231539" lon="18.120564">
        <ele>43</ele>
        <time>2020-02-14T08:32:21Z</time>
      </trkpt>
      <trkpt lat="59.231492" lon="18.12059">
        <ele>43</ele>
        <time>2020-02-14T08:32:22Z</time>
      </trkpt>
      <trkpt lat="59.231443" lon="18.120622">
        <ele>43</ele>
        <time>2020-02-14T08:32:23Z</time>
      </trkpt>
      <trkpt lat="59.231393" lon="18.120658">
        <ele>43</ele>
        <time>2020-02-14T08:32:25Z</time>
      </trkpt>
      <trkpt lat="59.231344" lon="18.120696">
        <ele>43</ele>
        <time>2020-02-14T08:32:25Z</time>
      </trkpt>
      <trkpt lat="59.231291" lon="18.12073">
        <ele>43</ele>
        <time>2020-02-14T08:32:26Z</time>
      </trkpt>
      <trkpt lat="59.231239" lon="18.120762">
        <ele>42</ele>
        <time>2020-02-14T08:32:27Z</time>
      </trkpt>
      <trkpt lat="59.231185" lon="18.120796">
        <ele>42</ele>
        <time>2020-02-14T08:32:28Z</time>
      </trkpt>
      <trkpt lat="59.23113" lon="18.120836">
        <ele>42</ele>
        <time>2020-02-14T08:32:29Z</time>
      </trkpt>
      <trkpt lat="59.231074" lon="18.120878">
        <ele>42</ele>
        <time>2020-02-14T08:32:30Z</time>
      </trkpt>
      <trkpt lat="59.231015" lon="18.120926">
        <ele>42</ele>
        <time>2020-02-14T08:32:31Z</time>
      </trkpt>
      <trkpt lat="59.230954" lon="18.120972">
        <ele>42</ele>
        <time>2020-02-14T08:32:33Z</time>
      </trkpt>
      <trkpt lat="59.230892" lon="18.12101">
        <ele>42</ele>
        <time>2020-02-14T08:32:33Z</time>
      </trkpt>
      <trkpt lat="59.23083" lon="18.121048">
        <ele>42</ele>
        <time>2020-02-14T08:32:34Z</time>
      </trkpt>
      <trkpt lat="59.230765" lon="18.121086">
        <ele>41</ele>
        <time>2020-02-14T08:32:35Z</time>
      </trkpt>
      <trkpt lat="59.230699" lon="18.121122">
        <ele>41</ele>
        <time>2020-02-14T08:32:36Z</time>
      </trkpt>
      <trkpt lat="59.230635" lon="18.121144">
        <ele>41</ele>
        <time>2020-02-14T08:32:37Z</time>
      </trkpt>
      <trkpt lat="59.230571" lon="18.121156">
        <ele>41</ele>
        <time>2020-02-14T08:32:38Z</time>
      </trkpt>
      <trkpt lat="59.230503" lon="18.12116">
        <ele>41</ele>
        <time>2020-02-14T08:32:40Z</time>
      </trkpt>
      <trkpt lat="59.230431" lon="18.121162">
        <ele>41</ele>
        <time>2020-02-14T08:32:40Z</time>
      </trkpt>
      <trkpt lat="59.23036" lon="18.12117">
        <ele>41</ele>
        <time>2020-02-14T08:32:41Z</time>
      </trkpt>
      <trkpt lat="59.230288" lon="18.121188">
        <ele>40</ele>
        <time>2020-02-14T08:32:42Z</time>
      </trkpt>
      <trkpt lat="59.23022" lon="18.121232">
        <ele>40</ele>
        <time>2020-02-14T08:32:43Z</time>
      </trkpt>
      <trkpt lat="59.230155" lon="18.12129">
        <ele>40</ele>
        <time>2020-02-14T08:32:44Z</time>
      </trkpt>
      <trkpt lat="59.23009" lon="18.121354">
        <ele>40</ele>
        <time>2020-02-14T08:32:45Z</time>
      </trkpt>
      <trkpt lat="59.230026" lon="18.121424">
        <ele>40</ele>
        <time>2020-02-14T08:32:47Z</time>
      </trkpt>
      <trkpt lat="59.229959" lon="18.121492">
        <ele>39</ele>
        <time>2020-02-14T08:32:47Z</time>
      </trkpt>
      <trkpt lat="59.229893" lon="18.121552">
        <ele>39</ele>
        <time>2020-02-14T08:32:48Z</time>
      </trkpt>
      <trkpt lat="59.229833" lon="18.121616">
        <ele>39</ele>
        <time>2020-02-14T08:32:49Z</time>
      </trkpt>
      <trkpt lat="59.229786" lon="18.121692">
        <ele>39</ele>
        <time>2020-02-14T08:32:50Z</time>
      </trkpt>
      <trkpt lat="59.229763" lon="18.121792">
        <ele>38</ele>
        <time>2020-02-14T08:32:51Z</time>
      </trkpt>
      <trkpt lat="59.229762" lon="18.121906">
        <ele>38</ele>
        <time>2020-02-14T08:32:52Z</time>
      </trkpt>
      <trkpt lat="59.229781" lon="18.122014">
        <ele>38</ele>
        <time>2020-02-14T08:32:53Z</time>
      </trkpt>
      <trkpt lat="59.229808" lon="18.122114">
        <ele>38</ele>
        <time>2020-02-14T08:32:55Z</time>
      </trkpt>
      <trkpt lat="59.229836" lon="18.122208">
        <ele>38</ele>
        <time>2020-02-14T08:32:55Z</time>
      </trkpt>
      <trkpt lat="59.229867" lon="18.1223">
        <ele>38</ele>
        <time>2020-02-14T08:32:56Z</time>
      </trkpt>
      <trkpt lat="59.229897" lon="18.12239">
        <ele>38</ele>
        <time>2020-02-14T08:32:57Z</time>
      </trkpt>
      <trkpt lat="59.229925" lon="18.122484">
        <ele>39</ele>
        <time>2020-02-14T08:32:58Z</time>
      </trkpt>
      <trkpt lat="59.229949" lon="18.122576">
        <ele>39</ele>
        <time>2020-02-14T08:32:59Z</time>
      </trkpt>
      <trkpt lat="59.229972" lon="18.122666">
        <ele>39</ele>
        <time>2020-02-14T08:33:00Z</time>
      </trkpt>
      <trkpt lat="59.229995" lon="18.122756">
        <ele>39</ele>
        <time>2020-02-14T08:33:01Z</time>
      </trkpt>
      <trkpt lat="59.230016" lon="18.122847">
        <ele>39</ele>
        <time>2020-02-14T08:33:02Z</time>
      </trkpt>
      <trkpt lat="59.230031" lon="18.122941">
        <ele>39</ele>
        <time>2020-02-14T08:33:03Z</time>
      </trkpt>
      <trkpt lat="59.230039" lon="18.123034">
        <ele>39</ele>
        <time>2020-02-14T08:33:04Z</time>
      </trkpt>
      <trkpt lat="59.230044" lon="18.123125">
        <ele>39</ele>
        <time>2020-02-14T08:33:05Z</time>
      </trkpt>
      <trkpt lat="59.230042" lon="18.123214">
        <ele>39</ele>
        <time>2020-02-14T08:33:06Z</time>
      </trkpt>
      <trkpt lat="59.230032" lon="18.123296">
        <ele>39</ele>
        <time>2020-02-14T08:33:07Z</time>
      </trkpt>
      <trkpt lat="59.230015" lon="18.123372">
        <ele>39</ele>
        <time>2020-02-14T08:33:08Z</time>
      </trkpt>
      <trkpt lat="59.229993" lon="18.123444">
        <ele>39</ele>
        <time>2020-02-14T08:33:09Z</time>
      </trkpt>
      <trkpt lat="59.229962" lon="18.123504">
        <ele>39</ele>
        <time>2020-02-14T08:33:10Z</time>
      </trkpt>
      <trkpt lat="59.229925" lon="18.123551">
        <ele>39</ele>
        <time>2020-02-14T08:33:11Z</time>
      </trkpt>
      <trkpt lat="59.229886" lon="18.123591">
        <ele>39</ele>
        <time>2020-02-14T08:33:12Z</time>
      </trkpt>
      <trkpt lat="59.229847" lon="18.12363">
        <ele>39</ele>
        <time>2020-02-14T08:33:13Z</time>
      </trkpt>
      <trkpt lat="59.229805" lon="18.123669">
        <ele>39</ele>
        <time>2020-02-14T08:33:14Z</time>
      </trkpt>
      <trkpt lat="59.229763" lon="18.12371">
        <ele>39</ele>
        <time>2020-02-14T08:33:16Z</time>
      </trkpt>
      <trkpt lat="59.22972" lon="18.123752">
        <ele>39</ele>
        <time>2020-02-14T08:33:16Z</time>
      </trkpt>
      <trkpt lat="59.229678" lon="18.123795">
        <ele>39</ele>
        <time>2020-02-14T08:33:17Z</time>
      </trkpt>
      <trkpt lat="59.229634" lon="18.123839">
        <ele>39</ele>
        <time>2020-02-14T08:33:18Z</time>
      </trkpt>
      <trkpt lat="59.229591" lon="18.123883">
        <ele>39</ele>
        <time>2020-02-14T08:33:19Z</time>
      </trkpt>
      <trkpt lat="59.229547" lon="18.123929">
        <ele>39</ele>
        <time>2020-02-14T08:33:20Z</time>
      </trkpt>
      <trkpt lat="59.229501" lon="18.123976">
        <ele>39</ele>
        <time>2020-02-14T08:33:21Z</time>
      </trkpt>
      <trkpt lat="59.229454" lon="18.124022">
        <ele>39</ele>
        <time>2020-02-14T08:33:22Z</time>
      </trkpt>
      <trkpt lat="59.229406" lon="18.124071">
        <ele>39</ele>
        <time>2020-02-14T08:33:23Z</time>
      </trkpt>
      <trkpt lat="59.22936" lon="18.124128">
        <ele>39</ele>
        <time>2020-02-14T08:33:24Z</time>
      </trkpt>
      <trkpt lat="59.229321" lon="18.124201">
        <ele>39</ele>
        <time>2020-02-14T08:33:26Z</time>
      </trkpt>
      <trkpt lat="59.229292" lon="18.12429">
        <ele>39</ele>
        <time>2020-02-14T08:33:26Z</time>
      </trkpt>
      <trkpt lat="59.229274" lon="18.124388">
        <ele>39</ele>
        <time>2020-02-14T08:33:27Z</time>
      </trkpt>
      <trkpt lat="59.229268" lon="18.124491">
        <ele>39</ele>
        <time>2020-02-14T08:33:28Z</time>
      </trkpt>
      <trkpt lat="59.229267" lon="18.124602">
        <ele>39</ele>
        <time>2020-02-14T08:33:29Z</time>
      </trkpt>
      <trkpt lat="59.229262" lon="18.124706">
        <ele>39</ele>
        <time>2020-02-14T08:33:30Z</time>
      </trkpt>
      <trkpt lat="59.229244" lon="18.124817">
        <ele>39</ele>
        <time>2020-02-14T08:33:31Z</time>
      </trkpt>
      <trkpt lat="59.229219" lon="18.124924">
        <ele>39</ele>
        <time>2020-02-14T08:33:32Z</time>
      </trkpt>
      <trkpt lat="59.229192" lon="18.12502">
        <ele>39</ele>
        <time>2020-02-14T08:33:33Z</time>
      </trkpt>
      <trkpt lat="59.229163" lon="18.125118">
        <ele>38</ele>
        <time>2020-02-14T08:33:35Z</time>
      </trkpt>
      <trkpt lat="59.229129" lon="18.125224">
        <ele>38</ele>
        <time>2020-02-14T08:33:35Z</time>
      </trkpt>
      <trkpt lat="59.229087" lon="18.125345">
        <ele>38</ele>
        <time>2020-02-14T08:33:36Z</time>
      </trkpt>
      <trkpt lat="59.229044" lon="18.125451">
        <ele>38</ele>
        <time>2020-02-14T08:33:37Z</time>
      </trkpt>
      <trkpt lat="59.229" lon="18.125547">
        <ele>38</ele>
        <time>2020-02-14T08:33:38Z</time>
      </trkpt>
      <trkpt lat="59.228959" lon="18.125644">
        <ele>38</ele>
        <time>2020-02-14T08:33:39Z</time>
      </trkpt>
      <trkpt lat="59.228917" lon="18.125737">
        <ele>38</ele>
        <time>2020-02-14T08:33:40Z</time>
      </trkpt>
      <trkpt lat="59.228876" lon="18.125823">
        <ele>38</ele>
        <time>2020-02-14T08:33:41Z</time>
      </trkpt>
      <trkpt lat="59.228835" lon="18.125906">
        <ele>38</ele>
        <time>2020-02-14T08:33:43Z</time>
      </trkpt>
      <trkpt lat="59.228796" lon="18.125975">
        <ele>37</ele>
        <time>2020-02-14T08:33:43Z</time>
      </trkpt>
      <trkpt lat="59.22876" lon="18.12604">
        <ele>37</ele>
        <time>2020-02-14T08:33:44Z</time>
      </trkpt>
      <trkpt lat="59.228728" lon="18.126114">
        <ele>37</ele>
        <time>2020-02-14T08:33:45Z</time>
      </trkpt>
      <trkpt lat="59.228697" lon="18.12619">
        <ele>37</ele>
        <time>2020-02-14T08:33:46Z</time>
      </trkpt>
      <trkpt lat="59.228666" lon="18.12626">
        <ele>37</ele>
        <time>2020-02-14T08:33:47Z</time>
      </trkpt>
      <trkpt lat="59.228636" lon="18.126322">
        <ele>38</ele>
        <time>2020-02-14T08:33:48Z</time>
      </trkpt>
      <trkpt lat="59.228601" lon="18.126374">
        <ele>38</ele>
        <time>2020-02-14T08:33:49Z</time>
      </trkpt>
      <trkpt lat="59.228565" lon="18.126412">
        <ele>38</ele>
        <time>2020-02-14T08:33:50Z</time>
      </trkpt>
      <trkpt lat="59.228525" lon="18.126427">
        <ele>38</ele>
        <time>2020-02-14T08:33:51Z</time>
      </trkpt>
      <trkpt lat="59.228484" lon="18.126426">
        <ele>38</ele>
        <time>2020-02-14T08:33:53Z</time>
      </trkpt>
      <trkpt lat="59.228443" lon="18.126418">
        <ele>39</ele>
        <time>2020-02-14T08:33:53Z</time>
      </trkpt>
      <trkpt lat="59.228403" lon="18.126409">
        <ele>39</ele>
        <time>2020-02-14T08:33:54Z</time>
      </trkpt>
      <trkpt lat="59.228362" lon="18.126405">
        <ele>39</ele>
        <time>2020-02-14T08:33:55Z</time>
      </trkpt>
      <trkpt lat="59.22832" lon="18.126408">
        <ele>39</ele>
        <time>2020-02-14T08:33:56Z</time>
      </trkpt>
      <trkpt lat="59.228278" lon="18.126415">
        <ele>39</ele>
        <time>2020-02-14T08:33:57Z</time>
      </trkpt>
      <trkpt lat="59.228233" lon="18.126422">
        <ele>39</ele>
        <time>2020-02-14T08:33:58Z</time>
      </trkpt>
      <trkpt lat="59.228189" lon="18.12643">
        <ele>39</ele>
        <time>2020-02-14T08:33:59Z</time>
      </trkpt>
      <trkpt lat="59.228145" lon="18.126437">
        <ele>39</ele>
        <time>2020-02-14T08:34:00Z</time>
      </trkpt>
      <trkpt lat="59.228103" lon="18.126447">
        <ele>39</ele>
        <time>2020-02-14T08:34:01Z</time>
      </trkpt>
      <trkpt lat="59.22806" lon="18.126456">
        <ele>39</ele>
        <time>2020-02-14T08:34:02Z</time>
      </trkpt>
      <trkpt lat="59.228016" lon="18.126463">
        <ele>40</ele>
        <time>2020-02-14T08:34:03Z</time>
      </trkpt>
      <trkpt lat="59.227975" lon="18.12647">
        <ele>40</ele>
        <time>2020-02-14T08:34:05Z</time>
      </trkpt>
      <trkpt lat="59.227934" lon="18.126481">
        <ele>40</ele>
        <time>2020-02-14T08:34:05Z</time>
      </trkpt>
      <trkpt lat="59.227892" lon="18.126491">
        <ele>40</ele>
        <time>2020-02-14T08:34:06Z</time>
      </trkpt>
      <trkpt lat="59.227852" lon="18.126505">
        <ele>40</ele>
        <time>2020-02-14T08:34:07Z</time>
      </trkpt>
      <trkpt lat="59.227816" lon="18.126536">
        <ele>40</ele>
        <time>2020-02-14T08:34:08Z</time>
      </trkpt>
      <trkpt lat="59.227786" lon="18.126587">
        <ele>40</ele>
        <time>2020-02-14T08:34:09Z</time>
      </trkpt>
      <trkpt lat="59.227764" lon="18.126654">
        <ele>40</ele>
        <time>2020-02-14T08:34:10Z</time>
      </trkpt>
      <trkpt lat="59.227746" lon="18.126732">
        <ele>40</ele>
        <time>2020-02-14T08:34:11Z</time>
      </trkpt>
      <trkpt lat="59.227732" lon="18.126815">
        <ele>41</ele>
        <time>2020-02-14T08:34:12Z</time>
      </trkpt>
      <trkpt lat="59.227721" lon="18.1269">
        <ele>41</ele>
        <time>2020-02-14T08:34:13Z</time>
      </trkpt>
      <trkpt lat="59.227706" lon="18.126983">
        <ele>41</ele>
        <time>2020-02-14T08:34:14Z</time>
      </trkpt>
      <trkpt lat="59.227686" lon="18.127065">
        <ele>41</ele>
        <time>2020-02-14T08:34:15Z</time>
      </trkpt>
      <trkpt lat="59.227664" lon="18.127144">
        <ele>41</ele>
        <time>2020-02-14T08:34:17Z</time>
      </trkpt>
      <trkpt lat="59.227641" lon="18.127224">
        <ele>41</ele>
        <time>2020-02-14T08:34:17Z</time>
      </trkpt>
      <trkpt lat="59.227616" lon="18.127306">
        <ele>41</ele>
        <time>2020-02-14T08:34:18Z</time>
      </trkpt>
      <trkpt lat="59.227588" lon="18.127389">
        <ele>41</ele>
        <time>2020-02-14T08:34:19Z</time>
      </trkpt>
      <trkpt lat="59.22756" lon="18.127474">
        <ele>41</ele>
        <time>2020-02-14T08:34:20Z</time>
      </trkpt>
      <trkpt lat="59.227529" lon="18.127558">
        <ele>41</ele>
        <time>2020-02-14T08:34:21Z</time>
      </trkpt>
      <trkpt lat="59.227498" lon="18.127643">
        <ele>41</ele>
        <time>2020-02-14T08:34:22Z</time>
      </trkpt>
      <trkpt lat="59.227465" lon="18.127728">
        <ele>41</ele>
        <time>2020-02-14T08:34:23Z</time>
      </trkpt>
      <trkpt lat="59.227434" lon="18.127813">
        <ele>41</ele>
        <time>2020-02-14T08:34:24Z</time>
      </trkpt>
      <trkpt lat="59.227401" lon="18.127899">
        <ele>41</ele>
        <time>2020-02-14T08:34:26Z</time>
      </trkpt>
      <trkpt lat="59.227372" lon="18.127986">
        <ele>41</ele>
        <time>2020-02-14T08:34:26Z</time>
      </trkpt>
      <trkpt lat="59.22734" lon="18.128072">
        <ele>41</ele>
        <time>2020-02-14T08:34:27Z</time>
      </trkpt>
      <trkpt lat="59.22731" lon="18.128158">
        <ele>41</ele>
        <time>2020-02-14T08:34:28Z</time>
      </trkpt>
      <trkpt lat="59.22728" lon="18.128243">
        <ele>41</ele>
        <time>2020-02-14T08:34:29Z</time>
      </trkpt>
      <trkpt lat="59.227248" lon="18.128327">
        <ele>41</ele>
        <time>2020-02-14T08:34:30Z</time>
      </trkpt>
      <trkpt lat="59.22722" lon="18.128412">
        <ele>41</ele>
        <time>2020-02-14T08:34:31Z</time>
      </trkpt>
      <trkpt lat="59.227188" lon="18.128495">
        <ele>41</ele>
        <time>2020-02-14T08:34:32Z</time>
      </trkpt>
      <trkpt lat="59.227158" lon="18.128578">
        <ele>41</ele>
        <time>2020-02-14T08:34:33Z</time>
      </trkpt>
      <trkpt lat="59.227129" lon="18.128659">
        <ele>41</ele>
        <time>2020-02-14T08:34:34Z</time>
      </trkpt>
      <trkpt lat="59.227098" lon="18.12874">
        <ele>41</ele>
        <time>2020-02-14T08:34:36Z</time>
      </trkpt>
      <trkpt lat="59.22707" lon="18.128823">
        <ele>41</ele>
        <time>2020-02-14T08:34:36Z</time>
      </trkpt>
      <trkpt lat="59.227042" lon="18.128908">
        <ele>41</ele>
        <time>2020-02-14T08:34:37Z</time>
      </trkpt>
      <trkpt lat="59.227011" lon="18.128993">
        <ele>41</ele>
        <time>2020-02-14T08:34:38Z</time>
      </trkpt>
      <trkpt lat="59.226981" lon="18.129079">
        <ele>41</ele>
        <time>2020-02-14T08:34:39Z</time>
      </trkpt>
      <trkpt lat="59.226948" lon="18.129166">
        <ele>41</ele>
        <time>2020-02-14T08:34:40Z</time>
      </trkpt>
      <trkpt lat="59.226914" lon="18.129256">
        <ele>40</ele>
        <time>2020-02-14T08:34:41Z</time>
      </trkpt>
      <trkpt lat="59.226881" lon="18.129348">
        <ele>40</ele>
        <time>2020-02-14T08:34:42Z</time>
      </trkpt>
      <trkpt lat="59.226848" lon="18.129438">
        <ele>40</ele>
        <time>2020-02-14T08:34:43Z</time>
      </trkpt>
      <trkpt lat="59.226814" lon="18.129529">
        <ele>40</ele>
        <time>2020-02-14T08:34:44Z</time>
      </trkpt>
      <trkpt lat="59.226781" lon="18.129619">
        <ele>40</ele>
        <time>2020-02-14T08:34:45Z</time>
      </trkpt>
      <trkpt lat="59.226748" lon="18.129708">
        <ele>40</ele>
        <time>2020-02-14T08:34:46Z</time>
      </trkpt>
      <trkpt lat="59.226716" lon="18.129797">
        <ele>39</ele>
        <time>2020-02-14T08:34:47Z</time>
      </trkpt>
      <trkpt lat="59.226684" lon="18.129887">
        <ele>39</ele>
        <time>2020-02-14T08:34:48Z</time>
      </trkpt>
      <trkpt lat="59.22665" lon="18.129975">
        <ele>39</ele>
        <time>2020-02-14T08:34:49Z</time>
      </trkpt>
      <trkpt lat="59.226617" lon="18.130062">
        <ele>39</ele>
        <time>2020-02-14T08:34:50Z</time>
      </trkpt>
      <trkpt lat="59.226582" lon="18.130152">
        <ele>39</ele>
        <time>2020-02-14T08:34:51Z</time>
      </trkpt>
      <trkpt lat="59.226548" lon="18.130238">
        <ele>39</ele>
        <time>2020-02-14T08:34:52Z</time>
      </trkpt>
      <trkpt lat="59.226512" lon="18.130319">
        <ele>39</ele>
        <time>2020-02-14T08:34:54Z</time>
      </trkpt>
      <trkpt lat="59.226474" lon="18.130398">
        <ele>39</ele>
        <time>2020-02-14T08:34:54Z</time>
      </trkpt>
      <trkpt lat="59.226435" lon="18.130474">
        <ele>40</ele>
        <time>2020-02-14T08:34:55Z</time>
      </trkpt>
      <trkpt lat="59.226396" lon="18.130543">
        <ele>40</ele>
        <time>2020-02-14T08:34:56Z</time>
      </trkpt>
      <trkpt lat="59.226352" lon="18.130612">
        <ele>40</ele>
        <time>2020-02-14T08:34:57Z</time>
      </trkpt>
      <trkpt lat="59.226304" lon="18.130683">
        <ele>40</ele>
        <time>2020-02-14T08:34:58Z</time>
      </trkpt>
      <trkpt lat="59.226256" lon="18.13075">
        <ele>40</ele>
        <time>2020-02-14T08:34:59Z</time>
      </trkpt>
      <trkpt lat="59.226207" lon="18.130823">
        <ele>39</ele>
        <time>2020-02-14T08:35:00Z</time>
      </trkpt>
      <trkpt lat="59.226161" lon="18.130897">
        <ele>39</ele>
        <time>2020-02-14T08:35:01Z</time>
      </trkpt>
      <trkpt lat="59.226117" lon="18.130971">
        <ele>39</ele>
        <time>2020-02-14T08:35:02Z</time>
      </trkpt>
      <trkpt lat="59.22607" lon="18.131041">
        <ele>39</ele>
        <time>2020-02-14T08:35:03Z</time>
      </trkpt>
      <trkpt lat="59.226021" lon="18.131109">
        <ele>38</ele>
        <time>2020-02-14T08:35:04Z</time>
      </trkpt>
      <trkpt lat="59.225969" lon="18.131179">
        <ele>38</ele>
        <time>2020-02-14T08:35:05Z</time>
      </trkpt>
      <trkpt lat="59.22592" lon="18.131251">
        <ele>38</ele>
        <time>2020-02-14T08:35:06Z</time>
      </trkpt>
      <trkpt lat="59.225874" lon="18.13132">
        <ele>38</ele>
        <time>2020-02-14T08:35:07Z</time>
      </trkpt>
      <trkpt lat="59.225829" lon="18.131394">
        <ele>38</ele>
        <time>2020-02-14T08:35:08Z</time>
      </trkpt>
      <trkpt lat="59.225792" lon="18.131481">
        <ele>37</ele>
        <time>2020-02-14T08:35:09Z</time>
      </trkpt>
      <trkpt lat="59.225771" lon="18.131586">
        <ele>37</ele>
        <time>2020-02-14T08:35:10Z</time>
      </trkpt>
      <trkpt lat="59.225757" lon="18.131698">
        <ele>37</ele>
        <time>2020-02-14T08:35:11Z</time>
      </trkpt>
      <trkpt lat="59.225742" lon="18.131808">
        <ele>37</ele>
        <time>2020-02-14T08:35:12Z</time>
      </trkpt>
      <trkpt lat="59.225722" lon="18.131912">
        <ele>37</ele>
        <time>2020-02-14T08:35:13Z</time>
      </trkpt>
      <trkpt lat="59.225696" lon="18.132009">
        <ele>37</ele>
        <time>2020-02-14T08:35:14Z</time>
      </trkpt>
      <trkpt lat="59.225665" lon="18.132098">
        <ele>37</ele>
        <time>2020-02-14T08:35:15Z</time>
      </trkpt>
      <trkpt lat="59.225628" lon="18.132176">
        <ele>37</ele>
        <time>2020-02-14T08:35:16Z</time>
      </trkpt>
      <trkpt lat="59.225585" lon="18.132237">
        <ele>37</ele>
        <time>2020-02-14T08:35:17Z</time>
      </trkpt>
      <trkpt lat="59.225539" lon="18.132286">
        <ele>37</ele>
        <time>2020-02-14T08:35:18Z</time>
      </trkpt>
      <trkpt lat="59.225494" lon="18.132337">
        <ele>37</ele>
        <time>2020-02-14T08:35:20Z</time>
      </trkpt>
      <trkpt lat="59.225449" lon="18.132392">
        <ele>37</ele>
        <time>2020-02-14T08:35:20Z</time>
      </trkpt>
      <trkpt lat="59.225405" lon="18.13245">
        <ele>37</ele>
        <time>2020-02-14T08:35:21Z</time>
      </trkpt>
      <trkpt lat="59.225359" lon="18.132514">
        <ele>37</ele>
        <time>2020-02-14T08:35:22Z</time>
      </trkpt>
      <trkpt lat="59.225306" lon="18.132588">
        <ele>37</ele>
        <time>2020-02-14T08:35:23Z</time>
      </trkpt>
      <trkpt lat="59.225254" lon="18.132665">
        <ele>36</ele>
        <time>2020-02-14T08:35:24Z</time>
      </trkpt>
      <trkpt lat="59.225203" lon="18.132743">
        <ele>36</ele>
        <time>2020-02-14T08:35:25Z</time>
      </trkpt>
      <trkpt lat="59.225154" lon="18.132822">
        <ele>36</ele>
        <time>2020-02-14T08:35:26Z</time>
      </trkpt>
      <trkpt lat="59.225102" lon="18.132905">
        <ele>36</ele>
        <time>2020-02-14T08:35:28Z</time>
      </trkpt>
      <trkpt lat="59.225053" lon="18.132993">
        <ele>36</ele>
        <time>2020-02-14T08:35:28Z</time>
      </trkpt>
      <trkpt lat="59.225006" lon="18.133088">
        <ele>36</ele>
        <time>2020-02-14T08:35:29Z</time>
      </trkpt>
      <trkpt lat="59.224952" lon="18.133189">
        <ele>36</ele>
        <time>2020-02-14T08:35:30Z</time>
      </trkpt>
      <trkpt lat="59.224894" lon="18.133292">
        <ele>36</ele>
        <time>2020-02-14T08:35:31Z</time>
      </trkpt>
      <trkpt lat="59.224834" lon="18.133406">
        <ele>35</ele>
        <time>2020-02-14T08:35:32Z</time>
      </trkpt>
      <trkpt lat="59.224775" lon="18.133525">
        <ele>35</ele>
        <time>2020-02-14T08:35:34Z</time>
      </trkpt>
      <trkpt lat="59.224714" lon="18.13365">
        <ele>34</ele>
        <time>2020-02-14T08:35:34Z</time>
      </trkpt>
      <trkpt lat="59.224656" lon="18.133775">
        <ele>34</ele>
        <time>2020-02-14T08:35:35Z</time>
      </trkpt>
      <trkpt lat="59.224599" lon="18.133902">
        <ele>33</ele>
        <time>2020-02-14T08:35:36Z</time>
      </trkpt>
      <trkpt lat="59.224544" lon="18.134027">
        <ele>33</ele>
        <time>2020-02-14T08:35:37Z</time>
      </trkpt>
      <trkpt lat="59.224493" lon="18.13415">
        <ele>33</ele>
        <time>2020-02-14T08:35:38Z</time>
      </trkpt>
      <trkpt lat="59.224445" lon="18.134273">
        <ele>32</ele>
        <time>2020-02-14T08:35:40Z</time>
      </trkpt>
      <trkpt lat="59.224399" lon="18.134391">
        <ele>32</ele>
        <time>2020-02-14T08:35:40Z</time>
      </trkpt>
      <trkpt lat="59.224354" lon="18.134508">
        <ele>32</ele>
        <time>2020-02-14T08:35:41Z</time>
      </trkpt>
      <trkpt lat="59.224313" lon="18.134621">
        <ele>32</ele>
        <time>2020-02-14T08:35:42Z</time>
      </trkpt>
      <trkpt lat="59.224272" lon="18.134731">
        <ele>32</ele>
        <time>2020-02-14T08:35:43Z</time>
      </trkpt>
      <trkpt lat="59.22423" lon="18.134838">
        <ele>32</ele>
        <time>2020-02-14T08:35:44Z</time>
      </trkpt>
      <trkpt lat="59.224189" lon="18.134945">
        <ele>32</ele>
        <time>2020-02-14T08:35:45Z</time>
      </trkpt>
      <trkpt lat="59.224145" lon="18.135052">
        <ele>31</ele>
        <time>2020-02-14T08:35:46Z</time>
      </trkpt>
      <trkpt lat="59.224101" lon="18.135156">
        <ele>31</ele>
        <time>2020-02-14T08:35:48Z</time>
      </trkpt>
      <trkpt lat="59.22406" lon="18.135255">
        <ele>31</ele>
        <time>2020-02-14T08:35:48Z</time>
      </trkpt>
      <trkpt lat="59.224025" lon="18.135347">
        <ele>31</ele>
        <time>2020-02-14T08:35:49Z</time>
      </trkpt>
      <trkpt lat="59.223992" lon="18.135434">
        <ele>31</ele>
        <time>2020-02-14T08:35:50Z</time>
      </trkpt>
      <trkpt lat="59.223957" lon="18.13552">
        <ele>31</ele>
        <time>2020-02-14T08:35:51Z</time>
      </trkpt>
      <trkpt lat="59.223924" lon="18.135605">
        <ele>31</ele>
        <time>2020-02-14T08:35:52Z</time>
      </trkpt>
      <trkpt lat="59.223891" lon="18.13569">
        <ele>31</ele>
        <time>2020-02-14T08:35:53Z</time>
      </trkpt>
      <trkpt lat="59.223859" lon="18.135774">
        <ele>31</ele>
        <time>2020-02-14T08:35:54Z</time>
      </trkpt>
      <trkpt lat="59.223827" lon="18.135855">
        <ele>31</ele>
        <time>2020-02-14T08:35:55Z</time>
      </trkpt>
      <trkpt lat="59.223796" lon="18.135936">
        <ele>31</ele>
        <time>2020-02-14T08:35:57Z</time>
      </trkpt>
      <trkpt lat="59.223764" lon="18.136016">
        <ele>31</ele>
        <time>2020-02-14T08:35:57Z</time>
      </trkpt>
      <trkpt lat="59.223732" lon="18.136096">
        <ele>32</ele>
        <time>2020-02-14T08:35:58Z</time>
      </trkpt>
      <trkpt lat="59.223698" lon="18.136174">
        <ele>32</ele>
        <time>2020-02-14T08:35:59Z</time>
      </trkpt>
      <trkpt lat="59.223663" lon="18.136259">
        <ele>32</ele>
        <time>2020-02-14T08:36:00Z</time>
      </trkpt>
      <trkpt lat="59.223626" lon="18.136345">
        <ele>32</ele>
        <time>2020-02-14T08:36:01Z</time>
      </trkpt>
      <trkpt lat="59.223588" lon="18.136424">
        <ele>31</ele>
        <time>2020-02-14T08:36:02Z</time>
      </trkpt>
      <trkpt lat="59.223552" lon="18.1365">
        <ele>31</ele>
        <time>2020-02-14T08:36:03Z</time>
      </trkpt>
      <trkpt lat="59.223514" lon="18.136573">
        <ele>31</ele>
        <time>2020-02-14T08:36:04Z</time>
      </trkpt>
      <trkpt lat="59.223476" lon="18.136644">
        <ele>31</ele>
        <time>2020-02-14T08:36:06Z</time>
      </trkpt>
      <trkpt lat="59.223438" lon="18.136716">
        <ele>31</ele>
        <time>2020-02-14T08:36:06Z</time>
      </trkpt>
      <trkpt lat="59.223398" lon="18.136789">
        <ele>31</ele>
        <time>2020-02-14T08:36:07Z</time>
      </trkpt>
      <trkpt lat="59.22336" lon="18.13686">
        <ele>31</ele>
        <time>2020-02-14T08:36:08Z</time>
      </trkpt>
      <trkpt lat="59.22332" lon="18.136928">
        <ele>31</ele>
        <time>2020-02-14T08:36:09Z</time>
      </trkpt>
      <trkpt lat="59.223282" lon="18.136985">
        <ele>31</ele>
        <time>2020-02-14T08:36:10Z</time>
      </trkpt>
      <trkpt lat="59.22324" lon="18.137047">
        <ele>31</ele>
        <time>2020-02-14T08:36:11Z</time>
      </trkpt>
      <trkpt lat="59.223198" lon="18.137107">
        <ele>31</ele>
        <time>2020-02-14T08:36:12Z</time>
      </trkpt>
      <trkpt lat="59.223157" lon="18.137164">
        <ele>31</ele>
        <time>2020-02-14T08:36:13Z</time>
      </trkpt>
      <trkpt lat="59.223116" lon="18.137219">
        <ele>31</ele>
        <time>2020-02-14T08:36:14Z</time>
      </trkpt>
      <trkpt lat="59.223072" lon="18.137273">
        <ele>31</ele>
        <time>2020-02-14T08:36:15Z</time>
      </trkpt>
      <trkpt lat="59.223028" lon="18.13732">
        <ele>31</ele>
        <time>2020-02-14T08:36:16Z</time>
      </trkpt>
      <trkpt lat="59.222984" lon="18.137364">
        <ele>31</ele>
        <time>2020-02-14T08:36:17Z</time>
      </trkpt>
      <trkpt lat="59.22294" lon="18.137406">
        <ele>31</ele>
        <time>2020-02-14T08:36:18Z</time>
      </trkpt>
      <trkpt lat="59.222896" lon="18.137452">
        <ele>31</ele>
        <time>2020-02-14T08:36:19Z</time>
      </trkpt>
      <trkpt lat="59.22285" lon="18.1375">
        <ele>31</ele>
        <time>2020-02-14T08:36:20Z</time>
      </trkpt>
      <trkpt lat="59.222806" lon="18.137546">
        <ele>31</ele>
        <time>2020-02-14T08:36:21Z</time>
      </trkpt>
      <trkpt lat="59.222761" lon="18.13759">
        <ele>31</ele>
        <time>2020-02-14T08:36:23Z</time>
      </trkpt>
      <trkpt lat="59.222716" lon="18.137628">
        <ele>31</ele>
        <time>2020-02-14T08:36:23Z</time>
      </trkpt>
      <trkpt lat="59.222669" lon="18.137663">
        <ele>31</ele>
        <time>2020-02-14T08:36:25Z</time>
      </trkpt>
      <trkpt lat="59.222622" lon="18.1377">
        <ele>31</ele>
        <time>2020-02-14T08:36:25Z</time>
      </trkpt>
      <trkpt lat="59.222574" lon="18.137734">
        <ele>31</ele>
        <time>2020-02-14T08:36:26Z</time>
      </trkpt>
      <trkpt lat="59.222528" lon="18.137768">
        <ele>31</ele>
        <time>2020-02-14T08:36:27Z</time>
      </trkpt>
      <trkpt lat="59.22248" lon="18.1378">
        <ele>31</ele>
        <time>2020-02-14T08:36:28Z</time>
      </trkpt>
      <trkpt lat="59.222435" lon="18.13783">
        <ele>32</ele>
        <time>2020-02-14T08:36:29Z</time>
      </trkpt>
      <trkpt lat="59.222388" lon="18.13786">
        <ele>32</ele>
        <time>2020-02-14T08:36:30Z</time>
      </trkpt>
      <trkpt lat="59.22234" lon="18.137889">
        <ele>32</ele>
        <time>2020-02-14T08:36:31Z</time>
      </trkpt>
      <trkpt lat="59.222292" lon="18.137915">
        <ele>32</ele>
        <time>2020-02-14T08:36:32Z</time>
      </trkpt>
      <trkpt lat="59.222242" lon="18.137942">
        <ele>32</ele>
        <time>2020-02-14T08:36:33Z</time>
      </trkpt>
      <trkpt lat="59.222192" lon="18.137968">
        <ele>32</ele>
        <time>2020-02-14T08:36:35Z</time>
      </trkpt>
      <trkpt lat="59.222146" lon="18.137993">
        <ele>32</ele>
        <time>2020-02-14T08:36:35Z</time>
      </trkpt>
      <trkpt lat="59.222098" lon="18.13802">
        <ele>33</ele>
        <time>2020-02-14T08:36:36Z</time>
      </trkpt>
      <trkpt lat="59.22205" lon="18.138044">
        <ele>33</ele>
        <time>2020-02-14T08:36:37Z</time>
      </trkpt>
      <trkpt lat="59.222004" lon="18.138067">
        <ele>33</ele>
        <time>2020-02-14T08:36:38Z</time>
      </trkpt>
      <trkpt lat="59.221958" lon="18.138089">
        <ele>33</ele>
        <time>2020-02-14T08:36:39Z</time>
      </trkpt>
      <trkpt lat="59.221912" lon="18.13811">
        <ele>34</ele>
        <time>2020-02-14T08:36:40Z</time>
      </trkpt>
      <trkpt lat="59.221864" lon="18.138132">
        <ele>34</ele>
        <time>2020-02-14T08:36:41Z</time>
      </trkpt>
      <trkpt lat="59.221818" lon="18.138155">
        <ele>34</ele>
        <time>2020-02-14T08:36:42Z</time>
      </trkpt>
      <trkpt lat="59.221771" lon="18.138176">
        <ele>34</ele>
        <time>2020-02-14T08:36:43Z</time>
      </trkpt>
      <trkpt lat="59.221721" lon="18.138195">
        <ele>34</ele>
        <time>2020-02-14T08:36:44Z</time>
      </trkpt>
      <trkpt lat="59.221674" lon="18.138214">
        <ele>35</ele>
        <time>2020-02-14T08:36:45Z</time>
      </trkpt>
      <trkpt lat="59.221624" lon="18.138235">
        <ele>35</ele>
        <time>2020-02-14T08:36:46Z</time>
      </trkpt>
      <trkpt lat="59.221574" lon="18.138256">
        <ele>35</ele>
        <time>2020-02-14T08:36:47Z</time>
      </trkpt>
      <trkpt lat="59.221524" lon="18.138278">
        <ele>35</ele>
        <time>2020-02-14T08:36:48Z</time>
      </trkpt>
      <trkpt lat="59.221472" lon="18.138299">
        <ele>35</ele>
        <time>2020-02-14T08:36:49Z</time>
      </trkpt>
      <trkpt lat="59.22142" lon="18.138323">
        <ele>35</ele>
        <time>2020-02-14T08:36:50Z</time>
      </trkpt>
      <trkpt lat="59.221366" lon="18.138344">
        <ele>35</ele>
        <time>2020-02-14T08:36:51Z</time>
      </trkpt>
      <trkpt lat="59.22131" lon="18.138365">
        <ele>34</ele>
        <time>2020-02-14T08:36:52Z</time>
      </trkpt>
      <trkpt lat="59.221256" lon="18.138387">
        <ele>34</ele>
        <time>2020-02-14T08:36:53Z</time>
      </trkpt>
      <trkpt lat="59.221202" lon="18.138408">
        <ele>35</ele>
        <time>2020-02-14T08:36:55Z</time>
      </trkpt>
      <trkpt lat="59.22115" lon="18.138427">
        <ele>34</ele>
        <time>2020-02-14T08:36:55Z</time>
      </trkpt>
      <trkpt lat="59.221095" lon="18.138445">
        <ele>34</ele>
        <time>2020-02-14T08:36:56Z</time>
      </trkpt>
      <trkpt lat="59.221037" lon="18.138464">
        <ele>34</ele>
        <time>2020-02-14T08:36:57Z</time>
      </trkpt>
      <trkpt lat="59.22098" lon="18.138483">
        <ele>34</ele>
        <time>2020-02-14T08:36:58Z</time>
      </trkpt>
      <trkpt lat="59.220924" lon="18.138506">
        <ele>34</ele>
        <time>2020-02-14T08:36:59Z</time>
      </trkpt>
      <trkpt lat="59.220867" lon="18.138528">
        <ele>34</ele>
        <time>2020-02-14T08:37:00Z</time>
      </trkpt>
      <trkpt lat="59.22081" lon="18.138549">
        <ele>34</ele>
        <time>2020-02-14T08:37:01Z</time>
      </trkpt>
      <trkpt lat="59.220753" lon="18.138574">
        <ele>34</ele>
        <time>2020-02-14T08:37:02Z</time>
      </trkpt>
      <trkpt lat="59.220695" lon="18.138603">
        <ele>35</ele>
        <time>2020-02-14T08:37:04Z</time>
      </trkpt>
      <trkpt lat="59.220636" lon="18.138636">
        <ele>35</ele>
        <time>2020-02-14T08:37:04Z</time>
      </trkpt>
      <trkpt lat="59.220576" lon="18.13867">
        <ele>35</ele>
        <time>2020-02-14T08:37:05Z</time>
      </trkpt>
      <trkpt lat="59.220515" lon="18.138708">
        <ele>35</ele>
        <time>2020-02-14T08:37:06Z</time>
      </trkpt>
      <trkpt lat="59.220452" lon="18.13875">
        <ele>34</ele>
        <time>2020-02-14T08:37:07Z</time>
      </trkpt>
      <trkpt lat="59.220389" lon="18.138795">
        <ele>34</ele>
        <time>2020-02-14T08:37:08Z</time>
      </trkpt>
      <trkpt lat="59.220327" lon="18.138844">
        <ele>34</ele>
        <time>2020-02-14T08:37:09Z</time>
      </trkpt>
      <trkpt lat="59.220264" lon="18.1389">
        <ele>34</ele>
        <time>2020-02-14T08:37:11Z</time>
      </trkpt>
      <trkpt lat="59.220206" lon="18.138964">
        <ele>34</ele>
        <time>2020-02-14T08:37:11Z</time>
      </trkpt>
      <trkpt lat="59.220147" lon="18.139034">
        <ele>33</ele>
        <time>2020-02-14T08:37:12Z</time>
      </trkpt>
      <trkpt lat="59.220088" lon="18.139108">
        <ele>33</ele>
        <time>2020-02-14T08:37:13Z</time>
      </trkpt>
      <trkpt lat="59.220028" lon="18.139185">
        <ele>33</ele>
        <time>2020-02-14T08:37:14Z</time>
      </trkpt>
      <trkpt lat="59.219968" lon="18.139265">
        <ele>33</ele>
        <time>2020-02-14T08:37:15Z</time>
      </trkpt>
      <trkpt lat="59.219908" lon="18.139344">
        <ele>33</ele>
        <time>2020-02-14T08:37:16Z</time>
      </trkpt>
      <trkpt lat="59.219847" lon="18.139425">
        <ele>33</ele>
        <time>2020-02-14T08:37:18Z</time>
      </trkpt>
      <trkpt lat="59.219782" lon="18.139499">
        <ele>33</ele>
        <time>2020-02-14T08:37:18Z</time>
      </trkpt>
      <trkpt lat="59.219717" lon="18.139572">
        <ele>32</ele>
        <time>2020-02-14T08:37:19Z</time>
      </trkpt>
      <trkpt lat="59.21965" lon="18.139652">
        <ele>32</ele>
        <time>2020-02-14T08:37:20Z</time>
      </trkpt>
      <trkpt lat="59.219579" lon="18.139733">
        <ele>31</ele>
        <time>2020-02-14T08:37:21Z</time>
      </trkpt>
      <trkpt lat="59.219509" lon="18.139814">
        <ele>31</ele>
        <time>2020-02-14T08:37:22Z</time>
      </trkpt>
      <trkpt lat="59.219443" lon="18.139894">
        <ele>31</ele>
        <time>2020-02-14T08:37:23Z</time>
      </trkpt>
      <trkpt lat="59.219378" lon="18.139972">
        <ele>30</ele>
        <time>2020-02-14T08:37:25Z</time>
      </trkpt>
      <trkpt lat="59.219316" lon="18.140048">
        <ele>30</ele>
        <time>2020-02-14T08:37:25Z</time>
      </trkpt>
      <trkpt lat="59.219256" lon="18.140121">
        <ele>30</ele>
        <time>2020-02-14T08:37:26Z</time>
      </trkpt>
      <trkpt lat="59.219198" lon="18.140189">
        <ele>29</ele>
        <time>2020-02-14T08:37:27Z</time>
      </trkpt>
      <trkpt lat="59.219143" lon="18.140256">
        <ele>29</ele>
        <time>2020-02-14T08:37:28Z</time>
      </trkpt>
      <trkpt lat="59.219089" lon="18.140319">
        <ele>29</ele>
        <time>2020-02-14T08:37:29Z</time>
      </trkpt>
      <trkpt lat="59.219035" lon="18.140383">
        <ele>28</ele>
        <time>2020-02-14T08:37:30Z</time>
      </trkpt>
      <trkpt lat="59.21898" lon="18.140448">
        <ele>28</ele>
        <time>2020-02-14T08:37:32Z</time>
      </trkpt>
      <trkpt lat="59.218926" lon="18.140512">
        <ele>28</ele>
        <time>2020-02-14T08:37:32Z</time>
      </trkpt>
      <trkpt lat="59.218873" lon="18.140577">
        <ele>28</ele>
        <time>2020-02-14T08:37:33Z</time>
      </trkpt>
      <trkpt lat="59.21882" lon="18.140644">
        <ele>27</ele>
        <time>2020-02-14T08:37:34Z</time>
      </trkpt>
      <trkpt lat="59.21877" lon="18.14071">
        <ele>27</ele>
        <time>2020-02-14T08:37:35Z</time>
      </trkpt>
      <trkpt lat="59.218723" lon="18.140782">
        <ele>27</ele>
        <time>2020-02-14T08:37:36Z</time>
      </trkpt>
      <trkpt lat="59.218683" lon="18.140866">
        <ele>27</ele>
        <time>2020-02-14T08:37:37Z</time>
      </trkpt>
      <trkpt lat="59.218654" lon="18.140959">
        <ele>27</ele>
        <time>2020-02-14T08:37:38Z</time>
      </trkpt>
      <trkpt lat="59.218636" lon="18.14106">
        <ele>27</ele>
        <time>2020-02-14T08:37:39Z</time>
      </trkpt>
      <trkpt lat="59.218623" lon="18.141163">
        <ele>27</ele>
        <time>2020-02-14T08:37:41Z</time>
      </trkpt>
      <trkpt lat="59.218612" lon="18.141266">
        <ele>27</ele>
        <time>2020-02-14T08:37:41Z</time>
      </trkpt>
      <trkpt lat="59.218606" lon="18.141365">
        <ele>26</ele>
        <time>2020-02-14T08:37:42Z</time>
      </trkpt>
      <trkpt lat="59.218595" lon="18.141459">
        <ele>26</ele>
        <time>2020-02-14T08:37:43Z</time>
      </trkpt>
      <trkpt lat="59.218572" lon="18.141535">
        <ele>26</ele>
        <time>2020-02-14T08:37:44Z</time>
      </trkpt>
      <trkpt lat="59.218536" lon="18.141581">
        <ele>26</ele>
        <time>2020-02-14T08:37:45Z</time>
      </trkpt>
      <trkpt lat="59.218494" lon="18.1416">
        <ele>26</ele>
        <time>2020-02-14T08:37:46Z</time>
      </trkpt>
      <trkpt lat="59.21845" lon="18.141614">
        <ele>26</ele>
        <time>2020-02-14T08:37:47Z</time>
      </trkpt>
      <trkpt lat="59.218408" lon="18.141634">
        <ele>26</ele>
        <time>2020-02-14T08:37:48Z</time>
      </trkpt>
      <trkpt lat="59.218365" lon="18.141658">
        <ele>25</ele>
        <time>2020-02-14T08:37:49Z</time>
      </trkpt>
      <trkpt lat="59.218321" lon="18.141663">
        <ele>25</ele>
        <time>2020-02-14T08:37:51Z</time>
      </trkpt>
      <trkpt lat="59.218279" lon="18.141631">
        <ele>25</ele>
        <time>2020-02-14T08:37:52Z</time>
      </trkpt>
      <trkpt lat="59.218241" lon="18.141578">
        <ele>25</ele>
        <time>2020-02-14T08:37:53Z</time>
      </trkpt>
      <trkpt lat="59.218156" lon="18.141509">
        <ele>26</ele>
        <time>2020-02-14T08:37:54Z</time>
      </trkpt>
      <trkpt lat="59.21811" lon="18.141515">
        <ele>26</ele>
        <time>2020-02-14T08:37:55Z</time>
      </trkpt>
      <trkpt lat="59.218066" lon="18.141545">
        <ele>26</ele>
        <time>2020-02-14T08:37:56Z</time>
      </trkpt>
      <trkpt lat="59.218025" lon="18.141582">
        <ele>26</ele>
        <time>2020-02-14T08:37:57Z</time>
      </trkpt>
      <trkpt lat="59.217985" lon="18.141624">
        <ele>26</ele>
        <time>2020-02-14T08:37:58Z</time>
      </trkpt>
      <trkpt lat="59.217945" lon="18.141672">
        <ele>26</ele>
        <time>2020-02-14T08:37:59Z</time>
      </trkpt>
      <trkpt lat="59.217907" lon="18.141723">
        <ele>26</ele>
        <time>2020-02-14T08:38:00Z</time>
      </trkpt>
      <trkpt lat="59.217867" lon="18.141773">
        <ele>26</ele>
        <time>2020-02-14T08:38:02Z</time>
      </trkpt>
      <trkpt lat="59.217827" lon="18.141822">
        <ele>26</ele>
        <time>2020-02-14T08:38:02Z</time>
      </trkpt>
      <trkpt lat="59.217785" lon="18.141869">
        <ele>26</ele>
        <time>2020-02-14T08:38:03Z</time>
      </trkpt>
      <trkpt lat="59.217741" lon="18.141915">
        <ele>26</ele>
        <time>2020-02-14T08:38:04Z</time>
      </trkpt>
      <trkpt lat="59.217698" lon="18.141963">
        <ele>26</ele>
        <time>2020-02-14T08:38:05Z</time>
      </trkpt>
      <trkpt lat="59.217653" lon="18.142008">
        <ele>26</ele>
        <time>2020-02-14T08:38:06Z</time>
      </trkpt>
      <trkpt lat="59.217609" lon="18.142054">
        <ele>26</ele>
        <time>2020-02-14T08:38:07Z</time>
      </trkpt>
      <trkpt lat="59.217566" lon="18.142103">
        <ele>26</ele>
        <time>2020-02-14T08:38:08Z</time>
      </trkpt>
      <trkpt lat="59.217522" lon="18.142153">
        <ele>26</ele>
        <time>2020-02-14T08:38:09Z</time>
      </trkpt>
      <trkpt lat="59.217477" lon="18.142202">
        <ele>26</ele>
        <time>2020-02-14T08:38:10Z</time>
      </trkpt>
      <trkpt lat="59.217433" lon="18.142252">
        <ele>26</ele>
        <time>2020-02-14T08:38:12Z</time>
      </trkpt>
      <trkpt lat="59.217389" lon="18.142302">
        <ele>26</ele>
        <time>2020-02-14T08:38:12Z</time>
      </trkpt>
      <trkpt lat="59.217344" lon="18.142353">
        <ele>26</ele>
        <time>2020-02-14T08:38:13Z</time>
      </trkpt>
      <trkpt lat="59.217299" lon="18.142406">
        <ele>26</ele>
        <time>2020-02-14T08:38:14Z</time>
      </trkpt>
      <trkpt lat="59.217254" lon="18.14246">
        <ele>26</ele>
        <time>2020-02-14T08:38:15Z</time>
      </trkpt>
      <trkpt lat="59.217208" lon="18.142514">
        <ele>25</ele>
        <time>2020-02-14T08:38:16Z</time>
      </trkpt>
      <trkpt lat="59.217162" lon="18.142569">
        <ele>26</ele>
        <time>2020-02-14T08:38:17Z</time>
      </trkpt>
      <trkpt lat="59.217116" lon="18.142623">
        <ele>26</ele>
        <time>2020-02-14T08:38:18Z</time>
      </trkpt>
      <trkpt lat="59.21707" lon="18.142677">
        <ele>26</ele>
        <time>2020-02-14T08:38:19Z</time>
      </trkpt>
      <trkpt lat="59.217024" lon="18.142732">
        <ele>26</ele>
        <time>2020-02-14T08:38:20Z</time>
      </trkpt>
      <trkpt lat="59.216977" lon="18.142788">
        <ele>26</ele>
        <time>2020-02-14T08:38:22Z</time>
      </trkpt>
      <trkpt lat="59.216929" lon="18.142844">
        <ele>26</ele>
        <time>2020-02-14T08:38:22Z</time>
      </trkpt>
      <trkpt lat="59.216881" lon="18.142901">
        <ele>26</ele>
        <time>2020-02-14T08:38:23Z</time>
      </trkpt>
      <trkpt lat="59.216832" lon="18.142959">
        <ele>26</ele>
        <time>2020-02-14T08:38:24Z</time>
      </trkpt>
      <trkpt lat="59.216781" lon="18.143017">
        <ele>25</ele>
        <time>2020-02-14T08:38:25Z</time>
      </trkpt>
      <trkpt lat="59.216731" lon="18.143074">
        <ele>25</ele>
        <time>2020-02-14T08:38:26Z</time>
      </trkpt>
      <trkpt lat="59.216681" lon="18.143132">
        <ele>25</ele>
        <time>2020-02-14T08:38:27Z</time>
      </trkpt>
      <trkpt lat="59.21663" lon="18.143189">
        <ele>25</ele>
        <time>2020-02-14T08:38:28Z</time>
      </trkpt>
      <trkpt lat="59.21658" lon="18.143246">
        <ele>25</ele>
        <time>2020-02-14T08:38:30Z</time>
      </trkpt>
      <trkpt lat="59.216529" lon="18.143304">
        <ele>25</ele>
        <time>2020-02-14T08:38:30Z</time>
      </trkpt>
      <trkpt lat="59.21648" lon="18.143361">
        <ele>25</ele>
        <time>2020-02-14T08:38:31Z</time>
      </trkpt>
      <trkpt lat="59.216431" lon="18.143418">
        <ele>25</ele>
        <time>2020-02-14T08:38:32Z</time>
      </trkpt>
      <trkpt lat="59.216383" lon="18.143475">
        <ele>25</ele>
        <time>2020-02-14T08:38:33Z</time>
      </trkpt>
      <trkpt lat="59.216336" lon="18.14353">
        <ele>25</ele>
        <time>2020-02-14T08:38:34Z</time>
      </trkpt>
      <trkpt lat="59.21629" lon="18.143585">
        <ele>25</ele>
        <time>2020-02-14T08:38:35Z</time>
      </trkpt>
      <trkpt lat="59.216244" lon="18.143639">
        <ele>26</ele>
        <time>2020-02-14T08:38:36Z</time>
      </trkpt>
      <trkpt lat="59.216198" lon="18.143691">
        <ele>26</ele>
        <time>2020-02-14T08:38:37Z</time>
      </trkpt>
      <trkpt lat="59.216154" lon="18.143739">
        <ele>26</ele>
        <time>2020-02-14T08:38:38Z</time>
      </trkpt>
      <trkpt lat="59.216112" lon="18.143787">
        <ele>26</ele>
        <time>2020-02-14T08:38:40Z</time>
      </trkpt>
      <trkpt lat="59.216071" lon="18.143836">
        <ele>26</ele>
        <time>2020-02-14T08:38:40Z</time>
      </trkpt>
      <trkpt lat="59.21603" lon="18.143886">
        <ele>26</ele>
        <time>2020-02-14T08:38:41Z</time>
      </trkpt>
      <trkpt lat="59.215989" lon="18.143936">
        <ele>26</ele>
        <time>2020-02-14T08:38:42Z</time>
      </trkpt>
      <trkpt lat="59.215947" lon="18.143982">
        <ele>26</ele>
        <time>2020-02-14T08:38:43Z</time>
      </trkpt>
      <trkpt lat="59.215905" lon="18.14403">
        <ele>26</ele>
        <time>2020-02-14T08:38:44Z</time>
      </trkpt>
      <trkpt lat="59.215864" lon="18.144075">
        <ele>26</ele>
        <time>2020-02-14T08:38:45Z</time>
      </trkpt>
      <trkpt lat="59.215824" lon="18.144122">
        <ele>26</ele>
        <time>2020-02-14T08:38:46Z</time>
      </trkpt>
      <trkpt lat="59.215783" lon="18.144169">
        <ele>26</ele>
        <time>2020-02-14T08:38:47Z</time>
      </trkpt>
      <trkpt lat="59.215743" lon="18.144217">
        <ele>26</ele>
        <time>2020-02-14T08:38:48Z</time>
      </trkpt>
      <trkpt lat="59.215704" lon="18.144266">
        <ele>27</ele>
        <time>2020-02-14T08:38:49Z</time>
      </trkpt>
      <trkpt lat="59.215665" lon="18.144313">
        <ele>27</ele>
        <time>2020-02-14T08:38:50Z</time>
      </trkpt>
      <trkpt lat="59.215625" lon="18.14436">
        <ele>27</ele>
        <time>2020-02-14T08:38:51Z</time>
      </trkpt>
      <trkpt lat="59.215585" lon="18.144409">
        <ele>27</ele>
        <time>2020-02-14T08:38:52Z</time>
      </trkpt>
      <trkpt lat="59.215545" lon="18.144456">
        <ele>27</ele>
        <time>2020-02-14T08:38:53Z</time>
      </trkpt>
      <trkpt lat="59.215504" lon="18.144503">
        <ele>27</ele>
        <time>2020-02-14T08:38:54Z</time>
      </trkpt>
      <trkpt lat="59.215462" lon="18.144549">
        <ele>27</ele>
        <time>2020-02-14T08:38:55Z</time>
      </trkpt>
      <trkpt lat="59.215419" lon="18.144595">
        <ele>27</ele>
        <time>2020-02-14T08:38:56Z</time>
      </trkpt>
      <trkpt lat="59.215378" lon="18.144643">
        <ele>27</ele>
        <time>2020-02-14T08:38:57Z</time>
      </trkpt>
      <trkpt lat="59.215336" lon="18.144695">
        <ele>27</ele>
        <time>2020-02-14T08:38:58Z</time>
      </trkpt>
      <trkpt lat="59.215295" lon="18.144746">
        <ele>27</ele>
        <time>2020-02-14T08:38:59Z</time>
      </trkpt>
      <trkpt lat="59.215254" lon="18.144796">
        <ele>27</ele>
        <time>2020-02-14T08:39:00Z</time>
      </trkpt>
      <trkpt lat="59.215214" lon="18.144846">
        <ele>27</ele>
        <time>2020-02-14T08:39:01Z</time>
      </trkpt>
      <trkpt lat="59.215172" lon="18.144895">
        <ele>27</ele>
        <time>2020-02-14T08:39:02Z</time>
      </trkpt>
      <trkpt lat="59.215132" lon="18.144942">
        <ele>27</ele>
        <time>2020-02-14T08:39:03Z</time>
      </trkpt>
      <trkpt lat="59.215091" lon="18.144988">
        <ele>27</ele>
        <time>2020-02-14T08:39:04Z</time>
      </trkpt>
      <trkpt lat="59.215051" lon="18.145034">
        <ele>27</ele>
        <time>2020-02-14T08:39:05Z</time>
      </trkpt>
      <trkpt lat="59.215011" lon="18.145078">
        <ele>27</ele>
        <time>2020-02-14T08:39:06Z</time>
      </trkpt>
      <trkpt lat="59.214971" lon="18.145124">
        <ele>27</ele>
        <time>2020-02-14T08:39:07Z</time>
      </trkpt>
      <trkpt lat="59.21493" lon="18.145172">
        <ele>27</ele>
        <time>2020-02-14T08:39:08Z</time>
      </trkpt>
      <trkpt lat="59.21489" lon="18.145218">
        <ele>27</ele>
        <time>2020-02-14T08:39:09Z</time>
      </trkpt>
      <trkpt lat="59.214851" lon="18.145262">
        <ele>27</ele>
        <time>2020-02-14T08:39:11Z</time>
      </trkpt>
      <trkpt lat="59.214812" lon="18.145307">
        <ele>27</ele>
        <time>2020-02-14T08:39:11Z</time>
      </trkpt>
      <trkpt lat="59.214773" lon="18.14535">
        <ele>27</ele>
        <time>2020-02-14T08:39:12Z</time>
      </trkpt>
      <trkpt lat="59.214733" lon="18.145394">
        <ele>27</ele>
        <time>2020-02-14T08:39:13Z</time>
      </trkpt>
      <trkpt lat="59.214694" lon="18.145439">
        <ele>27</ele>
        <time>2020-02-14T08:39:14Z</time>
      </trkpt>
      <trkpt lat="59.214655" lon="18.145489">
        <ele>27</ele>
        <time>2020-02-14T08:39:15Z</time>
      </trkpt>
      <trkpt lat="59.214618" lon="18.145536">
        <ele>28</ele>
        <time>2020-02-14T08:39:16Z</time>
      </trkpt>
      <trkpt lat="59.21458" lon="18.145582">
        <ele>28</ele>
        <time>2020-02-14T08:39:17Z</time>
      </trkpt>
      <trkpt lat="59.214542" lon="18.145629">
        <ele>28</ele>
        <time>2020-02-14T08:39:18Z</time>
      </trkpt>
      <trkpt lat="59.214504" lon="18.145672">
        <ele>28</ele>
        <time>2020-02-14T08:39:19Z</time>
      </trkpt>
      <trkpt lat="59.214466" lon="18.145716">
        <ele>28</ele>
        <time>2020-02-14T08:39:20Z</time>
      </trkpt>
      <trkpt lat="59.214429" lon="18.14576">
        <ele>28</ele>
        <time>2020-02-14T08:39:21Z</time>
      </trkpt>
      <trkpt lat="59.214391" lon="18.145804">
        <ele>28</ele>
        <time>2020-02-14T08:39:22Z</time>
      </trkpt>
      <trkpt lat="59.214354" lon="18.145848">
        <ele>28</ele>
        <time>2020-02-14T08:39:23Z</time>
      </trkpt>
      <trkpt lat="59.214318" lon="18.145892">
        <ele>28</ele>
        <time>2020-02-14T08:39:24Z</time>
      </trkpt>
      <trkpt lat="59.21428" lon="18.145935">
        <ele>28</ele>
        <time>2020-02-14T08:39:25Z</time>
      </trkpt>
      <trkpt lat="59.214243" lon="18.145977">
        <ele>28</ele>
        <time>2020-02-14T08:39:26Z</time>
      </trkpt>
      <trkpt lat="59.214207" lon="18.146023">
        <ele>28</ele>
        <time>2020-02-14T08:39:27Z</time>
      </trkpt>
      <trkpt lat="59.214171" lon="18.14607">
        <ele>29</ele>
        <time>2020-02-14T08:39:28Z</time>
      </trkpt>
      <trkpt lat="59.214135" lon="18.146111">
        <ele>29</ele>
        <time>2020-02-14T08:39:29Z</time>
      </trkpt>
      <trkpt lat="59.214097" lon="18.14615">
        <ele>29</ele>
        <time>2020-02-14T08:39:30Z</time>
      </trkpt>
      <trkpt lat="59.21406" lon="18.14619">
        <ele>29</ele>
        <time>2020-02-14T08:39:31Z</time>
      </trkpt>
      <trkpt lat="59.214022" lon="18.146233">
        <ele>29</ele>
        <time>2020-02-14T08:39:32Z</time>
      </trkpt>
      <trkpt lat="59.213986" lon="18.146276">
        <ele>29</ele>
        <time>2020-02-14T08:39:33Z</time>
      </trkpt>
      <trkpt lat="59.213951" lon="18.146318">
        <ele>29</ele>
        <time>2020-02-14T08:39:34Z</time>
      </trkpt>
      <trkpt lat="59.213916" lon="18.146362">
        <ele>29</ele>
        <time>2020-02-14T08:39:35Z</time>
      </trkpt>
      <trkpt lat="59.213881" lon="18.146404">
        <ele>29</ele>
        <time>2020-02-14T08:39:36Z</time>
      </trkpt>
      <trkpt lat="59.213844" lon="18.146445">
        <ele>29</ele>
        <time>2020-02-14T08:39:37Z</time>
      </trkpt>
      <trkpt lat="59.213808" lon="18.146485">
        <ele>29</ele>
        <time>2020-02-14T08:39:38Z</time>
      </trkpt>
      <trkpt lat="59.213772" lon="18.146525">
        <ele>29</ele>
        <time>2020-02-14T08:39:39Z</time>
      </trkpt>
      <trkpt lat="59.213736" lon="18.146564">
        <ele>30</ele>
        <time>2020-02-14T08:39:40Z</time>
      </trkpt>
      <trkpt lat="59.213698" lon="18.146601">
        <ele>30</ele>
        <time>2020-02-14T08:39:41Z</time>
      </trkpt>
      <trkpt lat="59.21366" lon="18.146637">
        <ele>30</ele>
        <time>2020-02-14T08:39:42Z</time>
      </trkpt>
      <trkpt lat="59.213623" lon="18.146674">
        <ele>30</ele>
        <time>2020-02-14T08:39:43Z</time>
      </trkpt>
      <trkpt lat="59.213586" lon="18.146708">
        <ele>30</ele>
        <time>2020-02-14T08:39:44Z</time>
      </trkpt>
      <trkpt lat="59.213548" lon="18.14674">
        <ele>30</ele>
        <time>2020-02-14T08:39:45Z</time>
      </trkpt>
      <trkpt lat="59.21351" lon="18.146769">
        <ele>30</ele>
        <time>2020-02-14T08:39:46Z</time>
      </trkpt>
      <trkpt lat="59.213474" lon="18.146795">
        <ele>30</ele>
        <time>2020-02-14T08:39:47Z</time>
      </trkpt>
      <trkpt lat="59.213438" lon="18.14682">
        <ele>30</ele>
        <time>2020-02-14T08:39:48Z</time>
      </trkpt>
      <trkpt lat="59.213402" lon="18.146843">
        <ele>30</ele>
        <time>2020-02-14T08:39:49Z</time>
      </trkpt>
      <trkpt lat="59.213366" lon="18.146866">
        <ele>31</ele>
        <time>2020-02-14T08:39:50Z</time>
      </trkpt>
      <trkpt lat="59.21333" lon="18.146888">
        <ele>31</ele>
        <time>2020-02-14T08:39:51Z</time>
      </trkpt>
      <trkpt lat="59.213294" lon="18.146906">
        <ele>31</ele>
        <time>2020-02-14T08:39:52Z</time>
      </trkpt>
      <trkpt lat="59.213258" lon="18.146923">
        <ele>31</ele>
        <time>2020-02-14T08:39:53Z</time>
      </trkpt>
      <trkpt lat="59.213222" lon="18.146943">
        <ele>31</ele>
        <time>2020-02-14T08:39:54Z</time>
      </trkpt>
      <trkpt lat="59.213186" lon="18.146963">
        <ele>32</ele>
        <time>2020-02-14T08:39:55Z</time>
      </trkpt>
      <trkpt lat="59.213151" lon="18.146981">
        <ele>32</ele>
        <time>2020-02-14T08:39:56Z</time>
      </trkpt>
      <trkpt lat="59.213118" lon="18.146998">
        <ele>32</ele>
        <time>2020-02-14T08:39:57Z</time>
      </trkpt>
      <trkpt lat="59.213086" lon="18.147014">
        <ele>32</ele>
        <time>2020-02-14T08:39:58Z</time>
      </trkpt>
      <trkpt lat="59.213054" lon="18.147027">
        <ele>32</ele>
        <time>2020-02-14T08:39:59Z</time>
      </trkpt>
      <trkpt lat="59.213022" lon="18.14704">
        <ele>32</ele>
        <time>2020-02-14T08:40:00Z</time>
      </trkpt>
      <trkpt lat="59.21299" lon="18.147052">
        <ele>32</ele>
        <time>2020-02-14T08:40:01Z</time>
      </trkpt>
      <trkpt lat="59.212958" lon="18.147064">
        <ele>33</ele>
        <time>2020-02-14T08:40:02Z</time>
      </trkpt>
      <trkpt lat="59.212926" lon="18.147074">
        <ele>33</ele>
        <time>2020-02-14T08:40:03Z</time>
      </trkpt>
      <trkpt lat="59.212894" lon="18.147086">
        <ele>33</ele>
        <time>2020-02-14T08:40:04Z</time>
      </trkpt>
      <trkpt lat="59.212862" lon="18.147096">
        <ele>33</ele>
        <time>2020-02-14T08:40:05Z</time>
      </trkpt>
      <trkpt lat="59.21283" lon="18.147105">
        <ele>33</ele>
        <time>2020-02-14T08:40:06Z</time>
      </trkpt>
      <trkpt lat="59.212798" lon="18.147113">
        <ele>33</ele>
        <time>2020-02-14T08:40:07Z</time>
      </trkpt>
      <trkpt lat="59.212767" lon="18.147122">
        <ele>34</ele>
        <time>2020-02-14T08:40:08Z</time>
      </trkpt>
      <trkpt lat="59.212736" lon="18.147131">
        <ele>34</ele>
        <time>2020-02-14T08:40:09Z</time>
      </trkpt>
      <trkpt lat="59.212704" lon="18.147138">
        <ele>34</ele>
        <time>2020-02-14T08:40:11Z</time>
      </trkpt>
      <trkpt lat="59.212672" lon="18.147144">
        <ele>34</ele>
        <time>2020-02-14T08:40:11Z</time>
      </trkpt>
      <trkpt lat="59.21264" lon="18.147149">
        <ele>34</ele>
        <time>2020-02-14T08:40:12Z</time>
      </trkpt>
      <trkpt lat="59.212607" lon="18.147154">
        <ele>35</ele>
        <time>2020-02-14T08:40:13Z</time>
      </trkpt>
      <trkpt lat="59.212575" lon="18.14716">
        <ele>35</ele>
        <time>2020-02-14T08:40:15Z</time>
      </trkpt>
      <trkpt lat="59.212541" lon="18.147167">
        <ele>35</ele>
        <time>2020-02-14T08:40:15Z</time>
      </trkpt>
      <trkpt lat="59.212508" lon="18.147172">
        <ele>35</ele>
        <time>2020-02-14T08:40:16Z</time>
      </trkpt>
      <trkpt lat="59.212475" lon="18.147176">
        <ele>35</ele>
        <time>2020-02-14T08:40:17Z</time>
      </trkpt>
      <trkpt lat="59.212442" lon="18.147181">
        <ele>35</ele>
        <time>2020-02-14T08:40:18Z</time>
      </trkpt>
      <trkpt lat="59.212409" lon="18.147186">
        <ele>35</ele>
        <time>2020-02-14T08:40:19Z</time>
      </trkpt>
      <trkpt lat="59.212376" lon="18.14719">
        <ele>36</ele>
        <time>2020-02-14T08:40:20Z</time>
      </trkpt>
      <trkpt lat="59.212343" lon="18.147193">
        <ele>36</ele>
        <time>2020-02-14T08:40:21Z</time>
      </trkpt>
      <trkpt lat="59.21231" lon="18.147196">
        <ele>36</ele>
        <time>2020-02-14T08:40:22Z</time>
      </trkpt>
      <trkpt lat="59.212277" lon="18.147197">
        <ele>36</ele>
        <time>2020-02-14T08:40:23Z</time>
      </trkpt>
      <trkpt lat="59.212245" lon="18.147196">
        <ele>36</ele>
        <time>2020-02-14T08:40:24Z</time>
      </trkpt>
      <trkpt lat="59.212213" lon="18.147196">
        <ele>37</ele>
        <time>2020-02-14T08:40:25Z</time>
      </trkpt>
      <trkpt lat="59.21218" lon="18.147194">
        <ele>37</ele>
        <time>2020-02-14T08:40:26Z</time>
      </trkpt>
      <trkpt lat="59.212148" lon="18.147193">
        <ele>37</ele>
        <time>2020-02-14T08:40:27Z</time>
      </trkpt>
      <trkpt lat="59.212116" lon="18.147193">
        <ele>37</ele>
        <time>2020-02-14T08:40:28Z</time>
      </trkpt>
      <trkpt lat="59.212083" lon="18.147194">
        <ele>37</ele>
        <time>2020-02-14T08:40:30Z</time>
      </trkpt>
      <trkpt lat="59.212052" lon="18.147191">
        <ele>38</ele>
        <time>2020-02-14T08:40:30Z</time>
      </trkpt>
      <trkpt lat="59.212021" lon="18.147187">
        <ele>38</ele>
        <time>2020-02-14T08:40:31Z</time>
      </trkpt>
      <trkpt lat="59.211991" lon="18.14718">
        <ele>38</ele>
        <time>2020-02-14T08:40:32Z</time>
      </trkpt>
      <trkpt lat="59.211962" lon="18.147176">
        <ele>38</ele>
        <time>2020-02-14T08:40:33Z</time>
      </trkpt>
      <trkpt lat="59.211933" lon="18.147174">
        <ele>39</ele>
        <time>2020-02-14T08:40:34Z</time>
      </trkpt>
      <trkpt lat="59.211905" lon="18.147173">
        <ele>39</ele>
        <time>2020-02-14T08:40:35Z</time>
      </trkpt>
      <trkpt lat="59.211877" lon="18.147174">
        <ele>39</ele>
        <time>2020-02-14T08:40:36Z</time>
      </trkpt>
      <trkpt lat="59.211849" lon="18.147173">
        <ele>39</ele>
        <time>2020-02-14T08:40:37Z</time>
      </trkpt>
      <trkpt lat="59.211821" lon="18.147168">
        <ele>39</ele>
        <time>2020-02-14T08:40:38Z</time>
      </trkpt>
      <trkpt lat="59.211794" lon="18.14716">
        <ele>39</ele>
        <time>2020-02-14T08:40:39Z</time>
      </trkpt>
      <trkpt lat="59.211766" lon="18.147148">
        <ele>40</ele>
        <time>2020-02-14T08:40:40Z</time>
      </trkpt>
      <trkpt lat="59.211737" lon="18.147135">
        <ele>40</ele>
        <time>2020-02-14T08:40:41Z</time>
      </trkpt>
      <trkpt lat="59.21171" lon="18.147124">
        <ele>40</ele>
        <time>2020-02-14T08:40:42Z</time>
      </trkpt>
      <trkpt lat="59.211684" lon="18.147113">
        <ele>40</ele>
        <time>2020-02-14T08:40:43Z</time>
      </trkpt>
      <trkpt lat="59.211655" lon="18.1471">
        <ele>40</ele>
        <time>2020-02-14T08:40:44Z</time>
      </trkpt>
      <trkpt lat="59.211628" lon="18.14709">
        <ele>41</ele>
        <time>2020-02-14T08:40:45Z</time>
      </trkpt>
      <trkpt lat="59.211601" lon="18.14708">
        <ele>41</ele>
        <time>2020-02-14T08:40:46Z</time>
      </trkpt>
      <trkpt lat="59.211573" lon="18.147069">
        <ele>41</ele>
        <time>2020-02-14T08:40:47Z</time>
      </trkpt>
      <trkpt lat="59.211545" lon="18.147056">
        <ele>41</ele>
        <time>2020-02-14T08:40:48Z</time>
      </trkpt>
      <trkpt lat="59.211517" lon="18.147043">
        <ele>41</ele>
        <time>2020-02-14T08:40:49Z</time>
      </trkpt>
      <trkpt lat="59.211489" lon="18.14703">
        <ele>42</ele>
        <time>2020-02-14T08:40:50Z</time>
      </trkpt>
      <trkpt lat="59.211461" lon="18.147017">
        <ele>42</ele>
        <time>2020-02-14T08:40:51Z</time>
      </trkpt>
      <trkpt lat="59.211434" lon="18.147003">
        <ele>42</ele>
        <time>2020-02-14T08:40:52Z</time>
      </trkpt>
      <trkpt lat="59.211406" lon="18.146991">
        <ele>42</ele>
        <time>2020-02-14T08:40:53Z</time>
      </trkpt>
      <trkpt lat="59.211378" lon="18.146977">
        <ele>42</ele>
        <time>2020-02-14T08:40:54Z</time>
      </trkpt>
      <trkpt lat="59.21135" lon="18.146963">
        <ele>43</ele>
        <time>2020-02-14T08:40:55Z</time>
      </trkpt>
      <trkpt lat="59.211322" lon="18.14695">
        <ele>43</ele>
        <time>2020-02-14T08:40:56Z</time>
      </trkpt>
      <trkpt lat="59.211294" lon="18.146933">
        <ele>43</ele>
        <time>2020-02-14T08:40:57Z</time>
      </trkpt>
      <trkpt lat="59.211265" lon="18.146912">
        <ele>43</ele>
        <time>2020-02-14T08:40:58Z</time>
      </trkpt>
      <trkpt lat="59.211234" lon="18.146892">
        <ele>43</ele>
        <time>2020-02-14T08:40:59Z</time>
      </trkpt>
      <trkpt lat="59.211201" lon="18.146872">
        <ele>43</ele>
        <time>2020-02-14T08:41:00Z</time>
      </trkpt>
      <trkpt lat="59.21117" lon="18.146851">
        <ele>44</ele>
        <time>2020-02-14T08:41:01Z</time>
      </trkpt>
      <trkpt lat="59.211142" lon="18.146831">
        <ele>44</ele>
        <time>2020-02-14T08:41:02Z</time>
      </trkpt>
      <trkpt lat="59.211113" lon="18.146811">
        <ele>44</ele>
        <time>2020-02-14T08:41:03Z</time>
      </trkpt>
      <trkpt lat="59.211086" lon="18.14679">
        <ele>44</ele>
        <time>2020-02-14T08:41:05Z</time>
      </trkpt>
      <trkpt lat="59.21106" lon="18.146768">
        <ele>44</ele>
        <time>2020-02-14T08:41:05Z</time>
      </trkpt>
      <trkpt lat="59.211035" lon="18.146745">
        <ele>44</ele>
        <time>2020-02-14T08:41:06Z</time>
      </trkpt>
      <trkpt lat="59.21101" lon="18.146722">
        <ele>45</ele>
        <time>2020-02-14T08:41:07Z</time>
      </trkpt>
      <trkpt lat="59.210985" lon="18.1467">
        <ele>45</ele>
        <time>2020-02-14T08:41:08Z</time>
      </trkpt>
      <trkpt lat="59.210961" lon="18.14668">
        <ele>45</ele>
        <time>2020-02-14T08:41:09Z</time>
      </trkpt>
      <trkpt lat="59.210936" lon="18.146658">
        <ele>45</ele>
        <time>2020-02-14T08:41:10Z</time>
      </trkpt>
      <trkpt lat="59.21091" lon="18.146635">
        <ele>45</ele>
        <time>2020-02-14T08:41:11Z</time>
      </trkpt>
      <trkpt lat="59.210885" lon="18.146612">
        <ele>45</ele>
        <time>2020-02-14T08:41:12Z</time>
      </trkpt>
      <trkpt lat="59.210862" lon="18.146588">
        <ele>46</ele>
        <time>2020-02-14T08:41:13Z</time>
      </trkpt>
      <trkpt lat="59.210838" lon="18.146563">
        <ele>46</ele>
        <time>2020-02-14T08:41:14Z</time>
      </trkpt>
      <trkpt lat="59.210814" lon="18.14654">
        <ele>46</ele>
        <time>2020-02-14T08:41:15Z</time>
      </trkpt>
      <trkpt lat="59.210788" lon="18.146517">
        <ele>46</ele>
        <time>2020-02-14T08:41:16Z</time>
      </trkpt>
      <trkpt lat="59.210764" lon="18.146493">
        <ele>46</ele>
        <time>2020-02-14T08:41:17Z</time>
      </trkpt>
      <trkpt lat="59.210738" lon="18.146467">
        <ele>46</ele>
        <time>2020-02-14T08:41:18Z</time>
      </trkpt>
      <trkpt lat="59.210716" lon="18.146441">
        <ele>47</ele>
        <time>2020-02-14T08:41:19Z</time>
      </trkpt>
      <trkpt lat="59.210693" lon="18.146415">
        <ele>47</ele>
        <time>2020-02-14T08:41:20Z</time>
      </trkpt>
      <trkpt lat="59.21067" lon="18.146388">
        <ele>47</ele>
        <time>2020-02-14T08:41:21Z</time>
      </trkpt>
      <trkpt lat="59.210646" lon="18.146361">
        <ele>47</ele>
        <time>2020-02-14T08:41:23Z</time>
      </trkpt>
      <trkpt lat="59.210623" lon="18.146335">
        <ele>47</ele>
        <time>2020-02-14T08:41:23Z</time>
      </trkpt>
      <trkpt lat="59.2106" lon="18.146311">
        <ele>47</ele>
        <time>2020-02-14T08:41:24Z</time>
      </trkpt>
      <trkpt lat="59.210576" lon="18.146286">
        <ele>48</ele>
        <time>2020-02-14T08:41:25Z</time>
      </trkpt>
      <trkpt lat="59.210553" lon="18.14626">
        <ele>48</ele>
        <time>2020-02-14T08:41:26Z</time>
      </trkpt>
      <trkpt lat="59.21053" lon="18.146232">
        <ele>48</ele>
        <time>2020-02-14T08:41:27Z</time>
      </trkpt>
      <trkpt lat="59.210506" lon="18.146206">
        <ele>48</ele>
        <time>2020-02-14T08:41:28Z</time>
      </trkpt>
      <trkpt lat="59.210482" lon="18.146179">
        <ele>48</ele>
        <time>2020-02-14T08:41:29Z</time>
      </trkpt>
      <trkpt lat="59.210458" lon="18.14615">
        <ele>49</ele>
        <time>2020-02-14T08:41:30Z</time>
      </trkpt>
      <trkpt lat="59.210436" lon="18.14612">
        <ele>49</ele>
        <time>2020-02-14T08:41:31Z</time>
      </trkpt>
      <trkpt lat="59.210413" lon="18.146091">
        <ele>49</ele>
        <time>2020-02-14T08:41:32Z</time>
      </trkpt>
      <trkpt lat="59.210391" lon="18.146062">
        <ele>49</ele>
        <time>2020-02-14T08:41:33Z</time>
      </trkpt>
      <trkpt lat="59.210368" lon="18.146037">
        <ele>49</ele>
        <time>2020-02-14T08:41:34Z</time>
      </trkpt>
      <trkpt lat="59.210344" lon="18.146011">
        <ele>50</ele>
        <time>2020-02-14T08:41:35Z</time>
      </trkpt>
      <trkpt lat="59.21032" lon="18.145986">
        <ele>50</ele>
        <time>2020-02-14T08:41:36Z</time>
      </trkpt>
      <trkpt lat="59.210292" lon="18.145963">
        <ele>50</ele>
        <time>2020-02-14T08:41:37Z</time>
      </trkpt>
      <trkpt lat="59.210264" lon="18.145943">
        <ele>50</ele>
        <time>2020-02-14T08:41:38Z</time>
      </trkpt>
      <trkpt lat="59.210234" lon="18.145925">
        <ele>50</ele>
        <time>2020-02-14T08:41:39Z</time>
      </trkpt>
      <trkpt lat="59.210206" lon="18.145906">
        <ele>50</ele>
        <time>2020-02-14T08:41:40Z</time>
      </trkpt>
      <trkpt lat="59.210178" lon="18.145887">
        <ele>50</ele>
        <time>2020-02-14T08:41:41Z</time>
      </trkpt>
      <trkpt lat="59.210152" lon="18.145864">
        <ele>50</ele>
        <time>2020-02-14T08:41:42Z</time>
      </trkpt>
      <trkpt lat="59.210127" lon="18.145836">
        <ele>51</ele>
        <time>2020-02-14T08:41:43Z</time>
      </trkpt>
      <trkpt lat="59.210105" lon="18.145802">
        <ele>51</ele>
        <time>2020-02-14T08:41:44Z</time>
      </trkpt>
      <trkpt lat="59.210083" lon="18.145762">
        <ele>51</ele>
        <time>2020-02-14T08:41:45Z</time>
      </trkpt>
      <trkpt lat="59.210064" lon="18.14572">
        <ele>51</ele>
        <time>2020-02-14T08:41:46Z</time>
      </trkpt>
      <trkpt lat="59.210044" lon="18.145675">
        <ele>51</ele>
        <time>2020-02-14T08:41:47Z</time>
      </trkpt>
      <trkpt lat="59.210024" lon="18.145629">
        <ele>51</ele>
        <time>2020-02-14T08:41:48Z</time>
      </trkpt>
      <trkpt lat="59.210006" lon="18.145581">
        <ele>51</ele>
        <time>2020-02-14T08:41:49Z</time>
      </trkpt>
      <trkpt lat="59.209987" lon="18.14553">
        <ele>51</ele>
        <time>2020-02-14T08:41:50Z</time>
      </trkpt>
      <trkpt lat="59.209968" lon="18.145478">
        <ele>51</ele>
        <time>2020-02-14T08:41:51Z</time>
      </trkpt>
      <trkpt lat="59.209951" lon="18.145422">
        <ele>51</ele>
        <time>2020-02-14T08:41:52Z</time>
      </trkpt>
      <trkpt lat="59.209932" lon="18.145367">
        <ele>51</ele>
        <time>2020-02-14T08:41:53Z</time>
      </trkpt>
      <trkpt lat="59.209912" lon="18.145311">
        <ele>51</ele>
        <time>2020-02-14T08:41:54Z</time>
      </trkpt>
      <trkpt lat="59.20989" lon="18.145254">
        <ele>51</ele>
        <time>2020-02-14T08:41:55Z</time>
      </trkpt>
      <trkpt lat="59.209866" lon="18.145201">
        <ele>51</ele>
        <time>2020-02-14T08:41:57Z</time>
      </trkpt>
      <trkpt lat="59.20984" lon="18.145152">
        <ele>51</ele>
        <time>2020-02-14T08:41:57Z</time>
      </trkpt>
      <trkpt lat="59.209814" lon="18.145106">
        <ele>51</ele>
        <time>2020-02-14T08:41:58Z</time>
      </trkpt>
      <trkpt lat="59.209785" lon="18.145064">
        <ele>52</ele>
        <time>2020-02-14T08:41:59Z</time>
      </trkpt>
      <trkpt lat="59.209756" lon="18.145026">
        <ele>52</ele>
        <time>2020-02-14T08:42:00Z</time>
      </trkpt>
      <trkpt lat="59.209725" lon="18.14499">
        <ele>52</ele>
        <time>2020-02-14T08:42:01Z</time>
      </trkpt>
      <trkpt lat="59.209694" lon="18.144955">
        <ele>52</ele>
        <time>2020-02-14T08:42:02Z</time>
      </trkpt>
      <trkpt lat="59.20966" lon="18.144931">
        <ele>52</ele>
        <time>2020-02-14T08:42:03Z</time>
      </trkpt>
      <trkpt lat="59.209627" lon="18.144913">
        <ele>52</ele>
        <time>2020-02-14T08:42:04Z</time>
      </trkpt>
      <trkpt lat="59.209596" lon="18.144881">
        <ele>52</ele>
        <time>2020-02-14T08:42:05Z</time>
      </trkpt>
      <trkpt lat="59.209567" lon="18.144835">
        <ele>52</ele>
        <time>2020-02-14T08:42:06Z</time>
      </trkpt>
      <trkpt lat="59.209542" lon="18.144786">
        <ele>52</ele>
        <time>2020-02-14T08:42:07Z</time>
      </trkpt>
      <trkpt lat="59.209521" lon="18.144733">
        <ele>52</ele>
        <time>2020-02-14T08:42:08Z</time>
      </trkpt>
      <trkpt lat="59.209509" lon="18.144673">
        <ele>52</ele>
        <time>2020-02-14T08:42:09Z</time>
      </trkpt>
      <trkpt lat="59.209505" lon="18.144611">
        <ele>52</ele>
        <time>2020-02-14T08:42:11Z</time>
      </trkpt>
      <trkpt lat="59.209503" lon="18.144548">
        <ele>53</ele>
        <time>2020-02-14T08:42:11Z</time>
      </trkpt>
      <trkpt lat="59.209498" lon="18.144481">
        <ele>53</ele>
        <time>2020-02-14T08:42:12Z</time>
      </trkpt>
      <trkpt lat="59.20949" lon="18.144411">
        <ele>53</ele>
        <time>2020-02-14T08:42:13Z</time>
      </trkpt>
      <trkpt lat="59.209478" lon="18.14434">
        <ele>53</ele>
        <time>2020-02-14T08:42:14Z</time>
      </trkpt>
      <trkpt lat="59.209465" lon="18.14427">
        <ele>53</ele>
        <time>2020-02-14T08:42:15Z</time>
      </trkpt>
      <trkpt lat="59.209447" lon="18.1442">
        <ele>53</ele>
        <time>2020-02-14T08:42:16Z</time>
      </trkpt>
      <trkpt lat="59.209424" lon="18.144132">
        <ele>53</ele>
        <time>2020-02-14T08:42:17Z</time>
      </trkpt>
      <trkpt lat="59.2094" lon="18.144067">
        <ele>54</ele>
        <time>2020-02-14T08:42:18Z</time>
      </trkpt>
      <trkpt lat="59.209375" lon="18.144">
        <ele>54</ele>
        <time>2020-02-14T08:42:19Z</time>
      </trkpt>
      <trkpt lat="59.209348" lon="18.143933">
        <ele>54</ele>
        <time>2020-02-14T08:42:20Z</time>
      </trkpt>
      <trkpt lat="59.209321" lon="18.143867">
        <ele>54</ele>
        <time>2020-02-14T08:42:21Z</time>
      </trkpt>
      <trkpt lat="59.209294" lon="18.1438">
        <ele>54</ele>
        <time>2020-02-14T08:42:23Z</time>
      </trkpt>
      <trkpt lat="59.209266" lon="18.14373">
        <ele>54</ele>
        <time>2020-02-14T08:42:23Z</time>
      </trkpt>
      <trkpt lat="59.209238" lon="18.143659">
        <ele>54</ele>
        <time>2020-02-14T08:42:24Z</time>
      </trkpt>
      <trkpt lat="59.209211" lon="18.143589">
        <ele>54</ele>
        <time>2020-02-14T08:42:25Z</time>
      </trkpt>
      <trkpt lat="59.209183" lon="18.143519">
        <ele>54</ele>
        <time>2020-02-14T08:42:26Z</time>
      </trkpt>
      <trkpt lat="59.209154" lon="18.143448">
        <ele>54</ele>
        <time>2020-02-14T08:42:27Z</time>
      </trkpt>
      <trkpt lat="59.209125" lon="18.143377">
        <ele>54</ele>
        <time>2020-02-14T08:42:28Z</time>
      </trkpt>
      <trkpt lat="59.209098" lon="18.143307">
        <ele>54</ele>
        <time>2020-02-14T08:42:29Z</time>
      </trkpt>
      <trkpt lat="59.209069" lon="18.143236">
        <ele>54</ele>
        <time>2020-02-14T08:42:30Z</time>
      </trkpt>
      <trkpt lat="59.20904" lon="18.143165">
        <ele>54</ele>
        <time>2020-02-14T08:42:31Z</time>
      </trkpt>
      <trkpt lat="59.209012" lon="18.143093">
        <ele>54</ele>
        <time>2020-02-14T08:42:32Z</time>
      </trkpt>
      <trkpt lat="59.208983" lon="18.143021">
        <ele>54</ele>
        <time>2020-02-14T08:42:34Z</time>
      </trkpt>
      <trkpt lat="59.208954" lon="18.142948">
        <ele>54</ele>
        <time>2020-02-14T08:42:34Z</time>
      </trkpt>
      <trkpt lat="59.208923" lon="18.142875">
        <ele>54</ele>
        <time>2020-02-14T08:42:35Z</time>
      </trkpt>
      <trkpt lat="59.208891" lon="18.142802">
        <ele>54</ele>
        <time>2020-02-14T08:42:36Z</time>
      </trkpt>
      <trkpt lat="59.208858" lon="18.142729">
        <ele>54</ele>
        <time>2020-02-14T08:42:37Z</time>
      </trkpt>
      <trkpt lat="59.208827" lon="18.142654">
        <ele>54</ele>
        <time>2020-02-14T08:42:38Z</time>
      </trkpt>
      <trkpt lat="59.208795" lon="18.142579">
        <ele>54</ele>
        <time>2020-02-14T08:42:39Z</time>
      </trkpt>
      <trkpt lat="59.208762" lon="18.142501">
        <ele>54</ele>
        <time>2020-02-14T08:42:40Z</time>
      </trkpt>
      <trkpt lat="59.20873" lon="18.142425">
        <ele>54</ele>
        <time>2020-02-14T08:42:41Z</time>
      </trkpt>
      <trkpt lat="59.208698" lon="18.142347">
        <ele>54</ele>
        <time>2020-02-14T08:42:42Z</time>
      </trkpt>
      <trkpt lat="59.208665" lon="18.142269">
        <ele>54</ele>
        <time>2020-02-14T08:42:44Z</time>
      </trkpt>
      <trkpt lat="59.20863" lon="18.142191">
        <ele>54</ele>
        <time>2020-02-14T08:42:44Z</time>
      </trkpt>
      <trkpt lat="59.208595" lon="18.142113">
        <ele>54</ele>
        <time>2020-02-14T08:42:45Z</time>
      </trkpt>
      <trkpt lat="59.208558" lon="18.142032">
        <ele>54</ele>
        <time>2020-02-14T08:42:46Z</time>
      </trkpt>
      <trkpt lat="59.208518" lon="18.141952">
        <ele>54</ele>
        <time>2020-02-14T08:42:47Z</time>
      </trkpt>
      <trkpt lat="59.208479" lon="18.141872">
        <ele>54</ele>
        <time>2020-02-14T08:42:48Z</time>
      </trkpt>
      <trkpt lat="59.208437" lon="18.141791">
        <ele>53</ele>
        <time>2020-02-14T08:42:49Z</time>
      </trkpt>
      <trkpt lat="59.20839" lon="18.141707">
        <ele>53</ele>
        <time>2020-02-14T08:42:50Z</time>
      </trkpt>
      <trkpt lat="59.208342" lon="18.141625">
        <ele>53</ele>
        <time>2020-02-14T08:42:51Z</time>
      </trkpt>
      <trkpt lat="59.208293" lon="18.141545">
        <ele>53</ele>
        <time>2020-02-14T08:42:53Z</time>
      </trkpt>
      <trkpt lat="59.20824" lon="18.141467">
        <ele>53</ele>
        <time>2020-02-14T08:42:53Z</time>
      </trkpt>
      <trkpt lat="59.208186" lon="18.141391">
        <ele>53</ele>
        <time>2020-02-14T08:42:54Z</time>
      </trkpt>
      <trkpt lat="59.208132" lon="18.141312">
        <ele>53</ele>
        <time>2020-02-14T08:42:55Z</time>
      </trkpt>
      <trkpt lat="59.208077" lon="18.141235">
        <ele>52</ele>
        <time>2020-02-14T08:42:56Z</time>
      </trkpt>
      <trkpt lat="59.208021" lon="18.141162">
        <ele>52</ele>
        <time>2020-02-14T08:42:57Z</time>
      </trkpt>
      <trkpt lat="59.207964" lon="18.141092">
        <ele>52</ele>
        <time>2020-02-14T08:42:58Z</time>
      </trkpt>
      <trkpt lat="59.207906" lon="18.141024">
        <ele>52</ele>
        <time>2020-02-14T08:43:00Z</time>
      </trkpt>
      <trkpt lat="59.207847" lon="18.140959">
        <ele>52</ele>
        <time>2020-02-14T08:43:00Z</time>
      </trkpt>
      <trkpt lat="59.207787" lon="18.140897">
        <ele>52</ele>
        <time>2020-02-14T08:43:01Z</time>
      </trkpt>
      <trkpt lat="59.207723" lon="18.140837">
        <ele>51</ele>
        <time>2020-02-14T08:43:02Z</time>
      </trkpt>
      <trkpt lat="59.207658" lon="18.140779">
        <ele>51</ele>
        <time>2020-02-14T08:43:03Z</time>
      </trkpt>
      <trkpt lat="59.20759" lon="18.140726">
        <ele>51</ele>
        <time>2020-02-14T08:43:04Z</time>
      </trkpt>
      <trkpt lat="59.207522" lon="18.140674">
        <ele>51</ele>
        <time>2020-02-14T08:43:05Z</time>
      </trkpt>
      <trkpt lat="59.207455" lon="18.140625">
        <ele>51</ele>
        <time>2020-02-14T08:43:07Z</time>
      </trkpt>
      <trkpt lat="59.207388" lon="18.140581">
        <ele>51</ele>
        <time>2020-02-14T08:43:07Z</time>
      </trkpt>
      <trkpt lat="59.207321" lon="18.140541">
        <ele>51</ele>
        <time>2020-02-14T08:43:08Z</time>
      </trkpt>
      <trkpt lat="59.207256" lon="18.140505">
        <ele>51</ele>
        <time>2020-02-14T08:43:09Z</time>
      </trkpt>
      <trkpt lat="59.207189" lon="18.14047">
        <ele>51</ele>
        <time>2020-02-14T08:43:10Z</time>
      </trkpt>
      <trkpt lat="59.207124" lon="18.140441">
        <ele>51</ele>
        <time>2020-02-14T08:43:11Z</time>
      </trkpt>
      <trkpt lat="59.207058" lon="18.140416">
        <ele>51</ele>
        <time>2020-02-14T08:43:12Z</time>
      </trkpt>
      <trkpt lat="59.20699" lon="18.140397">
        <ele>50</ele>
        <time>2020-02-14T08:43:14Z</time>
      </trkpt>
      <trkpt lat="59.206921" lon="18.140383">
        <ele>50</ele>
        <time>2020-02-14T08:43:14Z</time>
      </trkpt>
      <trkpt lat="59.206849" lon="18.14037">
        <ele>50</ele>
        <time>2020-02-14T08:43:15Z</time>
      </trkpt>
      <trkpt lat="59.206779" lon="18.14036">
        <ele>49</ele>
        <time>2020-02-14T08:43:16Z</time>
      </trkpt>
      <trkpt lat="59.206707" lon="18.140352">
        <ele>49</ele>
        <time>2020-02-14T08:43:17Z</time>
      </trkpt>
      <trkpt lat="59.206635" lon="18.140347">
        <ele>49</ele>
        <time>2020-02-14T08:43:18Z</time>
      </trkpt>
      <trkpt lat="59.206567" lon="18.14035">
        <ele>48</ele>
        <time>2020-02-14T08:43:19Z</time>
      </trkpt>
      <trkpt lat="59.206501" lon="18.140362">
        <ele>48</ele>
        <time>2020-02-14T08:43:21Z</time>
      </trkpt>
      <trkpt lat="59.206436" lon="18.140389">
        <ele>48</ele>
        <time>2020-02-14T08:43:21Z</time>
      </trkpt>
      <trkpt lat="59.206374" lon="18.140438">
        <ele>47</ele>
        <time>2020-02-14T08:43:22Z</time>
      </trkpt>
      <trkpt lat="59.20632" lon="18.140511">
        <ele>47</ele>
        <time>2020-02-14T08:43:23Z</time>
      </trkpt>
      <trkpt lat="59.206273" lon="18.140603">
        <ele>47</ele>
        <time>2020-02-14T08:43:24Z</time>
      </trkpt>
      <trkpt lat="59.206226" lon="18.140697">
        <ele>47</ele>
        <time>2020-02-14T08:43:25Z</time>
      </trkpt>
      <trkpt lat="59.206172" lon="18.140779">
        <ele>46</ele>
        <time>2020-02-14T08:43:26Z</time>
      </trkpt>
      <trkpt lat="59.206108" lon="18.140837">
        <ele>46</ele>
        <time>2020-02-14T08:43:27Z</time>
      </trkpt>
      <trkpt lat="59.206041" lon="18.140876">
        <ele>46</ele>
        <time>2020-02-14T08:43:29Z</time>
      </trkpt>
      <trkpt lat="59.205974" lon="18.140914">
        <ele>46</ele>
        <time>2020-02-14T08:43:29Z</time>
      </trkpt>
      <trkpt lat="59.205908" lon="18.140957">
        <ele>46</ele>
        <time>2020-02-14T08:43:30Z</time>
      </trkpt>
      <trkpt lat="59.205845" lon="18.141002">
        <ele>46</ele>
        <time>2020-02-14T08:43:31Z</time>
      </trkpt>
      <trkpt lat="59.205783" lon="18.141049">
        <ele>45</ele>
        <time>2020-02-14T08:43:32Z</time>
      </trkpt>
      <trkpt lat="59.205722" lon="18.141096">
        <ele>45</ele>
        <time>2020-02-14T08:43:33Z</time>
      </trkpt>
      <trkpt lat="59.205663" lon="18.141145">
        <ele>45</ele>
        <time>2020-02-14T08:43:34Z</time>
      </trkpt>
      <trkpt lat="59.205604" lon="18.141192">
        <ele>45</ele>
        <time>2020-02-14T08:43:36Z</time>
      </trkpt>
      <trkpt lat="59.205547" lon="18.141239">
        <ele>45</ele>
        <time>2020-02-14T08:43:36Z</time>
      </trkpt>
      <trkpt lat="59.20549" lon="18.141288">
        <ele>45</ele>
        <time>2020-02-14T08:43:37Z</time>
      </trkpt>
      <trkpt lat="59.205433" lon="18.141337">
        <ele>45</ele>
        <time>2020-02-14T08:43:38Z</time>
      </trkpt>
      <trkpt lat="59.205375" lon="18.141388">
        <ele>44</ele>
        <time>2020-02-14T08:43:39Z</time>
      </trkpt>
      <trkpt lat="59.205315" lon="18.141439">
        <ele>44</ele>
        <time>2020-02-14T08:43:40Z</time>
      </trkpt>
      <trkpt lat="59.205253" lon="18.141491">
        <ele>44</ele>
        <time>2020-02-14T08:43:41Z</time>
      </trkpt>
      <trkpt lat="59.205187" lon="18.141543">
        <ele>44</ele>
        <time>2020-02-14T08:43:42Z</time>
      </trkpt>
      <trkpt lat="59.20512" lon="18.141598">
        <ele>44</ele>
        <time>2020-02-14T08:43:44Z</time>
      </trkpt>
      <trkpt lat="59.205053" lon="18.141653">
        <ele>43</ele>
        <time>2020-02-14T08:43:44Z</time>
      </trkpt>
      <trkpt lat="59.204987" lon="18.141704">
        <ele>43</ele>
        <time>2020-02-14T08:43:45Z</time>
      </trkpt>
      <trkpt lat="59.20492" lon="18.141755">
        <ele>43</ele>
        <time>2020-02-14T08:43:46Z</time>
      </trkpt>
      <trkpt lat="59.204853" lon="18.141799">
        <ele>43</ele>
        <time>2020-02-14T08:43:47Z</time>
      </trkpt>
      <trkpt lat="59.204786" lon="18.141838">
        <ele>43</ele>
        <time>2020-02-14T08:43:48Z</time>
      </trkpt>
      <trkpt lat="59.204722" lon="18.141874">
        <ele>42</ele>
        <time>2020-02-14T08:43:49Z</time>
      </trkpt>
      <trkpt lat="59.204657" lon="18.141905">
        <ele>42</ele>
        <time>2020-02-14T08:43:51Z</time>
      </trkpt>
      <trkpt lat="59.204591" lon="18.141934">
        <ele>42</ele>
        <time>2020-02-14T08:43:51Z</time>
      </trkpt>
      <trkpt lat="59.204526" lon="18.141963">
        <ele>42</ele>
        <time>2020-02-14T08:43:52Z</time>
      </trkpt>
      <trkpt lat="59.204461" lon="18.141993">
        <ele>42</ele>
        <time>2020-02-14T08:43:53Z</time>
      </trkpt>
      <trkpt lat="59.204395" lon="18.14202">
        <ele>42</ele>
        <time>2020-02-14T08:43:54Z</time>
      </trkpt>
      <trkpt lat="59.204328" lon="18.142046">
        <ele>41</ele>
        <time>2020-02-14T08:43:55Z</time>
      </trkpt>
      <trkpt lat="59.204261" lon="18.142071">
        <ele>41</ele>
        <time>2020-02-14T08:43:56Z</time>
      </trkpt>
      <trkpt lat="59.204193" lon="18.142098">
        <ele>41</ele>
        <time>2020-02-14T08:43:57Z</time>
      </trkpt>
      <trkpt lat="59.204126" lon="18.142125">
        <ele>41</ele>
        <time>2020-02-14T08:43:58Z</time>
      </trkpt>
      <trkpt lat="59.204059" lon="18.14215">
        <ele>40</ele>
        <time>2020-02-14T08:43:59Z</time>
      </trkpt>
      <trkpt lat="59.203993" lon="18.142173">
        <ele>40</ele>
        <time>2020-02-14T08:44:00Z</time>
      </trkpt>
      <trkpt lat="59.203928" lon="18.142195">
        <ele>40</ele>
        <time>2020-02-14T08:44:01Z</time>
      </trkpt>
      <trkpt lat="59.203864" lon="18.142219">
        <ele>40</ele>
        <time>2020-02-14T08:44:02Z</time>
      </trkpt>
      <trkpt lat="59.203801" lon="18.14224">
        <ele>40</ele>
        <time>2020-02-14T08:44:03Z</time>
      </trkpt>
      <trkpt lat="59.203738" lon="18.142258">
        <ele>40</ele>
        <time>2020-02-14T08:44:04Z</time>
      </trkpt>
      <trkpt lat="59.203675" lon="18.142272">
        <ele>40</ele>
        <time>2020-02-14T08:44:06Z</time>
      </trkpt>
      <trkpt lat="59.203612" lon="18.142283">
        <ele>40</ele>
        <time>2020-02-14T08:44:06Z</time>
      </trkpt>
      <trkpt lat="59.20355" lon="18.142291">
        <ele>40</ele>
        <time>2020-02-14T08:44:07Z</time>
      </trkpt>
      <trkpt lat="59.203487" lon="18.142294">
        <ele>40</ele>
        <time>2020-02-14T08:44:08Z</time>
      </trkpt>
      <trkpt lat="59.203425" lon="18.142294">
        <ele>40</ele>
        <time>2020-02-14T08:44:09Z</time>
      </trkpt>
      <trkpt lat="59.203368" lon="18.142292">
        <ele>40</ele>
        <time>2020-02-14T08:44:10Z</time>
      </trkpt>
      <trkpt lat="59.203314" lon="18.142287">
        <ele>40</ele>
        <time>2020-02-14T08:44:11Z</time>
      </trkpt>
      <trkpt lat="59.203256" lon="18.14228">
        <ele>40</ele>
        <time>2020-02-14T08:44:12Z</time>
      </trkpt>
      <trkpt lat="59.203197" lon="18.142275">
        <ele>41</ele>
        <time>2020-02-14T08:44:13Z</time>
      </trkpt>
      <trkpt lat="59.203138" lon="18.142271">
        <ele>41</ele>
        <time>2020-02-14T08:44:15Z</time>
      </trkpt>
      <trkpt lat="59.203079" lon="18.142263">
        <ele>41</ele>
        <time>2020-02-14T08:44:15Z</time>
      </trkpt>
      <trkpt lat="59.20302" lon="18.142254">
        <ele>41</ele>
        <time>2020-02-14T08:44:16Z</time>
      </trkpt>
      <trkpt lat="59.202961" lon="18.142242">
        <ele>41</ele>
        <time>2020-02-14T08:44:17Z</time>
      </trkpt>
      <trkpt lat="59.202902" lon="18.142233">
        <ele>41</ele>
        <time>2020-02-14T08:44:18Z</time>
      </trkpt>
      <trkpt lat="59.202843" lon="18.142228">
        <ele>41</ele>
        <time>2020-02-14T08:44:19Z</time>
      </trkpt>
      <trkpt lat="59.202784" lon="18.142224">
        <ele>41</ele>
        <time>2020-02-14T08:44:20Z</time>
      </trkpt>
      <trkpt lat="59.202726" lon="18.142226">
        <ele>41</ele>
        <time>2020-02-14T08:44:21Z</time>
      </trkpt>
      <trkpt lat="59.202664" lon="18.142231">
        <ele>41</ele>
        <time>2020-02-14T08:44:23Z</time>
      </trkpt>
      <trkpt lat="59.202601" lon="18.142242">
        <ele>41</ele>
        <time>2020-02-14T08:44:23Z</time>
      </trkpt>
      <trkpt lat="59.202537" lon="18.142255">
        <ele>41</ele>
        <time>2020-02-14T08:44:24Z</time>
      </trkpt>
      <trkpt lat="59.202471" lon="18.142267">
        <ele>41</ele>
        <time>2020-02-14T08:44:25Z</time>
      </trkpt>
      <trkpt lat="59.202403" lon="18.142272">
        <ele>41</ele>
        <time>2020-02-14T08:44:26Z</time>
      </trkpt>
      <trkpt lat="59.202334" lon="18.142269">
        <ele>41</ele>
        <time>2020-02-14T08:44:27Z</time>
      </trkpt>
      <trkpt lat="59.202263" lon="18.142253">
        <ele>40</ele>
        <time>2020-02-14T08:44:28Z</time>
      </trkpt>
      <trkpt lat="59.202191" lon="18.142224">
        <ele>40</ele>
        <time>2020-02-14T08:44:30Z</time>
      </trkpt>
      <trkpt lat="59.20212" lon="18.142193">
        <ele>40</ele>
        <time>2020-02-14T08:44:30Z</time>
      </trkpt>
      <trkpt lat="59.20205" lon="18.142163">
        <ele>40</ele>
        <time>2020-02-14T08:44:31Z</time>
      </trkpt>
      <trkpt lat="59.201979" lon="18.14213">
        <ele>39</ele>
        <time>2020-02-14T08:44:32Z</time>
      </trkpt>
      <trkpt lat="59.201909" lon="18.142097">
        <ele>39</ele>
        <time>2020-02-14T08:44:33Z</time>
      </trkpt>
      <trkpt lat="59.201839" lon="18.142066">
        <ele>39</ele>
        <time>2020-02-14T08:44:34Z</time>
      </trkpt>
      <trkpt lat="59.201769" lon="18.142034">
        <ele>39</ele>
        <time>2020-02-14T08:44:35Z</time>
      </trkpt>
      <trkpt lat="59.2017" lon="18.141999">
        <ele>39</ele>
        <time>2020-02-14T08:44:37Z</time>
      </trkpt>
      <trkpt lat="59.201631" lon="18.141965">
        <ele>38</ele>
        <time>2020-02-14T08:44:37Z</time>
      </trkpt>
      <trkpt lat="59.201561" lon="18.141931">
        <ele>38</ele>
        <time>2020-02-14T08:44:38Z</time>
      </trkpt>
      <trkpt lat="59.201492" lon="18.141893">
        <ele>38</ele>
        <time>2020-02-14T08:44:39Z</time>
      </trkpt>
      <trkpt lat="59.201424" lon="18.141851">
        <ele>38</ele>
        <time>2020-02-14T08:44:40Z</time>
      </trkpt>
      <trkpt lat="59.201357" lon="18.141805">
        <ele>38</ele>
        <time>2020-02-14T08:44:41Z</time>
      </trkpt>
      <trkpt lat="59.20129" lon="18.141754">
        <ele>38</ele>
        <time>2020-02-14T08:44:42Z</time>
      </trkpt>
      <trkpt lat="59.201225" lon="18.141697">
        <ele>37</ele>
        <time>2020-02-14T08:44:44Z</time>
      </trkpt>
      <trkpt lat="59.201161" lon="18.141639">
        <ele>37</ele>
        <time>2020-02-14T08:44:44Z</time>
      </trkpt>
      <trkpt lat="59.201096" lon="18.141583">
        <ele>37</ele>
        <time>2020-02-14T08:44:45Z</time>
      </trkpt>
      <trkpt lat="59.20103" lon="18.141526">
        <ele>37</ele>
        <time>2020-02-14T08:44:46Z</time>
      </trkpt>
      <trkpt lat="59.200963" lon="18.141469">
        <ele>37</ele>
        <time>2020-02-14T08:44:47Z</time>
      </trkpt>
      <trkpt lat="59.200895" lon="18.141414">
        <ele>37</ele>
        <time>2020-02-14T08:44:48Z</time>
      </trkpt>
      <trkpt lat="59.200825" lon="18.14137">
        <ele>36</ele>
        <time>2020-02-14T08:44:49Z</time>
      </trkpt>
      <trkpt lat="59.200757" lon="18.141342">
        <ele>36</ele>
        <time>2020-02-14T08:44:51Z</time>
      </trkpt>
      <trkpt lat="59.200688" lon="18.141345">
        <ele>36</ele>
        <time>2020-02-14T08:44:51Z</time>
      </trkpt>
      <trkpt lat="59.200618" lon="18.14138">
        <ele>35</ele>
        <time>2020-02-14T08:44:52Z</time>
      </trkpt>
      <trkpt lat="59.200546" lon="18.141434">
        <ele>34</ele>
        <time>2020-02-14T08:44:53Z</time>
      </trkpt>
      <trkpt lat="59.200474" lon="18.141504">
        <ele>34</ele>
        <time>2020-02-14T08:44:54Z</time>
      </trkpt>
      <trkpt lat="59.200402" lon="18.141581">
        <ele>33</ele>
        <time>2020-02-14T08:44:55Z</time>
      </trkpt>
      <trkpt lat="59.200329" lon="18.141656">
        <ele>32</ele>
        <time>2020-02-14T08:44:57Z</time>
      </trkpt>
      <trkpt lat="59.200254" lon="18.141731">
        <ele>31</ele>
        <time>2020-02-14T08:44:57Z</time>
      </trkpt>
      <trkpt lat="59.20018" lon="18.141806">
        <ele>30</ele>
        <time>2020-02-14T08:44:58Z</time>
      </trkpt>
      <trkpt lat="59.200105" lon="18.141887">
        <ele>30</ele>
        <time>2020-02-14T08:44:59Z</time>
      </trkpt>
      <trkpt lat="59.20003" lon="18.141974">
        <ele>30</ele>
        <time>2020-02-14T08:45:00Z</time>
      </trkpt>
      <trkpt lat="59.199955" lon="18.142064">
        <ele>29</ele>
        <time>2020-02-14T08:45:01Z</time>
      </trkpt>
      <trkpt lat="59.199882" lon="18.14216">
        <ele>29</ele>
        <time>2020-02-14T08:45:03Z</time>
      </trkpt>
      <trkpt lat="59.199816" lon="18.142266">
        <ele>28</ele>
        <time>2020-02-14T08:45:03Z</time>
      </trkpt>
      <trkpt lat="59.19976" lon="18.142387">
        <ele>28</ele>
        <time>2020-02-14T08:45:04Z</time>
      </trkpt>
      <trkpt lat="59.199712" lon="18.142515">
        <ele>28</ele>
        <time>2020-02-14T08:45:05Z</time>
      </trkpt>
      <trkpt lat="59.19966" lon="18.14265">
        <ele>28</ele>
        <time>2020-02-14T08:45:06Z</time>
      </trkpt>
      <trkpt lat="59.199602" lon="18.14278">
        <ele>28</ele>
        <time>2020-02-14T08:45:07Z</time>
      </trkpt>
      <trkpt lat="59.199536" lon="18.142888">
        <ele>28</ele>
        <time>2020-02-14T08:45:09Z</time>
      </trkpt>
      <trkpt lat="59.199463" lon="18.142968">
        <ele>28</ele>
        <time>2020-02-14T08:45:09Z</time>
      </trkpt>
      <trkpt lat="59.199386" lon="18.143014">
        <ele>27</ele>
        <time>2020-02-14T08:45:10Z</time>
      </trkpt>
      <trkpt lat="59.19931" lon="18.143029">
        <ele>27</ele>
        <time>2020-02-14T08:45:11Z</time>
      </trkpt>
      <trkpt lat="59.199234" lon="18.143029">
        <ele>27</ele>
        <time>2020-02-14T08:45:12Z</time>
      </trkpt>
      <trkpt lat="59.19916" lon="18.143028">
        <ele>27</ele>
        <time>2020-02-14T08:45:13Z</time>
      </trkpt>
      <trkpt lat="59.199088" lon="18.143025">
        <ele>27</ele>
        <time>2020-02-14T08:45:14Z</time>
      </trkpt>
      <trkpt lat="59.199018" lon="18.143021">
        <ele>27</ele>
        <time>2020-02-14T08:45:16Z</time>
      </trkpt>
      <trkpt lat="59.19895" lon="18.143021">
        <ele>27</ele>
        <time>2020-02-14T08:45:16Z</time>
      </trkpt>
      <trkpt lat="59.198882" lon="18.14302">
        <ele>27</ele>
        <time>2020-02-14T08:45:17Z</time>
      </trkpt>
      <trkpt lat="59.198814" lon="18.143017">
        <ele>27</ele>
        <time>2020-02-14T08:45:18Z</time>
      </trkpt>
      <trkpt lat="59.198747" lon="18.143014">
        <ele>27</ele>
        <time>2020-02-14T08:45:19Z</time>
      </trkpt>
      <trkpt lat="59.198679" lon="18.143008">
        <ele>27</ele>
        <time>2020-02-14T08:45:20Z</time>
      </trkpt>
      <trkpt lat="59.198612" lon="18.142997">
        <ele>27</ele>
        <time>2020-02-14T08:45:21Z</time>
      </trkpt>
      <trkpt lat="59.198544" lon="18.142982">
        <ele>27</ele>
        <time>2020-02-14T08:45:22Z</time>
      </trkpt>
      <trkpt lat="59.198478" lon="18.14296">
        <ele>26</ele>
        <time>2020-02-14T08:45:23Z</time>
      </trkpt>
      <trkpt lat="59.198412" lon="18.142926">
        <ele>26</ele>
        <time>2020-02-14T08:45:24Z</time>
      </trkpt>
      <trkpt lat="59.198348" lon="18.142886">
        <ele>26</ele>
        <time>2020-02-14T08:45:25Z</time>
      </trkpt>
      <trkpt lat="59.198286" lon="18.142839">
        <ele>26</ele>
        <time>2020-02-14T08:45:26Z</time>
      </trkpt>
      <trkpt lat="59.198224" lon="18.142793">
        <ele>26</ele>
        <time>2020-02-14T08:45:27Z</time>
      </trkpt>
      <trkpt lat="59.198162" lon="18.142746">
        <ele>26</ele>
        <time>2020-02-14T08:45:28Z</time>
      </trkpt>
      <trkpt lat="59.1981" lon="18.142697">
        <ele>26</ele>
        <time>2020-02-14T08:45:29Z</time>
      </trkpt>
      <trkpt lat="59.198038" lon="18.142647">
        <ele>26</ele>
        <time>2020-02-14T08:45:31Z</time>
      </trkpt>
      <trkpt lat="59.197977" lon="18.142596">
        <ele>26</ele>
        <time>2020-02-14T08:45:31Z</time>
      </trkpt>
      <trkpt lat="59.197917" lon="18.142548">
        <ele>26</ele>
        <time>2020-02-14T08:45:32Z</time>
      </trkpt>
      <trkpt lat="59.197858" lon="18.142501">
        <ele>26</ele>
        <time>2020-02-14T08:45:33Z</time>
      </trkpt>
      <trkpt lat="59.197798" lon="18.142456">
        <ele>26</ele>
        <time>2020-02-14T08:45:34Z</time>
      </trkpt>
      <trkpt lat="59.197739" lon="18.142414">
        <ele>26</ele>
        <time>2020-02-14T08:45:35Z</time>
      </trkpt>
      <trkpt lat="59.19768" lon="18.142371">
        <ele>26</ele>
        <time>2020-02-14T08:45:36Z</time>
      </trkpt>
      <trkpt lat="59.197621" lon="18.142326">
        <ele>26</ele>
        <time>2020-02-14T08:45:38Z</time>
      </trkpt>
      <trkpt lat="59.197562" lon="18.14228">
        <ele>26</ele>
        <time>2020-02-14T08:45:38Z</time>
      </trkpt>
      <trkpt lat="59.197506" lon="18.142234">
        <ele>26</ele>
        <time>2020-02-14T08:45:39Z</time>
      </trkpt>
      <trkpt lat="59.197451" lon="18.142189">
        <ele>27</ele>
        <time>2020-02-14T08:45:40Z</time>
      </trkpt>
      <trkpt lat="59.1974" lon="18.142142">
        <ele>27</ele>
        <time>2020-02-14T08:45:41Z</time>
      </trkpt>
      <trkpt lat="59.197349" lon="18.142093">
        <ele>27</ele>
        <time>2020-02-14T08:45:42Z</time>
      </trkpt>
      <trkpt lat="59.197304" lon="18.142042">
        <ele>27</ele>
        <time>2020-02-14T08:45:43Z</time>
      </trkpt>
      <trkpt lat="59.197259" lon="18.141989">
        <ele>27</ele>
        <time>2020-02-14T08:45:44Z</time>
      </trkpt>
      <trkpt lat="59.197218" lon="18.141931">
        <ele>27</ele>
        <time>2020-02-14T08:45:45Z</time>
      </trkpt>
      <trkpt lat="59.197176" lon="18.141871">
        <ele>27</ele>
        <time>2020-02-14T08:45:47Z</time>
      </trkpt>
      <trkpt lat="59.197138" lon="18.141811">
        <ele>27</ele>
        <time>2020-02-14T08:45:47Z</time>
      </trkpt>
      <trkpt lat="59.197102" lon="18.141754">
        <ele>27</ele>
        <time>2020-02-14T08:45:48Z</time>
      </trkpt>
      <trkpt lat="59.197064" lon="18.141701">
        <ele>27</ele>
        <time>2020-02-14T08:45:49Z</time>
      </trkpt>
      <trkpt lat="59.197029" lon="18.141646">
        <ele>28</ele>
        <time>2020-02-14T08:45:50Z</time>
      </trkpt>
      <trkpt lat="59.196994" lon="18.14159">
        <ele>28</ele>
        <time>2020-02-14T08:45:51Z</time>
      </trkpt>
      <trkpt lat="59.196962" lon="18.141532">
        <ele>28</ele>
        <time>2020-02-14T08:45:52Z</time>
      </trkpt>
      <trkpt lat="59.19693" lon="18.141474">
        <ele>28</ele>
        <time>2020-02-14T08:45:53Z</time>
      </trkpt>
      <trkpt lat="59.1969" lon="18.141417">
        <ele>28</ele>
        <time>2020-02-14T08:45:54Z</time>
      </trkpt>
      <trkpt lat="59.196872" lon="18.141363">
        <ele>28</ele>
        <time>2020-02-14T08:45:55Z</time>
      </trkpt>
      <trkpt lat="59.196841" lon="18.141314">
        <ele>28</ele>
        <time>2020-02-14T08:45:56Z</time>
      </trkpt>
      <trkpt lat="59.19681" lon="18.14127">
        <ele>28</ele>
        <time>2020-02-14T08:45:57Z</time>
      </trkpt>
      <trkpt lat="59.19678" lon="18.141229">
        <ele>28</ele>
        <time>2020-02-14T08:45:59Z</time>
      </trkpt>
      <trkpt lat="59.196748" lon="18.14119">
        <ele>29</ele>
        <time>2020-02-14T08:45:59Z</time>
      </trkpt>
      <trkpt lat="59.196718" lon="18.141152">
        <ele>29</ele>
        <time>2020-02-14T08:46:00Z</time>
      </trkpt>
      <trkpt lat="59.196689" lon="18.141117">
        <ele>29</ele>
        <time>2020-02-14T08:46:01Z</time>
      </trkpt>
      <trkpt lat="59.196659" lon="18.141082">
        <ele>29</ele>
        <time>2020-02-14T08:46:02Z</time>
      </trkpt>
      <trkpt lat="59.196627" lon="18.141048">
        <ele>29</ele>
        <time>2020-02-14T08:46:03Z</time>
      </trkpt>
      <trkpt lat="59.196594" lon="18.141017">
        <ele>29</ele>
        <time>2020-02-14T08:46:04Z</time>
      </trkpt>
      <trkpt lat="59.19656" lon="18.140987">
        <ele>30</ele>
        <time>2020-02-14T08:46:05Z</time>
      </trkpt>
      <trkpt lat="59.196526" lon="18.14096">
        <ele>30</ele>
        <time>2020-02-14T08:46:06Z</time>
      </trkpt>
      <trkpt lat="59.196492" lon="18.140935">
        <ele>30</ele>
        <time>2020-02-14T08:46:07Z</time>
      </trkpt>
      <trkpt lat="59.196459" lon="18.140913">
        <ele>30</ele>
        <time>2020-02-14T08:46:08Z</time>
      </trkpt>
      <trkpt lat="59.196425" lon="18.140893">
        <ele>30</ele>
        <time>2020-02-14T08:46:09Z</time>
      </trkpt>
      <trkpt lat="59.196392" lon="18.140874">
        <ele>30</ele>
        <time>2020-02-14T08:46:10Z</time>
      </trkpt>
      <trkpt lat="59.196358" lon="18.140857">
        <ele>30</ele>
        <time>2020-02-14T08:46:11Z</time>
      </trkpt>
      <trkpt lat="59.196323" lon="18.140844">
        <ele>30</ele>
        <time>2020-02-14T08:46:13Z</time>
      </trkpt>
      <trkpt lat="59.196288" lon="18.14083">
        <ele>30</ele>
        <time>2020-02-14T08:46:13Z</time>
      </trkpt>
      <trkpt lat="59.196254" lon="18.140819">
        <ele>31</ele>
        <time>2020-02-14T08:46:14Z</time>
      </trkpt>
      <trkpt lat="59.196218" lon="18.140809">
        <ele>31</ele>
        <time>2020-02-14T08:46:15Z</time>
      </trkpt>
      <trkpt lat="59.196182" lon="18.140798">
        <ele>31</ele>
        <time>2020-02-14T08:46:16Z</time>
      </trkpt>
      <trkpt lat="59.196147" lon="18.140788">
        <ele>31</ele>
        <time>2020-02-14T08:46:17Z</time>
      </trkpt>
      <trkpt lat="59.196113" lon="18.140778">
        <ele>31</ele>
        <time>2020-02-14T08:46:18Z</time>
      </trkpt>
      <trkpt lat="59.196078" lon="18.140767">
        <ele>31</ele>
        <time>2020-02-14T08:46:19Z</time>
      </trkpt>
      <trkpt lat="59.196043" lon="18.14076">
        <ele>31</ele>
        <time>2020-02-14T08:46:20Z</time>
      </trkpt>
      <trkpt lat="59.196009" lon="18.140754">
        <ele>31</ele>
        <time>2020-02-14T08:46:21Z</time>
      </trkpt>
      <trkpt lat="59.195974" lon="18.140747">
        <ele>31</ele>
        <time>2020-02-14T08:46:22Z</time>
      </trkpt>
      <trkpt lat="59.195939" lon="18.140741">
        <ele>31</ele>
        <time>2020-02-14T08:46:23Z</time>
      </trkpt>
      <trkpt lat="59.195904" lon="18.140734">
        <ele>31</ele>
        <time>2020-02-14T08:46:24Z</time>
      </trkpt>
      <trkpt lat="59.195869" lon="18.140728">
        <ele>31</ele>
        <time>2020-02-14T08:46:25Z</time>
      </trkpt>
      <trkpt lat="59.195833" lon="18.140721">
        <ele>31</ele>
        <time>2020-02-14T08:46:27Z</time>
      </trkpt>
      <trkpt lat="59.195796" lon="18.140713">
        <ele>31</ele>
        <time>2020-02-14T08:46:27Z</time>
      </trkpt>
      <trkpt lat="59.195761" lon="18.14071">
        <ele>32</ele>
        <time>2020-02-14T08:46:28Z</time>
      </trkpt>
      <trkpt lat="59.195728" lon="18.140705">
        <ele>32</ele>
        <time>2020-02-14T08:46:29Z</time>
      </trkpt>
      <trkpt lat="59.195696" lon="18.1407">
        <ele>32</ele>
        <time>2020-02-14T08:46:30Z</time>
      </trkpt>
      <trkpt lat="59.195664" lon="18.140696">
        <ele>32</ele>
        <time>2020-02-14T08:46:31Z</time>
      </trkpt>
      <trkpt lat="59.195631" lon="18.140691">
        <ele>32</ele>
        <time>2020-02-14T08:46:32Z</time>
      </trkpt>
      <trkpt lat="59.195597" lon="18.140685">
        <ele>32</ele>
        <time>2020-02-14T08:46:33Z</time>
      </trkpt>
      <trkpt lat="59.195565" lon="18.140679">
        <ele>32</ele>
        <time>2020-02-14T08:46:34Z</time>
      </trkpt>
      <trkpt lat="59.195532" lon="18.140675">
        <ele>33</ele>
        <time>2020-02-14T08:46:35Z</time>
      </trkpt>
      <trkpt lat="59.195498" lon="18.14067">
        <ele>33</ele>
        <time>2020-02-14T08:46:36Z</time>
      </trkpt>
      <trkpt lat="59.195465" lon="18.140666">
        <ele>33</ele>
        <time>2020-02-14T08:46:37Z</time>
      </trkpt>
      <trkpt lat="59.195433" lon="18.140665">
        <ele>33</ele>
        <time>2020-02-14T08:46:38Z</time>
      </trkpt>
      <trkpt lat="59.195401" lon="18.140662">
        <ele>33</ele>
        <time>2020-02-14T08:46:39Z</time>
      </trkpt>
      <trkpt lat="59.195369" lon="18.14066">
        <ele>34</ele>
        <time>2020-02-14T08:46:40Z</time>
      </trkpt>
      <trkpt lat="59.195339" lon="18.140659">
        <ele>34</ele>
        <time>2020-02-14T08:46:41Z</time>
      </trkpt>
      <trkpt lat="59.195308" lon="18.14066">
        <ele>34</ele>
        <time>2020-02-14T08:46:43Z</time>
      </trkpt>
      <trkpt lat="59.195277" lon="18.140663">
        <ele>34</ele>
        <time>2020-02-14T08:46:43Z</time>
      </trkpt>
      <trkpt lat="59.195246" lon="18.140667">
        <ele>34</ele>
        <time>2020-02-14T08:46:44Z</time>
      </trkpt>
      <trkpt lat="59.195215" lon="18.140673">
        <ele>34</ele>
        <time>2020-02-14T08:46:45Z</time>
      </trkpt>
      <trkpt lat="59.195186" lon="18.140682">
        <ele>34</ele>
        <time>2020-02-14T08:46:46Z</time>
      </trkpt>
      <trkpt lat="59.195156" lon="18.140692">
        <ele>35</ele>
        <time>2020-02-14T08:46:47Z</time>
      </trkpt>
      <trkpt lat="59.195127" lon="18.140701">
        <ele>35</ele>
        <time>2020-02-14T08:46:48Z</time>
      </trkpt>
      <trkpt lat="59.195098" lon="18.140711">
        <ele>35</ele>
        <time>2020-02-14T08:46:49Z</time>
      </trkpt>
      <trkpt lat="59.19507" lon="18.140723">
        <ele>35</ele>
        <time>2020-02-14T08:46:50Z</time>
      </trkpt>
      <trkpt lat="59.195042" lon="18.140738">
        <ele>35</ele>
        <time>2020-02-14T08:46:51Z</time>
      </trkpt>
      <trkpt lat="59.195014" lon="18.140753">
        <ele>35</ele>
        <time>2020-02-14T08:46:52Z</time>
      </trkpt>
      <trkpt lat="59.194987" lon="18.14077">
        <ele>35</ele>
        <time>2020-02-14T08:46:53Z</time>
      </trkpt>
      <trkpt lat="59.194962" lon="18.140786">
        <ele>35</ele>
        <time>2020-02-14T08:46:54Z</time>
      </trkpt>
      <trkpt lat="59.194939" lon="18.140805">
        <ele>36</ele>
        <time>2020-02-14T08:46:55Z</time>
      </trkpt>
      <trkpt lat="59.194915" lon="18.140826">
        <ele>36</ele>
        <time>2020-02-14T08:46:56Z</time>
      </trkpt>
      <trkpt lat="59.194894" lon="18.140848">
        <ele>36</ele>
        <time>2020-02-14T08:46:57Z</time>
      </trkpt>
      <trkpt lat="59.194874" lon="18.14087">
        <ele>36</ele>
        <time>2020-02-14T08:46:58Z</time>
      </trkpt>
      <trkpt lat="59.194852" lon="18.140893">
        <ele>37</ele>
        <time>2020-02-14T08:46:59Z</time>
      </trkpt>
      <trkpt lat="59.194827" lon="18.140916">
        <ele>37</ele>
        <time>2020-02-14T08:47:00Z</time>
      </trkpt>
      <trkpt lat="59.194801" lon="18.140939">
        <ele>37</ele>
        <time>2020-02-14T08:47:01Z</time>
      </trkpt>
      <trkpt lat="59.194775" lon="18.140963">
        <ele>37</ele>
        <time>2020-02-14T08:47:02Z</time>
      </trkpt>
      <trkpt lat="59.194747" lon="18.140989">
        <ele>37</ele>
        <time>2020-02-14T08:47:03Z</time>
      </trkpt>
      <trkpt lat="59.19472" lon="18.141013">
        <ele>37</ele>
        <time>2020-02-14T08:47:04Z</time>
      </trkpt>
      <trkpt lat="59.194693" lon="18.141039">
        <ele>37</ele>
        <time>2020-02-14T08:47:05Z</time>
      </trkpt>
      <trkpt lat="59.194667" lon="18.141064">
        <ele>37</ele>
        <time>2020-02-14T08:47:06Z</time>
      </trkpt>
      <trkpt lat="59.194641" lon="18.141091">
        <ele>38</ele>
        <time>2020-02-14T08:47:07Z</time>
      </trkpt>
      <trkpt lat="59.194615" lon="18.141113">
        <ele>38</ele>
        <time>2020-02-14T08:47:08Z</time>
      </trkpt>
      <trkpt lat="59.194589" lon="18.141137">
        <ele>38</ele>
        <time>2020-02-14T08:47:09Z</time>
      </trkpt>
      <trkpt lat="59.194564" lon="18.14116">
        <ele>38</ele>
        <time>2020-02-14T08:47:10Z</time>
      </trkpt>
      <trkpt lat="59.194536" lon="18.141187">
        <ele>38</ele>
        <time>2020-02-14T08:47:11Z</time>
      </trkpt>
      <trkpt lat="59.194506" lon="18.141215">
        <ele>38</ele>
        <time>2020-02-14T08:47:12Z</time>
      </trkpt>
      <trkpt lat="59.194477" lon="18.141247">
        <ele>38</ele>
        <time>2020-02-14T08:47:13Z</time>
      </trkpt>
      <trkpt lat="59.194448" lon="18.141282">
        <ele>38</ele>
        <time>2020-02-14T08:47:14Z</time>
      </trkpt>
      <trkpt lat="59.194417" lon="18.141315">
        <ele>38</ele>
        <time>2020-02-14T08:47:15Z</time>
      </trkpt>
      <trkpt lat="59.194386" lon="18.141345">
        <ele>39</ele>
        <time>2020-02-14T08:47:17Z</time>
      </trkpt>
      <trkpt lat="59.194353" lon="18.141376">
        <ele>39</ele>
        <time>2020-02-14T08:47:17Z</time>
      </trkpt>
      <trkpt lat="59.194319" lon="18.141408">
        <ele>39</ele>
        <time>2020-02-14T08:47:18Z</time>
      </trkpt>
      <trkpt lat="59.194283" lon="18.141442">
        <ele>39</ele>
        <time>2020-02-14T08:47:19Z</time>
      </trkpt>
      <trkpt lat="59.194249" lon="18.141473">
        <ele>39</ele>
        <time>2020-02-14T08:47:20Z</time>
      </trkpt>
      <trkpt lat="59.194215" lon="18.141504">
        <ele>39</ele>
        <time>2020-02-14T08:47:21Z</time>
      </trkpt>
      <trkpt lat="59.194182" lon="18.141534">
        <ele>39</ele>
        <time>2020-02-14T08:47:22Z</time>
      </trkpt>
      <trkpt lat="59.194114" lon="18.141596">
        <ele>39</ele>
        <time>2020-02-14T08:47:24Z</time>
      </trkpt>
      <trkpt lat="59.194081" lon="18.141629">
        <ele>39</ele>
        <time>2020-02-14T08:47:25Z</time>
      </trkpt>
      <trkpt lat="59.194046" lon="18.141662">
        <ele>39</ele>
        <time>2020-02-14T08:47:26Z</time>
      </trkpt>
      <trkpt lat="59.194012" lon="18.141695">
        <ele>39</ele>
        <time>2020-02-14T08:47:27Z</time>
      </trkpt>
      <trkpt lat="59.193979" lon="18.141727">
        <ele>39</ele>
        <time>2020-02-14T08:47:28Z</time>
      </trkpt>
      <trkpt lat="59.193945" lon="18.141758">
        <ele>39</ele>
        <time>2020-02-14T08:47:29Z</time>
      </trkpt>
      <trkpt lat="59.19391" lon="18.14179">
        <ele>39</ele>
        <time>2020-02-14T08:47:30Z</time>
      </trkpt>
      <trkpt lat="59.193876" lon="18.141824">
        <ele>39</ele>
        <time>2020-02-14T08:47:31Z</time>
      </trkpt>
      <trkpt lat="59.193843" lon="18.141858">
        <ele>39</ele>
        <time>2020-02-14T08:47:32Z</time>
      </trkpt>
      <trkpt lat="59.193809" lon="18.141892">
        <ele>39</ele>
        <time>2020-02-14T08:47:33Z</time>
      </trkpt>
      <trkpt lat="59.193774" lon="18.141926">
        <ele>39</ele>
        <time>2020-02-14T08:47:34Z</time>
      </trkpt>
      <trkpt lat="59.193737" lon="18.141963">
        <ele>39</ele>
        <time>2020-02-14T08:47:35Z</time>
      </trkpt>
      <trkpt lat="59.193701" lon="18.142">
        <ele>39</ele>
        <time>2020-02-14T08:47:36Z</time>
      </trkpt>
      <trkpt lat="59.193663" lon="18.142033">
        <ele>39</ele>
        <time>2020-02-14T08:47:37Z</time>
      </trkpt>
      <trkpt lat="59.193623" lon="18.142069">
        <ele>39</ele>
        <time>2020-02-14T08:47:38Z</time>
      </trkpt>
      <trkpt lat="59.193585" lon="18.142107">
        <ele>40</ele>
        <time>2020-02-14T08:47:39Z</time>
      </trkpt>
      <trkpt lat="59.193542" lon="18.142144">
        <ele>40</ele>
        <time>2020-02-14T08:47:40Z</time>
      </trkpt>
      <trkpt lat="59.193498" lon="18.142175">
        <ele>40</ele>
        <time>2020-02-14T08:47:41Z</time>
      </trkpt>
      <trkpt lat="59.193454" lon="18.142208">
        <ele>40</ele>
        <time>2020-02-14T08:47:42Z</time>
      </trkpt>
      <trkpt lat="59.19341" lon="18.142245">
        <ele>40</ele>
        <time>2020-02-14T08:47:43Z</time>
      </trkpt>
      <trkpt lat="59.193366" lon="18.142278">
        <ele>40</ele>
        <time>2020-02-14T08:47:44Z</time>
      </trkpt>
      <trkpt lat="59.193321" lon="18.142309">
        <ele>40</ele>
        <time>2020-02-14T08:47:45Z</time>
      </trkpt>
      <trkpt lat="59.193276" lon="18.142342">
        <ele>40</ele>
        <time>2020-02-14T08:47:46Z</time>
      </trkpt>
      <trkpt lat="59.19323" lon="18.142375">
        <ele>40</ele>
        <time>2020-02-14T08:47:47Z</time>
      </trkpt>
      <trkpt lat="59.193184" lon="18.142408">
        <ele>41</ele>
        <time>2020-02-14T08:47:48Z</time>
      </trkpt>
      <trkpt lat="59.19314" lon="18.142443">
        <ele>41</ele>
        <time>2020-02-14T08:47:49Z</time>
      </trkpt>
      <trkpt lat="59.193094" lon="18.142485">
        <ele>41</ele>
        <time>2020-02-14T08:47:50Z</time>
      </trkpt>
      <trkpt lat="59.193048" lon="18.142534">
        <ele>41</ele>
        <time>2020-02-14T08:47:51Z</time>
      </trkpt>
      <trkpt lat="59.193" lon="18.142581">
        <ele>41</ele>
        <time>2020-02-14T08:47:52Z</time>
      </trkpt>
      <trkpt lat="59.192953" lon="18.142627">
        <ele>41</ele>
        <time>2020-02-14T08:47:53Z</time>
      </trkpt>
      <trkpt lat="59.192904" lon="18.142673">
        <ele>41</ele>
        <time>2020-02-14T08:47:54Z</time>
      </trkpt>
      <trkpt lat="59.192855" lon="18.142723">
        <ele>41</ele>
        <time>2020-02-14T08:47:55Z</time>
      </trkpt>
      <trkpt lat="59.192805" lon="18.142776">
        <ele>41</ele>
        <time>2020-02-14T08:47:56Z</time>
      </trkpt>
      <trkpt lat="59.192755" lon="18.14283">
        <ele>41</ele>
        <time>2020-02-14T08:47:57Z</time>
      </trkpt>
      <trkpt lat="59.192705" lon="18.142881">
        <ele>41</ele>
        <time>2020-02-14T08:47:58Z</time>
      </trkpt>
      <trkpt lat="59.192652" lon="18.142933">
        <ele>41</ele>
        <time>2020-02-14T08:47:59Z</time>
      </trkpt>
      <trkpt lat="59.1926" lon="18.142987">
        <ele>41</ele>
        <time>2020-02-14T08:48:01Z</time>
      </trkpt>
      <trkpt lat="59.192544" lon="18.143043">
        <ele>41</ele>
        <time>2020-02-14T08:48:01Z</time>
      </trkpt>
      <trkpt lat="59.192486" lon="18.143101">
        <ele>41</ele>
        <time>2020-02-14T08:48:02Z</time>
      </trkpt>
      <trkpt lat="59.19242" lon="18.14317">
        <ele>41</ele>
        <time>2020-02-14T08:48:03Z</time>
      </trkpt>
      <trkpt lat="59.192356" lon="18.143239">
        <ele>41</ele>
        <time>2020-02-14T08:48:04Z</time>
      </trkpt>
      <trkpt lat="59.19229" lon="18.143311">
        <ele>41</ele>
        <time>2020-02-14T08:48:05Z</time>
      </trkpt>
      <trkpt lat="59.19222" lon="18.143386">
        <ele>41</ele>
        <time>2020-02-14T08:48:06Z</time>
      </trkpt>
      <trkpt lat="59.192147" lon="18.143466">
        <ele>41</ele>
        <time>2020-02-14T08:48:08Z</time>
      </trkpt>
      <trkpt lat="59.19208" lon="18.143543">
        <ele>41</ele>
        <time>2020-02-14T08:48:08Z</time>
      </trkpt>
      <trkpt lat="59.192009" lon="18.143618">
        <ele>40</ele>
        <time>2020-02-14T08:48:09Z</time>
      </trkpt>
      <trkpt lat="59.191938" lon="18.143689">
        <ele>40</ele>
        <time>2020-02-14T08:48:10Z</time>
      </trkpt>
      <trkpt lat="59.191866" lon="18.143751">
        <ele>39</ele>
        <time>2020-02-14T08:48:11Z</time>
      </trkpt>
      <trkpt lat="59.191794" lon="18.143808">
        <ele>39</ele>
        <time>2020-02-14T08:48:12Z</time>
      </trkpt>
      <trkpt lat="59.191718" lon="18.143866">
        <ele>39</ele>
        <time>2020-02-14T08:48:14Z</time>
      </trkpt>
      <trkpt lat="59.191641" lon="18.143922">
        <ele>39</ele>
        <time>2020-02-14T08:48:14Z</time>
      </trkpt>
      <trkpt lat="59.19156" lon="18.143975">
        <ele>39</ele>
        <time>2020-02-14T08:48:15Z</time>
      </trkpt>
      <trkpt lat="59.191478" lon="18.144024">
        <ele>38</ele>
        <time>2020-02-14T08:48:16Z</time>
      </trkpt>
      <trkpt lat="59.191394" lon="18.144068">
        <ele>38</ele>
        <time>2020-02-14T08:48:17Z</time>
      </trkpt>
      <trkpt lat="59.191306" lon="18.144105">
        <ele>38</ele>
        <time>2020-02-14T08:48:18Z</time>
      </trkpt>
      <trkpt lat="59.191218" lon="18.144138">
        <ele>37</ele>
        <time>2020-02-14T08:48:19Z</time>
      </trkpt>
      <trkpt lat="59.19113" lon="18.144167">
        <ele>37</ele>
        <time>2020-02-14T08:48:20Z</time>
      </trkpt>
      <trkpt lat="59.191042" lon="18.14419">
        <ele>37</ele>
        <time>2020-02-14T08:48:21Z</time>
      </trkpt>
      <trkpt lat="59.190954" lon="18.144213">
        <ele>37</ele>
        <time>2020-02-14T08:48:22Z</time>
      </trkpt>
      <trkpt lat="59.19086" lon="18.144234">
        <ele>36</ele>
        <time>2020-02-14T08:48:23Z</time>
      </trkpt>
      <trkpt lat="59.190768" lon="18.144257">
        <ele>36</ele>
        <time>2020-02-14T08:48:25Z</time>
      </trkpt>
      <trkpt lat="59.190674" lon="18.144277">
        <ele>36</ele>
        <time>2020-02-14T08:48:25Z</time>
      </trkpt>
      <trkpt lat="59.190579" lon="18.144295">
        <ele>36</ele>
        <time>2020-02-14T08:48:26Z</time>
      </trkpt>
      <trkpt lat="59.190486" lon="18.144315">
        <ele>36</ele>
        <time>2020-02-14T08:48:27Z</time>
      </trkpt>
      <trkpt lat="59.190394" lon="18.144341">
        <ele>36</ele>
        <time>2020-02-14T08:48:28Z</time>
      </trkpt>
      <trkpt lat="59.190305" lon="18.14437">
        <ele>36</ele>
        <time>2020-02-14T08:48:29Z</time>
      </trkpt>
      <trkpt lat="59.19022" lon="18.144402">
        <ele>36</ele>
        <time>2020-02-14T08:48:31Z</time>
      </trkpt>
      <trkpt lat="59.190138" lon="18.144425">
        <ele>36</ele>
        <time>2020-02-14T08:48:31Z</time>
      </trkpt>
      <trkpt lat="59.190059" lon="18.144437">
        <ele>36</ele>
        <time>2020-02-14T08:48:32Z</time>
      </trkpt>
      <trkpt lat="59.1899" lon="18.14446">
        <ele>35</ele>
        <time>2020-02-14T08:48:34Z</time>
      </trkpt>
      <trkpt lat="59.189742" lon="18.144489">
        <ele>35</ele>
        <time>2020-02-14T08:48:36Z</time>
      </trkpt>
      <trkpt lat="59.189594" lon="18.144555">
        <ele>34</ele>
        <time>2020-02-14T08:48:38Z</time>
      </trkpt>
      <trkpt lat="59.18947" lon="18.144631">
        <ele>33</ele>
        <time>2020-02-14T08:48:40Z</time>
      </trkpt>
      <trkpt lat="59.189414" lon="18.144676">
        <ele>33</ele>
        <time>2020-02-14T08:48:41Z</time>
      </trkpt>
      <trkpt lat="59.189362" lon="18.144722">
        <ele>32</ele>
        <time>2020-02-14T08:48:42Z</time>
      </trkpt>
      <trkpt lat="59.18931" lon="18.144766">
        <ele>32</ele>
        <time>2020-02-14T08:48:43Z</time>
      </trkpt>
      <trkpt lat="59.18926" lon="18.144813">
        <ele>32</ele>
        <time>2020-02-14T08:48:45Z</time>
      </trkpt>
      <trkpt lat="59.189214" lon="18.144867">
        <ele>32</ele>
        <time>2020-02-14T08:48:45Z</time>
      </trkpt>
      <trkpt lat="59.189168" lon="18.144925">
        <ele>32</ele>
        <time>2020-02-14T08:48:46Z</time>
      </trkpt>
      <trkpt lat="59.189126" lon="18.144988">
        <ele>32</ele>
        <time>2020-02-14T08:48:47Z</time>
      </trkpt>
      <trkpt lat="59.189084" lon="18.145053">
        <ele>31</ele>
        <time>2020-02-14T08:48:48Z</time>
      </trkpt>
      <trkpt lat="59.189044" lon="18.145123">
        <ele>31</ele>
        <time>2020-02-14T08:48:49Z</time>
      </trkpt>
      <trkpt lat="59.188998" lon="18.145194">
        <ele>31</ele>
        <time>2020-02-14T08:48:50Z</time>
      </trkpt>
      <trkpt lat="59.188946" lon="18.145265">
        <ele>31</ele>
        <time>2020-02-14T08:48:51Z</time>
      </trkpt>
      <trkpt lat="59.188895" lon="18.145332">
        <ele>30</ele>
        <time>2020-02-14T08:48:52Z</time>
      </trkpt>
      <trkpt lat="59.188842" lon="18.145401">
        <ele>30</ele>
        <time>2020-02-14T08:48:54Z</time>
      </trkpt>
      <trkpt lat="59.18879" lon="18.145469">
        <ele>30</ele>
        <time>2020-02-14T08:48:54Z</time>
      </trkpt>
      <trkpt lat="59.188738" lon="18.145537">
        <ele>30</ele>
        <time>2020-02-14T08:48:55Z</time>
      </trkpt>
      <trkpt lat="59.188684" lon="18.145602">
        <ele>30</ele>
        <time>2020-02-14T08:48:56Z</time>
      </trkpt>
      <trkpt lat="59.188627" lon="18.145666">
        <ele>30</ele>
        <time>2020-02-14T08:48:57Z</time>
      </trkpt>
      <trkpt lat="59.18857" lon="18.145726">
        <ele>30</ele>
        <time>2020-02-14T08:48:58Z</time>
      </trkpt>
      <trkpt lat="59.188508" lon="18.14578">
        <ele>30</ele>
        <time>2020-02-14T08:48:59Z</time>
      </trkpt>
      <trkpt lat="59.188446" lon="18.145831">
        <ele>30</ele>
        <time>2020-02-14T08:49:01Z</time>
      </trkpt>
      <trkpt lat="59.188382" lon="18.14588">
        <ele>29</ele>
        <time>2020-02-14T08:49:01Z</time>
      </trkpt>
      <trkpt lat="59.188318" lon="18.14593">
        <ele>29</ele>
        <time>2020-02-14T08:49:02Z</time>
      </trkpt>
      <trkpt lat="59.188252" lon="18.145978">
        <ele>29</ele>
        <time>2020-02-14T08:49:03Z</time>
      </trkpt>
      <trkpt lat="59.188186" lon="18.146024">
        <ele>29</ele>
        <time>2020-02-14T08:49:04Z</time>
      </trkpt>
      <trkpt lat="59.188121" lon="18.146064">
        <ele>29</ele>
        <time>2020-02-14T08:49:05Z</time>
      </trkpt>
      <trkpt lat="59.188052" lon="18.1461">
        <ele>30</ele>
        <time>2020-02-14T08:49:06Z</time>
      </trkpt>
      <trkpt lat="59.187978" lon="18.14615">
        <ele>30</ele>
        <time>2020-02-14T08:49:08Z</time>
      </trkpt>
      <trkpt lat="59.187908" lon="18.146208">
        <ele>30</ele>
        <time>2020-02-14T08:49:08Z</time>
      </trkpt>
      <trkpt lat="59.187838" lon="18.146262">
        <ele>29</ele>
        <time>2020-02-14T08:49:09Z</time>
      </trkpt>
      <trkpt lat="59.187696" lon="18.146364">
        <ele>29</ele>
        <time>2020-02-14T08:49:11Z</time>
      </trkpt>
      <trkpt lat="59.187626" lon="18.146408">
        <ele>29</ele>
        <time>2020-02-14T08:49:12Z</time>
      </trkpt>
      <trkpt lat="59.187482" lon="18.14648">
        <ele>28</ele>
        <time>2020-02-14T08:49:14Z</time>
      </trkpt>
      <trkpt lat="59.18741" lon="18.146508">
        <ele>28</ele>
        <time>2020-02-14T08:49:15Z</time>
      </trkpt>
      <trkpt lat="59.187337" lon="18.146528">
        <ele>28</ele>
        <time>2020-02-14T08:49:16Z</time>
      </trkpt>
      <trkpt lat="59.187267" lon="18.146546">
        <ele>28</ele>
        <time>2020-02-14T08:49:17Z</time>
      </trkpt>
      <trkpt lat="59.187197" lon="18.146562">
        <ele>28</ele>
        <time>2020-02-14T08:49:18Z</time>
      </trkpt>
      <trkpt lat="59.18713" lon="18.146578">
        <ele>28</ele>
        <time>2020-02-14T08:49:19Z</time>
      </trkpt>
      <trkpt lat="59.187064" lon="18.146594">
        <ele>29</ele>
        <time>2020-02-14T08:49:20Z</time>
      </trkpt>
      <trkpt lat="59.187" lon="18.146614">
        <ele>29</ele>
        <time>2020-02-14T08:49:22Z</time>
      </trkpt>
      <trkpt lat="59.186935" lon="18.146632">
        <ele>30</ele>
        <time>2020-02-14T08:49:22Z</time>
      </trkpt>
      <trkpt lat="59.186872" lon="18.146654">
        <ele>30</ele>
        <time>2020-02-14T08:49:23Z</time>
      </trkpt>
      <trkpt lat="59.186809" lon="18.146674">
        <ele>30</ele>
        <time>2020-02-14T08:49:24Z</time>
      </trkpt>
      <trkpt lat="59.186748" lon="18.14669">
        <ele>31</ele>
        <time>2020-02-14T08:49:25Z</time>
      </trkpt>
      <trkpt lat="59.186686" lon="18.146712">
        <ele>31</ele>
        <time>2020-02-14T08:49:26Z</time>
      </trkpt>
      <trkpt lat="59.186624" lon="18.146732">
        <ele>31</ele>
        <time>2020-02-14T08:49:27Z</time>
      </trkpt>
      <trkpt lat="59.186563" lon="18.146752">
        <ele>31</ele>
        <time>2020-02-14T08:49:28Z</time>
      </trkpt>
      <trkpt lat="59.186502" lon="18.146768">
        <ele>32</ele>
        <time>2020-02-14T08:49:30Z</time>
      </trkpt>
      <trkpt lat="59.186444" lon="18.146788">
        <ele>32</ele>
        <time>2020-02-14T08:49:30Z</time>
      </trkpt>
      <trkpt lat="59.186386" lon="18.146806">
        <ele>33</ele>
        <time>2020-02-14T08:49:31Z</time>
      </trkpt>
      <trkpt lat="59.186328" lon="18.146822">
        <ele>33</ele>
        <time>2020-02-14T08:49:32Z</time>
      </trkpt>
      <trkpt lat="59.18627" lon="18.146838">
        <ele>33</ele>
        <time>2020-02-14T08:49:33Z</time>
      </trkpt>
      <trkpt lat="59.186214" lon="18.14685">
        <ele>33</ele>
        <time>2020-02-14T08:49:34Z</time>
      </trkpt>
      <trkpt lat="59.186158" lon="18.146862">
        <ele>34</ele>
        <time>2020-02-14T08:49:35Z</time>
      </trkpt>
      <trkpt lat="59.1861" lon="18.146874">
        <ele>34</ele>
        <time>2020-02-14T08:49:36Z</time>
      </trkpt>
      <trkpt lat="59.186043" lon="18.146882">
        <ele>34</ele>
        <time>2020-02-14T08:49:37Z</time>
      </trkpt>
      <trkpt lat="59.185986" lon="18.146886">
        <ele>34</ele>
        <time>2020-02-14T08:49:39Z</time>
      </trkpt>
      <trkpt lat="59.185932" lon="18.146892">
        <ele>34</ele>
        <time>2020-02-14T08:49:39Z</time>
      </trkpt>
      <trkpt lat="59.185877" lon="18.146906">
        <ele>34</ele>
        <time>2020-02-14T08:49:40Z</time>
      </trkpt>
      <trkpt lat="59.18582" lon="18.14692">
        <ele>34</ele>
        <time>2020-02-14T08:49:41Z</time>
      </trkpt>
      <trkpt lat="59.185764" lon="18.146934">
        <ele>34</ele>
        <time>2020-02-14T08:49:42Z</time>
      </trkpt>
      <trkpt lat="59.185708" lon="18.146948">
        <ele>34</ele>
        <time>2020-02-14T08:49:43Z</time>
      </trkpt>
      <trkpt lat="59.18565" lon="18.14696">
        <ele>34</ele>
        <time>2020-02-14T08:49:44Z</time>
      </trkpt>
      <trkpt lat="59.185591" lon="18.146972">
        <ele>34</ele>
        <time>2020-02-14T08:49:45Z</time>
      </trkpt>
      <trkpt lat="59.185538" lon="18.146984">
        <ele>34</ele>
        <time>2020-02-14T08:49:46Z</time>
      </trkpt>
      <trkpt lat="59.185486" lon="18.146994">
        <ele>34</ele>
        <time>2020-02-14T08:49:48Z</time>
      </trkpt>
      <trkpt lat="59.185438" lon="18.146998">
        <ele>34</ele>
        <time>2020-02-14T08:49:48Z</time>
      </trkpt>
      <trkpt lat="59.185394" lon="18.146982">
        <ele>34</ele>
        <time>2020-02-14T08:49:49Z</time>
      </trkpt>
      <trkpt lat="59.185358" lon="18.146934">
        <ele>34</ele>
        <time>2020-02-14T08:49:50Z</time>
      </trkpt>
      <trkpt lat="59.185326" lon="18.14687">
        <ele>34</ele>
        <time>2020-02-14T08:49:51Z</time>
      </trkpt>
      <trkpt lat="59.185294" lon="18.146816">
        <ele>34</ele>
        <time>2020-02-14T08:49:52Z</time>
      </trkpt>
      <trkpt lat="59.185258" lon="18.146786">
        <ele>34</ele>
        <time>2020-02-14T08:49:53Z</time>
      </trkpt>
      <trkpt lat="59.18522" lon="18.146784">
        <ele>34</ele>
        <time>2020-02-14T08:49:54Z</time>
      </trkpt>
      <trkpt lat="59.185184" lon="18.146794">
        <ele>33</ele>
        <time>2020-02-14T08:49:55Z</time>
      </trkpt>
      <trkpt lat="59.185148" lon="18.146812">
        <ele>33</ele>
        <time>2020-02-14T08:49:56Z</time>
      </trkpt>
      <trkpt lat="59.185112" lon="18.146836">
        <ele>33</ele>
        <time>2020-02-14T08:49:57Z</time>
      </trkpt>
      <trkpt lat="59.185074" lon="18.146862">
        <ele>33</ele>
        <time>2020-02-14T08:49:58Z</time>
      </trkpt>
      <trkpt lat="59.185038" lon="18.146894">
        <ele>33</ele>
        <time>2020-02-14T08:50:00Z</time>
      </trkpt>
      <trkpt lat="59.185002" lon="18.146926">
        <ele>33</ele>
        <time>2020-02-14T08:50:00Z</time>
      </trkpt>
      <trkpt lat="59.184964" lon="18.146958">
        <ele>32</ele>
        <time>2020-02-14T08:50:01Z</time>
      </trkpt>
      <trkpt lat="59.184925" lon="18.146986">
        <ele>32</ele>
        <time>2020-02-14T08:50:02Z</time>
      </trkpt>
      <trkpt lat="59.184885" lon="18.147012">
        <ele>32</ele>
        <time>2020-02-14T08:50:03Z</time>
      </trkpt>
      <trkpt lat="59.184845" lon="18.147038">
        <ele>32</ele>
        <time>2020-02-14T08:50:04Z</time>
      </trkpt>
      <trkpt lat="59.184803" lon="18.147056">
        <ele>32</ele>
        <time>2020-02-14T08:50:05Z</time>
      </trkpt>
      <trkpt lat="59.184762" lon="18.147072">
        <ele>32</ele>
        <time>2020-02-14T08:50:06Z</time>
      </trkpt>
      <trkpt lat="59.18472" lon="18.147084">
        <ele>32</ele>
        <time>2020-02-14T08:50:07Z</time>
      </trkpt>
      <trkpt lat="59.184678" lon="18.147096">
        <ele>32</ele>
        <time>2020-02-14T08:50:08Z</time>
      </trkpt>
      <trkpt lat="59.184637" lon="18.147108">
        <ele>32</ele>
        <time>2020-02-14T08:50:09Z</time>
      </trkpt>
      <trkpt lat="59.184595" lon="18.147118">
        <ele>32</ele>
        <time>2020-02-14T08:50:10Z</time>
      </trkpt>
      <trkpt lat="59.184554" lon="18.147128">
        <ele>32</ele>
        <time>2020-02-14T08:50:11Z</time>
      </trkpt>
      <trkpt lat="59.184512" lon="18.147134">
        <ele>32</ele>
        <time>2020-02-14T08:50:12Z</time>
      </trkpt>
      <trkpt lat="59.184471" lon="18.147142">
        <ele>32</ele>
        <time>2020-02-14T08:50:13Z</time>
      </trkpt>
      <trkpt lat="59.184432" lon="18.14715">
        <ele>32</ele>
        <time>2020-02-14T08:50:14Z</time>
      </trkpt>
      <trkpt lat="59.184395" lon="18.147156">
        <ele>32</ele>
        <time>2020-02-14T08:50:15Z</time>
      </trkpt>
      <trkpt lat="59.184358" lon="18.147164">
        <ele>32</ele>
        <time>2020-02-14T08:50:16Z</time>
      </trkpt>
      <trkpt lat="59.184323" lon="18.14717">
        <ele>32</ele>
        <time>2020-02-14T08:50:17Z</time>
      </trkpt>
      <trkpt lat="59.184289" lon="18.147178">
        <ele>32</ele>
        <time>2020-02-14T08:50:18Z</time>
      </trkpt>
      <trkpt lat="59.184257" lon="18.147184">
        <ele>32</ele>
        <time>2020-02-14T08:50:19Z</time>
      </trkpt>
      <trkpt lat="59.184225" lon="18.14719">
        <ele>32</ele>
        <time>2020-02-14T08:50:20Z</time>
      </trkpt>
      <trkpt lat="59.184194" lon="18.147194">
        <ele>32</ele>
        <time>2020-02-14T08:50:21Z</time>
      </trkpt>
      <trkpt lat="59.184163" lon="18.1472">
        <ele>32</ele>
        <time>2020-02-14T08:50:22Z</time>
      </trkpt>
      <trkpt lat="59.184132" lon="18.147206">
        <ele>32</ele>
        <time>2020-02-14T08:50:23Z</time>
      </trkpt>
      <trkpt lat="59.184102" lon="18.147212">
        <ele>32</ele>
        <time>2020-02-14T08:50:24Z</time>
      </trkpt>
      <trkpt lat="59.184069" lon="18.14722">
        <ele>32</ele>
        <time>2020-02-14T08:50:26Z</time>
      </trkpt>
      <trkpt lat="59.184036" lon="18.147225">
        <ele>32</ele>
        <time>2020-02-14T08:50:26Z</time>
      </trkpt>
      <trkpt lat="59.184002" lon="18.147228">
        <ele>32</ele>
        <time>2020-02-14T08:50:27Z</time>
      </trkpt>
      <trkpt lat="59.183968" lon="18.147234">
        <ele>32</ele>
        <time>2020-02-14T08:50:28Z</time>
      </trkpt>
      <trkpt lat="59.183935" lon="18.14724">
        <ele>32</ele>
        <time>2020-02-14T08:50:29Z</time>
      </trkpt>
      <trkpt lat="59.183903" lon="18.147246">
        <ele>32</ele>
        <time>2020-02-14T08:50:30Z</time>
      </trkpt>
      <trkpt lat="59.18387" lon="18.147248">
        <ele>32</ele>
        <time>2020-02-14T08:50:31Z</time>
      </trkpt>
      <trkpt lat="59.183836" lon="18.147252">
        <ele>32</ele>
        <time>2020-02-14T08:50:32Z</time>
      </trkpt>
      <trkpt lat="59.183802" lon="18.147256">
        <ele>32</ele>
        <time>2020-02-14T08:50:33Z</time>
      </trkpt>
      <trkpt lat="59.183768" lon="18.14726">
        <ele>32</ele>
        <time>2020-02-14T08:50:34Z</time>
      </trkpt>
      <trkpt lat="59.183733" lon="18.147264">
        <ele>33</ele>
        <time>2020-02-14T08:50:35Z</time>
      </trkpt>
      <trkpt lat="59.183697" lon="18.14727">
        <ele>33</ele>
        <time>2020-02-14T08:50:36Z</time>
      </trkpt>
      <trkpt lat="59.183661" lon="18.147276">
        <ele>33</ele>
        <time>2020-02-14T08:50:37Z</time>
      </trkpt>
      <trkpt lat="59.183626" lon="18.147288">
        <ele>33</ele>
        <time>2020-02-14T08:50:38Z</time>
      </trkpt>
      <trkpt lat="59.183592" lon="18.147306">
        <ele>33</ele>
        <time>2020-02-14T08:50:39Z</time>
      </trkpt>
      <trkpt lat="59.183558" lon="18.147328">
        <ele>33</ele>
        <time>2020-02-14T08:50:40Z</time>
      </trkpt>
      <trkpt lat="59.183524" lon="18.14735">
        <ele>33</ele>
        <time>2020-02-14T08:50:41Z</time>
      </trkpt>
      <trkpt lat="59.183488" lon="18.147358">
        <ele>33</ele>
        <time>2020-02-14T08:50:42Z</time>
      </trkpt>
      <trkpt lat="59.183452" lon="18.147354">
        <ele>33</ele>
        <time>2020-02-14T08:50:43Z</time>
      </trkpt>
      <trkpt lat="59.183416" lon="18.147346">
        <ele>33</ele>
        <time>2020-02-14T08:50:44Z</time>
      </trkpt>
      <trkpt lat="59.183379" lon="18.147334">
        <ele>33</ele>
        <time>2020-02-14T08:50:45Z</time>
      </trkpt>
      <trkpt lat="59.183346" lon="18.14731">
        <ele>33</ele>
        <time>2020-02-14T08:50:46Z</time>
      </trkpt>
      <trkpt lat="59.183316" lon="18.147276">
        <ele>33</ele>
        <time>2020-02-14T08:50:47Z</time>
      </trkpt>
      <trkpt lat="59.183285" lon="18.147244">
        <ele>33</ele>
        <time>2020-02-14T08:50:48Z</time>
      </trkpt>
      <trkpt lat="59.183251" lon="18.147218">
        <ele>33</ele>
        <time>2020-02-14T08:50:49Z</time>
      </trkpt>
      <trkpt lat="59.183215" lon="18.147202">
        <ele>34</ele>
        <time>2020-02-14T08:50:50Z</time>
      </trkpt>
      <trkpt lat="59.18318" lon="18.147188">
        <ele>34</ele>
        <time>2020-02-14T08:50:51Z</time>
      </trkpt>
      <trkpt lat="59.183141" lon="18.147174">
        <ele>34</ele>
        <time>2020-02-14T08:50:52Z</time>
      </trkpt>
      <trkpt lat="59.183104" lon="18.147158">
        <ele>34</ele>
        <time>2020-02-14T08:50:54Z</time>
      </trkpt>
      <trkpt lat="59.183064" lon="18.14714">
        <ele>34</ele>
        <time>2020-02-14T08:50:54Z</time>
      </trkpt>
      <trkpt lat="59.183024" lon="18.147126">
        <ele>34</ele>
        <time>2020-02-14T08:50:55Z</time>
      </trkpt>
      <trkpt lat="59.182983" lon="18.147112">
        <ele>35</ele>
        <time>2020-02-14T08:50:56Z</time>
      </trkpt>
      <trkpt lat="59.182941" lon="18.147094">
        <ele>35</ele>
        <time>2020-02-14T08:50:57Z</time>
      </trkpt>
      <trkpt lat="59.1829" lon="18.147074">
        <ele>35</ele>
        <time>2020-02-14T08:50:58Z</time>
      </trkpt>
      <trkpt lat="59.182859" lon="18.14705">
        <ele>35</ele>
        <time>2020-02-14T08:50:59Z</time>
      </trkpt>
      <trkpt lat="59.182819" lon="18.147026">
        <ele>35</ele>
        <time>2020-02-14T08:51:00Z</time>
      </trkpt>
      <trkpt lat="59.182779" lon="18.146998">
        <ele>35</ele>
        <time>2020-02-14T08:51:01Z</time>
      </trkpt>
      <trkpt lat="59.182739" lon="18.14697">
        <ele>35</ele>
        <time>2020-02-14T08:51:02Z</time>
      </trkpt>
      <trkpt lat="59.182699" lon="18.146941">
        <ele>35</ele>
        <time>2020-02-14T08:51:03Z</time>
      </trkpt>
      <trkpt lat="59.182659" lon="18.146909">
        <ele>35</ele>
        <time>2020-02-14T08:51:04Z</time>
      </trkpt>
      <trkpt lat="59.182619" lon="18.146877">
        <ele>35</ele>
        <time>2020-02-14T08:51:06Z</time>
      </trkpt>
      <trkpt lat="59.182581" lon="18.146847">
        <ele>35</ele>
        <time>2020-02-14T08:51:06Z</time>
      </trkpt>
      <trkpt lat="59.182541" lon="18.146814">
        <ele>35</ele>
        <time>2020-02-14T08:51:07Z</time>
      </trkpt>
      <trkpt lat="59.182502" lon="18.146779">
        <ele>36</ele>
        <time>2020-02-14T08:51:08Z</time>
      </trkpt>
      <trkpt lat="59.182463" lon="18.146741">
        <ele>36</ele>
        <time>2020-02-14T08:51:09Z</time>
      </trkpt>
      <trkpt lat="59.182423" lon="18.146702">
        <ele>36</ele>
        <time>2020-02-14T08:51:10Z</time>
      </trkpt>
      <trkpt lat="59.182382" lon="18.146661">
        <ele>36</ele>
        <time>2020-02-14T08:51:11Z</time>
      </trkpt>
      <trkpt lat="59.182344" lon="18.146621">
        <ele>36</ele>
        <time>2020-02-14T08:51:12Z</time>
      </trkpt>
      <trkpt lat="59.18231" lon="18.146582">
        <ele>37</ele>
        <time>2020-02-14T08:51:13Z</time>
      </trkpt>
      <trkpt lat="59.182278" lon="18.146544">
        <ele>37</ele>
        <time>2020-02-14T08:51:14Z</time>
      </trkpt>
      <trkpt lat="59.182242" lon="18.146502">
        <ele>37</ele>
        <time>2020-02-14T08:51:15Z</time>
      </trkpt>
      <trkpt lat="59.182205" lon="18.146459">
        <ele>37</ele>
        <time>2020-02-14T08:51:16Z</time>
      </trkpt>
      <trkpt lat="59.182163" lon="18.146413">
        <ele>37</ele>
        <time>2020-02-14T08:51:18Z</time>
      </trkpt>
      <trkpt lat="59.182119" lon="18.146366">
        <ele>37</ele>
        <time>2020-02-14T08:51:18Z</time>
      </trkpt>
      <trkpt lat="59.182078" lon="18.146319">
        <ele>37</ele>
        <time>2020-02-14T08:51:19Z</time>
      </trkpt>
      <trkpt lat="59.182038" lon="18.146273">
        <ele>37</ele>
        <time>2020-02-14T08:51:20Z</time>
      </trkpt>
      <trkpt lat="59.181998" lon="18.146228">
        <ele>37</ele>
        <time>2020-02-14T08:51:21Z</time>
      </trkpt>
      <trkpt lat="59.18196" lon="18.146182">
        <ele>37</ele>
        <time>2020-02-14T08:51:22Z</time>
      </trkpt>
      <trkpt lat="59.18192" lon="18.146137">
        <ele>37</ele>
        <time>2020-02-14T08:51:23Z</time>
      </trkpt>
      <trkpt lat="59.181885" lon="18.146097">
        <ele>37</ele>
        <time>2020-02-14T08:51:24Z</time>
      </trkpt>
      <trkpt lat="59.181847" lon="18.146056">
        <ele>37</ele>
        <time>2020-02-14T08:51:25Z</time>
      </trkpt>
      <trkpt lat="59.18181" lon="18.146014">
        <ele>37</ele>
        <time>2020-02-14T08:51:26Z</time>
      </trkpt>
      <trkpt lat="59.181774" lon="18.145971">
        <ele>37</ele>
        <time>2020-02-14T08:51:27Z</time>
      </trkpt>
      <trkpt lat="59.181738" lon="18.145927">
        <ele>37</ele>
        <time>2020-02-14T08:51:29Z</time>
      </trkpt>
      <trkpt lat="59.1817" lon="18.145883">
        <ele>37</ele>
        <time>2020-02-14T08:51:29Z</time>
      </trkpt>
      <trkpt lat="59.181663" lon="18.145839">
        <ele>37</ele>
        <time>2020-02-14T08:51:30Z</time>
      </trkpt>
      <trkpt lat="59.181629" lon="18.145798">
        <ele>36</ele>
        <time>2020-02-14T08:51:31Z</time>
      </trkpt>
      <trkpt lat="59.181597" lon="18.14576">
        <ele>36</ele>
        <time>2020-02-14T08:51:32Z</time>
      </trkpt>
      <trkpt lat="59.181566" lon="18.14572">
        <ele>37</ele>
        <time>2020-02-14T08:51:33Z</time>
      </trkpt>
      <trkpt lat="59.18153" lon="18.145676">
        <ele>37</ele>
        <time>2020-02-14T08:51:34Z</time>
      </trkpt>
      <trkpt lat="59.181485" lon="18.145629">
        <ele>37</ele>
        <time>2020-02-14T08:51:35Z</time>
      </trkpt>
      <trkpt lat="59.181442" lon="18.145582">
        <ele>37</ele>
        <time>2020-02-14T08:51:36Z</time>
      </trkpt>
      <trkpt lat="59.181401" lon="18.145535">
        <ele>37</ele>
        <time>2020-02-14T08:51:37Z</time>
      </trkpt>
      <trkpt lat="59.181359" lon="18.14549">
        <ele>37</ele>
        <time>2020-02-14T08:51:38Z</time>
      </trkpt>
      <trkpt lat="59.181318" lon="18.145447">
        <ele>37</ele>
        <time>2020-02-14T08:51:40Z</time>
      </trkpt>
      <trkpt lat="59.181276" lon="18.145405">
        <ele>37</ele>
        <time>2020-02-14T08:51:40Z</time>
      </trkpt>
      <trkpt lat="59.181235" lon="18.145362">
        <ele>37</ele>
        <time>2020-02-14T08:51:41Z</time>
      </trkpt>
      <trkpt lat="59.181195" lon="18.145317">
        <ele>37</ele>
        <time>2020-02-14T08:51:42Z</time>
      </trkpt>
      <trkpt lat="59.181153" lon="18.145271">
        <ele>37</ele>
        <time>2020-02-14T08:51:43Z</time>
      </trkpt>
      <trkpt lat="59.18111" lon="18.145225">
        <ele>38</ele>
        <time>2020-02-14T08:51:44Z</time>
      </trkpt>
      <trkpt lat="59.181065" lon="18.145183">
        <ele>38</ele>
        <time>2020-02-14T08:51:45Z</time>
      </trkpt>
      <trkpt lat="59.18102" lon="18.145139">
        <ele>38</ele>
        <time>2020-02-14T08:51:46Z</time>
      </trkpt>
      <trkpt lat="59.180975" lon="18.145091">
        <ele>38</ele>
        <time>2020-02-14T08:51:47Z</time>
      </trkpt>
      <trkpt lat="59.180931" lon="18.14504">
        <ele>38</ele>
        <time>2020-02-14T08:51:48Z</time>
      </trkpt>
      <trkpt lat="59.180884" lon="18.144987">
        <ele>38</ele>
        <time>2020-02-14T08:51:50Z</time>
      </trkpt>
      <trkpt lat="59.180837" lon="18.144934">
        <ele>38</ele>
        <time>2020-02-14T08:51:50Z</time>
      </trkpt>
      <trkpt lat="59.180789" lon="18.144884">
        <ele>38</ele>
        <time>2020-02-14T08:51:51Z</time>
      </trkpt>
      <trkpt lat="59.180741" lon="18.144835">
        <ele>38</ele>
        <time>2020-02-14T08:51:52Z</time>
      </trkpt>
      <trkpt lat="59.180694" lon="18.14478">
        <ele>38</ele>
        <time>2020-02-14T08:51:53Z</time>
      </trkpt>
      <trkpt lat="59.180649" lon="18.144717">
        <ele>38</ele>
        <time>2020-02-14T08:51:54Z</time>
      </trkpt>
      <trkpt lat="59.180606" lon="18.144654">
        <ele>38</ele>
        <time>2020-02-14T08:51:55Z</time>
      </trkpt>
      <trkpt lat="59.180564" lon="18.144592">
        <ele>38</ele>
        <time>2020-02-14T08:51:56Z</time>
      </trkpt>
      <trkpt lat="59.180521" lon="18.144528">
        <ele>38</ele>
        <time>2020-02-14T08:51:57Z</time>
      </trkpt>
      <trkpt lat="59.180477" lon="18.144464">
        <ele>38</ele>
        <time>2020-02-14T08:51:59Z</time>
      </trkpt>
      <trkpt lat="59.18043" lon="18.144402">
        <ele>37</ele>
        <time>2020-02-14T08:51:59Z</time>
      </trkpt>
      <trkpt lat="59.180382" lon="18.144344">
        <ele>37</ele>
        <time>2020-02-14T08:52:00Z</time>
      </trkpt>
      <trkpt lat="59.180334" lon="18.144288">
        <ele>37</ele>
        <time>2020-02-14T08:52:01Z</time>
      </trkpt>
      <trkpt lat="59.180284" lon="18.144231">
        <ele>37</ele>
        <time>2020-02-14T08:52:02Z</time>
      </trkpt>
      <trkpt lat="59.180233" lon="18.144172">
        <ele>37</ele>
        <time>2020-02-14T08:52:03Z</time>
      </trkpt>
      <trkpt lat="59.180185" lon="18.144113">
        <ele>37</ele>
        <time>2020-02-14T08:52:04Z</time>
      </trkpt>
      <trkpt lat="59.180137" lon="18.144053">
        <ele>37</ele>
        <time>2020-02-14T08:52:05Z</time>
      </trkpt>
      <trkpt lat="59.180087" lon="18.143996">
        <ele>37</ele>
        <time>2020-02-14T08:52:06Z</time>
      </trkpt>
      <trkpt lat="59.180036" lon="18.143939">
        <ele>37</ele>
        <time>2020-02-14T08:52:08Z</time>
      </trkpt>
      <trkpt lat="59.179983" lon="18.143886">
        <ele>37</ele>
        <time>2020-02-14T08:52:08Z</time>
      </trkpt>
      <trkpt lat="59.179931" lon="18.143837">
        <ele>37</ele>
        <time>2020-02-14T08:52:09Z</time>
      </trkpt>
      <trkpt lat="59.179878" lon="18.143788">
        <ele>37</ele>
        <time>2020-02-14T08:52:10Z</time>
      </trkpt>
      <trkpt lat="59.179823" lon="18.143743">
        <ele>37</ele>
        <time>2020-02-14T08:52:11Z</time>
      </trkpt>
      <trkpt lat="59.179766" lon="18.143702">
        <ele>37</ele>
        <time>2020-02-14T08:52:12Z</time>
      </trkpt>
      <trkpt lat="59.17971" lon="18.143668">
        <ele>37</ele>
        <time>2020-02-14T08:52:13Z</time>
      </trkpt>
      <trkpt lat="59.179651" lon="18.143646">
        <ele>37</ele>
        <time>2020-02-14T08:52:14Z</time>
      </trkpt>
      <trkpt lat="59.179591" lon="18.143645">
        <ele>36</ele>
        <time>2020-02-14T08:52:16Z</time>
      </trkpt>
      <trkpt lat="59.17953" lon="18.143657">
        <ele>37</ele>
        <time>2020-02-14T08:52:16Z</time>
      </trkpt>
      <trkpt lat="59.179467" lon="18.143675">
        <ele>36</ele>
        <time>2020-02-14T08:52:17Z</time>
      </trkpt>
      <trkpt lat="59.179403" lon="18.143688">
        <ele>36</ele>
        <time>2020-02-14T08:52:18Z</time>
      </trkpt>
      <trkpt lat="59.179342" lon="18.143695">
        <ele>36</ele>
        <time>2020-02-14T08:52:19Z</time>
      </trkpt>
      <trkpt lat="59.179281" lon="18.143679">
        <ele>36</ele>
        <time>2020-02-14T08:52:20Z</time>
      </trkpt>
      <trkpt lat="59.179227" lon="18.14363">
        <ele>36</ele>
        <time>2020-02-14T08:52:22Z</time>
      </trkpt>
      <trkpt lat="59.179179" lon="18.143553">
        <ele>36</ele>
        <time>2020-02-14T08:52:22Z</time>
      </trkpt>
      <trkpt lat="59.179134" lon="18.143473">
        <ele>36</ele>
        <time>2020-02-14T08:52:23Z</time>
      </trkpt>
      <trkpt lat="59.179086" lon="18.143401">
        <ele>36</ele>
        <time>2020-02-14T08:52:24Z</time>
      </trkpt>
      <trkpt lat="59.179033" lon="18.143341">
        <ele>36</ele>
        <time>2020-02-14T08:52:25Z</time>
      </trkpt>
      <trkpt lat="59.178979" lon="18.143293">
        <ele>35</ele>
        <time>2020-02-14T08:52:26Z</time>
      </trkpt>
      <trkpt lat="59.178926" lon="18.143249">
        <ele>35</ele>
        <time>2020-02-14T08:52:27Z</time>
      </trkpt>
      <trkpt lat="59.178872" lon="18.143209">
        <ele>35</ele>
        <time>2020-02-14T08:52:28Z</time>
      </trkpt>
      <trkpt lat="59.178819" lon="18.14317">
        <ele>35</ele>
        <time>2020-02-14T08:52:29Z</time>
      </trkpt>
      <trkpt lat="59.178764" lon="18.143134">
        <ele>35</ele>
        <time>2020-02-14T08:52:30Z</time>
      </trkpt>
      <trkpt lat="59.178708" lon="18.143098">
        <ele>35</ele>
        <time>2020-02-14T08:52:31Z</time>
      </trkpt>
      <trkpt lat="59.178653" lon="18.143061">
        <ele>35</ele>
        <time>2020-02-14T08:52:33Z</time>
      </trkpt>
      <trkpt lat="59.178601" lon="18.143024">
        <ele>35</ele>
        <time>2020-02-14T08:52:33Z</time>
      </trkpt>
      <trkpt lat="59.17855" lon="18.142986">
        <ele>35</ele>
        <time>2020-02-14T08:52:34Z</time>
      </trkpt>
      <trkpt lat="59.178498" lon="18.142949">
        <ele>35</ele>
        <time>2020-02-14T08:52:35Z</time>
      </trkpt>
      <trkpt lat="59.178449" lon="18.142912">
        <ele>35</ele>
        <time>2020-02-14T08:52:36Z</time>
      </trkpt>
      <trkpt lat="59.178399" lon="18.142877">
        <ele>35</ele>
        <time>2020-02-14T08:52:37Z</time>
      </trkpt>
      <trkpt lat="59.178351" lon="18.142844">
        <ele>35</ele>
        <time>2020-02-14T08:52:38Z</time>
      </trkpt>
      <trkpt lat="59.178301" lon="18.142809">
        <ele>35</ele>
        <time>2020-02-14T08:52:39Z</time>
      </trkpt>
      <trkpt lat="59.178248" lon="18.142774">
        <ele>35</ele>
        <time>2020-02-14T08:52:40Z</time>
      </trkpt>
      <trkpt lat="59.178198" lon="18.142741">
        <ele>35</ele>
        <time>2020-02-14T08:52:42Z</time>
      </trkpt>
      <trkpt lat="59.178151" lon="18.142709">
        <ele>35</ele>
        <time>2020-02-14T08:52:42Z</time>
      </trkpt>
      <trkpt lat="59.178104" lon="18.14268">
        <ele>35</ele>
        <time>2020-02-14T08:52:43Z</time>
      </trkpt>
      <trkpt lat="59.178057" lon="18.142659">
        <ele>35</ele>
        <time>2020-02-14T08:52:44Z</time>
      </trkpt>
      <trkpt lat="59.17801" lon="18.142647">
        <ele>35</ele>
        <time>2020-02-14T08:52:45Z</time>
      </trkpt>
      <trkpt lat="59.177962" lon="18.142647">
        <ele>35</ele>
        <time>2020-02-14T08:52:46Z</time>
      </trkpt>
      <trkpt lat="59.177913" lon="18.142658">
        <ele>35</ele>
        <time>2020-02-14T08:52:47Z</time>
      </trkpt>
      <trkpt lat="59.177862" lon="18.142673">
        <ele>35</ele>
        <time>2020-02-14T08:52:48Z</time>
      </trkpt>
      <trkpt lat="59.177808" lon="18.142691">
        <ele>35</ele>
        <time>2020-02-14T08:52:49Z</time>
      </trkpt>
      <trkpt lat="59.177751" lon="18.14271">
        <ele>35</ele>
        <time>2020-02-14T08:52:50Z</time>
      </trkpt>
      <trkpt lat="59.177691" lon="18.142729">
        <ele>35</ele>
        <time>2020-02-14T08:52:52Z</time>
      </trkpt>
      <trkpt lat="59.17763" lon="18.142746">
        <ele>35</ele>
        <time>2020-02-14T08:52:52Z</time>
      </trkpt>
      <trkpt lat="59.177572" lon="18.14276">
        <ele>35</ele>
        <time>2020-02-14T08:52:53Z</time>
      </trkpt>
      <trkpt lat="59.177516" lon="18.142769">
        <ele>35</ele>
        <time>2020-02-14T08:52:54Z</time>
      </trkpt>
      <trkpt lat="59.177463" lon="18.142776">
        <ele>35</ele>
        <time>2020-02-14T08:52:55Z</time>
      </trkpt>
      <trkpt lat="59.177413" lon="18.142779">
        <ele>35</ele>
        <time>2020-02-14T08:52:56Z</time>
      </trkpt>
      <trkpt lat="59.177365" lon="18.142783">
        <ele>36</ele>
        <time>2020-02-14T08:52:57Z</time>
      </trkpt>
      <trkpt lat="59.17732" lon="18.142786">
        <ele>36</ele>
        <time>2020-02-14T08:52:58Z</time>
      </trkpt>
      <trkpt lat="59.177277" lon="18.142789">
        <ele>36</ele>
        <time>2020-02-14T08:52:59Z</time>
      </trkpt>
      <trkpt lat="59.177236" lon="18.142792">
        <ele>36</ele>
        <time>2020-02-14T08:53:00Z</time>
      </trkpt>
      <trkpt lat="59.177197" lon="18.142792">
        <ele>36</ele>
        <time>2020-02-14T08:53:02Z</time>
      </trkpt>
      <trkpt lat="59.17716" lon="18.142791">
        <ele>36</ele>
        <time>2020-02-14T08:53:02Z</time>
      </trkpt>
      <trkpt lat="59.177127" lon="18.142791">
        <ele>37</ele>
        <time>2020-02-14T08:53:03Z</time>
      </trkpt>
      <trkpt lat="59.177091" lon="18.14279">
        <ele>37</ele>
        <time>2020-02-14T08:53:04Z</time>
      </trkpt>
      <trkpt lat="59.177055" lon="18.142786">
        <ele>37</ele>
        <time>2020-02-14T08:53:05Z</time>
      </trkpt>
      <trkpt lat="59.177018" lon="18.142782">
        <ele>37</ele>
        <time>2020-02-14T08:53:06Z</time>
      </trkpt>
      <trkpt lat="59.176979" lon="18.142775">
        <ele>37</ele>
        <time>2020-02-14T08:53:07Z</time>
      </trkpt>
      <trkpt lat="59.17694" lon="18.142765">
        <ele>37</ele>
        <time>2020-02-14T08:53:08Z</time>
      </trkpt>
      <trkpt lat="59.176898" lon="18.142754">
        <ele>37</ele>
        <time>2020-02-14T08:53:09Z</time>
      </trkpt>
      <trkpt lat="59.176859" lon="18.142745">
        <ele>37</ele>
        <time>2020-02-14T08:53:10Z</time>
      </trkpt>
      <trkpt lat="59.17682" lon="18.142734">
        <ele>37</ele>
        <time>2020-02-14T08:53:11Z</time>
      </trkpt>
      <trkpt lat="59.176783" lon="18.142722">
        <ele>37</ele>
        <time>2020-02-14T08:53:12Z</time>
      </trkpt>
      <trkpt lat="59.176744" lon="18.142706">
        <ele>37</ele>
        <time>2020-02-14T08:53:13Z</time>
      </trkpt>
      <trkpt lat="59.176706" lon="18.142689">
        <ele>37</ele>
        <time>2020-02-14T08:53:14Z</time>
      </trkpt>
      <trkpt lat="59.176669" lon="18.142673">
        <ele>37</ele>
        <time>2020-02-14T08:53:15Z</time>
      </trkpt>
      <trkpt lat="59.17663" lon="18.142657">
        <ele>38</ele>
        <time>2020-02-14T08:53:16Z</time>
      </trkpt>
      <trkpt lat="59.176591" lon="18.142639">
        <ele>38</ele>
        <time>2020-02-14T08:53:17Z</time>
      </trkpt>
      <trkpt lat="59.176552" lon="18.142619">
        <ele>38</ele>
        <time>2020-02-14T08:53:18Z</time>
      </trkpt>
      <trkpt lat="59.176513" lon="18.142599">
        <ele>38</ele>
        <time>2020-02-14T08:53:19Z</time>
      </trkpt>
      <trkpt lat="59.176474" lon="18.142578">
        <ele>38</ele>
        <time>2020-02-14T08:53:20Z</time>
      </trkpt>
      <trkpt lat="59.176437" lon="18.142554">
        <ele>38</ele>
        <time>2020-02-14T08:53:21Z</time>
      </trkpt>
      <trkpt lat="59.176399" lon="18.142531">
        <ele>39</ele>
        <time>2020-02-14T08:53:22Z</time>
      </trkpt>
      <trkpt lat="59.176361" lon="18.142505">
        <ele>39</ele>
        <time>2020-02-14T08:53:23Z</time>
      </trkpt>
      <trkpt lat="59.176324" lon="18.14248">
        <ele>39</ele>
        <time>2020-02-14T08:53:24Z</time>
      </trkpt>
      <trkpt lat="59.176286" lon="18.142452">
        <ele>39</ele>
        <time>2020-02-14T08:53:25Z</time>
      </trkpt>
      <trkpt lat="59.176249" lon="18.14242">
        <ele>39</ele>
        <time>2020-02-14T08:53:26Z</time>
      </trkpt>
      <trkpt lat="59.176217" lon="18.142382">
        <ele>39</ele>
        <time>2020-02-14T08:53:28Z</time>
      </trkpt>
      <trkpt lat="59.176189" lon="18.142337">
        <ele>39</ele>
        <time>2020-02-14T08:53:28Z</time>
      </trkpt>
      <trkpt lat="59.176166" lon="18.142285">
        <ele>39</ele>
        <time>2020-02-14T08:53:29Z</time>
      </trkpt>
      <trkpt lat="59.176144" lon="18.142227">
        <ele>39</ele>
        <time>2020-02-14T08:53:30Z</time>
      </trkpt>
      <trkpt lat="59.17613" lon="18.142161">
        <ele>39</ele>
        <time>2020-02-14T08:53:31Z</time>
      </trkpt>
      <trkpt lat="59.17612" lon="18.142088">
        <ele>39</ele>
        <time>2020-02-14T08:53:32Z</time>
      </trkpt>
      <trkpt lat="59.176111" lon="18.14201">
        <ele>39</ele>
        <time>2020-02-14T08:53:33Z</time>
      </trkpt>
      <trkpt lat="59.176104" lon="18.141927">
        <ele>39</ele>
        <time>2020-02-14T08:53:34Z</time>
      </trkpt>
      <trkpt lat="59.176096" lon="18.141847">
        <ele>39</ele>
        <time>2020-02-14T08:53:35Z</time>
      </trkpt>
      <trkpt lat="59.176082" lon="18.141767">
        <ele>39</ele>
        <time>2020-02-14T08:53:36Z</time>
      </trkpt>
      <trkpt lat="59.176067" lon="18.141687">
        <ele>39</ele>
        <time>2020-02-14T08:53:37Z</time>
      </trkpt>
      <trkpt lat="59.176058" lon="18.141606">
        <ele>39</ele>
        <time>2020-02-14T08:53:38Z</time>
      </trkpt>
      <trkpt lat="59.176052" lon="18.141524">
        <ele>39</ele>
        <time>2020-02-14T08:53:39Z</time>
      </trkpt>
      <trkpt lat="59.176041" lon="18.141445">
        <ele>40</ele>
        <time>2020-02-14T08:53:40Z</time>
      </trkpt>
      <trkpt lat="59.176021" lon="18.141375">
        <ele>40</ele>
        <time>2020-02-14T08:53:41Z</time>
      </trkpt>
      <trkpt lat="59.175997" lon="18.141315">
        <ele>40</ele>
        <time>2020-02-14T08:53:42Z</time>
      </trkpt>
      <trkpt lat="59.175966" lon="18.141269">
        <ele>40</ele>
        <time>2020-02-14T08:53:43Z</time>
      </trkpt>
      <trkpt lat="59.175928" lon="18.141242">
        <ele>40</ele>
        <time>2020-02-14T08:53:44Z</time>
      </trkpt>
      <trkpt lat="59.175887" lon="18.141225">
        <ele>40</ele>
        <time>2020-02-14T08:53:45Z</time>
      </trkpt>
      <trkpt lat="59.175845" lon="18.14121">
        <ele>40</ele>
        <time>2020-02-14T08:53:46Z</time>
      </trkpt>
      <trkpt lat="59.175804" lon="18.141196">
        <ele>40</ele>
        <time>2020-02-14T08:53:47Z</time>
      </trkpt>
      <trkpt lat="59.175762" lon="18.141184">
        <ele>40</ele>
        <time>2020-02-14T08:53:48Z</time>
      </trkpt>
      <trkpt lat="59.175722" lon="18.14118">
        <ele>40</ele>
        <time>2020-02-14T08:53:49Z</time>
      </trkpt>
      <trkpt lat="59.175686" lon="18.141187">
        <ele>40</ele>
        <time>2020-02-14T08:53:50Z</time>
      </trkpt>
      <trkpt lat="59.175651" lon="18.141206">
        <ele>40</ele>
        <time>2020-02-14T08:53:51Z</time>
      </trkpt>
      <trkpt lat="59.175616" lon="18.141237">
        <ele>40</ele>
        <time>2020-02-14T08:53:52Z</time>
      </trkpt>
      <trkpt lat="59.175583" lon="18.141282">
        <ele>40</ele>
        <time>2020-02-14T08:53:53Z</time>
      </trkpt>
      <trkpt lat="59.175554" lon="18.141339">
        <ele>40</ele>
        <time>2020-02-14T08:53:54Z</time>
      </trkpt>
      <trkpt lat="59.175529" lon="18.141401">
        <ele>40</ele>
        <time>2020-02-14T08:53:55Z</time>
      </trkpt>
      <trkpt lat="59.175505" lon="18.141464">
        <ele>41</ele>
        <time>2020-02-14T08:53:56Z</time>
      </trkpt>
      <trkpt lat="59.175479" lon="18.141532">
        <ele>41</ele>
        <time>2020-02-14T08:53:57Z</time>
      </trkpt>
      <trkpt lat="59.175452" lon="18.1416">
        <ele>41</ele>
        <time>2020-02-14T08:53:58Z</time>
      </trkpt>
      <trkpt lat="59.175425" lon="18.141663">
        <ele>41</ele>
        <time>2020-02-14T08:53:59Z</time>
      </trkpt>
      <trkpt lat="59.175397" lon="18.141714">
        <ele>41</ele>
        <time>2020-02-14T08:54:00Z</time>
      </trkpt>
      <trkpt lat="59.175367" lon="18.141756">
        <ele>41</ele>
        <time>2020-02-14T08:54:01Z</time>
      </trkpt>
      <trkpt lat="59.175336" lon="18.141787">
        <ele>41</ele>
        <time>2020-02-14T08:54:02Z</time>
      </trkpt>
      <trkpt lat="59.175303" lon="18.141808">
        <ele>41</ele>
        <time>2020-02-14T08:54:03Z</time>
      </trkpt>
      <trkpt lat="59.175267" lon="18.141821">
        <ele>42</ele>
        <time>2020-02-14T08:54:04Z</time>
      </trkpt>
      <trkpt lat="59.175231" lon="18.141832">
        <ele>42</ele>
        <time>2020-02-14T08:54:06Z</time>
      </trkpt>
      <trkpt lat="59.175194" lon="18.141845">
        <ele>42</ele>
        <time>2020-02-14T08:54:06Z</time>
      </trkpt>
      <trkpt lat="59.175158" lon="18.141857">
        <ele>42</ele>
        <time>2020-02-14T08:54:07Z</time>
      </trkpt>
      <trkpt lat="59.175121" lon="18.141868">
        <ele>42</ele>
        <time>2020-02-14T08:54:08Z</time>
      </trkpt>
      <trkpt lat="59.175082" lon="18.141875">
        <ele>42</ele>
        <time>2020-02-14T08:54:09Z</time>
      </trkpt>
      <trkpt lat="59.175043" lon="18.141881">
        <ele>42</ele>
        <time>2020-02-14T08:54:10Z</time>
      </trkpt>
      <trkpt lat="59.175003" lon="18.14189">
        <ele>42</ele>
        <time>2020-02-14T08:54:11Z</time>
      </trkpt>
      <trkpt lat="59.174964" lon="18.141905">
        <ele>43</ele>
        <time>2020-02-14T08:54:12Z</time>
      </trkpt>
      <trkpt lat="59.174926" lon="18.141928">
        <ele>43</ele>
        <time>2020-02-14T08:54:13Z</time>
      </trkpt>
      <trkpt lat="59.17489" lon="18.14196">
        <ele>43</ele>
        <time>2020-02-14T08:54:14Z</time>
      </trkpt>
      <trkpt lat="59.174855" lon="18.141997">
        <ele>43</ele>
        <time>2020-02-14T08:54:15Z</time>
      </trkpt>
      <trkpt lat="59.17482" lon="18.142038">
        <ele>43</ele>
        <time>2020-02-14T08:54:16Z</time>
      </trkpt>
      <trkpt lat="59.174784" lon="18.142083">
        <ele>43</ele>
        <time>2020-02-14T08:54:18Z</time>
      </trkpt>
      <trkpt lat="59.174753" lon="18.142143">
        <ele>43</ele>
        <time>2020-02-14T08:54:18Z</time>
      </trkpt>
      <trkpt lat="59.174724" lon="18.142208">
        <ele>43</ele>
        <time>2020-02-14T08:54:19Z</time>
      </trkpt>
      <trkpt lat="59.174692" lon="18.142267">
        <ele>43</ele>
        <time>2020-02-14T08:54:20Z</time>
      </trkpt>
      <trkpt lat="59.174655" lon="18.142311">
        <ele>43</ele>
        <time>2020-02-14T08:54:21Z</time>
      </trkpt>
      <trkpt lat="59.174615" lon="18.142334">
        <ele>43</ele>
        <time>2020-02-14T08:54:22Z</time>
      </trkpt>
      <trkpt lat="59.174573" lon="18.142334">
        <ele>43</ele>
        <time>2020-02-14T08:54:23Z</time>
      </trkpt>
      <trkpt lat="59.174532" lon="18.142328">
        <ele>43</ele>
        <time>2020-02-14T08:54:24Z</time>
      </trkpt>
      <trkpt lat="59.174493" lon="18.142329">
        <ele>43</ele>
        <time>2020-02-14T08:54:25Z</time>
      </trkpt>
      <trkpt lat="59.174456" lon="18.142327">
        <ele>43</ele>
        <time>2020-02-14T08:54:26Z</time>
      </trkpt>
      <trkpt lat="59.17442" lon="18.142325">
        <ele>44</ele>
        <time>2020-02-14T08:54:27Z</time>
      </trkpt>
      <trkpt lat="59.174384" lon="18.142324">
        <ele>44</ele>
        <time>2020-02-14T08:54:28Z</time>
      </trkpt>
      <trkpt lat="59.174348" lon="18.14232">
        <ele>44</ele>
        <time>2020-02-14T08:54:29Z</time>
      </trkpt>
      <trkpt lat="59.174314" lon="18.142318">
        <ele>44</ele>
        <time>2020-02-14T08:54:30Z</time>
      </trkpt>
      <trkpt lat="59.17428" lon="18.142318">
        <ele>44</ele>
        <time>2020-02-14T08:54:31Z</time>
      </trkpt>
      <trkpt lat="59.174248" lon="18.142323">
        <ele>44</ele>
        <time>2020-02-14T08:54:32Z</time>
      </trkpt>
      <trkpt lat="59.174219" lon="18.142339">
        <ele>44</ele>
        <time>2020-02-14T08:54:33Z</time>
      </trkpt>
      <trkpt lat="59.174192" lon="18.14236">
        <ele>44</ele>
        <time>2020-02-14T08:54:34Z</time>
      </trkpt>
      <trkpt lat="59.174169" lon="18.142386">
        <ele>45</ele>
        <time>2020-02-14T08:54:35Z</time>
      </trkpt>
      <trkpt lat="59.174145" lon="18.142417">
        <ele>45</ele>
        <time>2020-02-14T08:54:36Z</time>
      </trkpt>
      <trkpt lat="59.174118" lon="18.142446">
        <ele>45</ele>
        <time>2020-02-14T08:54:37Z</time>
      </trkpt>
      <trkpt lat="59.17409" lon="18.142472">
        <ele>45</ele>
        <time>2020-02-14T08:54:38Z</time>
      </trkpt>
      <trkpt lat="59.174063" lon="18.142498">
        <ele>46</ele>
        <time>2020-02-14T08:54:39Z</time>
      </trkpt>
      <trkpt lat="59.174039" lon="18.142526">
        <ele>46</ele>
        <time>2020-02-14T08:54:40Z</time>
      </trkpt>
      <trkpt lat="59.174021" lon="18.14256">
        <ele>46</ele>
        <time>2020-02-14T08:54:41Z</time>
      </trkpt>
      <trkpt lat="59.174011" lon="18.142601">
        <ele>47</ele>
        <time>2020-02-14T08:54:42Z</time>
      </trkpt>
      <trkpt lat="59.174005" lon="18.142653">
        <ele>47</ele>
        <time>2020-02-14T08:54:43Z</time>
      </trkpt>
      <trkpt lat="59.174" lon="18.142706">
        <ele>47</ele>
        <time>2020-02-14T08:54:44Z</time>
      </trkpt>
      <trkpt lat="59.173986" lon="18.14277">
        <ele>47</ele>
        <time>2020-02-14T08:54:45Z</time>
      </trkpt>
      <trkpt lat="59.173966" lon="18.142827">
        <ele>47</ele>
        <time>2020-02-14T08:54:46Z</time>
      </trkpt>
      <trkpt lat="59.173945" lon="18.142877">
        <ele>48</ele>
        <time>2020-02-14T08:54:48Z</time>
      </trkpt>
      <trkpt lat="59.173927" lon="18.14292">
        <ele>48</ele>
        <time>2020-02-14T08:54:48Z</time>
      </trkpt>
      <trkpt lat="59.173911" lon="18.14298">
        <ele>48</ele>
        <time>2020-02-14T08:54:49Z</time>
      </trkpt>
      <trkpt lat="59.173897" lon="18.143044">
        <ele>48</ele>
        <time>2020-02-14T08:54:50Z</time>
      </trkpt>
      <trkpt lat="59.173884" lon="18.14311">
        <ele>48</ele>
        <time>2020-02-14T08:54:51Z</time>
      </trkpt>
      <trkpt lat="59.173871" lon="18.143179">
        <ele>48</ele>
        <time>2020-02-14T08:54:52Z</time>
      </trkpt>
      <trkpt lat="59.173862" lon="18.14325">
        <ele>48</ele>
        <time>2020-02-14T08:54:53Z</time>
      </trkpt>
      <trkpt lat="59.173857" lon="18.143324">
        <ele>48</ele>
        <time>2020-02-14T08:54:54Z</time>
      </trkpt>
      <trkpt lat="59.173846" lon="18.143395">
        <ele>49</ele>
        <time>2020-02-14T08:54:55Z</time>
      </trkpt>
      <trkpt lat="59.173823" lon="18.143453">
        <ele>49</ele>
        <time>2020-02-14T08:54:56Z</time>
      </trkpt>
      <trkpt lat="59.173799" lon="18.143478">
        <ele>49</ele>
        <time>2020-02-14T08:54:57Z</time>
      </trkpt>
      <trkpt lat="59.173774" lon="18.143476">
        <ele>49</ele>
        <time>2020-02-14T08:54:58Z</time>
      </trkpt>
      <trkpt lat="59.173739" lon="18.143473">
        <ele>49</ele>
        <time>2020-02-14T08:54:59Z</time>
      </trkpt>
      <trkpt lat="59.173696" lon="18.143471">
        <ele>49</ele>
        <time>2020-02-14T08:55:00Z</time>
      </trkpt>
      <trkpt lat="59.173658" lon="18.143468">
        <ele>49</ele>
        <time>2020-02-14T08:55:02Z</time>
      </trkpt>
      <trkpt lat="59.173621" lon="18.143461">
        <ele>49</ele>
        <time>2020-02-14T08:55:02Z</time>
      </trkpt>
      <trkpt lat="59.173586" lon="18.14345">
        <ele>49</ele>
        <time>2020-02-14T08:55:03Z</time>
      </trkpt>
      <trkpt lat="59.173552" lon="18.143435">
        <ele>50</ele>
        <time>2020-02-14T08:55:04Z</time>
      </trkpt>
      <trkpt lat="59.173495" lon="18.143418">
        <ele>0</ele>
        <time>2020-02-14T08:55:06Z</time>
      </trkpt>
    </trkseg>
  </trk>
</gpx>